Wetterdaten: Sonntag, 03.09.2017
Datum Zeit Temp. A. Temp. A. max Feuchte A. Luftdruck Regen Wind Richtung Richtung Sonnenschein ET UV Solar Taupunkt Windchill Windböen
03.09.2017 00:00 8,0 °C 8,0 °C 95 % 1017,1 hPa 0,0 mm 0,0 km/h (0 Bft) NW 313 ° 0 min 0,000 mm 0,0 UV-I 0 W/m² 7,2 °C 8,0 °C 0,0 km/h (0 Bft)
03.09.2017 00:01 8,0 °C 8,0 °C 95 % 1017,0 hPa 0,0 mm 0,0 km/h (0 Bft) NW 313 ° 0 min 0,000 mm 0,0 UV-I 0 W/m² 7,2 °C 8,0 °C 0,0 km/h (0 Bft)
03.09.2017 00:02 8,0 °C 8,0 °C 95 % 1017,1 hPa 0,2 mm 0,0 km/h (0 Bft) NW 313 ° 0 min 0,000 mm 0,0 UV-I 0 W/m² 7,2 °C 8,0 °C 0,0 km/h (0 Bft)
03.09.2017 00:04 7,9 °C 8,1 °C 95 % 1017,1 hPa 0,0 mm 0,0 km/h (0 Bft) NW 313 ° 0 min 0,000 mm 0,0 UV-I 0 W/m² 7,1 °C 7,9 °C 0,0 km/h (0 Bft)
03.09.2017 00:05 7,9 °C 8,0 °C 95 % 1017,1 hPa 0,0 mm 0,0 km/h (0 Bft) NW 313 ° 0 min 0,000 mm 0,0 UV-I 0 W/m² 7,1 °C 7,9 °C 0,0 km/h (0 Bft)
03.09.2017 00:06 8,0 °C 8,0 °C 95 % 1017,0 hPa 0,0 mm 0,0 km/h (0 Bft) NW 313 ° 0 min 0,000 mm 0,0 UV-I 0 W/m² 7,2 °C 8,0 °C 0,0 km/h (0 Bft)
03.09.2017 00:07 7,9 °C 8,0 °C 95 % 1017,0 hPa 0,0 mm 0,9 km/h (0 Bft) W-SW 240 ° 0 min 0,000 mm 0,0 UV-I 0 W/m² 7,1 °C 7,9 °C 3,2 km/h (1 Bft)
03.09.2017 00:08 8,0 °C 8,0 °C 95 % 1017,1 hPa 0,0 mm 0,9 km/h (0 Bft) W-SW 240 ° 0 min 0,000 mm 0,0 UV-I 0 W/m² 7,2 °C 8,0 °C 1,6 km/h (1 Bft)
03.09.2017 00:09 7,9 °C 8,0 °C 95 % 1017,1 hPa 0,0 mm 1,4 km/h (1 Bft) W-SW 240 ° 0 min 0,000 mm 0,0 UV-I 0 W/m² 7,1 °C 7,9 °C 3,2 km/h (1 Bft)
03.09.2017 00:10 8,0 °C 8,0 °C 95 % 1017,1 hPa 0,2 mm 0,0 km/h (0 Bft) W-SW 240 ° 0 min 0,000 mm 0,0 UV-I 0 W/m² 7,2 °C 8,0 °C 0,0 km/h (0 Bft)
03.09.2017 00:11 8,0 °C 8,0 °C 95 % 1017,1 hPa 0,0 mm 0,0 km/h (0 Bft) W-SW 240 ° 0 min 0,000 mm 0,0 UV-I 0 W/m² 7,2 °C 8,0 °C 0,0 km/h (0 Bft)
03.09.2017 00:12 8,0 °C 8,0 °C 95 % 1017,0 hPa 0,0 mm 0,0 km/h (0 Bft) W-SW 240 ° 0 min 0,000 mm 0,0 UV-I 0 W/m² 7,2 °C 8,0 °C 0,0 km/h (0 Bft)
03.09.2017 00:13 8,0 °C 8,0 °C 95 % 1017,0 hPa 0,0 mm 0,9 km/h (0 Bft) W-SW 240 ° 0 min 0,000 mm 0,0 UV-I 0 W/m² 7,2 °C 8,0 °C 3,2 km/h (1 Bft)
03.09.2017 00:14 7,9 °C 8,0 °C 95 % 1017,0 hPa 0,0 mm 1,1 km/h (1 Bft) W-SW 240 ° 0 min 0,000 mm 0,0 UV-I 0 W/m² 7,1 °C 7,9 °C 3,2 km/h (1 Bft)
03.09.2017 00:15 8,0 °C 8,0 °C 95 % 1017,0 hPa 0,0 mm 0,7 km/h (0 Bft) W-SW 237 ° 0 min 0,000 mm 0,0 UV-I 0 W/m² 7,2 °C 8,0 °C 1,6 km/h (1 Bft)
03.09.2017 00:16 7,9 °C 8,0 °C 95 % 1017,0 hPa 0,0 mm 1,9 km/h (1 Bft) W-SW 237 ° 0 min 0,000 mm 0,0 UV-I 0 W/m² 7,1 °C 7,9 °C 3,2 km/h (1 Bft)
03.09.2017 00:17 7,9 °C 8,0 °C 95 % 1017,0 hPa 0,0 mm 3,1 km/h (1 Bft) S-SW 212 ° 0 min 0,000 mm 0,0 UV-I 0 W/m² 7,1 °C 7,9 °C 4,8 km/h (1 Bft)
03.09.2017 00:18 8,0 °C 8,0 °C 95 % 1017,0 hPa 0,0 mm 3,7 km/h (1 Bft) S-SW 200 ° 0 min 0,000 mm 0,0 UV-I 0 W/m² 7,2 °C 8,0 °C 6,4 km/h (2 Bft)
03.09.2017 00:19 7,9 °C 8,0 °C 95 % 1017,0 hPa 0,0 mm 3,5 km/h (1 Bft) S-SW 203 ° 0 min 0,000 mm 0,0 UV-I 0 W/m² 7,1 °C 7,9 °C 6,4 km/h (2 Bft)
03.09.2017 00:20 8,0 °C 8,0 °C 95 % 1017,1 hPa 0,0 mm 5,6 km/h (1 Bft) S 184 ° 0 min 0,000 mm 0,0 UV-I 0 W/m² 7,2 °C 7,3 °C 8,0 km/h (2 Bft)
03.09.2017 00:21 8,0 °C 8,0 °C 95 % 1017,1 hPa 0,0 mm 5,0 km/h (1 Bft) S 188 ° 0 min 0,000 mm 0,0 UV-I 0 W/m² 7,2 °C 7,5 °C 6,4 km/h (2 Bft)
03.09.2017 00:22 8,0 °C 8,0 °C 95 % 1017,1 hPa 0,2 mm 3,3 km/h (1 Bft) S 182 ° 0 min 0,000 mm 0,0 UV-I 0 W/m² 7,2 °C 8,0 °C 6,4 km/h (2 Bft)
03.09.2017 00:23 8,0 °C 8,0 °C 95 % 1017,1 hPa 0,0 mm 3,3 km/h (1 Bft) S 182 ° 0 min 0,000 mm 0,0 UV-I 0 W/m² 7,2 °C 8,0 °C 4,8 km/h (1 Bft)
03.09.2017 00:24 8,0 °C 8,0 °C 95 % 1017,1 hPa 0,0 mm 3,8 km/h (1 Bft) S 182 ° 0 min 0,000 mm 0,0 UV-I 0 W/m² 7,2 °C 8,0 °C 4,8 km/h (1 Bft)
03.09.2017 00:25 8,0 °C 8,0 °C 95 % 1017,1 hPa 0,0 mm 3,7 km/h (1 Bft) S 187 ° 0 min 0,000 mm 0,0 UV-I 0 W/m² 7,2 °C 8,0 °C 4,8 km/h (1 Bft)
03.09.2017 00:26 8,0 °C 8,0 °C 95 % 1017,0 hPa 0,0 mm 4,0 km/h (1 Bft) S 186 ° 0 min 0,000 mm 0,0 UV-I 0 W/m² 7,2 °C 8,0 °C 4,8 km/h (1 Bft)
03.09.2017 00:27 8,0 °C 8,0 °C 95 % 1017,0 hPa 0,0 mm 4,7 km/h (1 Bft) S 179 ° 0 min 0,000 mm 0,0 UV-I 0 W/m² 7,2 °C 7,6 °C 6,4 km/h (2 Bft)
03.09.2017 00:28 8,0 °C 8,0 °C 95 % 1017,1 hPa 0,0 mm 5,2 km/h (1 Bft) S 179 ° 0 min 0,000 mm 0,0 UV-I 0 W/m² 7,2 °C 7,4 °C 9,7 km/h (2 Bft)
03.09.2017 00:29 8,0 °C 8,0 °C 95 % 1017,1 hPa 0,0 mm 5,7 km/h (1 Bft) S-SW 208 ° 0 min 0,000 mm 0,0 UV-I 0 W/m² 7,2 °C 7,3 °C 8,0 km/h (2 Bft)
03.09.2017 00:30 8,0 °C 8,0 °C 95 % 1017,1 hPa 0,0 mm 2,5 km/h (1 Bft) S-SW 195 ° 0 min 0,000 mm 0,0 UV-I 0 W/m² 7,2 °C 8,0 °C 4,8 km/h (1 Bft)
03.09.2017 00:31 8,0 °C 8,0 °C 95 % 1017,0 hPa 0,0 mm 2,1 km/h (1 Bft) S 188 ° 0 min 0,000 mm 0,0 UV-I 0 W/m² 7,2 °C 8,0 °C 4,8 km/h (1 Bft)
03.09.2017 00:32 8,0 °C 8,0 °C 95 % 1017,0 hPa 0,0 mm 3,7 km/h (1 Bft) S 189 ° 0 min 0,000 mm 0,0 UV-I 0 W/m² 7,2 °C 8,0 °C 4,8 km/h (1 Bft)
03.09.2017 00:33 8,0 °C 8,0 °C 95 % 1017,1 hPa 0,0 mm 3,0 km/h (1 Bft) S 182 ° 0 min 0,000 mm 0,0 UV-I 0 W/m² 7,2 °C 8,0 °C 4,8 km/h (1 Bft)
03.09.2017 00:34 8,0 °C 8,0 °C 95 % 1017,0 hPa 0,0 mm 0,9 km/h (0 Bft) S 182 ° 0 min 0,000 mm 0,0 UV-I 0 W/m² 7,2 °C 8,0 °C 3,2 km/h (1 Bft)
03.09.2017 00:35 8,0 °C 8,0 °C 95 % 1017,0 hPa 0,0 mm 0,9 km/h (0 Bft) S 182 ° 0 min 0,000 mm 0,0 UV-I 0 W/m² 7,2 °C 8,0 °C 1,6 km/h (1 Bft)
03.09.2017 00:36 8,0 °C 8,1 °C 95 % 1017,1 hPa 0,0 mm 0,1 km/h (0 Bft) S 182 ° 0 min 0,000 mm 0,0 UV-I 0 W/m² 7,2 °C 8,0 °C 1,6 km/h (1 Bft)
03.09.2017 00:37 8,0 °C 8,0 °C 95 % 1017,0 hPa 0,0 mm 0,1 km/h (0 Bft) S 182 ° 0 min 0,000 mm 0,0 UV-I 0 W/m² 7,2 °C 8,0 °C 1,6 km/h (1 Bft)
03.09.2017 00:38 8,1 °C 8,1 °C 95 % 1017,0 hPa 0,0 mm 2,7 km/h (1 Bft) SW 224 ° 0 min 0,000 mm 0,0 UV-I 0 W/m² 7,3 °C 8,1 °C 4,8 km/h (1 Bft)
03.09.2017 00:39 8,1 °C 8,1 °C 95 % 1017,1 hPa 0,2 mm 2,7 km/h (1 Bft) SW 218 ° 0 min 0,000 mm 0,0 UV-I 0 W/m² 7,3 °C 8,1 °C 3,2 km/h (1 Bft)
03.09.2017 00:40 8,0 °C 8,1 °C 95 % 1017,1 hPa 0,0 mm 1,0 km/h (0 Bft) SW 219 ° 0 min 0,000 mm 0,0 UV-I 0 W/m² 7,2 °C 8,0 °C 3,2 km/h (1 Bft)
03.09.2017 00:41 8,0 °C 8,1 °C 95 % 1017,1 hPa 0,0 mm 0,1 km/h (0 Bft) SW 219 ° 0 min 0,000 mm 0,0 UV-I 0 W/m² 7,2 °C 8,0 °C 1,6 km/h (1 Bft)
03.09.2017 00:42 8,0 °C 8,0 °C 95 % 1017,1 hPa 0,0 mm 0,0 km/h (0 Bft) SW 219 ° 0 min 0,000 mm 0,0 UV-I 0 W/m² 7,2 °C 8,0 °C 0,0 km/h (0 Bft)
03.09.2017 00:43 8,1 °C 8,1 °C 95 % 1017,1 hPa 0,0 mm 1,0 km/h (0 Bft) W 271 ° 0 min 0,000 mm 0,0 UV-I 0 W/m² 7,3 °C 8,1 °C 4,8 km/h (1 Bft)
03.09.2017 00:44 8,1 °C 8,1 °C 95 % 1017,0 hPa 0,0 mm 2,4 km/h (1 Bft) SW 227 ° 0 min 0,000 mm 0,0 UV-I 0 W/m² 7,3 °C 8,1 °C 4,8 km/h (1 Bft)
03.09.2017 00:45 8,1 °C 8,1 °C 95 % 1017,0 hPa 0,0 mm 0,7 km/h (0 Bft) SW 227 ° 0 min 0,000 mm 0,0 UV-I 0 W/m² 7,3 °C 8,1 °C 1,6 km/h (1 Bft)
03.09.2017 00:46 8,0 °C 8,1 °C 95 % 1017,0 hPa 0,0 mm 2,0 km/h (1 Bft) SW 229 ° 0 min 0,000 mm 0,0 UV-I 0 W/m² 7,2 °C 8,0 °C 3,2 km/h (1 Bft)
03.09.2017 00:47 8,0 °C 8,0 °C 95 % 1017,0 hPa 0,0 mm 0,3 km/h (0 Bft) SW 229 ° 0 min 0,000 mm 0,0 UV-I 0 W/m² 7,2 °C 8,0 °C 1,6 km/h (1 Bft)
03.09.2017 00:48 8,0 °C 8,0 °C 95 % 1017,0 hPa 0,0 mm 0,2 km/h (0 Bft) SW 229 ° 0 min 0,000 mm 0,0 UV-I 0 W/m² 7,2 °C 8,0 °C 1,6 km/h (1 Bft)
03.09.2017 00:49 8,0 °C 8,0 °C 95 % 1017,0 hPa 0,0 mm 0,0 km/h (0 Bft) SW 229 ° 0 min 0,000 mm 0,0 UV-I 0 W/m² 7,2 °C 8,0 °C 0,0 km/h (0 Bft)
03.09.2017 00:50 8,0 °C 8,0 °C 95 % 1017,0 hPa 0,0 mm 1,0 km/h (0 Bft) SW 230 ° 0 min 0,000 mm 0,0 UV-I 0 W/m² 7,2 °C 8,0 °C 3,2 km/h (1 Bft)
03.09.2017 00:51 8,0 °C 8,0 °C 95 % 1017,0 hPa 0,2 mm 3,4 km/h (1 Bft) W 260 ° 0 min 0,000 mm 0,0 UV-I 0 W/m² 7,2 °C 8,0 °C 4,8 km/h (1 Bft)
03.09.2017 00:52 8,0 °C 8,1 °C 95 % 1017,0 hPa 0,0 mm 2,7 km/h (1 Bft) W 260 ° 0 min 0,000 mm 0,0 UV-I 0 W/m² 7,2 °C 8,0 °C 4,8 km/h (1 Bft)
03.09.2017 00:53 8,0 °C 8,0 °C 95 % 1017,0 hPa 0,0 mm 1,3 km/h (1 Bft) W-NW 298 ° 0 min 0,000 mm 0,0 UV-I 0 W/m² 7,2 °C 8,0 °C 4,8 km/h (1 Bft)
03.09.2017 00:54 8,1 °C 8,1 °C 95 % 1017,0 hPa 0,0 mm 1,6 km/h (1 Bft) W-NW 298 ° 0 min 0,000 mm 0,0 UV-I 0 W/m² 7,3 °C 8,1 °C 3,2 km/h (1 Bft)
03.09.2017 00:55 8,1 °C 8,1 °C 95 % 1017,0 hPa 0,0 mm 3,0 km/h (1 Bft) W 261 ° 0 min 0,000 mm 0,0 UV-I 0 W/m² 7,3 °C 8,1 °C 4,8 km/h (1 Bft)
03.09.2017 00:56 8,1 °C 8,1 °C 95 % 1016,9 hPa 0,0 mm 3,8 km/h (1 Bft) W-SW 246 ° 0 min 0,000 mm 0,0 UV-I 0 W/m² 7,3 °C 8,1 °C 6,4 km/h (2 Bft)
03.09.2017 00:57 8,1 °C 8,1 °C 95 % 1016,9 hPa 0,0 mm 2,7 km/h (1 Bft) W 259 ° 0 min 0,000 mm 0,0 UV-I 0 W/m² 7,3 °C 8,1 °C 4,8 km/h (1 Bft)
03.09.2017 00:58 8,1 °C 8,1 °C 95 % 1016,9 hPa 0,0 mm 0,4 km/h (0 Bft) W 259 ° 0 min 0,000 mm 0,0 UV-I 0 W/m² 7,3 °C 8,1 °C 3,2 km/h (1 Bft)
03.09.2017 00:59 8,0 °C 8,1 °C 95 % 1016,9 hPa 0,0 mm 0,0 km/h (0 Bft) W 259 ° 0 min 0,000 mm 0,0 UV-I 0 W/m² 7,2 °C 8,0 °C 0,0 km/h (0 Bft)
03.09.2017 01:00 8,0 °C 8,0 °C 95 % 1016,9 hPa 0,0 mm 0,1 km/h (0 Bft) W 259 ° 0 min 0,000 mm 0,0 UV-I 0 W/m² 7,2 °C 8,0 °C 1,6 km/h (1 Bft)
03.09.2017 01:01 8,0 °C 8,0 °C 95 % 1016,9 hPa 0,0 mm 1,0 km/h (0 Bft) W 259 ° 0 min 0,000 mm 0,0 UV-I 0 W/m² 7,2 °C 8,0 °C 3,2 km/h (1 Bft)
03.09.2017 01:02 8,0 °C 8,0 °C 95 % 1016,9 hPa 0,0 mm 1,5 km/h (1 Bft) SW 233 ° 0 min 0,000 mm 0,0 UV-I 0 W/m² 7,2 °C 8,0 °C 3,2 km/h (1 Bft)
03.09.2017 01:03 8,0 °C 8,0 °C 95 % 1016,9 hPa 0,0 mm 3,2 km/h (1 Bft) W-SW 246 ° 0 min 0,000 mm 0,0 UV-I 0 W/m² 7,2 °C 8,0 °C 6,4 km/h (2 Bft)
03.09.2017 01:04 8,0 °C 8,0 °C 95 % 1017,0 hPa 0,0 mm 2,6 km/h (1 Bft) W-SW 246 ° 0 min 0,000 mm 0,0 UV-I 0 W/m² 7,2 °C 8,0 °C 4,8 km/h (1 Bft)
03.09.2017 01:05 8,0 °C 8,0 °C 95 % 1016,9 hPa 0,0 mm 2,3 km/h (1 Bft) W 261 ° 0 min 0,000 mm 0,0 UV-I 0 W/m² 7,2 °C 8,0 °C 6,4 km/h (2 Bft)
03.09.2017 01:06 8,0 °C 8,1 °C 95 % 1017,0 hPa 0,0 mm 3,3 km/h (1 Bft) W 269 ° 0 min 0,000 mm 0,0 UV-I 0 W/m² 7,2 °C 8,0 °C 4,8 km/h (1 Bft)
03.09.2017 01:07 8,1 °C 8,1 °C 95 % 1016,9 hPa 0,0 mm 2,2 km/h (1 Bft) W 269 ° 0 min 0,000 mm 0,0 UV-I 0 W/m² 7,3 °C 8,1 °C 3,2 km/h (1 Bft)
03.09.2017 01:08 8,1 °C 8,1 °C 95 % 1017,0 hPa 0,0 mm 2,1 km/h (1 Bft) W 269 ° 0 min 0,000 mm 0,0 UV-I 0 W/m² 7,3 °C 8,1 °C 4,8 km/h (1 Bft)
03.09.2017 01:09 8,1 °C 8,1 °C 95 % 1016,9 hPa 0,2 mm 2,5 km/h (1 Bft) W-SW 254 ° 0 min 0,000 mm 0,0 UV-I 0 W/m² 7,3 °C 8,1 °C 4,8 km/h (1 Bft)
03.09.2017 01:10 8,0 °C 8,1 °C 95 % 1016,9 hPa 0,0 mm 3,1 km/h (1 Bft) W-SW 242 ° 0 min 0,000 mm 0,0 UV-I 0 W/m² 7,2 °C 8,0 °C 6,4 km/h (2 Bft)
03.09.2017 01:11 8,1 °C 8,1 °C 95 % 1016,9 hPa 0,0 mm 4,8 km/h (1 Bft) W-SW 258 ° 0 min 0,000 mm 0,0 UV-I 0 W/m² 7,3 °C 7,7 °C 6,4 km/h (2 Bft)
03.09.2017 01:12 8,1 °C 8,1 °C 95 % 1016,9 hPa 0,0 mm 7,2 km/h (2 Bft) W-SW 257 ° 0 min 0,000 mm 0,0 UV-I 0 W/m² 7,3 °C 7,0 °C 11,3 km/h (2 Bft)
03.09.2017 01:13 8,1 °C 8,1 °C 95 % 1016,9 hPa 0,0 mm 3,3 km/h (1 Bft) W 264 ° 0 min 0,000 mm 0,0 UV-I 0 W/m² 7,3 °C 8,1 °C 9,7 km/h (2 Bft)
03.09.2017 01:14 8,1 °C 8,1 °C 95 % 1016,9 hPa 0,0 mm 2,7 km/h (1 Bft) W-SW 248 ° 0 min 0,000 mm 0,0 UV-I 0 W/m² 7,3 °C 8,1 °C 6,4 km/h (2 Bft)
03.09.2017 01:15 8,1 °C 8,1 °C 95 % 1016,9 hPa 0,0 mm 1,3 km/h (1 Bft) W-SW 248 ° 0 min 0,000 mm 0,0 UV-I 0 W/m² 7,3 °C 8,1 °C 3,2 km/h (1 Bft)
03.09.2017 01:16 8,0 °C 8,1 °C 95 % 1016,9 hPa 0,0 mm 1,0 km/h (0 Bft) W-SW 248 ° 0 min 0,000 mm 0,0 UV-I 0 W/m² 7,2 °C 8,0 °C 3,2 km/h (1 Bft)
03.09.2017 01:17 8,0 °C 8,1 °C 95 % 1016,9 hPa 0,0 mm 1,0 km/h (0 Bft) W-SW 248 ° 0 min 0,000 mm 0,0 UV-I 0 W/m² 7,2 °C 8,0 °C 1,6 km/h (1 Bft)
03.09.2017 01:18 8,0 °C 8,0 °C 95 % 1016,9 hPa 0,0 mm 0,4 km/h (0 Bft) W-SW 248 ° 0 min 0,000 mm 0,0 UV-I 0 W/m² 7,2 °C 8,0 °C 1,6 km/h (1 Bft)
03.09.2017 01:19 8,0 °C 8,0 °C 95 % 1016,9 hPa 0,0 mm 0,6 km/h (0 Bft) W-SW 248 ° 0 min 0,000 mm 0,0 UV-I 0 W/m² 7,2 °C 8,0 °C 1,6 km/h (1 Bft)
03.09.2017 01:20 8,0 °C 8,0 °C 95 % 1016,9 hPa 0,0 mm 0,3 km/h (0 Bft) W-SW 248 ° 0 min 0,000 mm 0,0 UV-I 0 W/m² 7,2 °C 8,0 °C 1,6 km/h (1 Bft)
03.09.2017 01:21 8,0 °C 8,0 °C 95 % 1016,9 hPa 0,0 mm 1,2 km/h (1 Bft) W-SW 248 ° 0 min 0,000 mm 0,0 UV-I 0 W/m² 7,2 °C 8,0 °C 3,2 km/h (1 Bft)
03.09.2017 01:22 8,0 °C 8,1 °C 95 % 1016,9 hPa 0,0 mm 0,6 km/h (0 Bft) W-SW 248 ° 0 min 0,000 mm 0,0 UV-I 0 W/m² 7,2 °C 8,0 °C 3,2 km/h (1 Bft)
03.09.2017 01:23 8,0 °C 8,0 °C 95 % 1017,0 hPa 0,0 mm 2,3 km/h (1 Bft) W-SW 249 ° 0 min 0,000 mm 0,0 UV-I 0 W/m² 7,2 °C 8,0 °C 3,2 km/h (1 Bft)
03.09.2017 01:24 8,1 °C 8,1 °C 95 % 1016,9 hPa 0,0 mm 3,1 km/h (1 Bft) W 259 ° 0 min 0,000 mm 0,0 UV-I 0 W/m² 7,3 °C 8,1 °C 4,8 km/h (1 Bft)
03.09.2017 01:25 8,1 °C 8,1 °C 95 % 1016,9 hPa 0,0 mm 2,4 km/h (1 Bft) W 259 ° 0 min 0,000 mm 0,0 UV-I 0 W/m² 7,3 °C 8,1 °C 4,8 km/h (1 Bft)
03.09.2017 01:26 8,1 °C 8,1 °C 95 % 1016,9 hPa 0,0 mm 2,7 km/h (1 Bft) W 259 ° 0 min 0,000 mm 0,0 UV-I 0 W/m² 7,3 °C 8,1 °C 3,2 km/h (1 Bft)
03.09.2017 01:27 8,0 °C 8,1 °C 95 % 1016,9 hPa 0,0 mm 3,1 km/h (1 Bft) SW 227 ° 0 min 0,000 mm 0,0 UV-I 0 W/m² 7,2 °C 8,0 °C 4,8 km/h (1 Bft)
03.09.2017 01:28 8,1 °C 8,1 °C 95 % 1016,9 hPa 0,0 mm 1,5 km/h (1 Bft) W-SW 239 ° 0 min 0,000 mm 0,0 UV-I 0 W/m² 7,3 °C 8,1 °C 4,8 km/h (1 Bft)
03.09.2017 01:29 8,0 °C 8,1 °C 95 % 1016,9 hPa 0,0 mm 3,6 km/h (1 Bft) W 260 ° 0 min 0,000 mm 0,0 UV-I 0 W/m² 7,2 °C 8,0 °C 4,8 km/h (1 Bft)
03.09.2017 01:30 8,1 °C 8,1 °C 95 % 1016,9 hPa 0,0 mm 1,8 km/h (1 Bft) W-SW 257 ° 0 min 0,000 mm 0,0 UV-I 0 W/m² 7,3 °C 8,1 °C 3,2 km/h (1 Bft)
03.09.2017 01:31 8,0 °C 8,1 °C 95 % 1016,9 hPa 0,0 mm 4,5 km/h (1 Bft) W-SW 251 ° 0 min 0,000 mm 0,0 UV-I 0 W/m² 7,2 °C 8,0 °C 6,4 km/h (2 Bft)
03.09.2017 01:32 8,0 °C 8,1 °C 95 % 1016,9 hPa 0,0 mm 4,0 km/h (1 Bft) W-SW 255 ° 0 min 0,000 mm 0,0 UV-I 0 W/m² 7,2 °C 8,0 °C 6,4 km/h (2 Bft)
03.09.2017 01:33 8,0 °C 8,1 °C 95 % 1016,9 hPa 0,0 mm 2,7 km/h (1 Bft) W-SW 247 ° 0 min 0,000 mm 0,0 UV-I 0 W/m² 7,2 °C 8,0 °C 4,8 km/h (1 Bft)
03.09.2017 01:34 8,0 °C 8,0 °C 95 % 1016,9 hPa 0,0 mm 3,0 km/h (1 Bft) W-SW 246 ° 0 min 0,000 mm 0,0 UV-I 0 W/m² 7,2 °C 8,0 °C 3,2 km/h (1 Bft)
03.09.2017 01:35 8,0 °C 8,1 °C 95 % 1016,9 hPa 0,0 mm 2,6 km/h (1 Bft) W-SW 246 ° 0 min 0,000 mm 0,0 UV-I 0 W/m² 7,2 °C 8,0 °C 3,2 km/h (1 Bft)
03.09.2017 01:36 8,0 °C 8,0 °C 95 % 1016,9 hPa 0,0 mm 1,9 km/h (1 Bft) W-SW 246 ° 0 min 0,000 mm 0,0 UV-I 0 W/m² 7,2 °C 8,0 °C 3,2 km/h (1 Bft)
03.09.2017 01:37 8,0 °C 8,1 °C 95 % 1016,9 hPa 0,0 mm 2,7 km/h (1 Bft) W-SW 251 ° 0 min 0,000 mm 0,0 UV-I 0 W/m² 7,2 °C 8,0 °C 4,8 km/h (1 Bft)
03.09.2017 01:38 8,0 °C 8,0 °C 95 % 1016,9 hPa 0,0 mm 0,0 km/h (0 Bft) W-SW 251 ° 0 min 0,000 mm 0,0 UV-I 0 W/m² 7,2 °C 8,0 °C 0,0 km/h (0 Bft)
03.09.2017 01:39 8,0 °C 8,0 °C 95 % 1016,9 hPa 0,0 mm 2,2 km/h (1 Bft) W-SW 252 ° 0 min 0,000 mm 0,0 UV-I 0 W/m² 7,2 °C 8,0 °C 4,8 km/h (1 Bft)
03.09.2017 01:40 8,0 °C 8,1 °C 95 % 1016,9 hPa 0,0 mm 1,9 km/h (1 Bft) W-SW 251 ° 0 min 0,000 mm 0,0 UV-I 0 W/m² 7,2 °C 8,0 °C 4,8 km/h (1 Bft)
03.09.2017 01:41 8,0 °C 8,0 °C 95 % 1016,9 hPa 0,0 mm 0,6 km/h (0 Bft) W-SW 251 ° 0 min 0,000 mm 0,0 UV-I 0 W/m² 7,2 °C 8,0 °C 3,2 km/h (1 Bft)
03.09.2017 01:42 8,0 °C 8,0 °C 95 % 1016,9 hPa 0,0 mm 3,6 km/h (1 Bft) SW 225 ° 0 min 0,000 mm 0,0 UV-I 0 W/m² 7,2 °C 8,0 °C 4,8 km/h (1 Bft)
03.09.2017 01:43 8,0 °C 8,0 °C 95 % 1016,9 hPa 0,0 mm 3,3 km/h (1 Bft) W 260 ° 0 min 0,000 mm 0,0 UV-I 0 W/m² 7,2 °C 8,0 °C 4,8 km/h (1 Bft)
03.09.2017 01:44 8,0 °C 8,0 °C 95 % 1016,9 hPa 0,0 mm 3,1 km/h (1 Bft) W 260 ° 0 min 0,000 mm 0,0 UV-I 0 W/m² 7,2 °C 8,0 °C 4,8 km/h (1 Bft)
03.09.2017 01:45 8,0 °C 8,0 °C 95 % 1016,9 hPa 0,2 mm 2,6 km/h (1 Bft) W-SW 239 ° 0 min 0,000 mm 0,0 UV-I 0 W/m² 7,2 °C 8,0 °C 4,8 km/h (1 Bft)
03.09.2017 01:46 8,0 °C 8,0 °C 95 % 1016,9 hPa 0,0 mm 1,5 km/h (1 Bft) W-SW 239 ° 0 min 0,000 mm 0,0 UV-I 0 W/m² 7,2 °C 8,0 °C 3,2 km/h (1 Bft)
03.09.2017 01:47 8,0 °C 8,0 °C 95 % 1016,9 hPa 0,0 mm 0,8 km/h (0 Bft) W-SW 239 ° 0 min 0,000 mm 0,0 UV-I 0 W/m² 7,2 °C 8,0 °C 1,6 km/h (1 Bft)
03.09.2017 01:48 8,0 °C 8,0 °C 95 % 1016,9 hPa 0,0 mm 3,0 km/h (1 Bft) SW 234 ° 0 min 0,000 mm 0,0 UV-I 0 W/m² 7,2 °C 8,0 °C 4,8 km/h (1 Bft)
03.09.2017 01:49 8,0 °C 8,0 °C 95 % 1016,8 hPa 0,0 mm 0,8 km/h (0 Bft) SW 234 ° 0 min 0,000 mm 0,0 UV-I 0 W/m² 7,2 °C 8,0 °C 3,2 km/h (1 Bft)
03.09.2017 01:50 8,0 °C 8,0 °C 95 % 1016,8 hPa 0,0 mm 1,1 km/h (1 Bft) SW 234 ° 0 min 0,000 mm 0,0 UV-I 0 W/m² 7,2 °C 8,0 °C 3,2 km/h (1 Bft)
03.09.2017 01:51 8,0 °C 8,0 °C 95 % 1016,7 hPa 0,0 mm 2,3 km/h (1 Bft) SW 234 ° 0 min 0,000 mm 0,0 UV-I 0 W/m² 7,2 °C 8,0 °C 4,8 km/h (1 Bft)
03.09.2017 01:52 8,0 °C 8,1 °C 95 % 1016,8 hPa 0,0 mm 1,5 km/h (1 Bft) SW 234 ° 0 min 0,000 mm 0,0 UV-I 0 W/m² 7,2 °C 8,0 °C 3,2 km/h (1 Bft)
03.09.2017 01:53 8,0 °C 8,0 °C 95 % 1016,7 hPa 0,0 mm 1,2 km/h (1 Bft) SW 234 ° 0 min 0,000 mm 0,0 UV-I 0 W/m² 7,2 °C 8,0 °C 1,6 km/h (1 Bft)
03.09.2017 01:54 8,0 °C 8,0 °C 95 % 1016,7 hPa 0,0 mm 1,9 km/h (1 Bft) SW 234 ° 0 min 0,000 mm 0,0 UV-I 0 W/m² 7,2 °C 8,0 °C 3,2 km/h (1 Bft)
03.09.2017 01:55 8,0 °C 8,0 °C 95 % 1016,7 hPa 0,0 mm 0,7 km/h (0 Bft) SW 234 ° 0 min 0,000 mm 0,0 UV-I 0 W/m² 7,2 °C 8,0 °C 1,6 km/h (1 Bft)
03.09.2017 01:56 8,0 °C 8,0 °C 95 % 1016,7 hPa 0,0 mm 1,0 km/h (0 Bft) SW 234 ° 0 min 0,000 mm 0,0 UV-I 0 W/m² 7,2 °C 8,0 °C 1,6 km/h (1 Bft)
03.09.2017 01:57 8,0 °C 8,0 °C 95 % 1016,7 hPa 0,0 mm 2,1 km/h (1 Bft) SW 234 ° 0 min 0,000 mm 0,0 UV-I 0 W/m² 7,2 °C 8,0 °C 3,2 km/h (1 Bft)
03.09.2017 01:58 8,0 °C 8,0 °C 95 % 1016,7 hPa 0,0 mm 0,2 km/h (0 Bft) SW 234 ° 0 min 0,000 mm 0,0 UV-I 0 W/m² 7,2 °C 8,0 °C 1,6 km/h (1 Bft)
03.09.2017 01:59 8,0 °C 8,1 °C 95 % 1016,7 hPa 0,2 mm 1,6 km/h (1 Bft) W-SW 247 ° 0 min 0,000 mm 0,0 UV-I 0 W/m² 7,2 °C 8,0 °C 4,8 km/h (1 Bft)
03.09.2017 02:00 8,0 °C 8,0 °C 95 % 1016,7 hPa 0,0 mm 0,1 km/h (0 Bft) W-SW 247 ° 0 min 0,000 mm 0,0 UV-I 0 W/m² 7,2 °C 8,0 °C 1,6 km/h (1 Bft)
03.09.2017 02:01 8,0 °C 8,0 °C 95 % 1016,7 hPa 0,0 mm 0,0 km/h (0 Bft) W-SW 247 ° 0 min 0,000 mm 0,0 UV-I 0 W/m² 7,2 °C 8,0 °C 0,0 km/h (0 Bft)
03.09.2017 02:02 8,0 °C 8,0 °C 95 % 1016,7 hPa 0,0 mm 0,0 km/h (0 Bft) W-SW 247 ° 0 min 0,000 mm 0,0 UV-I 0 W/m² 7,2 °C 8,0 °C 0,0 km/h (0 Bft)
03.09.2017 02:03 8,0 °C 8,0 °C 95 % 1016,7 hPa 0,0 mm 0,0 km/h (0 Bft) W-SW 247 ° 0 min 0,000 mm 0,0 UV-I 0 W/m² 7,2 °C 8,0 °C 0,0 km/h (0 Bft)
03.09.2017 02:04 8,0 °C 8,1 °C 95 % 1016,7 hPa 0,0 mm 0,0 km/h (0 Bft) W-SW 247 ° 0 min 0,000 mm 0,0 UV-I 0 W/m² 7,2 °C 8,0 °C 0,0 km/h (0 Bft)
03.09.2017 02:05 8,0 °C 8,1 °C 95 % 1016,6 hPa 0,0 mm 3,4 km/h (1 Bft) S 186 ° 0 min 0,000 mm 0,0 UV-I 0 W/m² 7,2 °C 8,0 °C 4,8 km/h (1 Bft)
03.09.2017 02:06 8,0 °C 8,0 °C 95 % 1016,7 hPa 0,0 mm 1,5 km/h (1 Bft) S 186 ° 0 min 0,000 mm 0,0 UV-I 0 W/m² 7,2 °C 8,0 °C 3,2 km/h (1 Bft)
03.09.2017 02:07 7,9 °C 8,0 °C 95 % 1016,7 hPa 0,0 mm 0,9 km/h (0 Bft) S 187 ° 0 min 0,000 mm 0,0 UV-I 0 W/m² 7,1 °C 7,9 °C 3,2 km/h (1 Bft)
03.09.2017 02:08 7,9 °C 8,0 °C 95 % 1016,7 hPa 0,0 mm 0,5 km/h (0 Bft) S 186 ° 0 min 0,000 mm 0,0 UV-I 0 W/m² 7,1 °C 7,9 °C 1,6 km/h (1 Bft)
03.09.2017 02:09 7,9 °C 8,0 °C 95 % 1016,7 hPa 0,0 mm 1,9 km/h (1 Bft) W 264 ° 0 min 0,000 mm 0,0 UV-I 0 W/m² 7,1 °C 7,9 °C 4,8 km/h (1 Bft)
03.09.2017 02:10 7,9 °C 8,0 °C 95 % 1016,7 hPa 0,0 mm 1,6 km/h (1 Bft) W-SW 254 ° 0 min 0,000 mm 0,0 UV-I 0 W/m² 7,1 °C 7,9 °C 3,2 km/h (1 Bft)
03.09.2017 02:11 7,9 °C 7,9 °C 95 % 1016,7 hPa 0,2 mm 1,5 km/h (1 Bft) W-SW 255 ° 0 min 0,000 mm 0,0 UV-I 0 W/m² 7,1 °C 7,9 °C 3,2 km/h (1 Bft)
03.09.2017 02:12 7,9 °C 7,9 °C 95 % 1016,7 hPa 0,0 mm 4,4 km/h (1 Bft) W-NW 299 ° 0 min 0,000 mm 0,0 UV-I 0 W/m² 7,1 °C 7,9 °C 6,4 km/h (2 Bft)
03.09.2017 02:13 7,9 °C 7,9 °C 95 % 1016,7 hPa 0,0 mm 4,2 km/h (1 Bft) W 262 ° 0 min 0,000 mm 0,0 UV-I 0 W/m² 7,1 °C 7,9 °C 6,4 km/h (2 Bft)
03.09.2017 02:14 8,0 °C 8,0 °C 95 % 1016,7 hPa 0,0 mm 1,1 km/h (1 Bft) W-SW 254 ° 0 min 0,000 mm 0,0 UV-I 0 W/m² 7,2 °C 8,0 °C 1,6 km/h (1 Bft)
03.09.2017 02:15 7,9 °C 8,0 °C 95 % 1016,7 hPa 0,0 mm 1,4 km/h (1 Bft) W 269 ° 0 min 0,000 mm 0,0 UV-I 0 W/m² 7,1 °C 7,9 °C 6,4 km/h (2 Bft)
03.09.2017 02:16 7,9 °C 7,9 °C 95 % 1016,7 hPa 0,0 mm 3,3 km/h (1 Bft) S-SW 213 ° 0 min 0,000 mm 0,0 UV-I 0 W/m² 7,1 °C 7,9 °C 6,4 km/h (2 Bft)
03.09.2017 02:17 7,9 °C 7,9 °C 95 % 1016,7 hPa 0,0 mm 2,1 km/h (1 Bft) W-SW 246 ° 0 min 0,000 mm 0,0 UV-I 0 W/m² 7,1 °C 7,9 °C 4,8 km/h (1 Bft)
03.09.2017 02:18 7,9 °C 7,9 °C 95 % 1016,7 hPa 0,0 mm 3,4 km/h (1 Bft) W 281 ° 0 min 0,000 mm 0,0 UV-I 0 W/m² 7,1 °C 7,9 °C 6,4 km/h (2 Bft)
03.09.2017 02:19 7,9 °C 7,9 °C 95 % 1016,6 hPa 0,0 mm 3,0 km/h (1 Bft) W-SW 244 ° 0 min 0,000 mm 0,0 UV-I 0 W/m² 7,1 °C 7,9 °C 4,8 km/h (1 Bft)
03.09.2017 02:20 7,9 °C 7,9 °C 95 % 1016,6 hPa 0,0 mm 3,4 km/h (1 Bft) W-SW 252 ° 0 min 0,000 mm 0,0 UV-I 0 W/m² 7,1 °C 7,9 °C 4,8 km/h (1 Bft)
03.09.2017 02:21 7,9 °C 7,9 °C 95 % 1016,6 hPa 0,0 mm 2,4 km/h (1 Bft) W-SW 246 ° 0 min 0,000 mm 0,0 UV-I 0 W/m² 7,1 °C 7,9 °C 4,8 km/h (1 Bft)
03.09.2017 02:22 7,9 °C 7,9 °C 95 % 1016,7 hPa 0,0 mm 2,8 km/h (1 Bft) W 261 ° 0 min 0,000 mm 0,0 UV-I 0 W/m² 7,1 °C 7,9 °C 6,4 km/h (2 Bft)
03.09.2017 02:23 7,9 °C 7,9 °C 95 % 1016,7 hPa 0,2 mm 5,0 km/h (1 Bft) W 277 ° 0 min 0,000 mm 0,0 UV-I 0 W/m² 7,1 °C 7,4 °C 9,7 km/h (2 Bft)
03.09.2017 02:24 7,9 °C 7,9 °C 95 % 1016,7 hPa 0,0 mm 5,2 km/h (1 Bft) W 259 ° 0 min 0,000 mm 0,0 UV-I 0 W/m² 7,1 °C 7,3 °C 11,3 km/h (2 Bft)
03.09.2017 02:25 7,9 °C 7,9 °C 95 % 1016,7 hPa 0,0 mm 0,5 km/h (0 Bft) W 259 ° 0 min 0,000 mm 0,0 UV-I 0 W/m² 7,1 °C 7,9 °C 1,6 km/h (1 Bft)
03.09.2017 02:26 7,9 °C 7,9 °C 95 % 1016,7 hPa 0,0 mm 4,8 km/h (1 Bft) W 261 ° 0 min 0,000 mm 0,0 UV-I 0 W/m² 7,1 °C 7,4 °C 11,3 km/h (2 Bft)
03.09.2017 02:27 7,9 °C 7,9 °C 95 % 1016,7 hPa 0,0 mm 2,5 km/h (1 Bft) W-SW 252 ° 0 min 0,000 mm 0,0 UV-I 0 W/m² 7,1 °C 7,9 °C 6,4 km/h (2 Bft)
03.09.2017 02:28 7,9 °C 7,9 °C 95 % 1016,7 hPa 0,0 mm 1,0 km/h (0 Bft) W-SW 250 ° 0 min 0,000 mm 0,0 UV-I 0 W/m² 7,1 °C 7,9 °C 1,6 km/h (1 Bft)
03.09.2017 02:29 7,8 °C 7,9 °C 95 % 1016,7 hPa 0,0 mm 1,1 km/h (1 Bft) W-SW 253 ° 0 min 0,000 mm 0,0 UV-I 0 W/m² 7,0 °C 7,8 °C 3,2 km/h (1 Bft)
03.09.2017 02:30 7,9 °C 7,9 °C 95 % 1016,7 hPa 0,0 mm 5,2 km/h (1 Bft) W 267 ° 0 min 0,000 mm 0,0 UV-I 0 W/m² 7,1 °C 7,3 °C 9,7 km/h (2 Bft)
03.09.2017 02:31 7,9 °C 7,9 °C 95 % 1016,7 hPa 0,0 mm 3,7 km/h (1 Bft) W-SW 256 ° 0 min 0,000 mm 0,0 UV-I 0 W/m² 7,1 °C 7,9 °C 4,8 km/h (1 Bft)
03.09.2017 02:32 7,9 °C 7,9 °C 95 % 1016,7 hPa 0,0 mm 5,0 km/h (1 Bft) W 265 ° 0 min 0,000 mm 0,0 UV-I 0 W/m² 7,1 °C 7,4 °C 9,7 km/h (2 Bft)
03.09.2017 02:33 7,8 °C 7,9 °C 95 % 1016,7 hPa 0,0 mm 3,1 km/h (1 Bft) SW 230 ° 0 min 0,000 mm 0,0 UV-I 0 W/m² 7,0 °C 7,8 °C 4,8 km/h (1 Bft)
03.09.2017 02:34 7,9 °C 7,9 °C 95 % 1016,7 hPa 0,0 mm 7,1 km/h (2 Bft) W-SW 257 ° 0 min 0,000 mm 0,0 UV-I 0 W/m² 7,1 °C 6,8 °C 11,3 km/h (2 Bft)
03.09.2017 02:35 7,8 °C 7,9 °C 95 % 1016,7 hPa 0,0 mm 4,6 km/h (1 Bft) SW 234 ° 0 min 0,000 mm 0,0 UV-I 0 W/m² 7,0 °C 7,4 °C 6,4 km/h (2 Bft)
03.09.2017 02:36 7,8 °C 7,9 °C 95 % 1016,7 hPa 0,0 mm 4,5 km/h (1 Bft) W-SW 250 ° 0 min 0,000 mm 0,0 UV-I 0 W/m² 7,0 °C 7,8 °C 6,4 km/h (2 Bft)
03.09.2017 02:37 7,8 °C 7,9 °C 95 % 1016,8 hPa 0,2 mm 4,4 km/h (1 Bft) W 266 ° 0 min 0,000 mm 0,0 UV-I 0 W/m² 7,0 °C 7,8 °C 4,8 km/h (1 Bft)
03.09.2017 02:38 7,9 °C 7,9 °C 95 % 1016,7 hPa 0,0 mm 3,6 km/h (1 Bft) SW 225 ° 0 min 0,000 mm 0,0 UV-I 0 W/m² 7,1 °C 7,9 °C 6,4 km/h (2 Bft)
03.09.2017 02:39 7,9 °C 7,9 °C 95 % 1016,7 hPa 0,0 mm 2,0 km/h (1 Bft) W-SW 243 ° 0 min 0,000 mm 0,0 UV-I 0 W/m² 7,1 °C 7,9 °C 4,8 km/h (1 Bft)
03.09.2017 02:40 7,9 °C 7,9 °C 95 % 1016,7 hPa 0,0 mm 1,0 km/h (0 Bft) W-SW 243 ° 0 min 0,000 mm 0,0 UV-I 0 W/m² 7,1 °C 7,9 °C 1,6 km/h (1 Bft)
03.09.2017 02:41 7,8 °C 7,9 °C 95 % 1016,7 hPa 0,0 mm 2,8 km/h (1 Bft) SW 227 ° 0 min 0,000 mm 0,0 UV-I 0 W/m² 7,0 °C 7,8 °C 4,8 km/h (1 Bft)
03.09.2017 02:42 7,8 °C 7,9 °C 95 % 1016,7 hPa 0,0 mm 6,6 km/h (2 Bft) W 275 ° 0 min 0,000 mm 0,0 UV-I 0 W/m² 7,0 °C 6,8 °C 11,3 km/h (2 Bft)
03.09.2017 02:43 7,8 °C 7,8 °C 95 % 1016,7 hPa 0,0 mm 4,5 km/h (1 Bft) W 279 ° 0 min 0,000 mm 0,0 UV-I 0 W/m² 7,0 °C 7,8 °C 6,4 km/h (2 Bft)
03.09.2017 02:44 7,8 °C 7,8 °C 95 % 1016,7 hPa 0,2 mm 2,3 km/h (1 Bft) W-SW 248 ° 0 min 0,000 mm 0,0 UV-I 0 W/m² 7,0 °C 7,8 °C 6,4 km/h (2 Bft)
03.09.2017 02:45 7,8 °C 7,8 °C 95 % 1016,7 hPa 0,0 mm 4,8 km/h (1 Bft) W 273 ° 0 min 0,000 mm 0,0 UV-I 0 W/m² 7,0 °C 7,3 °C 6,4 km/h (2 Bft)
03.09.2017 02:46 7,8 °C 7,8 °C 95 % 1016,7 hPa 0,0 mm 7,8 km/h (2 Bft) W-SW 249 ° 0 min 0,000 mm 0,0 UV-I 0 W/m² 7,0 °C 6,5 °C 12,9 km/h (3 Bft)
03.09.2017 02:47 7,8 °C 7,8 °C 95 % 1016,7 hPa 0,2 mm 8,5 km/h (2 Bft) W 268 ° 0 min 0,000 mm 0,0 UV-I 0 W/m² 7,0 °C 6,3 °C 12,9 km/h (3 Bft)
03.09.2017 02:48 7,8 °C 7,9 °C 95 % 1016,7 hPa 0,0 mm 9,2 km/h (2 Bft) W 260 ° 0 min 0,000 mm 0,0 UV-I 0 W/m² 7,0 °C 6,2 °C 12,9 km/h (3 Bft)
03.09.2017 02:49 7,8 °C 7,8 °C 95 % 1016,7 hPa 0,0 mm 6,9 km/h (2 Bft) W-SW 242 ° 0 min 0,000 mm 0,0 UV-I 0 W/m² 7,0 °C 6,7 °C 9,7 km/h (2 Bft)
03.09.2017 02:50 7,8 °C 7,9 °C 95 % 1016,7 hPa 0,0 mm 6,7 km/h (2 Bft) W 267 ° 0 min 0,000 mm 0,0 UV-I 0 W/m² 7,0 °C 6,7 °C 11,3 km/h (2 Bft)
03.09.2017 02:51 7,8 °C 7,9 °C 95 % 1016,7 hPa 0,2 mm 6,5 km/h (2 Bft) W 281 ° 0 min 0,000 mm 0,0 UV-I 0 W/m² 7,0 °C 6,8 °C 12,9 km/h (3 Bft)
03.09.2017 02:52 7,8 °C 7,8 °C 95 % 1016,7 hPa 0,0 mm 7,6 km/h (2 Bft) W 263 ° 0 min 0,000 mm 0,0 UV-I 0 W/m² 7,0 °C 6,5 °C 12,9 km/h (3 Bft)
03.09.2017 02:53 7,8 °C 7,9 °C 95 % 1016,7 hPa 0,0 mm 4,1 km/h (1 Bft) W 260 ° 0 min 0,000 mm 0,0 UV-I 0 W/m² 7,0 °C 7,8 °C 9,7 km/h (2 Bft)
03.09.2017 02:54 7,8 °C 7,8 °C 95 % 1016,8 hPa 0,0 mm 5,1 km/h (1 Bft) W-SW 256 ° 0 min 0,000 mm 0,0 UV-I 0 W/m² 7,0 °C 7,2 °C 9,7 km/h (2 Bft)
03.09.2017 02:55 7,8 °C 7,8 °C 95 % 1016,8 hPa 0,0 mm 6,6 km/h (2 Bft) W-SW 244 ° 0 min 0,000 mm 0,0 UV-I 0 W/m² 7,0 °C 6,8 °C 12,9 km/h (3 Bft)
03.09.2017 02:56 7,8 °C 7,8 °C 95 % 1016,8 hPa 0,2 mm 5,2 km/h (1 Bft) W 280 ° 0 min 0,000 mm 0,0 UV-I 0 W/m² 7,0 °C 7,2 °C 6,4 km/h (2 Bft)
03.09.2017 02:57 7,8 °C 7,8 °C 95 % 1016,7 hPa 0,0 mm 6,1 km/h (2 Bft) W 267 ° 0 min 0,000 mm 0,0 UV-I 0 W/m² 7,0 °C 6,9 °C 11,3 km/h (2 Bft)
03.09.2017 02:58 7,8 °C 7,8 °C 95 % 1016,8 hPa 0,0 mm 5,6 km/h (1 Bft) SW 236 ° 0 min 0,000 mm 0,0 UV-I 0 W/m² 7,0 °C 7,1 °C 9,7 km/h (2 Bft)
03.09.2017 02:59 7,8 °C 7,8 °C 95 % 1016,8 hPa 0,0 mm 4,5 km/h (1 Bft) W-NW 291 ° 0 min 0,000 mm 0,0 UV-I 0 W/m² 7,0 °C 7,8 °C 6,4 km/h (2 Bft)
03.09.2017 03:00 7,8 °C 7,8 °C 95 % 1016,7 hPa 0,0 mm 3,5 km/h (1 Bft) W-SW 245 ° 0 min 0,000 mm 0,0 UV-I 0 W/m² 7,0 °C 7,8 °C 4,8 km/h (1 Bft)
03.09.2017 03:01 7,8 °C 7,8 °C 95 % 1016,7 hPa 0,0 mm 5,8 km/h (2 Bft) W 276 ° 0 min 0,000 mm 0,0 UV-I 0 W/m² 7,0 °C 7,0 °C 9,7 km/h (2 Bft)
03.09.2017 03:02 7,8 °C 7,8 °C 95 % 1016,7 hPa 0,2 mm 7,0 km/h (2 Bft) W 266 ° 0 min 0,000 mm 0,0 UV-I 0 W/m² 7,0 °C 6,7 °C 11,3 km/h (2 Bft)
03.09.2017 03:03 7,8 °C 7,8 °C 95 % 1016,6 hPa 0,0 mm 5,4 km/h (1 Bft) W 265 ° 0 min 0,000 mm 0,0 UV-I 0 W/m² 7,0 °C 7,1 °C 11,3 km/h (2 Bft)
03.09.2017 03:04 7,8 °C 7,8 °C 95 % 1016,7 hPa 0,0 mm 4,0 km/h (1 Bft) W 259 ° 0 min 0,000 mm 0,0 UV-I 0 W/m² 7,0 °C 7,8 °C 11,3 km/h (2 Bft)
03.09.2017 03:05 7,8 °C 7,8 °C 95 % 1016,7 hPa 0,0 mm 10,2 km/h (2 Bft) W-NW 283 ° 0 min 0,000 mm 0,0 UV-I 0 W/m² 7,0 °C 6,0 °C 16,1 km/h (3 Bft)
03.09.2017 03:06 7,7 °C 7,8 °C 95 % 1016,7 hPa 0,0 mm 3,7 km/h (1 Bft) W-SW 246 ° 0 min 0,000 mm 0,0 UV-I 0 W/m² 7,0 °C 7,7 °C 12,9 km/h (3 Bft)
03.09.2017 03:07 7,8 °C 7,8 °C 95 % 1016,7 hPa 0,0 mm 6,2 km/h (2 Bft) W-SW 256 ° 0 min 0,000 mm 0,0 UV-I 0 W/m² 7,0 °C 6,9 °C 9,7 km/h (2 Bft)
03.09.2017 03:08 7,8 °C 7,8 °C 95 % 1016,7 hPa 0,0 mm 6,4 km/h (2 Bft) W-SW 254 ° 0 min 0,000 mm 0,0 UV-I 0 W/m² 7,0 °C 6,8 °C 9,7 km/h (2 Bft)
03.09.2017 03:09 7,8 °C 7,8 °C 95 % 1016,7 hPa 0,0 mm 7,0 km/h (2 Bft) NW 311 ° 0 min 0,000 mm 0,0 UV-I 0 W/m² 7,0 °C 6,7 °C 11,3 km/h (2 Bft)
03.09.2017 03:10 7,8 °C 7,8 °C 95 % 1016,7 hPa 0,0 mm 5,8 km/h (2 Bft) W 261 ° 0 min 0,000 mm 0,0 UV-I 0 W/m² 7,0 °C 7,0 °C 9,7 km/h (2 Bft)
03.09.2017 03:11 7,8 °C 7,8 °C 95 % 1016,7 hPa 0,0 mm 5,5 km/h (1 Bft) W 265 ° 0 min 0,000 mm 0,0 UV-I 0 W/m² 7,0 °C 7,1 °C 11,3 km/h (2 Bft)
03.09.2017 03:12 7,8 °C 7,8 °C 95 % 1016,7 hPa 0,0 mm 4,3 km/h (1 Bft) W 265 ° 0 min 0,000 mm 0,0 UV-I 0 W/m² 7,0 °C 7,8 °C 6,4 km/h (2 Bft)
03.09.2017 03:13 7,8 °C 7,8 °C 95 % 1016,7 hPa 0,2 mm 1,9 km/h (1 Bft) W 263 ° 0 min 0,000 mm 0,0 UV-I 0 W/m² 7,0 °C 7,8 °C 6,4 km/h (2 Bft)
03.09.2017 03:14 7,8 °C 7,8 °C 95 % 1016,7 hPa 0,0 mm 4,4 km/h (1 Bft) W-SW 249 ° 0 min 0,000 mm 0,0 UV-I 0 W/m² 7,0 °C 7,8 °C 6,4 km/h (2 Bft)
03.09.2017 03:15 7,8 °C 7,8 °C 95 % 1016,7 hPa 0,0 mm 1,9 km/h (1 Bft) W-SW 249 ° 0 min 0,000 mm 0,0 UV-I 0 W/m² 7,0 °C 7,8 °C 4,8 km/h (1 Bft)
03.09.2017 03:16 7,8 °C 7,8 °C 95 % 1016,7 hPa 0,0 mm 5,1 km/h (1 Bft) W 264 ° 0 min 0,000 mm 0,0 UV-I 0 W/m² 7,0 °C 7,2 °C 9,7 km/h (2 Bft)
03.09.2017 03:17 7,8 °C 7,8 °C 95 % 1016,7 hPa 0,0 mm 9,0 km/h (2 Bft) W-SW 255 ° 0 min 0,000 mm 0,0 UV-I 0 W/m² 7,0 °C 6,2 °C 12,9 km/h (3 Bft)
03.09.2017 03:18 7,8 °C 7,8 °C 95 % 1016,7 hPa 0,0 mm 5,6 km/h (1 Bft) W-NW 284 ° 0 min 0,000 mm 0,0 UV-I 0 W/m² 7,0 °C 7,1 °C 11,3 km/h (2 Bft)
03.09.2017 03:19 7,8 °C 7,8 °C 95 % 1016,7 hPa 0,0 mm 3,2 km/h (1 Bft) W-SW 249 ° 0 min 0,000 mm 0,0 UV-I 0 W/m² 7,0 °C 7,8 °C 4,8 km/h (1 Bft)
03.09.2017 03:20 7,8 °C 7,8 °C 95 % 1016,7 hPa 0,0 mm 1,7 km/h (1 Bft) W-SW 255 ° 0 min 0,000 mm 0,0 UV-I 0 W/m² 7,0 °C 7,8 °C 3,2 km/h (1 Bft)
03.09.2017 03:21 7,8 °C 7,8 °C 95 % 1016,7 hPa 0,0 mm 2,2 km/h (1 Bft) W-SW 242 ° 0 min 0,000 mm 0,0 UV-I 0 W/m² 7,0 °C 7,8 °C 3,2 km/h (1 Bft)
03.09.2017 03:22 7,8 °C 7,8 °C 95 % 1016,7 hPa 0,0 mm 5,0 km/h (1 Bft) W 259 ° 0 min 0,000 mm 0,0 UV-I 0 W/m² 7,0 °C 7,3 °C 11,3 km/h (2 Bft)
03.09.2017 03:23 7,8 °C 7,8 °C 95 % 1016,7 hPa 0,0 mm 5,9 km/h (2 Bft) W-NW 285 ° 0 min 0,000 mm 0,0 UV-I 0 W/m² 7,0 °C 7,0 °C 9,7 km/h (2 Bft)
03.09.2017 03:24 7,8 °C 7,8 °C 95 % 1016,7 hPa 0,2 mm 4,6 km/h (1 Bft) W-NW 284 ° 0 min 0,000 mm 0,0 UV-I 0 W/m² 7,0 °C 7,4 °C 6,4 km/h (2 Bft)
03.09.2017 03:25 7,8 °C 7,8 °C 95 % 1016,7 hPa 0,0 mm 2,9 km/h (1 Bft) W-NW 285 ° 0 min 0,000 mm 0,0 UV-I 0 W/m² 7,0 °C 7,8 °C 3,2 km/h (1 Bft)
03.09.2017 03:26 7,8 °C 7,8 °C 95 % 1016,7 hPa 0,0 mm 5,8 km/h (2 Bft) W-NW 293 ° 0 min 0,000 mm 0,0 UV-I 0 W/m² 7,0 °C 7,0 °C 9,7 km/h (2 Bft)
03.09.2017 03:27 7,8 °C 7,8 °C 95 % 1016,7 hPa 0,0 mm 4,0 km/h (1 Bft) W-NW 288 ° 0 min 0,000 mm 0,0 UV-I 0 W/m² 7,0 °C 7,8 °C 6,4 km/h (2 Bft)
03.09.2017 03:28 7,8 °C 7,8 °C 95 % 1016,7 hPa 0,0 mm 5,5 km/h (1 Bft) W-SW 258 ° 0 min 0,000 mm 0,0 UV-I 0 W/m² 7,0 °C 7,1 °C 11,3 km/h (2 Bft)
03.09.2017 03:29 7,8 °C 7,8 °C 95 % 1016,7 hPa 0,0 mm 4,6 km/h (1 Bft) W-NW 290 ° 0 min 0,000 mm 0,0 UV-I 0 W/m² 7,0 °C 7,4 °C 8,0 km/h (2 Bft)
03.09.2017 03:30 7,8 °C 7,8 °C 95 % 1016,6 hPa 0,0 mm 9,9 km/h (2 Bft) W-NW 293 ° 0 min 0,000 mm 0,0 UV-I 0 W/m² 7,0 °C 6,0 °C 14,5 km/h (3 Bft)
03.09.2017 03:31 7,8 °C 7,8 °C 95 % 1016,7 hPa 0,0 mm 10,7 km/h (2 Bft) W 262 ° 0 min 0,000 mm 0,0 UV-I 0 W/m² 7,0 °C 5,9 °C 12,9 km/h (3 Bft)
03.09.2017 03:32 7,8 °C 7,8 °C 95 % 1016,7 hPa 0,0 mm 9,2 km/h (2 Bft) W 265 ° 0 min 0,000 mm 0,0 UV-I 0 W/m² 7,0 °C 6,2 °C 12,9 km/h (3 Bft)
03.09.2017 03:33 7,8 °C 7,8 °C 95 % 1016,7 hPa 0,0 mm 5,2 km/h (1 Bft) W 263 ° 0 min 0,000 mm 0,0 UV-I 0 W/m² 7,0 °C 7,2 °C 9,7 km/h (2 Bft)
03.09.2017 03:34 7,8 °C 7,8 °C 95 % 1016,7 hPa 0,0 mm 8,2 km/h (2 Bft) W 266 ° 0 min 0,000 mm 0,0 UV-I 0 W/m² 7,0 °C 6,4 °C 11,3 km/h (2 Bft)
03.09.2017 03:35 7,8 °C 7,8 °C 95 % 1016,7 hPa 0,2 mm 6,6 km/h (2 Bft) W 281 ° 0 min 0,000 mm 0,0 UV-I 0 W/m² 7,0 °C 6,8 °C 11,3 km/h (2 Bft)
03.09.2017 03:36 7,8 °C 7,8 °C 95 % 1016,7 hPa 0,0 mm 6,6 km/h (2 Bft) W 275 ° 0 min 0,000 mm 0,0 UV-I 0 W/m² 7,0 °C 6,8 °C 11,3 km/h (2 Bft)
03.09.2017 03:37 7,8 °C 7,8 °C 95 % 1016,8 hPa 0,0 mm 2,7 km/h (1 Bft) W 268 ° 0 min 0,000 mm 0,0 UV-I 0 W/m² 7,0 °C 7,8 °C 6,4 km/h (2 Bft)
03.09.2017 03:38 7,8 °C 7,8 °C 95 % 1016,7 hPa 0,0 mm 4,0 km/h (1 Bft) W-NW 290 ° 0 min 0,000 mm 0,0 UV-I 0 W/m² 7,0 °C 7,8 °C 6,4 km/h (2 Bft)
03.09.2017 03:39 7,8 °C 7,8 °C 95 % 1016,7 hPa 0,0 mm 4,5 km/h (1 Bft) W 261 ° 0 min 0,000 mm 0,0 UV-I 0 W/m² 7,0 °C 7,8 °C 6,4 km/h (2 Bft)
03.09.2017 03:40 7,8 °C 7,8 °C 95 % 1016,7 hPa 0,0 mm 8,1 km/h (2 Bft) W 274 ° 0 min 0,000 mm 0,0 UV-I 0 W/m² 7,0 °C 6,4 °C 12,9 km/h (3 Bft)
03.09.2017 03:41 7,8 °C 7,8 °C 95 % 1016,7 hPa 0,0 mm 4,0 km/h (1 Bft) W-NW 287 ° 0 min 0,000 mm 0,0 UV-I 0 W/m² 7,0 °C 7,8 °C 9,7 km/h (2 Bft)
03.09.2017 03:42 7,7 °C 7,8 °C 95 % 1016,7 hPa 0,0 mm 5,0 km/h (1 Bft) W 264 ° 0 min 0,000 mm 0,0 UV-I 0 W/m² 7,0 °C 7,1 °C 11,3 km/h (2 Bft)
03.09.2017 03:43 7,7 °C 7,8 °C 95 % 1016,7 hPa 0,0 mm 2,1 km/h (1 Bft) W-SW 251 ° 0 min 0,000 mm 0,0 UV-I 0 W/m² 7,0 °C 7,7 °C 3,2 km/h (1 Bft)
03.09.2017 03:44 7,7 °C 7,7 °C 95 % 1016,7 hPa 0,0 mm 1,5 km/h (1 Bft) SW 230 ° 0 min 0,000 mm 0,0 UV-I 0 W/m² 7,0 °C 7,7 °C 1,6 km/h (1 Bft)
03.09.2017 03:45 7,7 °C 7,7 °C 95 % 1016,7 hPa 0,0 mm 0,8 km/h (0 Bft) SW 236 ° 0 min 0,000 mm 0,0 UV-I 0 W/m² 7,0 °C 7,7 °C 3,2 km/h (1 Bft)
03.09.2017 03:46 7,7 °C 7,7 °C 95 % 1016,7 hPa 0,0 mm 4,1 km/h (1 Bft) W 261 ° 0 min 0,000 mm 0,0 UV-I 0 W/m² 7,0 °C 7,7 °C 6,4 km/h (2 Bft)
03.09.2017 03:47 7,7 °C 7,8 °C 95 % 1016,7 hPa 0,0 mm 0,9 km/h (0 Bft) W 261 ° 0 min 0,000 mm 0,0 UV-I 0 W/m² 7,0 °C 7,7 °C 3,2 km/h (1 Bft)
03.09.2017 03:48 7,7 °C 7,8 °C 95 % 1016,7 hPa 0,0 mm 3,6 km/h (1 Bft) W-SW 245 ° 0 min 0,000 mm 0,0 UV-I 0 W/m² 7,0 °C 7,7 °C 6,4 km/h (2 Bft)
03.09.2017 03:49 7,7 °C 7,8 °C 95 % 1016,6 hPa 0,2 mm 4,4 km/h (1 Bft) W-SW 255 ° 0 min 0,000 mm 0,0 UV-I 0 W/m² 7,0 °C 7,7 °C 8,0 km/h (2 Bft)
03.09.2017 03:50 7,8 °C 7,8 °C 95 % 1016,6 hPa 0,0 mm 3,0 km/h (1 Bft) W-SW 248 ° 0 min 0,000 mm 0,0 UV-I 0 W/m² 7,0 °C 7,8 °C 6,4 km/h (2 Bft)
03.09.2017 03:51 7,7 °C 7,8 °C 95 % 1016,7 hPa 0,0 mm 4,3 km/h (1 Bft) W-SW 242 ° 0 min 0,000 mm 0,0 UV-I 0 W/m² 7,0 °C 7,7 °C 9,7 km/h (2 Bft)
03.09.2017 03:52 7,7 °C 7,8 °C 95 % 1016,7 hPa 0,0 mm 1,3 km/h (1 Bft) W-SW 242 ° 0 min 0,000 mm 0,0 UV-I 0 W/m² 7,0 °C 7,7 °C 3,2 km/h (1 Bft)
03.09.2017 03:53 7,7 °C 7,8 °C 95 % 1016,7 hPa 0,2 mm 3,4 km/h (1 Bft) W 266 ° 0 min 0,000 mm 0,0 UV-I 0 W/m² 7,0 °C 7,7 °C 4,8 km/h (1 Bft)
03.09.2017 03:54 7,7 °C 7,8 °C 95 % 1016,7 hPa 0,0 mm 2,6 km/h (1 Bft) W-SW 258 ° 0 min 0,000 mm 0,0 UV-I 0 W/m² 7,0 °C 7,7 °C 4,8 km/h (1 Bft)
03.09.2017 03:55 7,7 °C 7,7 °C 95 % 1016,8 hPa 0,0 mm 0,2 km/h (0 Bft) W-SW 258 ° 0 min 0,000 mm 0,0 UV-I 0 W/m² 7,0 °C 7,7 °C 1,6 km/h (1 Bft)
03.09.2017 03:56 7,7 °C 7,7 °C 95 % 1016,8 hPa 0,0 mm 0,0 km/h (0 Bft) W-SW 258 ° 0 min 0,000 mm 0,0 UV-I 0 W/m² 7,0 °C 7,7 °C 0,0 km/h (0 Bft)
03.09.2017 03:57 7,7 °C 7,7 °C 95 % 1016,7 hPa 0,0 mm 0,7 km/h (0 Bft) W-SW 258 ° 0 min 0,000 mm 0,0 UV-I 0 W/m² 7,0 °C 7,7 °C 1,6 km/h (1 Bft)
03.09.2017 03:58 7,7 °C 7,7 °C 95 % 1016,7 hPa 0,0 mm 2,6 km/h (1 Bft) W-SW 248 ° 0 min 0,000 mm 0,0 UV-I 0 W/m² 7,0 °C 7,7 °C 6,4 km/h (2 Bft)
03.09.2017 03:59 7,7 °C 7,7 °C 95 % 1016,8 hPa 0,2 mm 5,9 km/h (2 Bft) W 266 ° 0 min 0,000 mm 0,0 UV-I 0 W/m² 7,0 °C 6,9 °C 9,7 km/h (2 Bft)
03.09.2017 04:00 7,7 °C 7,7 °C 95 % 1016,8 hPa 0,0 mm 5,5 km/h (1 Bft) W-SW 245 ° 0 min 0,000 mm 0,0 UV-I 0 W/m² 7,0 °C 7,0 °C 9,7 km/h (2 Bft)
03.09.2017 04:01 7,7 °C 7,7 °C 95 % 1016,8 hPa 0,0 mm 5,0 km/h (1 Bft) W 281 ° 0 min 0,000 mm 0,0 UV-I 0 W/m² 7,0 °C 7,1 °C 6,4 km/h (2 Bft)
03.09.2017 04:02 7,7 °C 7,7 °C 95 % 1016,8 hPa 0,0 mm 3,5 km/h (1 Bft) W-NW 300 ° 0 min 0,000 mm 0,0 UV-I 0 W/m² 7,0 °C 7,7 °C 4,8 km/h (1 Bft)
03.09.2017 04:03 7,7 °C 7,7 °C 95 % 1016,8 hPa 0,0 mm 3,2 km/h (1 Bft) W 281 ° 0 min 0,000 mm 0,0 UV-I 0 W/m² 7,0 °C 7,7 °C 4,8 km/h (1 Bft)
03.09.2017 04:04 7,7 °C 7,7 °C 95 % 1016,8 hPa 0,2 mm 1,9 km/h (1 Bft) W-SW 255 ° 0 min 0,000 mm 0,0 UV-I 0 W/m² 7,0 °C 7,7 °C 4,8 km/h (1 Bft)
03.09.2017 04:05 7,7 °C 7,7 °C 95 % 1016,8 hPa 0,0 mm 4,4 km/h (1 Bft) W-SW 249 ° 0 min 0,000 mm 0,0 UV-I 0 W/m² 7,0 °C 7,7 °C 6,4 km/h (2 Bft)
03.09.2017 04:06 7,7 °C 7,7 °C 95 % 1016,8 hPa 0,0 mm 0,8 km/h (0 Bft) W-SW 249 ° 0 min 0,000 mm 0,0 UV-I 0 W/m² 7,0 °C 7,7 °C 3,2 km/h (1 Bft)
03.09.2017 04:07 7,6 °C 7,7 °C 95 % 1016,8 hPa 0,0 mm 3,6 km/h (1 Bft) W 260 ° 0 min 0,000 mm 0,0 UV-I 0 W/m² 6,9 °C 7,6 °C 6,4 km/h (2 Bft)
03.09.2017 04:08 7,7 °C 7,7 °C 95 % 1016,8 hPa 0,0 mm 2,8 km/h (1 Bft) W-SW 246 ° 0 min 0,000 mm 0,0 UV-I 0 W/m² 7,0 °C 7,7 °C 4,8 km/h (1 Bft)
03.09.2017 04:09 7,7 °C 7,7 °C 95 % 1016,8 hPa 0,0 mm 3,1 km/h (1 Bft) SW 229 ° 0 min 0,000 mm 0,0 UV-I 0 W/m² 7,0 °C 7,7 °C 3,2 km/h (1 Bft)
03.09.2017 04:10 7,7 °C 7,7 °C 95 % 1016,8 hPa 0,0 mm 1,7 km/h (1 Bft) W-SW 243 ° 0 min 0,000 mm 0,0 UV-I 0 W/m² 7,0 °C 7,7 °C 4,8 km/h (1 Bft)
03.09.2017 04:11 7,7 °C 7,7 °C 95 % 1016,8 hPa 0,0 mm 3,8 km/h (1 Bft) W 271 ° 0 min 0,000 mm 0,0 UV-I 0 W/m² 7,0 °C 7,7 °C 6,4 km/h (2 Bft)
03.09.2017 04:12 7,7 °C 7,7 °C 95 % 1016,8 hPa 0,0 mm 4,4 km/h (1 Bft) W 259 ° 0 min 0,000 mm 0,0 UV-I 0 W/m² 7,0 °C 7,7 °C 6,4 km/h (2 Bft)
03.09.2017 04:13 7,6 °C 7,7 °C 95 % 1016,8 hPa 0,2 mm 1,4 km/h (1 Bft) W 262 ° 0 min 0,000 mm 0,0 UV-I 0 W/m² 6,9 °C 7,6 °C 3,2 km/h (1 Bft)
03.09.2017 04:14 7,7 °C 7,7 °C 95 % 1016,8 hPa 0,0 mm 2,1 km/h (1 Bft) W-SW 250 ° 0 min 0,000 mm 0,0 UV-I 0 W/m² 7,0 °C 7,7 °C 3,2 km/h (1 Bft)
03.09.2017 04:15 7,6 °C 7,7 °C 95 % 1016,8 hPa 0,0 mm 0,6 km/h (0 Bft) W-SW 250 ° 0 min 0,000 mm 0,0 UV-I 0 W/m² 6,9 °C 7,6 °C 3,2 km/h (1 Bft)
03.09.2017 04:16 7,6 °C 7,7 °C 95 % 1016,8 hPa 0,0 mm 0,0 km/h (0 Bft) W-SW 250 ° 0 min 0,000 mm 0,0 UV-I 0 W/m² 6,9 °C 7,6 °C 0,0 km/h (0 Bft)
03.09.2017 04:17 7,6 °C 7,7 °C 95 % 1016,9 hPa 0,0 mm 0,1 km/h (0 Bft) W-SW 244 ° 0 min 0,000 mm 0,0 UV-I 0 W/m² 6,9 °C 7,6 °C 1,6 km/h (1 Bft)
03.09.2017 04:18 7,6 °C 7,6 °C 95 % 1016,8 hPa 0,0 mm 0,0 km/h (0 Bft) W-SW 244 ° 0 min 0,000 mm 0,0 UV-I 0 W/m² 6,9 °C 7,6 °C 0,0 km/h (0 Bft)
03.09.2017 04:19 7,6 °C 7,6 °C 95 % 1016,9 hPa 0,0 mm 1,0 km/h (0 Bft) W-SW 244 ° 0 min 0,000 mm 0,0 UV-I 0 W/m² 6,9 °C 7,6 °C 3,2 km/h (1 Bft)
03.09.2017 04:20 7,7 °C 7,7 °C 95 % 1016,9 hPa 0,0 mm 1,7 km/h (1 Bft) W-SW 244 ° 0 min 0,000 mm 0,0 UV-I 0 W/m² 7,0 °C 7,7 °C 3,2 km/h (1 Bft)
03.09.2017 04:21 7,7 °C 7,7 °C 95 % 1016,9 hPa 0,0 mm 0,2 km/h (0 Bft) W-SW 244 ° 0 min 0,000 mm 0,0 UV-I 0 W/m² 7,0 °C 7,7 °C 1,6 km/h (1 Bft)
03.09.2017 04:22 7,7 °C 7,7 °C 95 % 1016,9 hPa 0,2 mm 0,0 km/h (0 Bft) W-SW 244 ° 0 min 0,000 mm 0,0 UV-I 0 W/m² 7,0 °C 7,7 °C 0,0 km/h (0 Bft)
03.09.2017 04:23 7,6 °C 7,7 °C 95 % 1016,9 hPa 0,0 mm 0,0 km/h (0 Bft) W-SW 244 ° 0 min 0,000 mm 0,0 UV-I 0 W/m² 6,9 °C 7,6 °C 0,0 km/h (0 Bft)
03.09.2017 04:24 7,6 °C 7,6 °C 95 % 1017,0 hPa 0,0 mm 0,0 km/h (0 Bft) W-SW 244 ° 0 min 0,000 mm 0,0 UV-I 0 W/m² 6,9 °C 7,6 °C 0,0 km/h (0 Bft)
03.09.2017 04:25 7,6 °C 7,6 °C 95 % 1016,9 hPa 0,0 mm 0,0 km/h (0 Bft) W-SW 244 ° 0 min 0,000 mm 0,0 UV-I 0 W/m² 6,9 °C 7,6 °C 0,0 km/h (0 Bft)
03.09.2017 04:26 7,6 °C 7,7 °C 95 % 1017,0 hPa 0,0 mm 0,0 km/h (0 Bft) W-SW 244 ° 0 min 0,000 mm 0,0 UV-I 0 W/m² 6,9 °C 7,6 °C 0,0 km/h (0 Bft)
03.09.2017 04:27 7,7 °C 7,7 °C 95 % 1016,9 hPa 0,2 mm 1,0 km/h (0 Bft) W-SW 244 ° 0 min 0,000 mm 0,0 UV-I 0 W/m² 7,0 °C 7,7 °C 1,6 km/h (1 Bft)
03.09.2017 04:28 7,6 °C 7,7 °C 95 % 1017,0 hPa 0,0 mm 0,8 km/h (0 Bft) W-SW 244 ° 0 min 0,000 mm 0,0 UV-I 0 W/m² 6,9 °C 7,6 °C 3,2 km/h (1 Bft)
03.09.2017 04:29 7,7 °C 7,7 °C 95 % 1016,9 hPa 0,0 mm 0,7 km/h (0 Bft) W-SW 244 ° 0 min 0,000 mm 0,0 UV-I 0 W/m² 7,0 °C 7,7 °C 1,6 km/h (1 Bft)
03.09.2017 04:30 7,7 °C 7,7 °C 95 % 1017,0 hPa 0,0 mm 0,0 km/h (0 Bft) W-SW 244 ° 0 min 0,000 mm 0,0 UV-I 0 W/m² 7,0 °C 7,7 °C 0,0 km/h (0 Bft)
03.09.2017 04:31 7,6 °C 7,7 °C 95 % 1017,0 hPa 0,0 mm 0,6 km/h (0 Bft) W-SW 244 ° 0 min 0,000 mm 0,0 UV-I 0 W/m² 6,9 °C 7,6 °C 1,6 km/h (1 Bft)
03.09.2017 04:32 7,6 °C 7,7 °C 95 % 1017,0 hPa 0,2 mm 0,9 km/h (0 Bft) W-SW 244 ° 0 min 0,000 mm 0,0 UV-I 0 W/m² 6,9 °C 7,6 °C 1,6 km/h (1 Bft)
03.09.2017 04:33 7,6 °C 7,7 °C 95 % 1017,0 hPa 0,0 mm 0,9 km/h (0 Bft) W-SW 244 ° 0 min 0,000 mm 0,0 UV-I 0 W/m² 6,9 °C 7,6 °C 1,6 km/h (1 Bft)
03.09.2017 04:34 7,6 °C 7,6 °C 95 % 1016,9 hPa 0,0 mm 1,2 km/h (1 Bft) W-SW 244 ° 0 min 0,000 mm 0,0 UV-I 0 W/m² 6,9 °C 7,6 °C 1,6 km/h (1 Bft)
03.09.2017 04:35 7,7 °C 7,7 °C 95 % 1017,0 hPa 0,0 mm 1,5 km/h (1 Bft) W-SW 237 ° 0 min 0,000 mm 0,0 UV-I 0 W/m² 7,0 °C 7,7 °C 3,2 km/h (1 Bft)
03.09.2017 04:36 7,6 °C 7,7 °C 95 % 1017,0 hPa 0,0 mm 2,1 km/h (1 Bft) SW 236 ° 0 min 0,000 mm 0,0 UV-I 0 W/m² 6,9 °C 7,6 °C 3,2 km/h (1 Bft)
03.09.2017 04:37 7,6 °C 7,7 °C 95 % 1017,0 hPa 0,0 mm 0,2 km/h (0 Bft) SW 236 ° 0 min 0,000 mm 0,0 UV-I 0 W/m² 6,9 °C 7,6 °C 1,6 km/h (1 Bft)
03.09.2017 04:38 7,6 °C 7,6 °C 95 % 1017,0 hPa 0,0 mm 0,0 km/h (0 Bft) SW 236 ° 0 min 0,000 mm 0,0 UV-I 0 W/m² 6,9 °C 7,6 °C 0,0 km/h (0 Bft)
03.09.2017 04:39 7,6 °C 7,6 °C 95 % 1017,0 hPa 0,0 mm 0,0 km/h (0 Bft) SW 236 ° 0 min 0,000 mm 0,0 UV-I 0 W/m² 6,9 °C 7,6 °C 0,0 km/h (0 Bft)
03.09.2017 04:40 7,6 °C 7,6 °C 95 % 1017,0 hPa 0,0 mm 0,0 km/h (0 Bft) SW 236 ° 0 min 0,000 mm 0,0 UV-I 0 W/m² 6,9 °C 7,6 °C 0,0 km/h (0 Bft)
03.09.2017 04:41 7,6 °C 7,6 °C 95 % 1016,9 hPa 0,2 mm 0,9 km/h (0 Bft) SW 236 ° 0 min 0,000 mm 0,0 UV-I 0 W/m² 6,9 °C 7,6 °C 3,2 km/h (1 Bft)
03.09.2017 04:42 7,6 °C 7,6 °C 95 % 1016,9 hPa 0,0 mm 2,7 km/h (1 Bft) SW 236 ° 0 min 0,000 mm 0,0 UV-I 0 W/m² 6,9 °C 7,6 °C 4,8 km/h (1 Bft)
03.09.2017 04:43 7,6 °C 7,6 °C 95 % 1017,0 hPa 0,0 mm 2,9 km/h (1 Bft) SW 229 ° 0 min 0,000 mm 0,0 UV-I 0 W/m² 6,9 °C 7,6 °C 4,8 km/h (1 Bft)
03.09.2017 04:44 7,6 °C 7,6 °C 95 % 1017,0 hPa 0,0 mm 1,8 km/h (1 Bft) SW 229 ° 0 min 0,000 mm 0,0 UV-I 0 W/m² 6,9 °C 7,6 °C 4,8 km/h (1 Bft)
03.09.2017 04:45 7,6 °C 7,6 °C 95 % 1017,0 hPa 0,0 mm 2,6 km/h (1 Bft) SW 223 ° 0 min 0,000 mm 0,0 UV-I 0 W/m² 6,9 °C 7,6 °C 4,8 km/h (1 Bft)
03.09.2017 04:46 7,6 °C 7,6 °C 95 % 1017,0 hPa 0,0 mm 0,8 km/h (0 Bft) SW 223 ° 0 min 0,000 mm 0,0 UV-I 0 W/m² 6,9 °C 7,6 °C 3,2 km/h (1 Bft)
03.09.2017 04:47 7,6 °C 7,6 °C 95 % 1016,9 hPa 0,0 mm 1,3 km/h (1 Bft) SW 223 ° 0 min 0,000 mm 0,0 UV-I 0 W/m² 6,9 °C 7,6 °C 1,6 km/h (1 Bft)
03.09.2017 04:48 7,6 °C 7,6 °C 95 % 1016,9 hPa 0,0 mm 1,0 km/h (0 Bft) SW 223 ° 0 min 0,000 mm 0,0 UV-I 0 W/m² 6,9 °C 7,6 °C 3,2 km/h (1 Bft)
03.09.2017 04:49 7,6 °C 7,6 °C 95 % 1016,9 hPa 0,0 mm 2,4 km/h (1 Bft) S-SW 209 ° 0 min 0,000 mm 0,0 UV-I 0 W/m² 6,9 °C 7,6 °C 4,8 km/h (1 Bft)
03.09.2017 04:50 7,6 °C 7,6 °C 95 % 1016,9 hPa 0,0 mm 0,3 km/h (0 Bft) S-SW 209 ° 0 min 0,000 mm 0,0 UV-I 0 W/m² 6,9 °C 7,6 °C 1,6 km/h (1 Bft)
03.09.2017 04:51 7,6 °C 7,6 °C 95 % 1016,9 hPa 0,0 mm 0,5 km/h (0 Bft) S-SW 209 ° 0 min 0,000 mm 0,0 UV-I 0 W/m² 6,9 °C 7,6 °C 1,6 km/h (1 Bft)
03.09.2017 04:52 7,6 °C 7,6 °C 95 % 1016,9 hPa 0,0 mm 0,1 km/h (0 Bft) S-SW 209 ° 0 min 0,000 mm 0,0 UV-I 0 W/m² 6,9 °C 7,6 °C 1,6 km/h (1 Bft)
03.09.2017 04:53 7,6 °C 7,6 °C 95 % 1016,9 hPa 0,0 mm 2,9 km/h (1 Bft) W-SW 252 ° 0 min 0,000 mm 0,0 UV-I 0 W/m² 6,9 °C 7,6 °C 6,4 km/h (2 Bft)
03.09.2017 04:54 7,6 °C 7,6 °C 95 % 1016,9 hPa 0,0 mm 3,1 km/h (1 Bft) W-SW 246 ° 0 min 0,000 mm 0,0 UV-I 0 W/m² 6,9 °C 7,6 °C 4,8 km/h (1 Bft)
03.09.2017 04:55 7,6 °C 7,6 °C 95 % 1016,9 hPa 0,0 mm 1,0 km/h (0 Bft) W-SW 246 ° 0 min 0,000 mm 0,0 UV-I 0 W/m² 6,9 °C 7,6 °C 3,2 km/h (1 Bft)
03.09.2017 04:56 7,6 °C 7,7 °C 95 % 1016,9 hPa 0,2 mm 6,0 km/h (2 Bft) W-SW 253 ° 0 min 0,000 mm 0,0 UV-I 0 W/m² 6,9 °C 6,7 °C 11,3 km/h (2 Bft)
03.09.2017 04:57 7,7 °C 7,7 °C 95 % 1016,9 hPa 0,0 mm 1,3 km/h (1 Bft) SW 236 ° 0 min 0,000 mm 0,0 UV-I 0 W/m² 7,0 °C 7,7 °C 1,6 km/h (1 Bft)
03.09.2017 04:58 7,7 °C 7,7 °C 95 % 1016,9 hPa 0,0 mm 0,2 km/h (0 Bft) SW 236 ° 0 min 0,000 mm 0,0 UV-I 0 W/m² 7,0 °C 7,7 °C 1,6 km/h (1 Bft)
03.09.2017 04:59 7,7 °C 7,7 °C 95 % 1016,9 hPa 0,0 mm 0,0 km/h (0 Bft) SW 236 ° 0 min 0,000 mm 0,0 UV-I 0 W/m² 7,0 °C 7,7 °C 0,0 km/h (0 Bft)
03.09.2017 05:00 7,7 °C 7,7 °C 95 % 1016,9 hPa 0,0 mm 2,1 km/h (1 Bft) SW 230 ° 0 min 0,000 mm 0,0 UV-I 0 W/m² 7,0 °C 7,7 °C 3,2 km/h (1 Bft)
03.09.2017 05:01 7,7 °C 7,7 °C 95 % 1017,0 hPa 0,0 mm 0,1 km/h (0 Bft) SW 230 ° 0 min 0,000 mm 0,0 UV-I 0 W/m² 7,0 °C 7,7 °C 1,6 km/h (1 Bft)
03.09.2017 05:02 7,6 °C 7,7 °C 95 % 1016,9 hPa 0,0 mm 0,0 km/h (0 Bft) SW 230 ° 0 min 0,000 mm 0,0 UV-I 0 W/m² 6,9 °C 7,6 °C 0,0 km/h (0 Bft)
03.09.2017 05:03 7,6 °C 7,7 °C 95 % 1017,0 hPa 0,0 mm 0,7 km/h (0 Bft) W-SW 253 ° 0 min 0,000 mm 0,0 UV-I 0 W/m² 6,9 °C 7,6 °C 3,2 km/h (1 Bft)
03.09.2017 05:04 7,6 °C 7,7 °C 95 % 1016,9 hPa 0,0 mm 3,8 km/h (1 Bft) W 269 ° 0 min 0,000 mm 0,0 UV-I 0 W/m² 6,9 °C 7,6 °C 6,4 km/h (2 Bft)
03.09.2017 05:05 7,7 °C 7,7 °C 95 % 1017,0 hPa 0,0 mm 1,9 km/h (1 Bft) W 261 ° 0 min 0,000 mm 0,0 UV-I 0 W/m² 7,0 °C 7,7 °C 3,2 km/h (1 Bft)
03.09.2017 05:06 7,6 °C 7,7 °C 95 % 1016,9 hPa 0,0 mm 1,5 km/h (1 Bft) SW 236 ° 0 min 0,000 mm 0,0 UV-I 0 W/m² 6,9 °C 7,6 °C 3,2 km/h (1 Bft)
03.09.2017 05:07 7,6 °C 7,6 °C 95 % 1016,9 hPa 0,0 mm 2,7 km/h (1 Bft) SW 235 ° 0 min 0,000 mm 0,0 UV-I 0 W/m² 6,9 °C 7,6 °C 6,4 km/h (2 Bft)
03.09.2017 05:08 7,6 °C 7,7 °C 95 % 1016,9 hPa 0,2 mm 2,7 km/h (1 Bft) SW 234 ° 0 min 0,000 mm 0,0 UV-I 0 W/m² 6,9 °C 7,6 °C 4,8 km/h (1 Bft)
03.09.2017 05:09 7,6 °C 7,6 °C 95 % 1017,0 hPa 0,0 mm 3,7 km/h (1 Bft) SW 233 ° 0 min 0,000 mm 0,0 UV-I 0 W/m² 6,9 °C 7,6 °C 6,4 km/h (2 Bft)
03.09.2017 05:10 7,6 °C 7,7 °C 95 % 1017,0 hPa 0,0 mm 0,5 km/h (0 Bft) SW 233 ° 0 min 0,000 mm 0,0 UV-I 0 W/m² 6,9 °C 7,6 °C 1,6 km/h (1 Bft)
03.09.2017 05:11 7,7 °C 7,7 °C 95 % 1017,0 hPa 0,0 mm 2,7 km/h (1 Bft) W 267 ° 0 min 0,000 mm 0,0 UV-I 0 W/m² 7,0 °C 7,7 °C 4,8 km/h (1 Bft)
03.09.2017 05:12 7,6 °C 7,7 °C 95 % 1017,0 hPa 0,0 mm 0,0 km/h (0 Bft) W 267 ° 0 min 0,000 mm 0,0 UV-I 0 W/m² 6,9 °C 7,6 °C 0,0 km/h (0 Bft)
03.09.2017 05:13 7,7 °C 7,7 °C 95 % 1017,0 hPa 0,0 mm 2,8 km/h (1 Bft) W 271 ° 0 min 0,000 mm 0,0 UV-I 0 W/m² 7,0 °C 7,7 °C 4,8 km/h (1 Bft)
03.09.2017 05:14 7,6 °C 7,7 °C 95 % 1017,0 hPa 0,0 mm 2,2 km/h (1 Bft) W 271 ° 0 min 0,000 mm 0,0 UV-I 0 W/m² 6,9 °C 7,6 °C 4,8 km/h (1 Bft)
03.09.2017 05:15 7,7 °C 7,7 °C 95 % 1017,0 hPa 0,0 mm 0,8 km/h (0 Bft) W 271 ° 0 min 0,000 mm 0,0 UV-I 0 W/m² 7,0 °C 7,7 °C 3,2 km/h (1 Bft)
03.09.2017 05:16 7,7 °C 7,7 °C 95 % 1017,0 hPa 0,0 mm 2,1 km/h (1 Bft) W-SW 242 ° 0 min 0,000 mm 0,0 UV-I 0 W/m² 7,0 °C 7,7 °C 3,2 km/h (1 Bft)
03.09.2017 05:17 7,7 °C 7,7 °C 95 % 1017,0 hPa 0,0 mm 1,5 km/h (1 Bft) W-SW 242 ° 0 min 0,000 mm 0,0 UV-I 0 W/m² 7,0 °C 7,7 °C 3,2 km/h (1 Bft)
03.09.2017 05:18 7,7 °C 7,7 °C 95 % 1016,9 hPa 0,0 mm 1,7 km/h (1 Bft) W-SW 242 ° 0 min 0,000 mm 0,0 UV-I 0 W/m² 7,0 °C 7,7 °C 3,2 km/h (1 Bft)
03.09.2017 05:19 7,7 °C 7,7 °C 95 % 1017,0 hPa 0,2 mm 0,4 km/h (0 Bft) W-SW 242 ° 0 min 0,000 mm 0,0 UV-I 0 W/m² 7,0 °C 7,7 °C 1,6 km/h (1 Bft)
03.09.2017 05:20 7,7 °C 7,7 °C 95 % 1017,0 hPa 0,0 mm 0,3 km/h (0 Bft) W-SW 243 ° 0 min 0,000 mm 0,0 UV-I 0 W/m² 7,0 °C 7,7 °C 1,6 km/h (1 Bft)
03.09.2017 05:21 7,6 °C 7,7 °C 95 % 1016,9 hPa 0,0 mm 0,6 km/h (0 Bft) W-SW 243 ° 0 min 0,000 mm 0,0 UV-I 0 W/m² 6,9 °C 7,6 °C 1,6 km/h (1 Bft)
03.09.2017 05:22 7,6 °C 7,7 °C 95 % 1016,9 hPa 0,0 mm 1,3 km/h (1 Bft) W-SW 238 ° 0 min 0,000 mm 0,0 UV-I 0 W/m² 6,9 °C 7,6 °C 3,2 km/h (1 Bft)
03.09.2017 05:23 7,6 °C 7,6 °C 95 % 1016,9 hPa 0,0 mm 0,0 km/h (0 Bft) W-SW 238 ° 0 min 0,000 mm 0,0 UV-I 0 W/m² 6,9 °C 7,6 °C 0,0 km/h (0 Bft)
03.09.2017 05:24 7,6 °C 7,6 °C 95 % 1016,9 hPa 0,0 mm 0,6 km/h (0 Bft) W-SW 238 ° 0 min 0,000 mm 0,0 UV-I 0 W/m² 6,9 °C 7,6 °C 3,2 km/h (1 Bft)
03.09.2017 05:25 7,6 °C 7,6 °C 95 % 1016,9 hPa 0,0 mm 0,5 km/h (0 Bft) W-SW 238 ° 0 min 0,000 mm 0,0 UV-I 0 W/m² 6,9 °C 7,6 °C 1,6 km/h (1 Bft)
03.09.2017 05:26 7,6 °C 7,6 °C 95 % 1017,0 hPa 0,0 mm 2,5 km/h (1 Bft) W-SW 243 ° 0 min 0,000 mm 0,0 UV-I 0 W/m² 6,9 °C 7,6 °C 6,4 km/h (2 Bft)
03.09.2017 05:27 7,6 °C 7,6 °C 95 % 1016,9 hPa 0,0 mm 1,6 km/h (1 Bft) W-SW 243 ° 0 min 0,000 mm 0,0 UV-I 0 W/m² 6,9 °C 7,6 °C 3,2 km/h (1 Bft)
03.09.2017 05:28 7,6 °C 7,6 °C 95 % 1016,9 hPa 0,0 mm 3,2 km/h (1 Bft) S 182 ° 0 min 0,000 mm 0,0 UV-I 0 W/m² 6,9 °C 7,6 °C 4,8 km/h (1 Bft)
03.09.2017 05:29 7,6 °C 7,6 °C 95 % 1016,9 hPa 0,0 mm 2,1 km/h (1 Bft) S-SW 202 ° 0 min 0,000 mm 0,0 UV-I 0 W/m² 6,9 °C 7,6 °C 4,8 km/h (1 Bft)
03.09.2017 05:30 7,6 °C 7,6 °C 95 % 1016,9 hPa 0,0 mm 1,7 km/h (1 Bft) S-SW 202 ° 0 min 0,000 mm 0,0 UV-I 0 W/m² 6,9 °C 7,6 °C 3,2 km/h (1 Bft)
03.09.2017 05:31 7,6 °C 7,6 °C 95 % 1016,9 hPa 0,0 mm 1,8 km/h (1 Bft) SW 218 ° 0 min 0,000 mm 0,0 UV-I 0 W/m² 6,9 °C 7,6 °C 3,2 km/h (1 Bft)
03.09.2017 05:32 7,6 °C 7,6 °C 95 % 1016,9 hPa 0,0 mm 1,7 km/h (1 Bft) SW 218 ° 0 min 0,000 mm 0,0 UV-I 0 W/m² 6,9 °C 7,6 °C 3,2 km/h (1 Bft)
03.09.2017 05:33 7,6 °C 7,6 °C 95 % 1016,9 hPa 0,0 mm 0,0 km/h (0 Bft) SW 218 ° 0 min 0,000 mm 0,0 UV-I 0 W/m² 6,9 °C 7,6 °C 0,0 km/h (0 Bft)
03.09.2017 05:34 7,6 °C 7,6 °C 95 % 1016,9 hPa 0,2 mm 0,0 km/h (0 Bft) SW 218 ° 0 min 0,000 mm 0,0 UV-I 0 W/m² 6,9 °C 7,6 °C 0,0 km/h (0 Bft)
03.09.2017 05:35 7,6 °C 7,6 °C 95 % 1016,8 hPa 0,0 mm 0,0 km/h (0 Bft) SW 218 ° 0 min 0,000 mm 0,0 UV-I 0 W/m² 6,9 °C 7,6 °C 0,0 km/h (0 Bft)
03.09.2017 05:36 7,6 °C 7,6 °C 95 % 1016,8 hPa 0,0 mm 2,3 km/h (1 Bft) SW 225 ° 0 min 0,000 mm 0,0 UV-I 0 W/m² 6,9 °C 7,6 °C 4,8 km/h (1 Bft)
03.09.2017 05:37 7,6 °C 7,6 °C 95 % 1016,9 hPa 0,0 mm 0,0 km/h (0 Bft) SW 225 ° 0 min 0,000 mm 0,0 UV-I 0 W/m² 6,9 °C 7,6 °C 0,0 km/h (0 Bft)
03.09.2017 05:38 7,6 °C 7,6 °C 95 % 1016,8 hPa 0,0 mm 0,2 km/h (0 Bft) S-SW 208 ° 0 min 0,000 mm 0,0 UV-I 0 W/m² 6,9 °C 7,6 °C 1,6 km/h (1 Bft)
03.09.2017 05:39 7,6 °C 7,6 °C 95 % 1016,8 hPa 0,0 mm 1,9 km/h (1 Bft) S-SW 208 ° 0 min 0,000 mm 0,0 UV-I 0 W/m² 6,9 °C 7,6 °C 4,8 km/h (1 Bft)
03.09.2017 05:40 7,6 °C 7,6 °C 95 % 1016,8 hPa 0,0 mm 0,4 km/h (0 Bft) S-SW 208 ° 0 min 0,000 mm 0,0 UV-I 0 W/m² 6,9 °C 7,6 °C 3,2 km/h (1 Bft)
03.09.2017 05:41 7,6 °C 7,6 °C 95 % 1016,8 hPa 0,0 mm 1,2 km/h (1 Bft) S-SW 208 ° 0 min 0,000 mm 0,0 UV-I 0 W/m² 6,9 °C 7,6 °C 3,2 km/h (1 Bft)
03.09.2017 05:42 7,6 °C 7,6 °C 95 % 1016,8 hPa 0,0 mm 1,5 km/h (1 Bft) W-SW 246 ° 0 min 0,000 mm 0,0 UV-I 0 W/m² 6,9 °C 7,6 °C 4,8 km/h (1 Bft)
03.09.2017 05:43 7,6 °C 7,6 °C 95 % 1016,8 hPa 0,0 mm 2,5 km/h (1 Bft) W-SW 253 ° 0 min 0,000 mm 0,0 UV-I 0 W/m² 6,9 °C 7,6 °C 4,8 km/h (1 Bft)
03.09.2017 05:44 7,6 °C 7,6 °C 95 % 1016,9 hPa 0,0 mm 3,0 km/h (1 Bft) SW 215 ° 0 min 0,000 mm 0,0 UV-I 0 W/m² 6,9 °C 7,6 °C 4,8 km/h (1 Bft)
03.09.2017 05:45 7,6 °C 7,6 °C 95 % 1016,9 hPa 0,0 mm 1,0 km/h (0 Bft) W-SW 248 ° 0 min 0,000 mm 0,0 UV-I 0 W/m² 6,9 °C 7,6 °C 3,2 km/h (1 Bft)
03.09.2017 05:46 7,6 °C 7,6 °C 95 % 1016,9 hPa 0,0 mm 2,8 km/h (1 Bft) S-SW 196 ° 0 min 0,000 mm 0,0 UV-I 0 W/m² 6,9 °C 7,6 °C 4,8 km/h (1 Bft)
03.09.2017 05:47 7,6 °C 7,6 °C 95 % 1016,9 hPa 0,0 mm 6,2 km/h (2 Bft) SW 236 ° 0 min 0,000 mm 0,0 UV-I 0 W/m² 6,9 °C 6,7 °C 11,3 km/h (2 Bft)
03.09.2017 05:48 7,6 °C 7,6 °C 95 % 1016,9 hPa 0,0 mm 3,9 km/h (1 Bft) S-SW 207 ° 0 min 0,000 mm 0,0 UV-I 0 W/m² 6,9 °C 7,6 °C 8,0 km/h (2 Bft)
03.09.2017 05:49 7,6 °C 7,6 °C 95 % 1016,9 hPa 0,0 mm 2,6 km/h (1 Bft) W-SW 238 ° 0 min 0,000 mm 0,0 UV-I 0 W/m² 6,9 °C 7,6 °C 4,8 km/h (1 Bft)
03.09.2017 05:50 7,6 °C 7,6 °C 95 % 1016,9 hPa 0,0 mm 1,0 km/h (0 Bft) SW 229 ° 0 min 0,000 mm 0,0 UV-I 0 W/m² 6,9 °C 7,6 °C 3,2 km/h (1 Bft)
03.09.2017 05:51 7,6 °C 7,6 °C 95 % 1016,9 hPa 0,0 mm 0,5 km/h (0 Bft) SW 227 ° 0 min 0,000 mm 0,0 UV-I 0 W/m² 6,9 °C 7,6 °C 3,2 km/h (1 Bft)
03.09.2017 05:52 7,6 °C 7,6 °C 95 % 1016,9 hPa 0,0 mm 0,7 km/h (0 Bft) SW 227 ° 0 min 0,000 mm 0,0 UV-I 0 W/m² 6,9 °C 7,6 °C 1,6 km/h (1 Bft)
03.09.2017 05:53 7,6 °C 7,6 °C 95 % 1016,9 hPa 0,2 mm 0,7 km/h (0 Bft) SW 227 ° 0 min 0,000 mm 0,0 UV-I 0 W/m² 6,9 °C 7,6 °C 3,2 km/h (1 Bft)
03.09.2017 05:54 7,6 °C 7,6 °C 95 % 1016,8 hPa 0,0 mm 3,3 km/h (1 Bft) W-SW 257 ° 0 min 0,000 mm 0,0 UV-I 0 W/m² 6,9 °C 7,6 °C 6,4 km/h (2 Bft)
03.09.2017 05:55 7,6 °C 7,6 °C 95 % 1016,8 hPa 0,0 mm 1,7 km/h (1 Bft) S 188 ° 0 min 0,000 mm 0,0 UV-I 0 W/m² 6,9 °C 7,6 °C 3,2 km/h (1 Bft)
03.09.2017 05:56 7,6 °C 7,6 °C 95 % 1016,8 hPa 0,0 mm 2,8 km/h (1 Bft) SW 233 ° 0 min 0,000 mm 0,0 UV-I 0 W/m² 6,9 °C 7,6 °C 4,8 km/h (1 Bft)
03.09.2017 05:57 7,6 °C 7,6 °C 95 % 1016,9 hPa 0,0 mm 2,5 km/h (1 Bft) S 185 ° 0 min 0,000 mm 0,0 UV-I 0 W/m² 6,9 °C 7,6 °C 3,2 km/h (1 Bft)
03.09.2017 05:58 7,6 °C 7,6 °C 95 % 1016,9 hPa 0,0 mm 2,8 km/h (1 Bft) SW 229 ° 0 min 0,000 mm 0,0 UV-I 0 W/m² 6,9 °C 7,6 °C 4,8 km/h (1 Bft)
03.09.2017 05:59 7,6 °C 7,6 °C 95 % 1016,8 hPa 0,0 mm 1,1 km/h (1 Bft) SW 229 ° 0 min 0,000 mm 0,0 UV-I 0 W/m² 6,9 °C 7,6 °C 1,6 km/h (1 Bft)
03.09.2017 06:00 7,6 °C 7,6 °C 95 % 1016,8 hPa 0,0 mm 0,1 km/h (0 Bft) SW 229 ° 0 min 0,000 mm 0,0 UV-I 0 W/m² 6,9 °C 7,6 °C 1,6 km/h (1 Bft)
03.09.2017 06:01 7,6 °C 7,6 °C 95 % 1016,8 hPa 0,0 mm 0,0 km/h (0 Bft) SW 229 ° 0 min 0,000 mm 0,0 UV-I 0 W/m² 6,9 °C 7,6 °C 0,0 km/h (0 Bft)
03.09.2017 06:02 7,6 °C 7,6 °C 95 % 1016,9 hPa 0,0 mm 0,3 km/h (0 Bft) SW 229 ° 0 min 0,000 mm 0,0 UV-I 0 W/m² 6,9 °C 7,6 °C 1,6 km/h (1 Bft)
03.09.2017 06:03 7,6 °C 7,6 °C 95 % 1016,9 hPa 0,0 mm 2,3 km/h (1 Bft) SW 225 ° 0 min 0,000 mm 0,0 UV-I 0 W/m² 6,9 °C 7,6 °C 4,8 km/h (1 Bft)
03.09.2017 06:04 7,6 °C 7,6 °C 95 % 1016,8 hPa 0,0 mm 0,8 km/h (0 Bft) SW 225 ° 0 min 0,000 mm 0,0 UV-I 0 W/m² 6,9 °C 7,6 °C 3,2 km/h (1 Bft)
03.09.2017 06:05 7,6 °C 7,6 °C 95 % 1016,9 hPa 0,0 mm 0,0 km/h (0 Bft) SW 225 ° 0 min 0,000 mm 0,0 UV-I 0 W/m² 6,9 °C 7,6 °C 0,0 km/h (0 Bft)
03.09.2017 06:06 7,6 °C 7,6 °C 95 % 1016,8 hPa 0,0 mm 2,4 km/h (1 Bft) W-SW 252 ° 0 min 0,000 mm 0,0 UV-I 0 W/m² 6,9 °C 7,6 °C 6,4 km/h (2 Bft)
03.09.2017 06:07 7,6 °C 7,6 °C 95 % 1016,9 hPa 0,0 mm 2,6 km/h (1 Bft) W-SW 252 ° 0 min 0,000 mm 0,0 UV-I 0 W/m² 6,9 °C 7,6 °C 4,8 km/h (1 Bft)
03.09.2017 06:08 7,6 °C 7,6 °C 95 % 1016,8 hPa 0,0 mm 1,9 km/h (1 Bft) W-SW 253 ° 0 min 0,000 mm 0,0 UV-I 0 W/m² 6,9 °C 7,6 °C 3,2 km/h (1 Bft)
03.09.2017 06:09 7,6 °C 7,6 °C 95 % 1016,8 hPa 0,0 mm 0,3 km/h (0 Bft) W-SW 253 ° 0 min 0,000 mm 0,0 UV-I 0 W/m² 6,9 °C 7,6 °C 3,2 km/h (1 Bft)
03.09.2017 06:10 7,6 °C 7,6 °C 95 % 1016,8 hPa 0,0 mm 2,0 km/h (1 Bft) W-SW 246 ° 0 min 0,000 mm 0,0 UV-I 0 W/m² 6,9 °C 7,6 °C 3,2 km/h (1 Bft)
03.09.2017 06:11 7,6 °C 7,6 °C 95 % 1016,8 hPa 0,0 mm 1,1 km/h (1 Bft) SW 234 ° 0 min 0,000 mm 0,0 UV-I 0 W/m² 6,9 °C 7,6 °C 4,8 km/h (1 Bft)
03.09.2017 06:12 7,6 °C 7,6 °C 95 % 1016,9 hPa 0,0 mm 0,0 km/h (0 Bft) SW 234 ° 0 min 0,000 mm 0,0 UV-I 0 W/m² 6,9 °C 7,6 °C 0,0 km/h (0 Bft)
03.09.2017 06:13 7,6 °C 7,6 °C 95 % 1016,9 hPa 0,2 mm 0,9 km/h (0 Bft) SW 234 ° 0 min 0,000 mm 0,0 UV-I 0 W/m² 6,9 °C 7,6 °C 1,6 km/h (1 Bft)
03.09.2017 06:14 7,6 °C 7,6 °C 95 % 1016,8 hPa 0,0 mm 3,0 km/h (1 Bft) SW 226 ° 0 min 0,000 mm 0,0 UV-I 0 W/m² 6,9 °C 7,6 °C 4,8 km/h (1 Bft)
03.09.2017 06:15 7,6 °C 7,6 °C 95 % 1016,8 hPa 0,0 mm 0,7 km/h (0 Bft) S-SW 211 ° 0 min 0,000 mm 0,0 UV-I 0 W/m² 6,9 °C 7,6 °C 1,6 km/h (1 Bft)
03.09.2017 06:16 7,6 °C 7,6 °C 95 % 1016,8 hPa 0,0 mm 0,0 km/h (0 Bft) S-SW 211 ° 0 min 0,000 mm 0,0 UV-I 0 W/m² 6,9 °C 7,6 °C 0,0 km/h (0 Bft)
03.09.2017 06:17 7,6 °C 7,6 °C 95 % 1016,8 hPa 0,0 mm 0,6 km/h (0 Bft) S-SW 211 ° 0 min 0,000 mm 0,0 UV-I 0 W/m² 6,9 °C 7,6 °C 3,2 km/h (1 Bft)
03.09.2017 06:18 7,6 °C 7,6 °C 95 % 1016,8 hPa 0,0 mm 2,1 km/h (1 Bft) S-SW 200 ° 0 min 0,000 mm 0,0 UV-I 0 W/m² 6,9 °C 7,6 °C 4,8 km/h (1 Bft)
03.09.2017 06:19 7,6 °C 7,6 °C 95 % 1016,8 hPa 0,0 mm 3,7 km/h (1 Bft) W-SW 256 ° 0 min 0,000 mm 0,0 UV-I 0 W/m² 6,9 °C 7,6 °C 11,3 km/h (2 Bft)
03.09.2017 06:20 7,6 °C 7,6 °C 95 % 1016,8 hPa 0,0 mm 3,5 km/h (1 Bft) W-SW 238 ° 0 min 0,000 mm 0,0 UV-I 0 W/m² 6,9 °C 7,6 °C 6,4 km/h (2 Bft)
03.09.2017 06:21 7,6 °C 7,6 °C 95 % 1016,8 hPa 0,0 mm 3,2 km/h (1 Bft) SW 215 ° 0 min 0,000 mm 0,0 UV-I 0 W/m² 6,9 °C 7,6 °C 6,4 km/h (2 Bft)
03.09.2017 06:22 7,6 °C 7,6 °C 95 % 1016,9 hPa 0,0 mm 2,3 km/h (1 Bft) SW 215 ° 0 min 0,000 mm 0,0 UV-I 0 W/m² 6,9 °C 7,6 °C 4,8 km/h (1 Bft)
03.09.2017 06:23 7,6 °C 7,6 °C 95 % 1016,8 hPa 0,0 mm 4,4 km/h (1 Bft) S-SW 193 ° 0 min 0,000 mm 0,0 UV-I 0 W/m² 6,9 °C 7,6 °C 8,0 km/h (2 Bft)
03.09.2017 06:24 7,6 °C 7,6 °C 95 % 1016,8 hPa 0,0 mm 3,3 km/h (1 Bft) S-SW 207 ° 0 min 0,000 mm 0,0 UV-I 0 W/m² 6,9 °C 7,6 °C 4,8 km/h (1 Bft)
03.09.2017 06:25 7,6 °C 7,6 °C 95 % 1016,8 hPa 0,0 mm 3,2 km/h (1 Bft) SW 232 ° 0 min 0,000 mm 0,0 UV-I 0 W/m² 6,9 °C 7,6 °C 4,8 km/h (1 Bft)
03.09.2017 06:26 7,6 °C 7,6 °C 95 % 1016,8 hPa 0,0 mm 2,7 km/h (1 Bft) S-SW 211 ° 0 min 0,000 mm 0,0 UV-I 0 W/m² 6,9 °C 7,6 °C 6,4 km/h (2 Bft)
03.09.2017 06:27 7,6 °C 7,6 °C 95 % 1016,8 hPa 0,0 mm 1,9 km/h (1 Bft) S-SW 213 ° 0 min 0,000 mm 0,0 UV-I 0 W/m² 6,9 °C 7,6 °C 3,2 km/h (1 Bft)
03.09.2017 06:28 7,6 °C 7,7 °C 95 % 1016,9 hPa 0,0 mm 2,5 km/h (1 Bft) S-SW 195 ° 0 min 0,000 mm 0,0 UV-I 0 W/m² 6,9 °C 7,6 °C 6,4 km/h (2 Bft)
03.09.2017 06:29 7,6 °C 7,7 °C 95 % 1016,9 hPa 0,0 mm 4,4 km/h (1 Bft) S 186 ° 0 min 0,000 mm 0,0 UV-I 0 W/m² 6,9 °C 7,6 °C 8,0 km/h (2 Bft)
03.09.2017 06:30 7,6 °C 7,6 °C 95 % 1016,9 hPa 0,0 mm 2,4 km/h (1 Bft) W-SW 248 ° 0 min 0,000 mm 0,0 UV-I 0 W/m² 6,9 °C 7,6 °C 4,8 km/h (1 Bft)
03.09.2017 06:31 7,6 °C 7,6 °C 95 % 1016,8 hPa 0,0 mm 2,5 km/h (1 Bft) S 188 ° 0 min 0,000 mm 0,0 UV-I 0 W/m² 6,9 °C 7,6 °C 4,8 km/h (1 Bft)
03.09.2017 06:32 7,7 °C 7,7 °C 95 % 1016,9 hPa 0,0 mm 5,0 km/h (1 Bft) S 185 ° 0 min 0,000 mm 0,0 UV-I 0 W/m² 7,0 °C 7,1 °C 6,4 km/h (2 Bft)
03.09.2017 06:33 7,6 °C 7,7 °C 95 % 1016,9 hPa 0,0 mm 3,0 km/h (1 Bft) SW 219 ° 0 min 0,000 mm 0,0 UV-I 0 W/m² 6,9 °C 7,6 °C 4,8 km/h (1 Bft)
03.09.2017 06:34 7,6 °C 7,6 °C 95 % 1016,9 hPa 0,0 mm 4,1 km/h (1 Bft) S-SW 195 ° 0 min 0,000 mm 0,0 UV-I 0 W/m² 6,9 °C 7,6 °C 6,4 km/h (2 Bft)
03.09.2017 06:35 7,6 °C 7,7 °C 95 % 1016,9 hPa 0,0 mm 4,6 km/h (1 Bft) S 185 ° 0 min 0,000 mm 0,0 UV-I 0 W/m² 6,9 °C 7,2 °C 8,0 km/h (2 Bft)
03.09.2017 06:36 7,6 °C 7,7 °C 95 % 1016,9 hPa 0,0 mm 2,1 km/h (1 Bft) S 185 ° 0 min 0,000 mm 0,0 UV-I 0 W/m² 6,9 °C 7,6 °C 3,2 km/h (1 Bft)
03.09.2017 06:37 7,7 °C 7,7 °C 95 % 1016,9 hPa 0,0 mm 3,0 km/h (1 Bft) S 186 ° 0 min 0,000 mm 0,0 UV-I 0 W/m² 7,0 °C 7,7 °C 4,8 km/h (1 Bft)
03.09.2017 06:38 7,7 °C 7,7 °C 95 % 1016,9 hPa 0,0 mm 2,4 km/h (1 Bft) S 186 ° 0 min 0,000 mm 0,0 UV-I 0 W/m² 7,0 °C 7,7 °C 4,8 km/h (1 Bft)
03.09.2017 06:39 7,7 °C 7,7 °C 94 % 1016,8 hPa 0,0 mm 0,0 km/h (0 Bft) S 186 ° 0 min 0,000 mm 0,0 UV-I 0 W/m² 6,8 °C 7,7 °C 0,0 km/h (0 Bft)
03.09.2017 06:40 7,7 °C 7,7 °C 94 % 1016,8 hPa 0,0 mm 0,0 km/h (0 Bft) S 186 ° 0 min 0,000 mm 0,0 UV-I 0 W/m² 6,8 °C 7,7 °C 0,0 km/h (0 Bft)
03.09.2017 06:41 7,7 °C 7,7 °C 94 % 1016,8 hPa 0,0 mm 0,0 km/h (0 Bft) S 186 ° 0 min 0,000 mm 0,0 UV-I 0 W/m² 6,8 °C 7,7 °C 0,0 km/h (0 Bft)
03.09.2017 06:42 7,7 °C 7,7 °C 94 % 1016,8 hPa 0,0 mm 0,3 km/h (0 Bft) S 186 ° 0 min 0,000 mm 0,0 UV-I 0 W/m² 6,8 °C 7,7 °C 1,6 km/h (1 Bft)
03.09.2017 06:43 7,6 °C 7,7 °C 95 % 1016,8 hPa 0,0 mm 0,0 km/h (0 Bft) S 186 ° 0 min 0,000 mm 0,0 UV-I 0 W/m² 6,9 °C 7,6 °C 0,0 km/h (0 Bft)
03.09.2017 06:44 7,7 °C 7,7 °C 95 % 1016,8 hPa 0,0 mm 1,7 km/h (1 Bft) S 186 ° 0 min 0,000 mm 0,0 UV-I 0 W/m² 7,0 °C 7,7 °C 3,2 km/h (1 Bft)
03.09.2017 06:45 7,6 °C 7,7 °C 95 % 1016,8 hPa 0,0 mm 0,0 km/h (0 Bft) S 186 ° 0 min 0,000 mm 0,0 UV-I 0 W/m² 6,9 °C 7,6 °C 0,0 km/h (0 Bft)
03.09.2017 06:46 7,6 °C 7,6 °C 95 % 1016,9 hPa 0,0 mm 0,0 km/h (0 Bft) S 186 ° 0 min 0,000 mm 0,0 UV-I 0 W/m² 6,9 °C 7,6 °C 0,0 km/h (0 Bft)
03.09.2017 06:47 7,6 °C 7,6 °C 95 % 1016,9 hPa 0,0 mm 0,0 km/h (0 Bft) S 186 ° 0 min 0,000 mm 0,0 UV-I 0 W/m² 6,9 °C 7,6 °C 0,0 km/h (0 Bft)
03.09.2017 06:48 7,6 °C 7,7 °C 95 % 1016,9 hPa 0,0 mm 0,0 km/h (0 Bft) S 186 ° 0 min 0,000 mm 0,0 UV-I 0 W/m² 6,9 °C 7,6 °C 0,0 km/h (0 Bft)
03.09.2017 06:49 7,7 °C 7,7 °C 95 % 1016,9 hPa 0,0 mm 0,0 km/h (0 Bft) S 186 ° 0 min 0,000 mm 0,0 UV-I 0 W/m² 7,0 °C 7,7 °C 0,0 km/h (0 Bft)
03.09.2017 06:50 7,7 °C 7,7 °C 95 % 1016,9 hPa 0,0 mm 0,0 km/h (0 Bft) S 186 ° 0 min 0,000 mm 0,0 UV-I 0 W/m² 7,0 °C 7,7 °C 0,0 km/h (0 Bft)
03.09.2017 06:51 7,7 °C 7,7 °C 95 % 1016,9 hPa 0,0 mm 0,0 km/h (0 Bft) S 186 ° 0 min 0,000 mm 0,0 UV-I 0 W/m² 7,0 °C 7,7 °C 0,0 km/h (0 Bft)
03.09.2017 06:52 7,7 °C 7,7 °C 95 % 1016,9 hPa 0,0 mm 0,0 km/h (0 Bft) S 186 ° 0 min 0,000 mm 0,0 UV-I 0 W/m² 7,0 °C 7,7 °C 0,0 km/h (0 Bft)
03.09.2017 06:53 7,7 °C 7,7 °C 95 % 1016,9 hPa 0,0 mm 0,5 km/h (0 Bft) S 186 ° 0 min 0,000 mm 0,0 UV-I 0 W/m² 7,0 °C 7,7 °C 1,6 km/h (1 Bft)
03.09.2017 06:54 7,6 °C 7,7 °C 95 % 1016,9 hPa 0,0 mm 0,3 km/h (0 Bft) S 186 ° 0 min 0,000 mm 0,0 UV-I 0 W/m² 6,9 °C 7,6 °C 1,6 km/h (1 Bft)
03.09.2017 06:55 7,7 °C 7,7 °C 95 % 1016,9 hPa 0,0 mm 1,3 km/h (1 Bft) S 190 ° 0 min 0,000 mm 0,0 UV-I 0 W/m² 7,0 °C 7,7 °C 6,4 km/h (2 Bft)
03.09.2017 06:56 7,7 °C 7,7 °C 95 % 1016,9 hPa 0,0 mm 5,6 km/h (1 Bft) S 188 ° 0 min 0,000 mm 0,0 UV-I 0 W/m² 7,0 °C 6,9 °C 8,0 km/h (2 Bft)
03.09.2017 06:57 7,7 °C 7,7 °C 95 % 1016,9 hPa 0,0 mm 3,2 km/h (1 Bft) W-SW 250 ° 0 min 0,000 mm 0,0 UV-I 5 W/m² 7,0 °C 7,7 °C 6,4 km/h (2 Bft)
03.09.2017 06:58 7,7 °C 7,7 °C 95 % 1016,9 hPa 0,0 mm 2,1 km/h (1 Bft) W-SW 250 ° 0 min 0,000 mm 0,0 UV-I 5 W/m² 7,0 °C 7,7 °C 4,8 km/h (1 Bft)
03.09.2017 06:59 7,7 °C 7,7 °C 95 % 1016,9 hPa 0,0 mm 4,4 km/h (1 Bft) S 188 ° 0 min 0,000 mm 0,0 UV-I 5 W/m² 7,0 °C 7,7 °C 6,4 km/h (2 Bft)
03.09.2017 07:00 7,6 °C 7,7 °C 95 % 1016,9 hPa 0,0 mm 4,1 km/h (1 Bft) S 189 ° 0 min 0,000 mm 0,0 UV-I 5 W/m² 6,9 °C 7,6 °C 6,4 km/h (2 Bft)
03.09.2017 07:01 7,7 °C 7,7 °C 95 % 1016,9 hPa 0,0 mm 3,0 km/h (1 Bft) W-SW 245 ° 0 min 0,000 mm 0,0 UV-I 5 W/m² 7,0 °C 7,7 °C 9,7 km/h (2 Bft)
03.09.2017 07:02 7,7 °C 7,7 °C 95 % 1016,9 hPa 0,0 mm 2,5 km/h (1 Bft) SW 215 ° 0 min 0,000 mm 0,0 UV-I 5 W/m² 7,0 °C 7,7 °C 4,8 km/h (1 Bft)
03.09.2017 07:03 7,7 °C 7,7 °C 95 % 1016,9 hPa 0,0 mm 1,0 km/h (0 Bft) SW 215 ° 0 min 0,000 mm 0,0 UV-I 7 W/m² 7,0 °C 7,7 °C 3,2 km/h (1 Bft)
03.09.2017 07:04 7,7 °C 7,7 °C 95 % 1016,9 hPa 0,0 mm 1,5 km/h (1 Bft) SW 215 ° 0 min 0,000 mm 0,0 UV-I 7 W/m² 7,0 °C 7,7 °C 3,2 km/h (1 Bft)
03.09.2017 07:05 7,7 °C 7,7 °C 95 % 1016,9 hPa 0,0 mm 1,0 km/h (0 Bft) SW 215 ° 0 min 0,000 mm 0,0 UV-I 7 W/m² 7,0 °C 7,7 °C 3,2 km/h (1 Bft)
03.09.2017 07:06 7,7 °C 7,7 °C 95 % 1016,9 hPa 0,0 mm 1,2 km/h (1 Bft) SW 215 ° 0 min 0,000 mm 0,0 UV-I 7 W/m² 7,0 °C 7,7 °C 3,2 km/h (1 Bft)
03.09.2017 07:07 7,7 °C 7,7 °C 95 % 1016,9 hPa 0,0 mm 0,4 km/h (0 Bft) SW 215 ° 0 min 0,000 mm 0,0 UV-I 7 W/m² 7,0 °C 7,7 °C 1,6 km/h (1 Bft)
03.09.2017 07:08 7,7 °C 7,7 °C 95 % 1016,9 hPa 0,0 mm 1,4 km/h (1 Bft) S-SW 196 ° 0 min 0,000 mm 0,0 UV-I 7 W/m² 7,0 °C 7,7 °C 3,2 km/h (1 Bft)
03.09.2017 07:09 7,8 °C 7,8 °C 95 % 1016,9 hPa 0,0 mm 2,2 km/h (1 Bft) S-SW 196 ° 0 min 0,000 mm 0,0 UV-I 7 W/m² 7,0 °C 7,8 °C 4,8 km/h (1 Bft)
03.09.2017 07:10 7,8 °C 7,8 °C 95 % 1016,9 hPa 0,0 mm 0,8 km/h (0 Bft) S-SW 196 ° 0 min 0,000 mm 0,0 UV-I 7 W/m² 7,0 °C 7,8 °C 3,2 km/h (1 Bft)
03.09.2017 07:11 7,8 °C 7,8 °C 94 % 1016,9 hPa 0,0 mm 2,3 km/h (1 Bft) S-SW 196 ° 0 min 0,000 mm 0,0 UV-I 7 W/m² 6,9 °C 7,8 °C 4,8 km/h (1 Bft)
03.09.2017 07:12 7,8 °C 7,8 °C 95 % 1016,9 hPa 0,0 mm 0,8 km/h (0 Bft) S-SW 196 ° 0 min 0,000 mm 0,0 UV-I 7 W/m² 7,0 °C 7,8 °C 3,2 km/h (1 Bft)
03.09.2017 07:13 7,8 °C 7,8 °C 94 % 1016,9 hPa 0,0 mm 1,5 km/h (1 Bft) S-SW 196 ° 0 min 0,000 mm 0,0 UV-I 7 W/m² 6,9 °C 7,8 °C 3,2 km/h (1 Bft)
03.09.2017 07:14 7,8 °C 7,8 °C 94 % 1016,9 hPa 0,0 mm 3,5 km/h (1 Bft) S-SW 199 ° 0 min 0,000 mm 0,0 UV-I 7 W/m² 6,9 °C 7,8 °C 6,4 km/h (2 Bft)
03.09.2017 07:15 7,8 °C 7,8 °C 94 % 1016,9 hPa 0,0 mm 2,5 km/h (1 Bft) SW 214 ° 0 min 0,000 mm 0,0 UV-I 9 W/m² 6,9 °C 7,8 °C 6,4 km/h (2 Bft)
03.09.2017 07:16 7,8 °C 7,8 °C 94 % 1016,9 hPa 0,0 mm 2,8 km/h (1 Bft) SW 236 ° 0 min 0,000 mm 0,0 UV-I 11 W/m² 6,9 °C 7,8 °C 4,8 km/h (1 Bft)
03.09.2017 07:17 7,8 °C 7,8 °C 94 % 1016,9 hPa 0,0 mm 2,3 km/h (1 Bft) SW 226 ° 0 min 0,000 mm 0,0 UV-I 12 W/m² 6,9 °C 7,8 °C 4,8 km/h (1 Bft)
03.09.2017 07:18 7,8 °C 7,8 °C 94 % 1016,9 hPa 0,0 mm 0,7 km/h (0 Bft) SW 226 ° 0 min 0,000 mm 0,0 UV-I 12 W/m² 6,9 °C 7,8 °C 1,6 km/h (1 Bft)
03.09.2017 07:19 7,8 °C 7,8 °C 94 % 1016,9 hPa 0,0 mm 0,0 km/h (0 Bft) SW 226 ° 0 min 0,000 mm 0,0 UV-I 12 W/m² 6,9 °C 7,8 °C 0,0 km/h (0 Bft)
03.09.2017 07:20 7,8 °C 7,8 °C 94 % 1016,9 hPa 0,0 mm 2,6 km/h (1 Bft) W-SW 237 ° 0 min 0,000 mm 0,0 UV-I 14 W/m² 6,9 °C 7,8 °C 4,8 km/h (1 Bft)
03.09.2017 07:21 7,8 °C 7,8 °C 94 % 1016,9 hPa 0,0 mm 0,6 km/h (0 Bft) W-SW 237 ° 0 min 0,000 mm 0,0 UV-I 14 W/m² 6,9 °C 7,8 °C 3,2 km/h (1 Bft)
03.09.2017 07:22 7,8 °C 7,8 °C 94 % 1016,9 hPa 0,0 mm 1,1 km/h (1 Bft) W-SW 237 ° 0 min 0,000 mm 0,0 UV-I 14 W/m² 6,9 °C 7,8 °C 1,6 km/h (1 Bft)
03.09.2017 07:23 7,8 °C 7,8 °C 94 % 1016,9 hPa 0,2 mm 0,9 km/h (0 Bft) W-SW 238 ° 0 min 0,000 mm 0,0 UV-I 14 W/m² 6,9 °C 7,8 °C 1,6 km/h (1 Bft)
03.09.2017 07:24 7,8 °C 7,8 °C 94 % 1016,9 hPa 0,0 mm 2,5 km/h (1 Bft) S-SW 192 ° 0 min 0,000 mm 0,0 UV-I 14 W/m² 6,9 °C 7,8 °C 4,8 km/h (1 Bft)
03.09.2017 07:25 7,8 °C 7,8 °C 94 % 1017,0 hPa 0,0 mm 0,4 km/h (0 Bft) S-SW 192 ° 0 min 0,000 mm 0,0 UV-I 16 W/m² 6,9 °C 7,8 °C 1,6 km/h (1 Bft)
03.09.2017 07:26 7,8 °C 7,8 °C 94 % 1017,0 hPa 0,0 mm 2,3 km/h (1 Bft) S-SW 192 ° 0 min 0,000 mm 0,0 UV-I 16 W/m² 6,9 °C 7,8 °C 3,2 km/h (1 Bft)
03.09.2017 07:27 7,8 °C 7,8 °C 94 % 1016,9 hPa 0,0 mm 4,2 km/h (1 Bft) SW 228 ° 0 min 0,000 mm 0,0 UV-I 16 W/m² 6,9 °C 7,8 °C 9,7 km/h (2 Bft)
03.09.2017 07:28 7,8 °C 7,8 °C 94 % 1017,0 hPa 0,0 mm 2,1 km/h (1 Bft) S-SW 205 ° 0 min 0,000 mm 0,0 UV-I 16 W/m² 6,9 °C 7,8 °C 4,8 km/h (1 Bft)
03.09.2017 07:29 7,8 °C 7,8 °C 94 % 1017,0 hPa 0,0 mm 0,9 km/h (0 Bft) S-SW 205 ° 0 min 0,000 mm 0,0 UV-I 18 W/m² 6,9 °C 7,8 °C 3,2 km/h (1 Bft)
03.09.2017 07:30 7,8 °C 7,8 °C 94 % 1016,9 hPa 0,0 mm 0,7 km/h (0 Bft) S-SW 207 ° 0 min 0,000 mm 0,0 UV-I 18 W/m² 6,9 °C 7,8 °C 3,2 km/h (1 Bft)
03.09.2017 07:31 7,8 °C 7,8 °C 94 % 1017,0 hPa 0,0 mm 1,1 km/h (1 Bft) S-SW 209 ° 0 min 0,000 mm 0,0 UV-I 18 W/m² 6,9 °C 7,8 °C 3,2 km/h (1 Bft)
03.09.2017 07:32 7,8 °C 7,8 °C 94 % 1017,0 hPa 0,0 mm 2,2 km/h (1 Bft) S 186 ° 0 min 0,000 mm 0,0 UV-I 16 W/m² 6,9 °C 7,8 °C 6,4 km/h (2 Bft)
03.09.2017 07:33 7,8 °C 7,8 °C 94 % 1016,9 hPa 0,0 mm 1,5 km/h (1 Bft) S 186 ° 0 min 0,000 mm 0,0 UV-I 16 W/m² 6,9 °C 7,8 °C 6,4 km/h (2 Bft)
03.09.2017 07:34 7,8 °C 7,8 °C 94 % 1017,0 hPa 0,0 mm 1,3 km/h (1 Bft) S 186 ° 0 min 0,000 mm 0,0 UV-I 16 W/m² 6,9 °C 7,8 °C 3,2 km/h (1 Bft)
03.09.2017 07:35 7,8 °C 7,8 °C 94 % 1017,0 hPa 0,0 mm 2,5 km/h (1 Bft) S 186 ° 0 min 0,000 mm 0,0 UV-I 16 W/m² 6,9 °C 7,8 °C 4,8 km/h (1 Bft)
03.09.2017 07:36 7,8 °C 7,8 °C 94 % 1017,0 hPa 0,0 mm 1,3 km/h (1 Bft) S-SW 195 ° 0 min 0,000 mm 0,0 UV-I 16 W/m² 6,9 °C 7,8 °C 4,8 km/h (1 Bft)
03.09.2017 07:37 7,8 °C 7,8 °C 94 % 1017,0 hPa 0,0 mm 3,6 km/h (1 Bft) S-SW 195 ° 0 min 0,000 mm 0,0 UV-I 16 W/m² 6,9 °C 7,8 °C 4,8 km/h (1 Bft)
03.09.2017 07:38 7,8 °C 7,8 °C 94 % 1017,0 hPa 0,0 mm 5,9 km/h (2 Bft) S 173 ° 0 min 0,000 mm 0,0 UV-I 18 W/m² 6,9 °C 7,0 °C 11,3 km/h (2 Bft)
03.09.2017 07:39 7,8 °C 7,8 °C 94 % 1017,0 hPa 0,0 mm 6,0 km/h (2 Bft) W-SW 241 ° 0 min 0,000 mm 0,0 UV-I 19 W/m² 6,9 °C 6,9 °C 8,0 km/h (2 Bft)
03.09.2017 07:40 7,8 °C 7,8 °C 94 % 1017,0 hPa 0,0 mm 3,1 km/h (1 Bft) W 261 ° 0 min 0,000 mm 0,0 UV-I 21 W/m² 6,9 °C 7,8 °C 6,4 km/h (2 Bft)
03.09.2017 07:41 7,8 °C 7,9 °C 94 % 1017,0 hPa 0,0 mm 1,9 km/h (1 Bft) S 184 ° 0 min 0,000 mm 0,0 UV-I 21 W/m² 6,9 °C 7,8 °C 4,8 km/h (1 Bft)
03.09.2017 07:42 7,8 °C 7,8 °C 94 % 1017,0 hPa 0,0 mm 1,2 km/h (1 Bft) S 189 ° 0 min 0,000 mm 0,0 UV-I 23 W/m² 6,9 °C 7,8 °C 3,2 km/h (1 Bft)
03.09.2017 07:43 7,8 °C 7,9 °C 94 % 1017,0 hPa 0,0 mm 3,3 km/h (1 Bft) W-SW 250 ° 0 min 0,000 mm 0,0 UV-I 25 W/m² 6,9 °C 7,8 °C 4,8 km/h (1 Bft)
03.09.2017 07:44 7,8 °C 7,9 °C 94 % 1017,0 hPa 0,0 mm 1,5 km/h (1 Bft) SW 230 ° 0 min 0,000 mm 0,0 UV-I 26 W/m² 6,9 °C 7,8 °C 3,2 km/h (1 Bft)
03.09.2017 07:45 7,9 °C 7,9 °C 94 % 1017,0 hPa 0,0 mm 2,9 km/h (1 Bft) S 185 ° 0 min 0,000 mm 0,0 UV-I 26 W/m² 7,0 °C 7,9 °C 4,8 km/h (1 Bft)
03.09.2017 07:46 7,9 °C 7,9 °C 94 % 1017,0 hPa 0,0 mm 1,3 km/h (1 Bft) S 185 ° 0 min 0,000 mm 0,0 UV-I 26 W/m² 7,0 °C 7,9 °C 4,8 km/h (1 Bft)
03.09.2017 07:47 7,9 °C 7,9 °C 94 % 1017,0 hPa 0,0 mm 1,3 km/h (1 Bft) W-SW 238 ° 0 min 0,000 mm 0,0 UV-I 26 W/m² 7,0 °C 7,9 °C 4,8 km/h (1 Bft)
03.09.2017 07:48 7,9 °C 7,9 °C 94 % 1017,1 hPa 0,0 mm 2,1 km/h (1 Bft) S-SW 211 ° 0 min 0,000 mm 0,0 UV-I 26 W/m² 7,0 °C 7,9 °C 4,8 km/h (1 Bft)
03.09.2017 07:49 7,9 °C 7,9 °C 94 % 1017,0 hPa 0,0 mm 0,9 km/h (0 Bft) S-SW 211 ° 0 min 0,000 mm 0,0 UV-I 26 W/m² 7,0 °C 7,9 °C 3,2 km/h (1 Bft)
03.09.2017 07:50 7,9 °C 7,9 °C 94 % 1017,1 hPa 0,0 mm 0,4 km/h (0 Bft) S-SW 211 ° 0 min 0,000 mm 0,0 UV-I 26 W/m² 7,0 °C 7,9 °C 1,6 km/h (1 Bft)
03.09.2017 07:51 7,9 °C 7,9 °C 94 % 1017,0 hPa 0,0 mm 2,7 km/h (1 Bft) S-SW 198 ° 0 min 0,000 mm 0,0 UV-I 28 W/m² 7,0 °C 7,9 °C 4,8 km/h (1 Bft)
03.09.2017 07:52 7,8 °C 7,9 °C 94 % 1017,0 hPa 0,0 mm 3,9 km/h (1 Bft) S-SW 200 ° 0 min 0,000 mm 0,0 UV-I 28 W/m² 6,9 °C 7,8 °C 4,8 km/h (1 Bft)
03.09.2017 07:53 7,9 °C 7,9 °C 94 % 1017,0 hPa 0,0 mm 2,4 km/h (1 Bft) SW 215 ° 0 min 0,000 mm 0,0 UV-I 28 W/m² 7,0 °C 7,9 °C 4,8 km/h (1 Bft)
03.09.2017 07:54 7,9 °C 7,9 °C 94 % 1017,1 hPa 0,0 mm 0,2 km/h (0 Bft) SW 215 ° 0 min 0,000 mm 0,0 UV-I 30 W/m² 7,0 °C 7,9 °C 1,6 km/h (1 Bft)
03.09.2017 07:55 7,9 °C 7,9 °C 94 % 1017,0 hPa 0,0 mm 2,5 km/h (1 Bft) SW 215 ° 0 min 0,000 mm 0,0 UV-I 30 W/m² 7,0 °C 7,9 °C 4,8 km/h (1 Bft)
03.09.2017 07:56 7,9 °C 7,9 °C 94 % 1017,0 hPa 0,0 mm 0,5 km/h (0 Bft) SW 215 ° 0 min 0,000 mm 0,0 UV-I 32 W/m² 7,0 °C 7,9 °C 3,2 km/h (1 Bft)
03.09.2017 07:57 7,9 °C 7,9 °C 94 % 1017,1 hPa 0,0 mm 0,0 km/h (0 Bft) SW 215 ° 0 min 0,000 mm 0,0 UV-I 32 W/m² 7,0 °C 7,9 °C 0,0 km/h (0 Bft)
03.09.2017 07:58 7,9 °C 7,9 °C 94 % 1017,0 hPa 0,0 mm 1,3 km/h (1 Bft) S 175 ° 0 min 0,000 mm 0,0 UV-I 32 W/m² 7,0 °C 7,9 °C 6,4 km/h (2 Bft)
03.09.2017 07:59 7,9 °C 7,9 °C 94 % 1017,1 hPa 0,0 mm 3,4 km/h (1 Bft) S-SW 194 ° 0 min 0,000 mm 0,0 UV-I 32 W/m² 7,0 °C 7,9 °C 6,4 km/h (2 Bft)
03.09.2017 08:00 7,9 °C 7,9 °C 94 % 1017,0 hPa 0,0 mm 3,9 km/h (1 Bft) S-SW 198 ° 0 min 0,000 mm 0,0 UV-I 33 W/m² 7,0 °C 7,9 °C 8,0 km/h (2 Bft)
03.09.2017 08:01 7,9 °C 7,9 °C 94 % 1017,0 hPa 0,0 mm 2,3 km/h (1 Bft) S-SW 198 ° 0 min 0,000 mm 0,0 UV-I 33 W/m² 7,0 °C 7,9 °C 6,4 km/h (2 Bft)
03.09.2017 08:02 7,9 °C 7,9 °C 94 % 1017,0 hPa 0,0 mm 0,7 km/h (0 Bft) S-SW 198 ° 0 min 0,000 mm 0,0 UV-I 33 W/m² 7,0 °C 7,9 °C 1,6 km/h (1 Bft)
03.09.2017 08:03 7,9 °C 7,9 °C 94 % 1017,1 hPa 0,0 mm 1,3 km/h (1 Bft) S-SW 198 ° 0 min 0,000 mm 0,0 UV-I 32 W/m² 7,0 °C 7,9 °C 3,2 km/h (1 Bft)
03.09.2017 08:04 7,9 °C 7,9 °C 94 % 1017,1 hPa 0,0 mm 1,8 km/h (1 Bft) S 183 ° 0 min 0,000 mm 0,0 UV-I 32 W/m² 7,0 °C 7,9 °C 3,2 km/h (1 Bft)
03.09.2017 08:05 7,9 °C 7,9 °C 94 % 1017,1 hPa 0,0 mm 0,1 km/h (0 Bft) S 183 ° 0 min 0,000 mm 0,0 UV-I 32 W/m² 7,0 °C 7,9 °C 1,6 km/h (1 Bft)
03.09.2017 08:06 7,9 °C 7,9 °C 94 % 1017,0 hPa 0,0 mm 3,6 km/h (1 Bft) S 188 ° 0 min 0,000 mm 0,0 UV-I 30 W/m² 7,0 °C 7,9 °C 4,8 km/h (1 Bft)
03.09.2017 08:07 7,9 °C 7,9 °C 94 % 1017,1 hPa 0,0 mm 1,6 km/h (1 Bft) S-SW 195 ° 0 min 0,000 mm 0,0 UV-I 30 W/m² 7,0 °C 7,9 °C 3,2 km/h (1 Bft)
03.09.2017 08:08 7,9 °C 7,9 °C 94 % 1017,1 hPa 0,0 mm 2,7 km/h (1 Bft) S 188 ° 0 min 0,000 mm 0,0 UV-I 28 W/m² 7,0 °C 7,9 °C 6,4 km/h (2 Bft)
03.09.2017 08:09 7,9 °C 7,9 °C 94 % 1017,1 hPa 0,0 mm 1,0 km/h (0 Bft) S 189 ° 0 min 0,000 mm 0,0 UV-I 28 W/m² 7,0 °C 7,9 °C 3,2 km/h (1 Bft)
03.09.2017 08:10 7,9 °C 7,9 °C 94 % 1017,1 hPa 0,0 mm 2,3 km/h (1 Bft) S 186 ° 0 min 0,000 mm 0,0 UV-I 26 W/m² 7,0 °C 7,9 °C 4,8 km/h (1 Bft)
03.09.2017 08:11 7,9 °C 7,9 °C 94 % 1017,1 hPa 0,0 mm 2,2 km/h (1 Bft) S-SW 202 ° 0 min 0,000 mm 0,0 UV-I 26 W/m² 7,0 °C 7,9 °C 4,8 km/h (1 Bft)
03.09.2017 08:12 7,9 °C 7,9 °C 94 % 1017,1 hPa 0,0 mm 0,3 km/h (0 Bft) S-SW 202 ° 0 min 0,000 mm 0,0 UV-I 26 W/m² 7,0 °C 7,9 °C 1,6 km/h (1 Bft)
03.09.2017 08:13 7,9 °C 7,9 °C 94 % 1017,1 hPa 0,0 mm 0,1 km/h (0 Bft) S-SW 202 ° 0 min 0,000 mm 0,0 UV-I 26 W/m² 7,0 °C 7,9 °C 1,6 km/h (1 Bft)
03.09.2017 08:14 7,9 °C 7,9 °C 94 % 1017,1 hPa 0,0 mm 2,1 km/h (1 Bft) S-SW 202 ° 0 min 0,000 mm 0,0 UV-I 26 W/m² 7,0 °C 7,9 °C 4,8 km/h (1 Bft)
03.09.2017 08:15 7,9 °C 7,9 °C 94 % 1017,1 hPa 0,0 mm 1,1 km/h (1 Bft) S-SW 195 ° 0 min 0,000 mm 0,0 UV-I 26 W/m² 7,0 °C 7,9 °C 3,2 km/h (1 Bft)
03.09.2017 08:16 7,9 °C 7,9 °C 94 % 1017,1 hPa 0,0 mm 1,2 km/h (1 Bft) S-SW 195 ° 0 min 0,000 mm 0,0 UV-I 26 W/m² 7,0 °C 7,9 °C 3,2 km/h (1 Bft)
03.09.2017 08:17 7,9 °C 7,9 °C 94 % 1017,1 hPa 0,0 mm 2,1 km/h (1 Bft) SW 221 ° 0 min 0,000 mm 0,0 UV-I 26 W/m² 7,0 °C 7,9 °C 3,2 km/h (1 Bft)
03.09.2017 08:18 7,9 °C 8,0 °C 94 % 1017,1 hPa 0,0 mm 0,4 km/h (0 Bft) SW 221 ° 0 min 0,000 mm 0,0 UV-I 26 W/m² 7,0 °C 7,9 °C 3,2 km/h (1 Bft)
03.09.2017 08:19 8,0 °C 8,0 °C 94 % 1017,1 hPa 0,0 mm 0,9 km/h (0 Bft) SW 221 ° 0 min 0,000 mm 0,0 UV-I 26 W/m² 7,1 °C 8,0 °C 3,2 km/h (1 Bft)
03.09.2017 08:20 8,0 °C 8,0 °C 94 % 1017,1 hPa 0,0 mm 2,3 km/h (1 Bft) SW 225 ° 0 min 0,000 mm 0,0 UV-I 26 W/m² 7,1 °C 8,0 °C 4,8 km/h (1 Bft)
03.09.2017 08:21 8,0 °C 8,0 °C 94 % 1017,1 hPa 0,0 mm 1,8 km/h (1 Bft) SW 225 ° 0 min 0,000 mm 0,0 UV-I 26 W/m² 7,1 °C 8,0 °C 3,2 km/h (1 Bft)
03.09.2017 08:22 8,0 °C 8,0 °C 94 % 1017,1 hPa 0,0 mm 0,9 km/h (0 Bft) SW 225 ° 0 min 0,000 mm 0,0 UV-I 26 W/m² 7,1 °C 8,0 °C 1,6 km/h (1 Bft)
03.09.2017 08:23 8,0 °C 8,0 °C 94 % 1017,1 hPa 0,0 mm 2,1 km/h (1 Bft) SW 236 ° 0 min 0,000 mm 0,0 UV-I 26 W/m² 7,1 °C 8,0 °C 3,2 km/h (1 Bft)
03.09.2017 08:24 8,0 °C 8,0 °C 95 % 1017,1 hPa 0,0 mm 3,3 km/h (1 Bft) W 259 ° 0 min 0,000 mm 0,0 UV-I 26 W/m² 7,2 °C 8,0 °C 4,8 km/h (1 Bft)
03.09.2017 08:25 8,1 °C 8,1 °C 95 % 1017,0 hPa 0,0 mm 3,2 km/h (1 Bft) W 259 ° 0 min 0,000 mm 0,0 UV-I 28 W/m² 7,3 °C 8,1 °C 4,8 km/h (1 Bft)
03.09.2017 08:26 8,1 °C 8,1 °C 94 % 1017,1 hPa 0,0 mm 1,3 km/h (1 Bft) W 259 ° 0 min 0,000 mm 0,0 UV-I 28 W/m² 7,2 °C 8,1 °C 3,2 km/h (1 Bft)
03.09.2017 08:27 8,0 °C 8,1 °C 94 % 1017,1 hPa 0,2 mm 1,2 km/h (1 Bft) W 259 ° 0 min 0,000 mm 0,0 UV-I 30 W/m² 7,1 °C 8,0 °C 3,2 km/h (1 Bft)
03.09.2017 08:28 8,1 °C 8,1 °C 94 % 1017,1 hPa 0,0 mm 1,7 km/h (1 Bft) W 259 ° 0 min 0,000 mm 0,0 UV-I 30 W/m² 7,2 °C 8,1 °C 3,2 km/h (1 Bft)
03.09.2017 08:29 8,1 °C 8,1 °C 94 % 1017,1 hPa 0,0 mm 0,8 km/h (0 Bft) W 259 ° 0 min 0,000 mm 0,0 UV-I 30 W/m² 7,2 °C 8,1 °C 3,2 km/h (1 Bft)
03.09.2017 08:30 8,0 °C 8,1 °C 94 % 1017,1 hPa 0,0 mm 0,0 km/h (0 Bft) W 259 ° 0 min 0,000 mm 0,0 UV-I 30 W/m² 7,1 °C 8,0 °C 0,0 km/h (0 Bft)
03.09.2017 08:31 8,0 °C 8,1 °C 94 % 1017,1 hPa 0,0 mm 0,2 km/h (0 Bft) W 259 ° 0 min 0,000 mm 0,0 UV-I 30 W/m² 7,1 °C 8,0 °C 1,6 km/h (1 Bft)
03.09.2017 08:32 8,0 °C 8,0 °C 95 % 1017,1 hPa 0,0 mm 1,8 km/h (1 Bft) S 191 ° 0 min 0,000 mm 0,0 UV-I 28 W/m² 7,2 °C 8,0 °C 4,8 km/h (1 Bft)
03.09.2017 08:33 7,9 °C 8,0 °C 94 % 1017,1 hPa 0,0 mm 0,3 km/h (0 Bft) S-SW 192 ° 0 min 0,000 mm 0,0 UV-I 28 W/m² 7,0 °C 7,9 °C 1,6 km/h (1 Bft)
03.09.2017 08:34 7,9 °C 8,0 °C 95 % 1017,1 hPa 0,0 mm 0,9 km/h (0 Bft) S-SW 192 ° 0 min 0,000 mm 0,0 UV-I 28 W/m² 7,1 °C 7,9 °C 1,6 km/h (1 Bft)
03.09.2017 08:35 7,9 °C 8,0 °C 95 % 1017,2 hPa 0,0 mm 1,1 km/h (1 Bft) S-SW 192 ° 0 min 0,000 mm 0,0 UV-I 28 W/m² 7,1 °C 7,9 °C 3,2 km/h (1 Bft)
03.09.2017 08:36 8,0 °C 8,0 °C 95 % 1017,2 hPa 0,0 mm 1,5 km/h (1 Bft) S-SW 192 ° 0 min 0,000 mm 0,0 UV-I 28 W/m² 7,2 °C 8,0 °C 3,2 km/h (1 Bft)
03.09.2017 08:37 7,9 °C 8,0 °C 95 % 1017,2 hPa 0,0 mm 2,0 km/h (1 Bft) S-SW 192 ° 0 min 0,000 mm 0,0 UV-I 28 W/m² 7,1 °C 7,9 °C 3,2 km/h (1 Bft)
03.09.2017 08:38 8,0 °C 8,0 °C 95 % 1017,1 hPa 0,0 mm 0,5 km/h (0 Bft) S-SW 192 ° 0 min 0,000 mm 0,0 UV-I 30 W/m² 7,2 °C 8,0 °C 1,6 km/h (1 Bft)
03.09.2017 08:39 8,0 °C 8,0 °C 95 % 1017,1 hPa 0,0 mm 0,0 km/h (0 Bft) S-SW 192 ° 0 min 0,000 mm 0,0 UV-I 33 W/m² 7,2 °C 8,0 °C 0,0 km/h (0 Bft)
03.09.2017 08:40 8,0 °C 8,0 °C 95 % 1017,1 hPa 0,0 mm 0,7 km/h (0 Bft) SW 235 ° 0 min 0,000 mm 0,0 UV-I 35 W/m² 7,2 °C 8,0 °C 3,2 km/h (1 Bft)
03.09.2017 08:41 8,1 °C 8,1 °C 95 % 1017,1 hPa 0,0 mm 1,2 km/h (1 Bft) W-SW 252 ° 0 min 0,000 mm 0,0 UV-I 39 W/m² 7,3 °C 8,1 °C 3,2 km/h (1 Bft)
03.09.2017 08:42 8,1 °C 8,1 °C 95 % 1017,2 hPa 0,0 mm 2,1 km/h (1 Bft) W-SW 255 ° 0 min 0,000 mm 0,0 UV-I 42 W/m² 7,3 °C 8,1 °C 3,2 km/h (1 Bft)
03.09.2017 08:43 8,1 °C 8,1 °C 95 % 1017,1 hPa 0,0 mm 0,7 km/h (0 Bft) W-SW 255 ° 0 min 0,000 mm 0,0 UV-I 46 W/m² 7,3 °C 8,1 °C 3,2 km/h (1 Bft)
03.09.2017 08:44 8,1 °C 8,1 °C 95 % 1017,2 hPa 0,0 mm 0,0 km/h (0 Bft) W-SW 255 ° 0 min 0,000 mm 0,0 UV-I 47 W/m² 7,3 °C 8,1 °C 0,0 km/h (0 Bft)
03.09.2017 08:45 8,1 °C 8,1 °C 95 % 1017,1 hPa 0,0 mm 1,7 km/h (1 Bft) W-SW 240 ° 0 min 0,000 mm 0,0 UV-I 49 W/m² 7,3 °C 8,1 °C 4,8 km/h (1 Bft)
03.09.2017 08:46 8,1 °C 8,1 °C 95 % 1017,1 hPa 0,0 mm 1,8 km/h (1 Bft) W-SW 240 ° 0 min 0,000 mm 0,0 UV-I 18 W/m² 7,3 °C 8,1 °C 3,2 km/h (1 Bft)
03.09.2017 08:47 8,1 °C 8,1 °C 95 % 1017,1 hPa 0,0 mm 0,8 km/h (0 Bft) W-SW 240 ° 0 min 0,000 mm 0,0 UV-I 21 W/m² 7,3 °C 8,1 °C 1,6 km/h (1 Bft)
03.09.2017 08:48 8,1 °C 8,2 °C 95 % 1017,1 hPa 0,0 mm 1,3 km/h (1 Bft) W-SW 240 ° 0 min 0,000 mm 0,0 UV-I 54 W/m² 7,3 °C 8,1 °C 3,2 km/h (1 Bft)
03.09.2017 08:49 8,2 °C 8,2 °C 95 % 1017,2 hPa 0,0 mm 0,0 km/h (0 Bft) W-SW 240 ° 0 min 0,000 mm 0,0 UV-I 56 W/m² 7,4 °C 8,2 °C 0,0 km/h (0 Bft)
03.09.2017 08:50 8,2 °C 8,2 °C 95 % 1017,1 hPa 0,0 mm 0,8 km/h (0 Bft) W-SW 240 ° 0 min 0,000 mm 0,0 UV-I 58 W/m² 7,4 °C 8,2 °C 3,2 km/h (1 Bft)
03.09.2017 08:51 8,2 °C 8,2 °C 95 % 1017,1 hPa 0,0 mm 0,5 km/h (0 Bft) W-SW 240 ° 0 min 0,000 mm 0,0 UV-I 58 W/m² 7,4 °C 8,2 °C 1,6 km/h (1 Bft)
03.09.2017 08:52 8,2 °C 8,2 °C 95 % 1017,1 hPa 0,0 mm 2,2 km/h (1 Bft) W-SW 250 ° 0 min 0,000 mm 0,0 UV-I 60 W/m² 7,4 °C 8,2 °C 3,2 km/h (1 Bft)
03.09.2017 08:53 8,2 °C 8,3 °C 95 % 1017,1 hPa 0,0 mm 0,8 km/h (0 Bft) W-SW 250 ° 0 min 0,000 mm 0,0 UV-I 60 W/m² 7,4 °C 8,2 °C 1,6 km/h (1 Bft)
03.09.2017 08:54 8,3 °C 8,3 °C 95 % 1017,2 hPa 0,0 mm 1,9 km/h (1 Bft) W-SW 250 ° 0 min 0,000 mm 0,0 UV-I 60 W/m² 7,5 °C 8,3 °C 4,8 km/h (1 Bft)
03.09.2017 08:55 8,3 °C 8,3 °C 95 % 1017,2 hPa 0,0 mm 2,0 km/h (1 Bft) W-SW 250 ° 0 min 0,000 mm 0,0 UV-I 60 W/m² 7,5 °C 8,3 °C 4,8 km/h (1 Bft)
03.09.2017 08:56 8,3 °C 8,3 °C 95 % 1017,2 hPa 0,0 mm 0,5 km/h (0 Bft) W-SW 251 ° 0 min 0,000 mm 0,0 UV-I 60 W/m² 7,5 °C 8,3 °C 1,6 km/h (1 Bft)
03.09.2017 08:57 8,3 °C 8,3 °C 95 % 1017,2 hPa 0,0 mm 0,5 km/h (0 Bft) W-SW 245 ° 0 min 0,000 mm 0,0 UV-I 60 W/m² 7,5 °C 8,3 °C 3,2 km/h (1 Bft)
03.09.2017 08:58 8,3 °C 8,3 °C 95 % 1017,1 hPa 0,0 mm 0,1 km/h (0 Bft) W-SW 244 ° 0 min 0,000 mm 0,0 UV-I 60 W/m² 7,5 °C 8,3 °C 1,6 km/h (1 Bft)
03.09.2017 08:59 8,3 °C 8,3 °C 95 % 1017,2 hPa 0,0 mm 0,4 km/h (0 Bft) W-SW 245 ° 0 min 0,000 mm 0,0 UV-I 60 W/m² 7,5 °C 8,3 °C 1,6 km/h (1 Bft)
03.09.2017 09:00 8,3 °C 8,3 °C 95 % 1017,2 hPa 0,0 mm 0,5 km/h (0 Bft) W-SW 244 ° 0 min 0,000 mm 0,0 UV-I 60 W/m² 7,5 °C 8,3 °C 1,6 km/h (1 Bft)
03.09.2017 09:01 8,3 °C 8,3 °C 94 % 1017,2 hPa 0,0 mm 0,1 km/h (0 Bft) W-SW 244 ° 0 min 0,025 mm 0,0 UV-I 62 W/m² 7,4 °C 8,3 °C 1,6 km/h (1 Bft)
03.09.2017 09:02 8,3 °C 8,3 °C 95 % 1017,2 hPa 0,0 mm 1,3 km/h (1 Bft) SW 225 ° 0 min 0,000 mm 0,0 UV-I 62 W/m² 7,5 °C 8,3 °C 3,2 km/h (1 Bft)
03.09.2017 09:03 8,3 °C 8,3 °C 95 % 1017,2 hPa 0,0 mm 2,2 km/h (1 Bft) SW 225 ° 0 min 0,000 mm 0,0 UV-I 62 W/m² 7,5 °C 8,3 °C 3,2 km/h (1 Bft)
03.09.2017 09:04 8,4 °C 8,4 °C 95 % 1017,2 hPa 0,0 mm 0,9 km/h (0 Bft) SW 225 ° 0 min 0,000 mm 0,0 UV-I 62 W/m² 7,6 °C 8,4 °C 3,2 km/h (1 Bft)
03.09.2017 09:05 8,4 °C 8,4 °C 95 % 1017,2 hPa 0,0 mm 1,5 km/h (1 Bft) SW 236 ° 0 min 0,000 mm 0,5 UV-I 63 W/m² 7,6 °C 8,4 °C 3,2 km/h (1 Bft)
03.09.2017 09:06 8,4 °C 8,4 °C 95 % 1017,2 hPa 0,0 mm 1,6 km/h (1 Bft) S-SW 196 ° 0 min 0,000 mm 0,5 UV-I 70 W/m² 7,6 °C 8,4 °C 3,2 km/h (1 Bft)
03.09.2017 09:07 8,4 °C 8,4 °C 94 % 1017,2 hPa 0,0 mm 1,3 km/h (1 Bft) S-SW 196 ° 0 min 0,000 mm 0,5 UV-I 76 W/m² 7,5 °C 8,4 °C 3,2 km/h (1 Bft)
03.09.2017 09:08 8,4 °C 8,4 °C 94 % 1017,2 hPa 0,0 mm 1,0 km/h (0 Bft) S-SW 197 ° 0 min 0,000 mm 0,6 UV-I 81 W/m² 7,5 °C 8,4 °C 3,2 km/h (1 Bft)
03.09.2017 09:09 8,4 °C 8,4 °C 94 % 1017,2 hPa 0,0 mm 0,3 km/h (0 Bft) S-SW 197 ° 0 min 0,000 mm 0,6 UV-I 86 W/m² 7,5 °C 8,4 °C 1,6 km/h (1 Bft)
03.09.2017 09:10 8,3 °C 8,4 °C 94 % 1017,2 hPa 0,0 mm 0,2 km/h (0 Bft) S-SW 197 ° 0 min 0,000 mm 0,6 UV-I 91 W/m² 7,4 °C 8,3 °C 1,6 km/h (1 Bft)
03.09.2017 09:11 8,4 °C 8,4 °C 94 % 1017,2 hPa 0,0 mm 0,9 km/h (0 Bft) S 187 ° 0 min 0,000 mm 0,7 UV-I 97 W/m² 7,5 °C 8,4 °C 4,8 km/h (1 Bft)
03.09.2017 09:12 8,4 °C 8,4 °C 94 % 1017,2 hPa 0,0 mm 3,2 km/h (1 Bft) S 190 ° 0 min 0,000 mm 0,7 UV-I 102 W/m² 7,5 °C 8,4 °C 4,8 km/h (1 Bft)
03.09.2017 09:13 8,4 °C 8,4 °C 94 % 1017,2 hPa 0,0 mm 1,9 km/h (1 Bft) S-SW 198 ° 0 min 0,000 mm 0,7 UV-I 104 W/m² 7,5 °C 8,4 °C 3,2 km/h (1 Bft)
03.09.2017 09:14 8,4 °C 8,4 °C 94 % 1017,2 hPa 0,0 mm 0,1 km/h (0 Bft) S-SW 205 ° 0 min 0,000 mm 0,7 UV-I 105 W/m² 7,5 °C 8,4 °C 1,6 km/h (1 Bft)
03.09.2017 09:15 8,4 °C 8,4 °C 94 % 1017,2 hPa 0,0 mm 1,6 km/h (1 Bft) S-SW 205 ° 0 min 0,000 mm 0,7 UV-I 105 W/m² 7,5 °C 8,4 °C 3,2 km/h (1 Bft)
03.09.2017 09:16 8,4 °C 8,4 °C 94 % 1017,2 hPa 0,0 mm 0,8 km/h (0 Bft) S-SW 202 ° 0 min 0,000 mm 0,7 UV-I 105 W/m² 7,5 °C 8,4 °C 3,2 km/h (1 Bft)
03.09.2017 09:17 8,4 °C 8,4 °C 94 % 1017,2 hPa 0,0 mm 0,8 km/h (0 Bft) S-SW 208 ° 0 min 0,000 mm 0,7 UV-I 105 W/m² 7,5 °C 8,4 °C 3,2 km/h (1 Bft)
03.09.2017 09:18 8,4 °C 8,4 °C 94 % 1017,2 hPa 0,0 mm 3,3 km/h (1 Bft) S-SW 199 ° 0 min 0,000 mm 0,7 UV-I 107 W/m² 7,5 °C 8,4 °C 4,8 km/h (1 Bft)
03.09.2017 09:19 8,6 °C 8,6 °C 94 % 1017,3 hPa 0,0 mm 2,0 km/h (1 Bft) S-SW 212 ° 0 min 0,000 mm 0,7 UV-I 107 W/m² 7,7 °C 8,6 °C 3,2 km/h (1 Bft)
03.09.2017 09:20 8,6 °C 8,6 °C 94 % 1017,2 hPa 0,0 mm 1,8 km/h (1 Bft) S-SW 212 ° 0 min 0,000 mm 0,7 UV-I 109 W/m² 7,7 °C 8,6 °C 3,2 km/h (1 Bft)
03.09.2017 09:21 8,7 °C 8,7 °C 94 % 1017,3 hPa 0,0 mm 0,5 km/h (0 Bft) S-SW 212 ° 0 min 0,000 mm 0,7 UV-I 109 W/m² 7,8 °C 8,7 °C 1,6 km/h (1 Bft)
03.09.2017 09:22 8,7 °C 8,7 °C 94 % 1017,3 hPa 0,0 mm 0,0 km/h (0 Bft) S-SW 212 ° 0 min 0,000 mm 0,7 UV-I 109 W/m² 7,8 °C 8,7 °C 0,0 km/h (0 Bft)
03.09.2017 09:23 8,7 °C 8,7 °C 94 % 1017,4 hPa 0,0 mm 0,0 km/h (0 Bft) S-SW 212 ° 0 min 0,000 mm 0,7 UV-I 109 W/m² 7,8 °C 8,7 °C 0,0 km/h (0 Bft)
03.09.2017 09:24 8,8 °C 8,8 °C 94 % 1017,3 hPa 0,0 mm 0,0 km/h (0 Bft) S-SW 212 ° 0 min 0,000 mm 0,7 UV-I 107 W/m² 7,9 °C 8,8 °C 0,0 km/h (0 Bft)
03.09.2017 09:25 8,8 °C 8,8 °C 94 % 1017,3 hPa 0,0 mm 0,0 km/h (0 Bft) S-SW 212 ° 0 min 0,000 mm 0,7 UV-I 107 W/m² 7,9 °C 8,8 °C 0,0 km/h (0 Bft)
03.09.2017 09:26 8,8 °C 8,8 °C 94 % 1017,3 hPa 0,0 mm 3,1 km/h (1 Bft) W 280 ° 0 min 0,000 mm 0,7 UV-I 105 W/m² 7,9 °C 8,8 °C 4,8 km/h (1 Bft)
03.09.2017 09:27 8,8 °C 8,8 °C 94 % 1017,3 hPa 0,0 mm 2,5 km/h (1 Bft) W 280 ° 0 min 0,000 mm 0,7 UV-I 104 W/m² 7,9 °C 8,8 °C 4,8 km/h (1 Bft)
03.09.2017 09:28 8,9 °C 8,9 °C 94 % 1017,3 hPa 0,0 mm 0,3 km/h (0 Bft) W 280 ° 0 min 0,000 mm 0,7 UV-I 102 W/m² 8,0 °C 8,9 °C 1,6 km/h (1 Bft)
03.09.2017 09:29 8,9 °C 8,9 °C 94 % 1017,4 hPa 0,0 mm 0,4 km/h (0 Bft) W 280 ° 0 min 0,000 mm 0,7 UV-I 98 W/m² 8,0 °C 8,9 °C 1,6 km/h (1 Bft)
03.09.2017 09:30 9,0 °C 9,0 °C 94 % 1017,3 hPa 0,0 mm 1,7 km/h (1 Bft) W 280 ° 0 min 0,000 mm 0,6 UV-I 91 W/m² 8,1 °C 9,0 °C 3,2 km/h (1 Bft)
03.09.2017 09:31 9,0 °C 9,0 °C 94 % 1017,3 hPa 0,0 mm 2,5 km/h (1 Bft) W 280 ° 0 min 0,000 mm 0,6 UV-I 91 W/m² 8,1 °C 9,0 °C 3,2 km/h (1 Bft)
03.09.2017 09:32 9,0 °C 9,1 °C 94 % 1017,4 hPa 0,0 mm 0,2 km/h (0 Bft) W 280 ° 0 min 0,000 mm 0,6 UV-I 91 W/m² 8,1 °C 9,0 °C 1,6 km/h (1 Bft)
03.09.2017 09:33 9,0 °C 9,0 °C 94 % 1017,4 hPa 0,0 mm 2,2 km/h (1 Bft) W 280 ° 0 min 0,000 mm 0,6 UV-I 91 W/m² 8,1 °C 9,0 °C 3,2 km/h (1 Bft)
03.09.2017 09:34 9,0 °C 9,0 °C 94 % 1017,3 hPa 0,0 mm 3,2 km/h (1 Bft) W 280 ° 0 min 0,000 mm 0,6 UV-I 91 W/m² 8,1 °C 9,0 °C 4,8 km/h (1 Bft)
03.09.2017 09:35 9,0 °C 9,0 °C 94 % 1017,4 hPa 0,0 mm 0,9 km/h (0 Bft) W 280 ° 0 min 0,000 mm 0,6 UV-I 90 W/m² 8,1 °C 9,0 °C 1,6 km/h (1 Bft)
03.09.2017 09:36 9,0 °C 9,0 °C 94 % 1017,4 hPa 0,0 mm 0,2 km/h (0 Bft) W 280 ° 0 min 0,000 mm 0,6 UV-I 86 W/m² 8,1 °C 9,0 °C 1,6 km/h (1 Bft)
03.09.2017 09:37 9,0 °C 9,0 °C 94 % 1017,4 hPa 0,0 mm 1,5 km/h (1 Bft) W 281 ° 0 min 0,000 mm 0,6 UV-I 83 W/m² 8,1 °C 9,0 °C 3,2 km/h (1 Bft)
03.09.2017 09:38 9,1 °C 9,1 °C 94 % 1017,4 hPa 0,0 mm 1,7 km/h (1 Bft) W 281 ° 0 min 0,000 mm 0,5 UV-I 79 W/m² 8,2 °C 9,1 °C 3,2 km/h (1 Bft)
03.09.2017 09:39 9,0 °C 9,1 °C 93 % 1017,4 hPa 0,0 mm 2,9 km/h (1 Bft) W 269 ° 0 min 0,000 mm 0,5 UV-I 77 W/m² 7,9 °C 9,0 °C 4,8 km/h (1 Bft)
03.09.2017 09:40 8,9 °C 9,0 °C 93 % 1017,4 hPa 0,0 mm 1,4 km/h (1 Bft) W 269 ° 0 min 0,000 mm 0,5 UV-I 77 W/m² 7,8 °C 8,9 °C 3,2 km/h (1 Bft)
03.09.2017 09:41 8,9 °C 8,9 °C 93 % 1017,4 hPa 0,0 mm 1,4 km/h (1 Bft) W 269 ° 0 min 0,000 mm 0,5 UV-I 81 W/m² 7,8 °C 8,9 °C 3,2 km/h (1 Bft)
03.09.2017 09:42 8,9 °C 8,9 °C 93 % 1017,4 hPa 0,0 mm 0,7 km/h (0 Bft) W 269 ° 0 min 0,000 mm 0,6 UV-I 84 W/m² 7,8 °C 8,9 °C 3,2 km/h (1 Bft)
03.09.2017 09:43 8,9 °C 8,9 °C 93 % 1017,4 hPa 0,0 mm 0,0 km/h (0 Bft) W 269 ° 0 min 0,000 mm 0,6 UV-I 88 W/m² 7,8 °C 8,9 °C 0,0 km/h (0 Bft)
03.09.2017 09:44 8,9 °C 8,9 °C 93 % 1017,4 hPa 0,0 mm 0,3 km/h (0 Bft) W 269 ° 0 min 0,000 mm 0,7 UV-I 93 W/m² 7,8 °C 8,9 °C 1,6 km/h (1 Bft)
03.09.2017 09:45 8,9 °C 8,9 °C 93 % 1017,4 hPa 0,0 mm 1,2 km/h (1 Bft) W 269 ° 0 min 0,000 mm 0,7 UV-I 102 W/m² 7,8 °C 8,9 °C 3,2 km/h (1 Bft)
03.09.2017 09:46 8,9 °C 8,9 °C 94 % 1017,4 hPa 0,0 mm 0,6 km/h (0 Bft) W 269 ° 0 min 0,000 mm 0,8 UV-I 109 W/m² 8,0 °C 8,9 °C 3,2 km/h (1 Bft)
03.09.2017 09:47 8,9 °C 8,9 °C 94 % 1017,4 hPa 0,0 mm 1,7 km/h (1 Bft) W 269 ° 0 min 0,000 mm 0,8 UV-I 125 W/m² 8,0 °C 8,9 °C 3,2 km/h (1 Bft)
03.09.2017 09:48 8,9 °C 8,9 °C 94 % 1017,4 hPa 0,0 mm 0,3 km/h (0 Bft) W 269 ° 0 min 0,000 mm 0,9 UV-I 128 W/m² 8,0 °C 8,9 °C 1,6 km/h (1 Bft)
03.09.2017 09:49 9,0 °C 9,0 °C 94 % 1017,4 hPa 0,0 mm 0,8 km/h (0 Bft) W 269 ° 0 min 0,000 mm 0,9 UV-I 130 W/m² 8,1 °C 9,0 °C 1,6 km/h (1 Bft)
03.09.2017 09:50 9,0 °C 9,0 °C 94 % 1017,4 hPa 0,0 mm 0,0 km/h (0 Bft) W 269 ° 0 min 0,000 mm 0,9 UV-I 130 W/m² 8,1 °C 9,0 °C 0,0 km/h (0 Bft)
03.09.2017 09:51 9,1 °C 9,1 °C 94 % 1017,4 hPa 0,0 mm 0,0 km/h (0 Bft) W 269 ° 0 min 0,000 mm 0,9 UV-I 127 W/m² 8,2 °C 9,1 °C 0,0 km/h (0 Bft)
03.09.2017 09:52 9,1 °C 9,1 °C 94 % 1017,4 hPa 0,0 mm 0,5 km/h (0 Bft) W 269 ° 0 min 0,000 mm 0,9 UV-I 123 W/m² 8,2 °C 9,1 °C 1,6 km/h (1 Bft)
03.09.2017 09:53 9,1 °C 9,1 °C 94 % 1017,4 hPa 0,0 mm 0,0 km/h (0 Bft) W 269 ° 0 min 0,000 mm 0,9 UV-I 121 W/m² 8,2 °C 9,1 °C 0,0 km/h (0 Bft)
03.09.2017 09:54 9,1 °C 9,1 °C 94 % 1017,5 hPa 0,0 mm 0,4 km/h (0 Bft) W 269 ° 0 min 0,000 mm 0,9 UV-I 125 W/m² 8,2 °C 9,1 °C 1,6 km/h (1 Bft)
03.09.2017 09:55 9,1 °C 9,1 °C 94 % 1017,4 hPa 0,0 mm 1,3 km/h (1 Bft) W 269 ° 0 min 0,000 mm 0,9 UV-I 130 W/m² 8,2 °C 9,1 °C 3,2 km/h (1 Bft)
03.09.2017 09:56 9,1 °C 9,2 °C 94 % 1017,4 hPa 0,0 mm 0,7 km/h (0 Bft) W 269 ° 0 min 0,000 mm 1,0 UV-I 134 W/m² 8,2 °C 9,1 °C 3,2 km/h (1 Bft)
03.09.2017 09:57 9,2 °C 9,2 °C 94 % 1017,4 hPa 0,0 mm 3,5 km/h (1 Bft) W-NW 292 ° 0 min 0,000 mm 1,0 UV-I 137 W/m² 8,3 °C 9,2 °C 4,8 km/h (1 Bft)
03.09.2017 09:58 9,2 °C 9,2 °C 94 % 1017,4 hPa 0,0 mm 0,3 km/h (0 Bft) W-NW 292 ° 0 min 0,000 mm 1,0 UV-I 141 W/m² 8,3 °C 9,2 °C 3,2 km/h (1 Bft)
03.09.2017 09:59 9,2 °C 9,2 °C 93 % 1017,4 hPa 0,0 mm 0,0 km/h (0 Bft) W-NW 292 ° 0 min 0,000 mm 1,0 UV-I 142 W/m² 8,1 °C 9,2 °C 0,0 km/h (0 Bft)
03.09.2017 10:00 9,1 °C 9,2 °C 93 % 1017,5 hPa 0,0 mm 0,0 km/h (0 Bft) W-NW 292 ° 0 min 0,000 mm 1,0 UV-I 142 W/m² 8,0 °C 9,1 °C 0,0 km/h (0 Bft)
03.09.2017 10:01 9,2 °C 9,2 °C 93 % 1017,5 hPa 0,0 mm 2,5 km/h (1 Bft) W-SW 243 ° 0 min 0,051 mm 1,0 UV-I 144 W/m² 8,1 °C 9,2 °C 4,8 km/h (1 Bft)
03.09.2017 10:02 9,2 °C 9,2 °C 93 % 1017,4 hPa 0,0 mm 2,1 km/h (1 Bft) W-SW 243 ° 0 min 0,000 mm 1,0 UV-I 146 W/m² 8,1 °C 9,2 °C 3,2 km/h (1 Bft)
03.09.2017 10:03 9,2 °C 9,2 °C 93 % 1017,5 hPa 0,0 mm 3,0 km/h (1 Bft) W-NW 288 ° 0 min 0,000 mm 1,0 UV-I 146 W/m² 8,1 °C 9,2 °C 4,8 km/h (1 Bft)
03.09.2017 10:04 9,2 °C 9,2 °C 93 % 1017,5 hPa 0,0 mm 3,4 km/h (1 Bft) W 275 ° 0 min 0,000 mm 1,0 UV-I 144 W/m² 8,1 °C 9,2 °C 4,8 km/h (1 Bft)
03.09.2017 10:05 9,2 °C 9,2 °C 93 % 1017,4 hPa 0,0 mm 1,6 km/h (1 Bft) W 275 ° 0 min 0,000 mm 1,0 UV-I 144 W/m² 8,1 °C 9,2 °C 3,2 km/h (1 Bft)
03.09.2017 10:06 9,2 °C 9,2 °C 93 % 1017,4 hPa 0,0 mm 4,0 km/h (1 Bft) W-NW 287 ° 0 min 0,000 mm 1,1 UV-I 146 W/m² 8,1 °C 9,2 °C 6,4 km/h (2 Bft)
03.09.2017 10:07 9,2 °C 9,2 °C 92 % 1017,4 hPa 0,0 mm 3,5 km/h (1 Bft) W 267 ° 0 min 0,000 mm 1,1 UV-I 148 W/m² 8,0 °C 9,2 °C 4,8 km/h (1 Bft)
03.09.2017 10:08 9,2 °C 9,2 °C 93 % 1017,4 hPa 0,0 mm 4,1 km/h (1 Bft) W 275 ° 0 min 0,000 mm 1,1 UV-I 151 W/m² 8,1 °C 9,2 °C 6,4 km/h (2 Bft)
03.09.2017 10:09 9,2 °C 9,2 °C 93 % 1017,4 hPa 0,0 mm 0,0 km/h (0 Bft) W 275 ° 0 min 0,000 mm 1,1 UV-I 153 W/m² 8,1 °C 9,2 °C 0,0 km/h (0 Bft)
03.09.2017 10:10 9,2 °C 9,2 °C 92 % 1017,4 hPa 0,0 mm 0,0 km/h (0 Bft) W 275 ° 0 min 0,000 mm 1,1 UV-I 156 W/m² 8,0 °C 9,2 °C 0,0 km/h (0 Bft)
03.09.2017 10:11 9,3 °C 9,3 °C 93 % 1017,4 hPa 0,0 mm 2,6 km/h (1 Bft) W 274 ° 0 min 0,000 mm 1,1 UV-I 158 W/m² 8,2 °C 9,3 °C 4,8 km/h (1 Bft)
03.09.2017 10:12 9,3 °C 9,3 °C 92 % 1017,4 hPa 0,0 mm 3,0 km/h (1 Bft) W 277 ° 0 min 0,000 mm 1,2 UV-I 160 W/m² 8,1 °C 9,3 °C 6,4 km/h (2 Bft)
03.09.2017 10:13 9,3 °C 9,3 °C 93 % 1017,4 hPa 0,0 mm 4,5 km/h (1 Bft) SW 236 ° 0 min 0,000 mm 1,2 UV-I 160 W/m² 8,2 °C 9,3 °C 6,4 km/h (2 Bft)
03.09.2017 10:14 9,3 °C 9,3 °C 92 % 1017,4 hPa 0,0 mm 3,9 km/h (1 Bft) W-SW 256 ° 0 min 0,000 mm 1,2 UV-I 162 W/m² 8,1 °C 9,3 °C 6,4 km/h (2 Bft)
03.09.2017 10:15 9,4 °C 9,4 °C 92 % 1017,4 hPa 0,0 mm 4,3 km/h (1 Bft) W-SW 254 ° 0 min 0,000 mm 1,2 UV-I 163 W/m² 8,2 °C 9,4 °C 6,4 km/h (2 Bft)
03.09.2017 10:16 9,4 °C 9,4 °C 92 % 1017,4 hPa 0,0 mm 1,5 km/h (1 Bft) W-SW 254 ° 0 min 0,000 mm 1,2 UV-I 169 W/m² 8,2 °C 9,4 °C 4,8 km/h (1 Bft)
03.09.2017 10:17 9,4 °C 9,4 °C 92 % 1017,3 hPa 0,0 mm 0,0 km/h (0 Bft) W-SW 254 ° 0 min 0,000 mm 1,3 UV-I 171 W/m² 8,2 °C 9,4 °C 0,0 km/h (0 Bft)
03.09.2017 10:18 9,4 °C 9,5 °C 93 % 1017,4 hPa 0,0 mm 0,5 km/h (0 Bft) W-SW 254 ° 0 min 0,000 mm 1,3 UV-I 174 W/m² 8,3 °C 9,4 °C 1,6 km/h (1 Bft)
03.09.2017 10:19 9,5 °C 9,5 °C 92 % 1017,4 hPa 0,0 mm 2,3 km/h (1 Bft) W-SW 257 ° 0 min 0,000 mm 1,4 UV-I 176 W/m² 8,3 °C 9,5 °C 4,8 km/h (1 Bft)
03.09.2017 10:20 9,4 °C 9,5 °C 91 % 1017,4 hPa 0,0 mm 2,9 km/h (1 Bft) W-NW 288 ° 0 min 0,000 mm 1,4 UV-I 179 W/m² 8,0 °C 9,4 °C 4,8 km/h (1 Bft)
03.09.2017 10:21 9,5 °C 9,5 °C 92 % 1017,3 hPa 0,0 mm 4,3 km/h (1 Bft) W-SW 248 ° 0 min 0,000 mm 1,4 UV-I 181 W/m² 8,3 °C 9,5 °C 6,4 km/h (2 Bft)
03.09.2017 10:22 9,5 °C 9,5 °C 92 % 1017,4 hPa 0,0 mm 1,6 km/h (1 Bft) W-SW 249 ° 0 min 0,000 mm 1,4 UV-I 186 W/m² 8,3 °C 9,5 °C 3,2 km/h (1 Bft)
03.09.2017 10:23 9,6 °C 9,6 °C 92 % 1017,4 hPa 0,0 mm 3,7 km/h (1 Bft) W 277 ° 0 min 0,000 mm 1,5 UV-I 190 W/m² 8,4 °C 9,6 °C 4,8 km/h (1 Bft)
03.09.2017 10:24 9,6 °C 9,6 °C 92 % 1017,4 hPa 0,0 mm 3,0 km/h (1 Bft) W 278 ° 0 min 0,000 mm 1,5 UV-I 195 W/m² 8,4 °C 9,6 °C 4,8 km/h (1 Bft)
03.09.2017 10:25 9,6 °C 9,6 °C 92 % 1017,4 hPa 0,0 mm 0,6 km/h (0 Bft) W 278 ° 0 min 0,000 mm 1,5 UV-I 199 W/m² 8,4 °C 9,6 °C 1,6 km/h (1 Bft)
03.09.2017 10:26 9,6 °C 9,6 °C 91 % 1017,4 hPa 0,0 mm 3,2 km/h (1 Bft) W 265 ° 0 min 0,000 mm 1,6 UV-I 204 W/m² 8,2 °C 9,6 °C 9,7 km/h (2 Bft)
03.09.2017 10:27 9,6 °C 9,6 °C 91 % 1017,4 hPa 0,0 mm 4,3 km/h (1 Bft) NW 323 ° 0 min 0,000 mm 1,6 UV-I 211 W/m² 8,2 °C 9,6 °C 6,4 km/h (2 Bft)
03.09.2017 10:28 9,5 °C 9,6 °C 91 % 1017,4 hPa 0,0 mm 5,6 km/h (1 Bft) W 269 ° 0 min 0,000 mm 1,7 UV-I 229 W/m² 8,1 °C 9,0 °C 12,9 km/h (3 Bft)
03.09.2017 10:29 9,5 °C 9,6 °C 91 % 1017,4 hPa 0,0 mm 7,3 km/h (2 Bft) W-NW 288 ° 0 min 0,000 mm 1,8 UV-I 239 W/m² 8,1 °C 8,6 °C 12,9 km/h (3 Bft)
03.09.2017 10:30 9,6 °C 9,6 °C 91 % 1017,4 hPa 0,0 mm 3,8 km/h (1 Bft) W-SW 257 ° 0 min 0,000 mm 1,8 UV-I 246 W/m² 8,2 °C 9,6 °C 8,0 km/h (2 Bft)
03.09.2017 10:31 9,6 °C 9,6 °C 91 % 1017,4 hPa 0,0 mm 7,2 km/h (2 Bft) W 269 ° 0 min 0,000 mm 1,8 UV-I 250 W/m² 8,2 °C 8,7 °C 11,3 km/h (2 Bft)
03.09.2017 10:32 9,6 °C 9,6 °C 91 % 1017,4 hPa 0,0 mm 6,2 km/h (2 Bft) W-NW 285 ° 0 min 0,000 mm 1,7 UV-I 246 W/m² 8,2 °C 9,0 °C 9,7 km/h (2 Bft)
03.09.2017 10:33 9,7 °C 9,7 °C 91 % 1017,4 hPa 0,0 mm 5,8 km/h (2 Bft) W 272 ° 0 min 0,000 mm 1,7 UV-I 239 W/m² 8,3 °C 9,2 °C 9,7 km/h (2 Bft)
03.09.2017 10:34 9,7 °C 9,7 °C 91 % 1017,4 hPa 0,0 mm 6,0 km/h (2 Bft) W 279 ° 0 min 0,000 mm 1,6 UV-I 229 W/m² 8,3 °C 9,1 °C 9,7 km/h (2 Bft)
03.09.2017 10:35 9,8 °C 9,8 °C 91 % 1017,4 hPa 0,0 mm 3,3 km/h (1 Bft) W-NW 284 ° 0 min 0,000 mm 1,6 UV-I 229 W/m² 8,4 °C 9,8 °C 4,8 km/h (1 Bft)
03.09.2017 10:36 9,8 °C 9,8 °C 90 % 1017,4 hPa 0,0 mm 2,5 km/h (1 Bft) W-NW 284 ° 0 min 0,000 mm 1,6 UV-I 230 W/m² 8,2 °C 9,8 °C 3,2 km/h (1 Bft)
03.09.2017 10:37 9,8 °C 9,8 °C 91 % 1017,4 hPa 0,0 mm 4,7 km/h (1 Bft) W 259 ° 0 min 0,000 mm 1,6 UV-I 229 W/m² 8,4 °C 9,6 °C 6,4 km/h (2 Bft)
03.09.2017 10:38 9,8 °C 9,9 °C 91 % 1017,4 hPa 0,0 mm 7,0 km/h (2 Bft) W-SW 250 ° 0 min 0,000 mm 1,6 UV-I 225 W/m² 8,4 °C 9,0 °C 11,3 km/h (2 Bft)
03.09.2017 10:39 9,9 °C 9,9 °C 91 % 1017,4 hPa 0,0 mm 6,8 km/h (2 Bft) W 274 ° 0 min 0,000 mm 1,6 UV-I 220 W/m² 8,5 °C 9,2 °C 11,3 km/h (2 Bft)
03.09.2017 10:40 9,9 °C 9,9 °C 90 % 1017,4 hPa 0,0 mm 5,0 km/h (1 Bft) W 263 ° 0 min 0,000 mm 1,5 UV-I 209 W/m² 8,3 °C 9,6 °C 6,4 km/h (2 Bft)
03.09.2017 10:41 9,9 °C 9,9 °C 91 % 1017,4 hPa 0,0 mm 7,5 km/h (2 Bft) W 276 ° 0 min 0,000 mm 1,5 UV-I 207 W/m² 8,5 °C 9,0 °C 11,3 km/h (2 Bft)
03.09.2017 10:42 9,9 °C 9,9 °C 90 % 1017,4 hPa 0,0 mm 3,3 km/h (1 Bft) W 274 ° 0 min 0,000 mm 1,5 UV-I 206 W/m² 8,3 °C 9,9 °C 4,8 km/h (1 Bft)
03.09.2017 10:43 9,9 °C 9,9 °C 91 % 1017,4 hPa 0,0 mm 5,1 km/h (1 Bft) SW 217 ° 0 min 0,000 mm 1,6 UV-I 207 W/m² 8,5 °C 9,6 °C 11,3 km/h (2 Bft)
03.09.2017 10:44 10,0 °C 10,0 °C 91 % 1017,4 hPa 0,0 mm 3,2 km/h (1 Bft) SW 236 ° 0 min 0,000 mm 1,6 UV-I 213 W/m² 8,6 °C 10,0 °C 4,8 km/h (1 Bft)
03.09.2017 10:45 10,0 °C 10,0 °C 91 % 1017,4 hPa 0,0 mm 1,8 km/h (1 Bft) W 261 ° 0 min 0,000 mm 1,6 UV-I 214 W/m² 8,6 °C 10,0 °C 9,7 km/h (2 Bft)
03.09.2017 10:46 10,0 °C 10,0 °C 91 % 1017,4 hPa 0,0 mm 5,5 km/h (1 Bft) W-SW 255 ° 0 min 0,000 mm 1,6 UV-I 209 W/m² 8,6 °C 9,6 °C 8,0 km/h (2 Bft)
03.09.2017 10:47 9,9 °C 10,0 °C 90 % 1017,4 hPa 0,0 mm 4,8 km/h (1 Bft) W-SW 258 ° 0 min 0,000 mm 1,5 UV-I 199 W/m² 8,3 °C 9,7 °C 9,7 km/h (2 Bft)
03.09.2017 10:48 9,9 °C 9,9 °C 89 % 1017,4 hPa 0,0 mm 3,5 km/h (1 Bft) W 275 ° 0 min 0,000 mm 1,4 UV-I 188 W/m² 8,2 °C 9,9 °C 6,4 km/h (2 Bft)
03.09.2017 10:49 9,9 °C 9,9 °C 89 % 1017,4 hPa 0,0 mm 4,9 km/h (1 Bft) W 267 ° 0 min 0,000 mm 1,4 UV-I 178 W/m² 8,2 °C 9,7 °C 6,4 km/h (2 Bft)
03.09.2017 10:50 9,9 °C 9,9 °C 90 % 1017,4 hPa 0,0 mm 4,0 km/h (1 Bft) W-NW 285 ° 0 min 0,000 mm 1,3 UV-I 169 W/m² 8,3 °C 9,9 °C 6,4 km/h (2 Bft)
03.09.2017 10:51 10,0 °C 10,0 °C 91 % 1017,4 hPa 0,0 mm 2,6 km/h (1 Bft) W-NW 284 ° 0 min 0,000 mm 1,3 UV-I 160 W/m² 8,6 °C 10,0 °C 4,8 km/h (1 Bft)
03.09.2017 10:52 10,0 °C 10,0 °C 90 % 1017,4 hPa 0,0 mm 2,8 km/h (1 Bft) W 259 ° 0 min 0,000 mm 1,3 UV-I 162 W/m² 8,4 °C 10,0 °C 4,8 km/h (1 Bft)
03.09.2017 10:53 9,9 °C 10,0 °C 90 % 1017,4 hPa 0,0 mm 2,4 km/h (1 Bft) W 259 ° 0 min 0,000 mm 1,3 UV-I 165 W/m² 8,3 °C 9,9 °C 4,8 km/h (1 Bft)
03.09.2017 10:54 9,9 °C 9,9 °C 89 % 1017,4 hPa 0,0 mm 0,8 km/h (0 Bft) W 259 ° 0 min 0,000 mm 1,4 UV-I 171 W/m² 8,2 °C 9,9 °C 1,6 km/h (1 Bft)
03.09.2017 10:55 9,9 °C 9,9 °C 89 % 1017,4 hPa 0,0 mm 7,2 km/h (2 Bft) W 278 ° 0 min 0,000 mm 1,4 UV-I 171 W/m² 8,2 °C 9,1 °C 11,3 km/h (2 Bft)
03.09.2017 10:56 9,9 °C 9,9 °C 89 % 1017,4 hPa 0,0 mm 4,6 km/h (1 Bft) W-NW 296 ° 0 min 0,000 mm 1,5 UV-I 181 W/m² 8,2 °C 9,8 °C 6,4 km/h (2 Bft)
03.09.2017 10:57 9,9 °C 9,9 °C 89 % 1017,3 hPa 0,0 mm 4,1 km/h (1 Bft) W-NW 303 ° 0 min 0,000 mm 1,5 UV-I 192 W/m² 8,2 °C 9,9 °C 6,4 km/h (2 Bft)
03.09.2017 10:58 9,9 °C 9,9 °C 90 % 1017,3 hPa 0,0 mm 5,0 km/h (1 Bft) NW 309 ° 0 min 0,000 mm 1,6 UV-I 200 W/m² 8,3 °C 9,6 °C 6,4 km/h (2 Bft)
03.09.2017 10:59 9,9 °C 9,9 °C 90 % 1017,3 hPa 0,0 mm 7,3 km/h (2 Bft) W-NW 298 ° 0 min 0,000 mm 1,7 UV-I 211 W/m² 8,3 °C 9,0 °C 12,9 km/h (3 Bft)
03.09.2017 11:00 9,9 °C 9,9 °C 90 % 1017,3 hPa 0,0 mm 6,5 km/h (2 Bft) W-NW 297 ° 0 min 0,102 mm 1,8 UV-I 221 W/m² 8,3 °C 9,2 °C 14,5 km/h (3 Bft)
03.09.2017 11:01 9,9 °C 9,9 °C 88 % 1017,3 hPa 0,0 mm 7,6 km/h (2 Bft) W-NW 293 ° 0 min 0,000 mm 1,9 UV-I 234 W/m² 8,0 °C 9,0 °C 11,3 km/h (2 Bft)
03.09.2017 11:02 9,9 °C 9,9 °C 87 % 1017,3 hPa 0,0 mm 3,6 km/h (1 Bft) W 281 ° 0 min 0,000 mm 2,0 UV-I 251 W/m² 7,8 °C 9,9 °C 8,0 km/h (2 Bft)
03.09.2017 11:03 9,9 °C 9,9 °C 88 % 1017,3 hPa 0,0 mm 4,4 km/h (1 Bft) W 277 ° 1 min 0,000 mm 2,1 UV-I 294 W/m² 8,0 °C 9,9 °C 6,4 km/h (2 Bft)
03.09.2017 11:04 9,9 °C 9,9 °C 90 % 1017,3 hPa 0,0 mm 5,0 km/h (1 Bft) W 275 ° 1 min 0,000 mm 2,3 UV-I 311 W/m² 8,3 °C 9,6 °C 6,4 km/h (2 Bft)
03.09.2017 11:05 10,0 °C 10,0 °C 89 % 1017,3 hPa 0,0 mm 4,8 km/h (1 Bft) W-SW 254 ° 1 min 0,000 mm 2,3 UV-I 323 W/m² 8,3 °C 9,8 °C 8,0 km/h (2 Bft)
03.09.2017 11:06 10,1 °C 10,1 °C 90 % 1017,3 hPa 0,0 mm 3,5 km/h (1 Bft) W-SW 253 ° 1 min 0,000 mm 2,4 UV-I 330 W/m² 8,5 °C 10,1 °C 4,8 km/h (1 Bft)
03.09.2017 11:07 10,1 °C 10,1 °C 90 % 1017,3 hPa 0,0 mm 5,0 km/h (1 Bft) W 265 ° 1 min 0,000 mm 2,4 UV-I 332 W/m² 8,5 °C 10,1 °C 11,3 km/h (2 Bft)
03.09.2017 11:08 10,2 °C 10,2 °C 89 % 1017,3 hPa 0,0 mm 6,8 km/h (2 Bft) W 268 ° 1 min 0,000 mm 2,4 UV-I 336 W/m² 8,5 °C 10,2 °C 11,3 km/h (2 Bft)
03.09.2017 11:09 10,2 °C 10,2 °C 88 % 1017,3 hPa 0,0 mm 2,7 km/h (1 Bft) W-NW 291 ° 1 min 0,000 mm 2,6 UV-I 346 W/m² 8,3 °C 10,2 °C 4,8 km/h (1 Bft)
03.09.2017 11:10 10,2 °C 10,2 °C 89 % 1017,3 hPa 0,0 mm 2,7 km/h (1 Bft) W-NW 291 ° 1 min 0,000 mm 2,3 UV-I 309 W/m² 8,5 °C 10,2 °C 4,8 km/h (1 Bft)
03.09.2017 11:11 10,3 °C 10,3 °C 89 % 1017,3 hPa 0,0 mm 2,7 km/h (1 Bft) W 279 ° 1 min 0,000 mm 2,2 UV-I 294 W/m² 8,6 °C 10,3 °C 6,4 km/h (2 Bft)
03.09.2017 11:12 10,4 °C 10,4 °C 90 % 1017,3 hPa 0,0 mm 7,9 km/h (2 Bft) W-SW 248 ° 1 min 0,000 mm 2,2 UV-I 290 W/m² 8,8 °C 10,4 °C 12,9 km/h (3 Bft)
03.09.2017 11:13 10,4 °C 10,4 °C 90 % 1017,3 hPa 0,0 mm 8,7 km/h (2 Bft) W 274 ° 1 min 0,000 mm 2,3 UV-I 294 W/m² 8,8 °C 10,4 °C 12,9 km/h (3 Bft)
03.09.2017 11:14 10,5 °C 10,5 °C 89 % 1017,3 hPa 0,0 mm 9,1 km/h (2 Bft) W-SW 245 ° 1 min 0,000 mm 2,3 UV-I 299 W/m² 8,8 °C 10,5 °C 12,9 km/h (3 Bft)
03.09.2017 11:15 10,4 °C 10,5 °C 88 % 1017,3 hPa 0,0 mm 3,0 km/h (1 Bft) SW 235 ° 1 min 0,000 mm 2,3 UV-I 313 W/m² 8,5 °C 10,4 °C 4,8 km/h (1 Bft)
03.09.2017 11:16 10,4 °C 10,4 °C 88 % 1017,3 hPa 0,0 mm 8,1 km/h (2 Bft) W-SW 252 ° 1 min 0,000 mm 2,4 UV-I 320 W/m² 8,5 °C 10,4 °C 11,3 km/h (2 Bft)
03.09.2017 11:17 10,4 °C 10,4 °C 88 % 1017,3 hPa 0,0 mm 8,2 km/h (2 Bft) W-SW 252 ° 1 min 0,000 mm 2,5 UV-I 329 W/m² 8,5 °C 10,4 °C 14,5 km/h (3 Bft)
03.09.2017 11:18 10,4 °C 10,4 °C 88 % 1017,3 hPa 0,0 mm 5,2 km/h (1 Bft) W-NW 293 ° 1 min 0,000 mm 2,5 UV-I 334 W/m² 8,5 °C 10,4 °C 11,3 km/h (2 Bft)
03.09.2017 11:19 10,5 °C 10,5 °C 89 % 1017,3 hPa 0,0 mm 4,5 km/h (1 Bft) W 271 ° 1 min 0,000 mm 2,5 UV-I 336 W/m² 8,8 °C 10,5 °C 9,7 km/h (2 Bft)
03.09.2017 11:20 10,4 °C 10,5 °C 88 % 1017,3 hPa 0,0 mm 6,2 km/h (2 Bft) W-SW 252 ° 1 min 0,000 mm 2,5 UV-I 345 W/m² 8,5 °C 10,4 °C 11,3 km/h (2 Bft)
03.09.2017 11:21 10,5 °C 10,5 °C 88 % 1017,3 hPa 0,0 mm 1,5 km/h (1 Bft) W-SW 250 ° 1 min 0,000 mm 2,6 UV-I 346 W/m² 8,6 °C 10,5 °C 3,2 km/h (1 Bft)
03.09.2017 11:22 10,5 °C 10,5 °C 87 % 1017,3 hPa 0,0 mm 7,5 km/h (2 Bft) W 259 ° 1 min 0,000 mm 2,6 UV-I 350 W/m² 8,4 °C 10,5 °C 11,3 km/h (2 Bft)
03.09.2017 11:23 10,4 °C 10,5 °C 88 % 1017,3 hPa 0,0 mm 7,6 km/h (2 Bft) W 261 ° 1 min 0,000 mm 2,7 UV-I 364 W/m² 8,5 °C 10,4 °C 9,7 km/h (2 Bft)
03.09.2017 11:24 10,5 °C 10,5 °C 88 % 1017,3 hPa 0,0 mm 9,5 km/h (2 Bft) W-SW 244 ° 1 min 0,000 mm 3,1 UV-I 394 W/m² 8,6 °C 10,5 °C 14,5 km/h (3 Bft)
03.09.2017 11:25 10,6 °C 10,6 °C 89 % 1017,3 hPa 0,0 mm 6,1 km/h (2 Bft) W-SW 254 ° 1 min 0,000 mm 3,0 UV-I 420 W/m² 8,9 °C 10,6 °C 9,7 km/h (2 Bft)
03.09.2017 11:26 10,6 °C 10,6 °C 88 % 1017,3 hPa 0,0 mm 10,6 km/h (2 Bft) W 263 ° 1 min 0,000 mm 3,4 UV-I 420 W/m² 8,7 °C 10,6 °C 12,9 km/h (3 Bft)
03.09.2017 11:27 10,6 °C 10,6 °C 88 % 1017,3 hPa 0,0 mm 10,6 km/h (2 Bft) NW 309 ° 1 min 0,000 mm 3,2 UV-I 432 W/m² 8,7 °C 10,6 °C 12,9 km/h (3 Bft)
03.09.2017 11:28 10,7 °C 10,7 °C 90 % 1017,2 hPa 0,0 mm 8,2 km/h (2 Bft) W-NW 284 ° 1 min 0,000 mm 3,5 UV-I 466 W/m² 9,1 °C 10,7 °C 11,3 km/h (2 Bft)
03.09.2017 11:29 10,7 °C 10,8 °C 87 % 1017,3 hPa 0,0 mm 6,3 km/h (2 Bft) W-SW 254 ° 1 min 0,000 mm 3,6 UV-I 466 W/m² 8,6 °C 10,7 °C 9,7 km/h (2 Bft)
03.09.2017 11:30 10,8 °C 10,8 °C 89 % 1017,2 hPa 0,0 mm 8,1 km/h (2 Bft) W 263 ° 1 min 0,000 mm 3,3 UV-I 489 W/m² 9,1 °C 10,8 °C 11,3 km/h (2 Bft)
03.09.2017 11:31 10,8 °C 10,9 °C 87 % 1017,2 hPa 0,0 mm 10,0 km/h (2 Bft) W-NW 296 ° 1 min 0,000 mm 3,3 UV-I 455 W/m² 8,7 °C 10,8 °C 12,9 km/h (3 Bft)
03.09.2017 11:32 10,8 °C 10,8 °C 88 % 1017,2 hPa 0,0 mm 5,6 km/h (1 Bft) W 269 ° 1 min 0,000 mm 3,1 UV-I 441 W/m² 8,9 °C 10,8 °C 9,7 km/h (2 Bft)
03.09.2017 11:33 10,8 °C 10,9 °C 87 % 1017,2 hPa 0,0 mm 4,7 km/h (1 Bft) W-SW 255 ° 1 min 0,000 mm 3,2 UV-I 420 W/m² 8,7 °C 10,8 °C 9,7 km/h (2 Bft)
03.09.2017 11:34 10,8 °C 10,8 °C 88 % 1017,3 hPa 0,0 mm 6,0 km/h (2 Bft) W 266 ° 1 min 0,000 mm 3,1 UV-I 415 W/m² 8,9 °C 10,8 °C 9,7 km/h (2 Bft)
03.09.2017 11:35 10,8 °C 10,8 °C 88 % 1017,2 hPa 0,0 mm 4,8 km/h (1 Bft) W 267 ° 1 min 0,000 mm 3,4 UV-I 443 W/m² 8,9 °C 10,8 °C 6,4 km/h (2 Bft)
03.09.2017 11:36 10,7 °C 10,8 °C 87 % 1017,3 hPa 0,0 mm 9,3 km/h (2 Bft) W 270 ° 1 min 0,000 mm 3,5 UV-I 485 W/m² 8,6 °C 10,7 °C 12,9 km/h (3 Bft)
03.09.2017 11:37 10,7 °C 10,7 °C 87 % 1017,2 hPa 0,0 mm 8,7 km/h (2 Bft) W-NW 286 ° 1 min 0,000 mm 3,5 UV-I 524 W/m² 8,6 °C 10,7 °C 14,5 km/h (3 Bft)
03.09.2017 11:38 10,8 °C 10,8 °C 88 % 1017,2 hPa 0,0 mm 10,5 km/h (2 Bft) W 263 ° 1 min 0,000 mm 3,6 UV-I 605 W/m² 8,9 °C 10,8 °C 14,5 km/h (3 Bft)
03.09.2017 11:39 10,8 °C 10,8 °C 86 % 1017,2 hPa 0,0 mm 10,6 km/h (2 Bft) W 277 ° 1 min 0,000 mm 3,6 UV-I 536 W/m² 8,6 °C 10,8 °C 14,5 km/h (3 Bft)
03.09.2017 11:40 10,8 °C 10,8 °C 87 % 1017,2 hPa 0,0 mm 11,3 km/h (2 Bft) W 271 ° 1 min 0,000 mm 3,3 UV-I 497 W/m² 8,7 °C 10,8 °C 14,5 km/h (3 Bft)
03.09.2017 11:41 10,8 °C 10,8 °C 87 % 1017,2 hPa 0,0 mm 8,7 km/h (2 Bft) W 268 ° 1 min 0,000 mm 3,2 UV-I 462 W/m² 8,7 °C 10,8 °C 12,9 km/h (3 Bft)
03.09.2017 11:42 10,8 °C 10,9 °C 86 % 1017,2 hPa 0,0 mm 4,6 km/h (1 Bft) W-NW 288 ° 1 min 0,000 mm 3,1 UV-I 454 W/m² 8,6 °C 10,8 °C 6,4 km/h (2 Bft)
03.09.2017 11:43 10,8 °C 10,8 °C 87 % 1017,2 hPa 0,0 mm 4,2 km/h (1 Bft) W-SW 257 ° 1 min 0,000 mm 3,0 UV-I 397 W/m² 8,7 °C 10,8 °C 8,0 km/h (2 Bft)
03.09.2017 11:44 10,9 °C 10,9 °C 88 % 1017,2 hPa 0,0 mm 9,4 km/h (2 Bft) W 269 ° 1 min 0,000 mm 2,9 UV-I 381 W/m² 9,0 °C 10,9 °C 14,5 km/h (3 Bft)
03.09.2017 11:45 10,9 °C 10,9 °C 87 % 1017,2 hPa 0,0 mm 9,9 km/h (2 Bft) W-NW 292 ° 1 min 0,000 mm 2,8 UV-I 367 W/m² 8,8 °C 10,9 °C 16,1 km/h (3 Bft)
03.09.2017 11:46 10,9 °C 10,9 °C 87 % 1017,2 hPa 0,0 mm 6,4 km/h (2 Bft) W-SW 256 ° 1 min 0,000 mm 2,8 UV-I 360 W/m² 8,8 °C 10,9 °C 12,9 km/h (3 Bft)
03.09.2017 11:47 10,9 °C 10,9 °C 89 % 1017,2 hPa 0,0 mm 5,6 km/h (1 Bft) W 275 ° 1 min 0,000 mm 2,8 UV-I 360 W/m² 9,2 °C 10,9 °C 11,3 km/h (2 Bft)
03.09.2017 11:48 11,0 °C 11,0 °C 88 % 1017,2 hPa 0,0 mm 7,3 km/h (2 Bft) W-SW 246 ° 1 min 0,000 mm 2,8 UV-I 364 W/m² 9,1 °C 11,0 °C 12,9 km/h (3 Bft)
03.09.2017 11:49 10,9 °C 11,0 °C 87 % 1017,2 hPa 0,0 mm 2,4 km/h (1 Bft) W-SW 246 ° 1 min 0,000 mm 2,8 UV-I 364 W/m² 8,8 °C 10,9 °C 4,8 km/h (1 Bft)
03.09.2017 11:50 10,9 °C 10,9 °C 87 % 1017,3 hPa 0,0 mm 6,2 km/h (2 Bft) W-NW 282 ° 1 min 0,000 mm 2,8 UV-I 357 W/m² 8,8 °C 10,9 °C 9,7 km/h (2 Bft)
03.09.2017 11:51 10,9 °C 10,9 °C 87 % 1017,3 hPa 0,0 mm 4,0 km/h (1 Bft) W-SW 253 ° 1 min 0,000 mm 2,8 UV-I 355 W/m² 8,8 °C 10,9 °C 6,4 km/h (2 Bft)
03.09.2017 11:52 10,9 °C 10,9 °C 87 % 1017,3 hPa 0,0 mm 7,6 km/h (2 Bft) W 259 ° 1 min 0,000 mm 2,8 UV-I 350 W/m² 8,8 °C 10,9 °C 14,5 km/h (3 Bft)
03.09.2017 11:53 10,9 °C 10,9 °C 87 % 1017,3 hPa 0,0 mm 6,2 km/h (2 Bft) W 271 ° 1 min 0,000 mm 2,7 UV-I 339 W/m² 8,8 °C 10,9 °C 9,7 km/h (2 Bft)
03.09.2017 11:54 10,9 °C 10,9 °C 88 % 1017,2 hPa 0,0 mm 7,3 km/h (2 Bft) W 259 ° 1 min 0,000 mm 2,7 UV-I 332 W/m² 9,0 °C 10,9 °C 11,3 km/h (2 Bft)
03.09.2017 11:55 10,9 °C 10,9 °C 88 % 1017,2 hPa 0,0 mm 7,9 km/h (2 Bft) W 265 ° 1 min 0,000 mm 2,7 UV-I 327 W/m² 9,0 °C 10,9 °C 11,3 km/h (2 Bft)
03.09.2017 11:56 10,9 °C 10,9 °C 87 % 1017,2 hPa 0,0 mm 7,3 km/h (2 Bft) SW 219 ° 1 min 0,000 mm 2,7 UV-I 325 W/m² 8,8 °C 10,9 °C 11,3 km/h (2 Bft)
03.09.2017 11:57 10,8 °C 10,9 °C 86 % 1017,2 hPa 0,0 mm 2,5 km/h (1 Bft) W-SW 249 ° 1 min 0,000 mm 2,7 UV-I 323 W/m² 8,6 °C 10,8 °C 4,8 km/h (1 Bft)
03.09.2017 11:58 10,9 °C 10,9 °C 86 % 1017,2 hPa 0,0 mm 1,5 km/h (1 Bft) W-SW 250 ° 1 min 0,000 mm 2,7 UV-I 323 W/m² 8,7 °C 10,9 °C 3,2 km/h (1 Bft)
03.09.2017 11:59 10,9 °C 10,9 °C 87 % 1017,1 hPa 0,0 mm 0,3 km/h (0 Bft) W-SW 250 ° 1 min 0,000 mm 2,8 UV-I 329 W/m² 8,8 °C 10,9 °C 3,2 km/h (1 Bft)
03.09.2017 12:00 11,0 °C 11,0 °C 88 % 1017,2 hPa 0,0 mm 4,8 km/h (1 Bft) W-SW 242 ° 1 min 0,178 mm 2,9 UV-I 352 W/m² 9,1 °C 11,0 °C 9,7 km/h (2 Bft)
03.09.2017 12:01 11,0 °C 11,0 °C 87 % 1017,1 hPa 0,0 mm 5,4 km/h (1 Bft) NW 321 ° 1 min 0,000 mm 3,0 UV-I 385 W/m² 8,9 °C 11,0 °C 8,0 km/h (2 Bft)
03.09.2017 12:02 11,1 °C 11,1 °C 87 % 1017,2 hPa 0,0 mm 7,1 km/h (2 Bft) W 264 ° 1 min 0,000 mm 3,1 UV-I 378 W/m² 9,0 °C 11,1 °C 12,9 km/h (3 Bft)
03.09.2017 12:03 11,0 °C 11,1 °C 87 % 1017,2 hPa 0,0 mm 6,5 km/h (2 Bft) W 263 ° 1 min 0,000 mm 3,1 UV-I 371 W/m² 8,9 °C 11,0 °C 11,3 km/h (2 Bft)
03.09.2017 12:04 10,9 °C 11,0 °C 87 % 1017,1 hPa 0,0 mm 4,8 km/h (1 Bft) W-SW 245 ° 1 min 0,000 mm 3,1 UV-I 376 W/m² 8,8 °C 10,9 °C 8,0 km/h (2 Bft)
03.09.2017 12:05 11,0 °C 11,0 °C 88 % 1017,2 hPa 0,0 mm 3,8 km/h (1 Bft) W-SW 242 ° 1 min 0,000 mm 3,2 UV-I 392 W/m² 9,1 °C 11,0 °C 4,8 km/h (1 Bft)
03.09.2017 12:06 11,1 °C 11,1 °C 87 % 1017,2 hPa 0,0 mm 1,0 km/h (0 Bft) W-SW 242 ° 1 min 0,000 mm 3,2 UV-I 396 W/m² 9,0 °C 11,1 °C 3,2 km/h (1 Bft)
03.09.2017 12:07 11,1 °C 11,1 °C 88 % 1017,1 hPa 0,0 mm 4,0 km/h (1 Bft) W-NW 282 ° 1 min 0,000 mm 3,4 UV-I 431 W/m² 9,2 °C 11,1 °C 9,7 km/h (2 Bft)
03.09.2017 12:08 11,3 °C 11,3 °C 88 % 1017,1 hPa 0,0 mm 6,0 km/h (2 Bft) W 274 ° 1 min 0,000 mm 4,6 UV-I 431 W/m² 9,4 °C 11,3 °C 9,7 km/h (2 Bft)
03.09.2017 12:09 11,3 °C 11,3 °C 87 % 1017,1 hPa 0,0 mm 4,5 km/h (1 Bft) NW 321 ° 1 min 0,000 mm 3,7 UV-I 538 W/m² 9,2 °C 11,3 °C 8,0 km/h (2 Bft)
03.09.2017 12:10 11,4 °C 11,4 °C 86 % 1017,1 hPa 0,0 mm 5,2 km/h (1 Bft) W-NW 289 ° 1 min 0,000 mm 3,4 UV-I 538 W/m² 9,1 °C 11,4 °C 11,3 km/h (2 Bft)
03.09.2017 12:11 11,4 °C 11,4 °C 86 % 1017,0 hPa 0,0 mm 5,9 km/h (2 Bft) W-NW 283 ° 1 min 0,000 mm 3,4 UV-I 406 W/m² 9,1 °C 11,4 °C 8,0 km/h (2 Bft)
03.09.2017 12:12 11,4 °C 11,4 °C 86 % 1017,0 hPa 0,0 mm 5,2 km/h (1 Bft) W-NW 283 ° 1 min 0,000 mm 3,6 UV-I 454 W/m² 9,1 °C 11,4 °C 11,3 km/h (2 Bft)
03.09.2017 12:13 11,4 °C 11,4 °C 85 % 1017,0 hPa 0,0 mm 3,5 km/h (1 Bft) SW 223 ° 1 min 0,000 mm 3,7 UV-I 515 W/m² 9,0 °C 11,4 °C 9,7 km/h (2 Bft)
03.09.2017 12:14 11,4 °C 11,4 °C 86 % 1017,0 hPa 0,0 mm 6,5 km/h (2 Bft) W 261 ° 1 min 0,000 mm 3,7 UV-I 519 W/m² 9,1 °C 11,4 °C 12,9 km/h (3 Bft)
03.09.2017 12:15 11,4 °C 11,4 °C 86 % 1017,0 hPa 0,0 mm 3,9 km/h (1 Bft) W-SW 245 ° 1 min 0,000 mm 3,6 UV-I 499 W/m² 9,1 °C 11,4 °C 6,4 km/h (2 Bft)
03.09.2017 12:16 11,5 °C 11,5 °C 87 % 1017,0 hPa 0,0 mm 5,0 km/h (1 Bft) W 259 ° 1 min 0,000 mm 3,7 UV-I 459 W/m² 9,4 °C 11,5 °C 9,7 km/h (2 Bft)
03.09.2017 12:17 11,5 °C 11,5 °C 84 % 1017,0 hPa 0,0 mm 3,6 km/h (1 Bft) W 269 ° 1 min 0,000 mm 3,5 UV-I 404 W/m² 8,9 °C 11,5 °C 8,0 km/h (2 Bft)
03.09.2017 12:18 11,5 °C 11,5 °C 86 % 1017,0 hPa 0,0 mm 8,3 km/h (2 Bft) W-SW 242 ° 1 min 0,000 mm 3,5 UV-I 422 W/m² 9,2 °C 11,5 °C 11,3 km/h (2 Bft)
03.09.2017 12:19 11,5 °C 11,6 °C 85 % 1017,0 hPa 0,0 mm 2,2 km/h (1 Bft) W-SW 245 ° 1 min 0,000 mm 3,6 UV-I 413 W/m² 9,1 °C 11,5 °C 4,8 km/h (1 Bft)
03.09.2017 12:20 11,4 °C 11,5 °C 83 % 1016,9 hPa 0,0 mm 4,8 km/h (1 Bft) W 277 ° 1 min 0,000 mm 4,1 UV-I 413 W/m² 8,6 °C 11,4 °C 6,4 km/h (2 Bft)
03.09.2017 12:21 11,4 °C 11,4 °C 85 % 1016,9 hPa 0,0 mm 2,6 km/h (1 Bft) SW 236 ° 1 min 0,000 mm 4,3 UV-I 596 W/m² 9,0 °C 11,4 °C 4,8 km/h (1 Bft)
03.09.2017 12:22 11,6 °C 11,6 °C 88 % 1016,9 hPa 0,0 mm 4,4 km/h (1 Bft) S-SW 205 ° 1 min 0,000 mm 4,1 UV-I 571 W/m² 9,7 °C 11,6 °C 12,9 km/h (3 Bft)
03.09.2017 12:23 11,6 °C 11,7 °C 84 % 1016,8 hPa 0,0 mm 2,5 km/h (1 Bft) S-SW 200 ° 1 min 0,000 mm 5,0 UV-I 571 W/m² 9,0 °C 11,6 °C 4,8 km/h (1 Bft)
03.09.2017 12:24 11,7 °C 11,7 °C 86 % 1016,8 hPa 0,0 mm 2,3 km/h (1 Bft) W-SW 237 ° 1 min 0,000 mm 5,1 UV-I 849 W/m² 9,4 °C 11,7 °C 4,8 km/h (1 Bft)
03.09.2017 12:25 11,8 °C 11,8 °C 86 % 1016,8 hPa 0,0 mm 1,2 km/h (1 Bft) SW 236 ° 1 min 0,000 mm 5,2 UV-I 861 W/m² 9,5 °C 11,8 °C 4,8 km/h (1 Bft)
03.09.2017 12:26 12,1 °C 12,1 °C 89 % 1016,9 hPa 0,0 mm 4,0 km/h (1 Bft) W-SW 247 ° 1 min 0,000 mm 4,2 UV-I 861 W/m² 10,3 °C 12,1 °C 4,8 km/h (1 Bft)
03.09.2017 12:27 12,2 °C 12,2 °C 86 % 1016,8 hPa 0,0 mm 5,0 km/h (1 Bft) W-NW 290 ° 1 min 0,000 mm 3,8 UV-I 861 W/m² 9,9 °C 12,2 °C 8,0 km/h (2 Bft)
03.09.2017 12:28 12,2 °C 12,2 °C 83 % 1016,8 hPa 0,0 mm 6,9 km/h (2 Bft) W 281 ° 1 min 0,000 mm 4,1 UV-I 446 W/m² 9,4 °C 12,2 °C 11,3 km/h (2 Bft)
03.09.2017 12:29 12,1 °C 12,2 °C 82 % 1016,8 hPa 0,0 mm 5,7 km/h (1 Bft) W 270 ° 1 min 0,000 mm 5,5 UV-I 446 W/m² 9,1 °C 12,1 °C 9,7 km/h (2 Bft)
03.09.2017 12:30 12,1 °C 12,1 °C 82 % 1016,8 hPa 0,0 mm 6,2 km/h (2 Bft) W 279 ° 1 min 0,000 mm 5,6 UV-I 979 W/m² 9,1 °C 12,1 °C 11,3 km/h (2 Bft)
03.09.2017 12:31 12,3 °C 12,3 °C 87 % 1016,8 hPa 0,0 mm 3,4 km/h (1 Bft) W 280 ° 1 min 0,000 mm 4,8 UV-I 881 W/m² 10,2 °C 12,3 °C 6,4 km/h (2 Bft)
03.09.2017 12:32 12,4 °C 12,4 °C 84 % 1016,8 hPa 0,0 mm 6,8 km/h (2 Bft) W 259 ° 1 min 0,000 mm 5,2 UV-I 1023 W/m² 9,8 °C 12,4 °C 11,3 km/h (2 Bft)
03.09.2017 12:33 12,6 °C 12,6 °C 84 % 1016,7 hPa 0,0 mm 6,2 km/h (2 Bft) SW 230 ° 1 min 0,000 mm 4,4 UV-I 1023 W/m² 10,0 °C 12,6 °C 8,0 km/h (2 Bft)
03.09.2017 12:34 12,6 °C 12,6 °C 82 % 1016,8 hPa 0,0 mm 5,0 km/h (1 Bft) W-SW 243 ° 1 min 0,000 mm 4,4 UV-I 1023 W/m² 9,6 °C 12,6 °C 9,7 km/h (2 Bft)
03.09.2017 12:35 12,4 °C 12,6 °C 83 % 1016,7 hPa 0,0 mm 5,5 km/h (1 Bft) W-SW 252 ° 1 min 0,000 mm 3,5 UV-I 485 W/m² 9,6 °C 12,4 °C 6,4 km/h (2 Bft)
03.09.2017 12:36 12,4 °C 12,5 °C 82 % 1016,7 hPa 0,0 mm 3,5 km/h (1 Bft) W-SW 243 ° 1 min 0,000 mm 3,6 UV-I 508 W/m² 9,4 °C 12,4 °C 6,4 km/h (2 Bft)
03.09.2017 12:37 12,3 °C 12,4 °C 82 % 1016,8 hPa 0,0 mm 7,1 km/h (2 Bft) W 280 ° 1 min 0,000 mm 3,5 UV-I 459 W/m² 9,3 °C 12,3 °C 12,9 km/h (3 Bft)
03.09.2017 12:38 12,2 °C 12,3 °C 82 % 1016,7 hPa 0,0 mm 7,6 km/h (2 Bft) SW 233 ° 1 min 0,000 mm 3,7 UV-I 490 W/m² 9,2 °C 12,2 °C 12,9 km/h (3 Bft)
03.09.2017 12:39 12,1 °C 12,2 °C 81 % 1016,7 hPa 0,0 mm 1,5 km/h (1 Bft) W 275 ° 1 min 0,000 mm 2,9 UV-I 443 W/m² 8,9 °C 12,1 °C 6,4 km/h (2 Bft)
03.09.2017 12:40 12,1 °C 12,1 °C 82 % 1016,7 hPa 0,0 mm 8,3 km/h (2 Bft) W 263 ° 1 min 0,000 mm 2,6 UV-I 359 W/m² 9,1 °C 12,1 °C 11,3 km/h (2 Bft)
03.09.2017 12:41 11,9 °C 12,1 °C 81 % 1016,7 hPa 0,0 mm 5,2 km/h (1 Bft) W-SW 251 ° 1 min 0,000 mm 2,6 UV-I 343 W/m² 8,7 °C 11,9 °C 9,7 km/h (2 Bft)
03.09.2017 12:42 11,9 °C 11,9 °C 81 % 1016,8 hPa 0,0 mm 5,7 km/h (1 Bft) W 263 ° 1 min 0,000 mm 2,4 UV-I 318 W/m² 8,7 °C 11,9 °C 9,7 km/h (2 Bft)
03.09.2017 12:43 11,8 °C 11,9 °C 81 % 1016,7 hPa 0,0 mm 9,9 km/h (2 Bft) W 276 ° 1 min 0,000 mm 2,3 UV-I 294 W/m² 8,6 °C 11,8 °C 14,5 km/h (3 Bft)
03.09.2017 12:44 11,7 °C 11,8 °C 81 % 1016,7 hPa 0,0 mm 10,4 km/h (2 Bft) W-SW 252 ° 0 min 0,000 mm 2,1 UV-I 274 W/m² 8,5 °C 11,7 °C 14,5 km/h (3 Bft)
03.09.2017 12:45 11,7 °C 11,7 °C 84 % 1016,8 hPa 0,0 mm 9,1 km/h (2 Bft) W 279 ° 0 min 0,000 mm 2,1 UV-I 262 W/m² 9,1 °C 11,7 °C 14,5 km/h (3 Bft)
03.09.2017 12:46 11,7 °C 11,7 °C 84 % 1016,8 hPa 0,0 mm 9,6 km/h (2 Bft) W 273 ° 0 min 0,000 mm 2,0 UV-I 255 W/m² 9,1 °C 11,7 °C 12,9 km/h (3 Bft)
03.09.2017 12:47 11,7 °C 11,7 °C 84 % 1016,7 hPa 0,0 mm 7,9 km/h (2 Bft) W 273 ° 0 min 0,000 mm 2,0 UV-I 251 W/m² 9,1 °C 11,7 °C 11,3 km/h (2 Bft)
03.09.2017 12:48 11,6 °C 11,7 °C 82 % 1016,7 hPa 0,0 mm 5,2 km/h (1 Bft) W 269 ° 0 min 0,000 mm 2,0 UV-I 250 W/m² 8,6 °C 11,6 °C 8,0 km/h (2 Bft)
03.09.2017 12:49 11,6 °C 11,6 °C 83 % 1016,7 hPa 0,0 mm 4,2 km/h (1 Bft) W 266 ° 0 min 0,000 mm 2,1 UV-I 265 W/m² 8,8 °C 11,6 °C 9,7 km/h (2 Bft)
03.09.2017 12:50 11,6 °C 11,6 °C 85 % 1016,7 hPa 0,0 mm 7,2 km/h (2 Bft) W 267 ° 0 min 0,000 mm 2,3 UV-I 265 W/m² 9,2 °C 11,6 °C 11,3 km/h (2 Bft)
03.09.2017 12:51 11,6 °C 11,6 °C 84 % 1016,7 hPa 0,0 mm 5,6 km/h (1 Bft) W-NW 286 ° 1 min 0,000 mm 2,5 UV-I 302 W/m² 9,0 °C 11,6 °C 9,7 km/h (2 Bft)
03.09.2017 12:52 11,6 °C 11,6 °C 85 % 1016,7 hPa 0,0 mm 7,1 km/h (2 Bft) W-NW 294 ° 1 min 0,000 mm 2,6 UV-I 325 W/m² 9,2 °C 11,6 °C 11,3 km/h (2 Bft)
03.09.2017 12:53 11,7 °C 11,7 °C 84 % 1016,7 hPa 0,0 mm 3,9 km/h (1 Bft) W-SW 245 ° 1 min 0,000 mm 2,8 UV-I 353 W/m² 9,1 °C 11,7 °C 6,4 km/h (2 Bft)
03.09.2017 12:54 11,7 °C 11,7 °C 84 % 1016,7 hPa 0,0 mm 6,9 km/h (2 Bft) W 261 ° 1 min 0,000 mm 2,9 UV-I 420 W/m² 9,1 °C 11,7 °C 9,7 km/h (2 Bft)
03.09.2017 12:55 11,7 °C 11,7 °C 84 % 1016,6 hPa 0,0 mm 7,8 km/h (2 Bft) W 278 ° 1 min 0,000 mm 3,1 UV-I 411 W/m² 9,1 °C 11,7 °C 11,3 km/h (2 Bft)
03.09.2017 12:56 11,7 °C 11,7 °C 85 % 1016,6 hPa 0,0 mm 7,3 km/h (2 Bft) NW 323 ° 1 min 0,000 mm 4,4 UV-I 411 W/m² 9,3 °C 11,7 °C 11,3 km/h (2 Bft)
03.09.2017 12:57 11,9 °C 11,9 °C 85 % 1016,6 hPa 0,0 mm 7,2 km/h (2 Bft) NW 310 ° 1 min 0,000 mm 3,0 UV-I 411 W/m² 9,5 °C 11,9 °C 12,9 km/h (3 Bft)
03.09.2017 12:58 12,1 °C 12,1 °C 87 % 1016,6 hPa 0,0 mm 4,2 km/h (1 Bft) W-NW 287 ° 1 min 0,000 mm 2,8 UV-I 387 W/m² 10,0 °C 12,1 °C 8,0 km/h (2 Bft)
03.09.2017 12:59 12,1 °C 12,1 °C 83 % 1016,6 hPa 0,0 mm 8,2 km/h (2 Bft) W-NW 294 ° 1 min 0,000 mm 3,1 UV-I 408 W/m² 9,3 °C 12,1 °C 12,9 km/h (3 Bft)
03.09.2017 13:00 12,1 °C 12,1 °C 82 % 1016,6 hPa 0,0 mm 5,9 km/h (2 Bft) NW 325 ° 1 min 0,000 mm 3,5 UV-I 636 W/m² 9,1 °C 12,1 °C 8,0 km/h (2 Bft)
03.09.2017 13:01 12,1 °C 12,1 °C 83 % 1016,7 hPa 0,0 mm 4,4 km/h (1 Bft) NW 309 ° 1 min 0,254 mm 3,7 UV-I 608 W/m² 9,3 °C 12,1 °C 6,4 km/h (2 Bft)
03.09.2017 13:02 12,1 °C 12,2 °C 81 % 1016,6 hPa 0,0 mm 6,7 km/h (2 Bft) NW 318 ° 1 min 0,000 mm 3,5 UV-I 657 W/m² 8,9 °C 12,1 °C 11,3 km/h (2 Bft)
03.09.2017 13:03 12,1 °C 12,1 °C 82 % 1016,6 hPa 0,0 mm 8,6 km/h (2 Bft) W 259 ° 1 min 0,000 mm 2,5 UV-I 657 W/m² 9,1 °C 12,1 °C 12,9 km/h (3 Bft)
03.09.2017 13:04 12,1 °C 12,1 °C 81 % 1016,6 hPa 0,0 mm 7,3 km/h (2 Bft) W-SW 257 ° 1 min 0,000 mm 2,5 UV-I 295 W/m² 8,9 °C 12,1 °C 11,3 km/h (2 Bft)
03.09.2017 13:05 11,9 °C 12,1 °C 81 % 1016,6 hPa 0,0 mm 7,8 km/h (2 Bft) W 279 ° 1 min 0,000 mm 2,6 UV-I 301 W/m² 8,7 °C 11,9 °C 11,3 km/h (2 Bft)
03.09.2017 13:06 11,9 °C 11,9 °C 82 % 1016,6 hPa 0,0 mm 8,9 km/h (2 Bft) W-SW 253 ° 1 min 0,000 mm 2,8 UV-I 325 W/m² 8,9 °C 11,9 °C 12,9 km/h (3 Bft)
03.09.2017 13:07 11,8 °C 11,9 °C 82 % 1016,6 hPa 0,0 mm 7,4 km/h (2 Bft) W 273 ° 1 min 0,000 mm 3,0 UV-I 364 W/m² 8,8 °C 11,8 °C 9,7 km/h (2 Bft)
03.09.2017 13:08 11,7 °C 11,8 °C 80 % 1016,6 hPa 0,0 mm 4,1 km/h (1 Bft) W-NW 288 ° 1 min 0,000 mm 2,9 UV-I 364 W/m² 8,4 °C 11,7 °C 6,4 km/h (2 Bft)
03.09.2017 13:09 11,8 °C 11,8 °C 84 % 1016,6 hPa 0,0 mm 5,6 km/h (1 Bft) W-NW 288 ° 1 min 0,000 mm 2,9 UV-I 348 W/m² 9,2 °C 11,8 °C 9,7 km/h (2 Bft)
03.09.2017 13:10 11,7 °C 11,8 °C 81 % 1016,6 hPa 0,0 mm 6,6 km/h (2 Bft) NW 304 ° 1 min 0,000 mm 3,0 UV-I 369 W/m² 8,5 °C 11,7 °C 11,3 km/h (2 Bft)
03.09.2017 13:11 11,7 °C 11,7 °C 82 % 1016,6 hPa 0,0 mm 6,7 km/h (2 Bft) NW 309 ° 1 min 0,000 mm 2,9 UV-I 357 W/m² 8,7 °C 11,7 °C 11,3 km/h (2 Bft)
03.09.2017 13:12 11,7 °C 11,7 °C 83 % 1016,6 hPa 0,0 mm 5,0 km/h (1 Bft) NW 306 ° 1 min 0,000 mm 2,9 UV-I 373 W/m² 8,9 °C 11,7 °C 9,7 km/h (2 Bft)
03.09.2017 13:13 11,6 °C 11,7 °C 82 % 1016,6 hPa 0,0 mm 4,8 km/h (1 Bft) W-NW 296 ° 1 min 0,000 mm 2,8 UV-I 306 W/m² 8,6 °C 11,6 °C 8,0 km/h (2 Bft)
03.09.2017 13:14 11,6 °C 11,6 °C 79 % 1016,5 hPa 0,0 mm 5,6 km/h (1 Bft) NW 321 ° 1 min 0,000 mm 2,9 UV-I 316 W/m² 8,1 °C 11,6 °C 8,0 km/h (2 Bft)
03.09.2017 13:15 11,6 °C 11,6 °C 82 % 1016,6 hPa 0,0 mm 6,0 km/h (2 Bft) NW 307 ° 1 min 0,000 mm 3,0 UV-I 334 W/m² 8,6 °C 11,6 °C 11,3 km/h (2 Bft)
03.09.2017 13:16 11,6 °C 11,6 °C 82 % 1016,5 hPa 0,0 mm 3,5 km/h (1 Bft) W 280 ° 1 min 0,000 mm 3,1 UV-I 357 W/m² 8,6 °C 11,6 °C 4,8 km/h (1 Bft)
03.09.2017 13:17 11,6 °C 11,6 °C 84 % 1016,5 hPa 0,0 mm 2,0 km/h (1 Bft) W-NW 296 ° 1 min 0,000 mm 3,1 UV-I 369 W/m² 9,0 °C 11,6 °C 3,2 km/h (1 Bft)
03.09.2017 13:18 11,6 °C 11,6 °C 83 % 1016,6 hPa 0,0 mm 2,4 km/h (1 Bft) W 268 ° 1 min 0,000 mm 3,3 UV-I 408 W/m² 8,8 °C 11,6 °C 4,8 km/h (1 Bft)
03.09.2017 13:19 11,5 °C 11,6 °C 83 % 1016,6 hPa 0,0 mm 8,7 km/h (2 Bft) W 265 ° 1 min 0,000 mm 3,2 UV-I 388 W/m² 8,7 °C 11,5 °C 12,9 km/h (3 Bft)
03.09.2017 13:20 11,5 °C 11,5 °C 82 % 1016,6 hPa 0,0 mm 9,0 km/h (2 Bft) W-SW 257 ° 1 min 0,000 mm 3,1 UV-I 364 W/m² 8,5 °C 11,5 °C 11,3 km/h (2 Bft)
03.09.2017 13:21 11,5 °C 11,5 °C 83 % 1016,6 hPa 0,0 mm 5,0 km/h (1 Bft) SW 235 ° 1 min 0,000 mm 3,1 UV-I 359 W/m² 8,7 °C 11,5 °C 6,4 km/h (2 Bft)
03.09.2017 13:22 11,6 °C 11,6 °C 83 % 1016,6 hPa 0,0 mm 3,6 km/h (1 Bft) S-SW 204 ° 1 min 0,000 mm 3,2 UV-I 366 W/m² 8,8 °C 11,6 °C 4,8 km/h (1 Bft)
03.09.2017 13:23 11,6 °C 11,6 °C 80 % 1016,6 hPa 0,0 mm 3,6 km/h (1 Bft) W 269 ° 1 min 0,000 mm 3,9 UV-I 410 W/m² 8,3 °C 11,6 °C 9,7 km/h (2 Bft)
03.09.2017 13:24 11,7 °C 11,7 °C 84 % 1016,5 hPa 0,0 mm 4,4 km/h (1 Bft) W 272 ° 1 min 0,000 mm 4,1 UV-I 636 W/m² 9,1 °C 11,7 °C 9,7 km/h (2 Bft)
03.09.2017 13:25 11,8 °C 11,8 °C 85 % 1016,5 hPa 0,0 mm 4,5 km/h (1 Bft) W 266 ° 1 min 0,000 mm 5,4 UV-I 636 W/m² 9,4 °C 11,8 °C 6,4 km/h (2 Bft)
03.09.2017 13:26 12,1 °C 12,1 °C 84 % 1016,5 hPa 0,0 mm 4,2 km/h (1 Bft) W 265 ° 1 min 0,000 mm 5,4 UV-I 1025 W/m² 9,5 °C 12,1 °C 6,4 km/h (2 Bft)
03.09.2017 13:27 12,2 °C 12,2 °C 85 % 1016,5 hPa 0,0 mm 3,4 km/h (1 Bft) W 274 ° 1 min 0,000 mm 5,3 UV-I 1028 W/m² 9,8 °C 12,2 °C 9,7 km/h (2 Bft)
03.09.2017 13:28 12,4 °C 12,4 °C 81 % 1016,5 hPa 0,0 mm 5,2 km/h (1 Bft) W 261 ° 1 min 0,000 mm 5,1 UV-I 1007 W/m² 9,2 °C 12,4 °C 9,7 km/h (2 Bft)
03.09.2017 13:29 12,6 °C 12,6 °C 82 % 1016,5 hPa 0,0 mm 1,7 km/h (1 Bft) SW 232 ° 1 min 0,000 mm 4,5 UV-I 770 W/m² 9,6 °C 12,6 °C 4,8 km/h (1 Bft)
03.09.2017 13:30 12,6 °C 12,6 °C 78 % 1016,5 hPa 0,0 mm 3,6 km/h (1 Bft) W 270 ° 1 min 0,000 mm 4,0 UV-I 770 W/m² 8,9 °C 12,6 °C 4,8 km/h (1 Bft)
03.09.2017 13:31 12,6 °C 12,6 °C 79 % 1016,5 hPa 0,0 mm 3,7 km/h (1 Bft) S-SW 192 ° 1 min 0,000 mm 2,6 UV-I 770 W/m² 9,1 °C 12,6 °C 4,8 km/h (1 Bft)
03.09.2017 13:32 12,4 °C 12,6 °C 79 % 1016,5 hPa 0,0 mm 1,5 km/h (1 Bft) S-SW 192 ° 1 min 0,000 mm 2,4 UV-I 323 W/m² 8,9 °C 12,4 °C 3,2 km/h (1 Bft)
03.09.2017 13:33 12,3 °C 12,4 °C 78 % 1016,5 hPa 0,0 mm 1,1 km/h (1 Bft) W-SW 250 ° 1 min 0,000 mm 2,3 UV-I 311 W/m² 8,6 °C 12,3 °C 3,2 km/h (1 Bft)
03.09.2017 13:34 12,2 °C 12,3 °C 78 % 1016,5 hPa 0,0 mm 0,0 km/h (0 Bft) W-SW 250 ° 1 min 0,000 mm 2,2 UV-I 297 W/m² 8,5 °C 12,2 °C 0,0 km/h (0 Bft)
03.09.2017 13:35 12,0 °C 12,2 °C 76 % 1016,4 hPa 0,0 mm 3,6 km/h (1 Bft) NW 306 ° 0 min 0,000 mm 2,1 UV-I 278 W/m² 7,9 °C 12,0 °C 6,4 km/h (2 Bft)
03.09.2017 13:36 11,9 °C 12,0 °C 78 % 1016,4 hPa 0,0 mm 2,7 km/h (1 Bft) NW 306 ° 0 min 0,000 mm 2,0 UV-I 276 W/m² 8,2 °C 11,9 °C 3,2 km/h (1 Bft)
03.09.2017 13:37 11,9 °C 11,9 °C 79 % 1016,4 hPa 0,0 mm 1,0 km/h (0 Bft) NW 306 ° 0 min 0,000 mm 1,9 UV-I 258 W/m² 8,4 °C 11,9 °C 3,2 km/h (1 Bft)
03.09.2017 13:38 11,8 °C 11,9 °C 80 % 1016,4 hPa 0,0 mm 0,3 km/h (0 Bft) N-NW 330 ° 0 min 0,000 mm 1,9 UV-I 250 W/m² 8,5 °C 11,8 °C 3,2 km/h (1 Bft)
03.09.2017 13:39 11,7 °C 11,8 °C 81 % 1016,4 hPa 0,0 mm 1,9 km/h (1 Bft) N 5 ° 0 min 0,000 mm 1,9 UV-I 246 W/m² 8,5 °C 11,7 °C 4,8 km/h (1 Bft)
03.09.2017 13:40 11,7 °C 11,8 °C 81 % 1016,4 hPa 0,0 mm 2,2 km/h (1 Bft) N 5 ° 0 min 0,000 mm 1,9 UV-I 246 W/m² 8,5 °C 11,7 °C 4,8 km/h (1 Bft)
03.09.2017 13:41 11,7 °C 11,7 °C 79 % 1016,4 hPa 0,0 mm 3,8 km/h (1 Bft) N 5 ° 0 min 0,000 mm 1,9 UV-I 248 W/m² 8,2 °C 11,7 °C 4,8 km/h (1 Bft)
03.09.2017 13:42 11,6 °C 11,7 °C 84 % 1016,5 hPa 0,0 mm 1,7 km/h (1 Bft) N 5 ° 0 min 0,000 mm 1,9 UV-I 248 W/m² 9,0 °C 11,6 °C 4,8 km/h (1 Bft)
03.09.2017 13:43 11,6 °C 11,6 °C 86 % 1016,4 hPa 0,0 mm 0,5 km/h (0 Bft) NO 49 ° 0 min 0,000 mm 1,9 UV-I 253 W/m² 9,3 °C 11,6 °C 1,6 km/h (1 Bft)
03.09.2017 13:44 11,5 °C 11,6 °C 83 % 1016,4 hPa 0,0 mm 2,2 km/h (1 Bft) O 96 ° 0 min 0,000 mm 1,9 UV-I 253 W/m² 8,7 °C 11,5 °C 3,2 km/h (1 Bft)
03.09.2017 13:45 11,4 °C 11,5 °C 84 % 1016,4 hPa 0,0 mm 2,0 km/h (1 Bft) O 96 ° 0 min 0,000 mm 1,9 UV-I 255 W/m² 8,8 °C 11,4 °C 3,2 km/h (1 Bft)
03.09.2017 13:46 11,4 °C 11,4 °C 79 % 1016,4 hPa 0,0 mm 2,1 km/h (1 Bft) O 96 ° 0 min 0,000 mm 1,9 UV-I 255 W/m² 7,9 °C 11,4 °C 3,2 km/h (1 Bft)
03.09.2017 13:47 11,3 °C 11,4 °C 78 % 1016,4 hPa 0,0 mm 2,4 km/h (1 Bft) O 96 ° 0 min 0,000 mm 1,9 UV-I 255 W/m² 7,6 °C 11,3 °C 4,8 km/h (1 Bft)
03.09.2017 13:48 11,3 °C 11,3 °C 85 % 1016,4 hPa 0,0 mm 3,7 km/h (1 Bft) O 96 ° 0 min 0,000 mm 1,8 UV-I 250 W/m² 8,9 °C 11,3 °C 4,8 km/h (1 Bft)
03.09.2017 13:49 11,3 °C 11,3 °C 88 % 1016,4 hPa 0,0 mm 2,9 km/h (1 Bft) O 96 ° 0 min 0,000 mm 1,8 UV-I 239 W/m² 9,4 °C 11,3 °C 3,2 km/h (1 Bft)
03.09.2017 13:50 11,3 °C 11,3 °C 86 % 1016,4 hPa 0,0 mm 2,5 km/h (1 Bft) O 96 ° 0 min 0,000 mm 1,7 UV-I 227 W/m² 9,0 °C 11,3 °C 3,2 km/h (1 Bft)
03.09.2017 13:51 11,3 °C 11,3 °C 84 % 1016,4 hPa 0,0 mm 1,0 km/h (0 Bft) O 96 ° 0 min 0,000 mm 1,6 UV-I 216 W/m² 8,7 °C 11,3 °C 3,2 km/h (1 Bft)
03.09.2017 13:52 11,4 °C 11,4 °C 83 % 1016,4 hPa 0,0 mm 1,2 km/h (1 Bft) O 96 ° 0 min 0,000 mm 1,5 UV-I 207 W/m² 8,6 °C 11,4 °C 3,2 km/h (1 Bft)
03.09.2017 13:53 11,4 °C 11,4 °C 82 % 1016,3 hPa 0,0 mm 0,1 km/h (0 Bft) O 96 ° 0 min 0,000 mm 1,5 UV-I 197 W/m² 8,4 °C 11,4 °C 1,6 km/h (1 Bft)
03.09.2017 13:54 11,6 °C 11,6 °C 84 % 1016,4 hPa 0,0 mm 0,7 km/h (0 Bft) O 96 ° 0 min 0,000 mm 1,5 UV-I 193 W/m² 9,0 °C 11,6 °C 3,2 km/h (1 Bft)
03.09.2017 13:55 11,7 °C 11,7 °C 83 % 1016,4 hPa 0,0 mm 0,5 km/h (0 Bft) O 96 ° 0 min 0,000 mm 1,5 UV-I 192 W/m² 8,9 °C 11,7 °C 3,2 km/h (1 Bft)
03.09.2017 13:56 11,8 °C 11,8 °C 86 % 1016,4 hPa 0,0 mm 2,9 km/h (1 Bft) O 84 ° 0 min 0,000 mm 1,5 UV-I 190 W/m² 9,5 °C 11,8 °C 4,8 km/h (1 Bft)
03.09.2017 13:57 11,7 °C 11,8 °C 80 % 1016,4 hPa 0,0 mm 3,0 km/h (1 Bft) O-NO 76 ° 0 min 0,000 mm 1,4 UV-I 186 W/m² 8,4 °C 11,7 °C 4,8 km/h (1 Bft)
03.09.2017 13:58 11,6 °C 11,7 °C 79 % 1016,4 hPa 0,0 mm 1,0 km/h (0 Bft) O-NO 76 ° 0 min 0,000 mm 1,4 UV-I 183 W/m² 8,1 °C 11,6 °C 3,2 km/h (1 Bft)
03.09.2017 13:59 11,6 °C 11,6 °C 80 % 1016,4 hPa 0,0 mm 6,8 km/h (2 Bft) O-SO 106 ° 0 min 0,000 mm 1,4 UV-I 183 W/m² 8,3 °C 11,6 °C 9,7 km/h (2 Bft)
03.09.2017 14:00 11,4 °C 11,6 °C 85 % 1016,4 hPa 0,0 mm 6,7 km/h (2 Bft) SO 137 ° 0 min 0,000 mm 1,5 UV-I 183 W/m² 9,0 °C 11,4 °C 9,7 km/h (2 Bft)
03.09.2017 14:01 11,3 °C 11,4 °C 81 % 1016,4 hPa 0,0 mm 3,3 km/h (1 Bft) SO 124 ° 0 min 0,177 mm 1,5 UV-I 186 W/m² 8,2 °C 11,3 °C 4,8 km/h (1 Bft)
03.09.2017 14:02 11,3 °C 11,3 °C 84 % 1016,4 hPa 0,0 mm 3,4 km/h (1 Bft) O-NO 78 ° 0 min 0,000 mm 1,5 UV-I 186 W/m² 8,7 °C 11,3 °C 4,8 km/h (1 Bft)
03.09.2017 14:03 11,3 °C 11,3 °C 84 % 1016,4 hPa 0,0 mm 3,8 km/h (1 Bft) NO 49 ° 0 min 0,000 mm 1,5 UV-I 183 W/m² 8,7 °C 11,3 °C 4,8 km/h (1 Bft)
03.09.2017 14:04 11,3 °C 11,3 °C 84 % 1016,4 hPa 0,0 mm 2,9 km/h (1 Bft) O-NO 63 ° 0 min 0,000 mm 1,4 UV-I 178 W/m² 8,7 °C 11,3 °C 4,8 km/h (1 Bft)
03.09.2017 14:05 11,3 °C 11,3 °C 84 % 1016,4 hPa 0,0 mm 0,6 km/h (0 Bft) O-NO 63 ° 0 min 0,000 mm 1,4 UV-I 163 W/m² 8,7 °C 11,3 °C 1,6 km/h (1 Bft)
03.09.2017 14:06 11,3 °C 11,3 °C 84 % 1016,4 hPa 0,0 mm 1,4 km/h (1 Bft) O-NO 63 ° 0 min 0,000 mm 1,3 UV-I 158 W/m² 8,7 °C 11,3 °C 3,2 km/h (1 Bft)
03.09.2017 14:07 11,3 °C 11,3 °C 84 % 1016,3 hPa 0,0 mm 2,1 km/h (1 Bft) O-NO 63 ° 0 min 0,000 mm 1,2 UV-I 153 W/m² 8,7 °C 11,3 °C 3,2 km/h (1 Bft)
03.09.2017 14:08 11,3 °C 11,3 °C 88 % 1016,4 hPa 0,0 mm 4,0 km/h (1 Bft) O-NO 63 ° 0 min 0,000 mm 1,2 UV-I 148 W/m² 9,4 °C 11,3 °C 6,4 km/h (2 Bft)
03.09.2017 14:09 11,3 °C 11,3 °C 87 % 1016,3 hPa 0,0 mm 5,1 km/h (1 Bft) O-NO 66 ° 0 min 0,000 mm 1,1 UV-I 144 W/m² 9,2 °C 11,3 °C 6,4 km/h (2 Bft)
03.09.2017 14:10 11,2 °C 11,3 °C 84 % 1016,3 hPa 0,0 mm 4,7 km/h (1 Bft) O-NO 74 ° 0 min 0,000 mm 1,1 UV-I 132 W/m² 8,6 °C 11,2 °C 6,4 km/h (2 Bft)
03.09.2017 14:11 11,2 °C 11,3 °C 85 % 1016,3 hPa 0,0 mm 4,1 km/h (1 Bft) O-NO 74 ° 0 min 0,000 mm 0,9 UV-I 127 W/m² 8,8 °C 11,2 °C 6,4 km/h (2 Bft)
03.09.2017 14:12 11,2 °C 11,2 °C 82 % 1016,2 hPa 0,0 mm 3,6 km/h (1 Bft) O-NO 72 ° 0 min 0,000 mm 0,9 UV-I 121 W/m² 8,2 °C 11,2 °C 6,4 km/h (2 Bft)
03.09.2017 14:13 11,3 °C 11,3 °C 82 % 1016,3 hPa 0,0 mm 5,8 km/h (2 Bft) O-NO 66 ° 0 min 0,000 mm 0,9 UV-I 118 W/m² 8,3 °C 11,3 °C 6,4 km/h (2 Bft)
03.09.2017 14:14 11,2 °C 11,3 °C 82 % 1016,3 hPa 0,0 mm 4,9 km/h (1 Bft) O-NO 71 ° 0 min 0,000 mm 0,9 UV-I 118 W/m² 8,2 °C 11,2 °C 6,4 km/h (2 Bft)
03.09.2017 14:15 11,2 °C 11,3 °C 81 % 1016,2 hPa 0,0 mm 3,8 km/h (1 Bft) O-NO 78 ° 0 min 0,000 mm 0,9 UV-I 121 W/m² 8,1 °C 11,2 °C 4,8 km/h (1 Bft)
03.09.2017 14:16 11,2 °C 11,3 °C 82 % 1016,2 hPa 0,0 mm 2,5 km/h (1 Bft) NO 48 ° 0 min 0,000 mm 1,0 UV-I 128 W/m² 8,2 °C 11,2 °C 4,8 km/h (1 Bft)
03.09.2017 14:17 11,3 °C 11,3 °C 82 % 1016,3 hPa 0,0 mm 7,4 km/h (2 Bft) NO 42 ° 0 min 0,000 mm 1,2 UV-I 153 W/m² 8,3 °C 11,3 °C 8,0 km/h (2 Bft)
03.09.2017 14:18 11,3 °C 11,3 °C 81 % 1016,3 hPa 0,0 mm 4,6 km/h (1 Bft) NO 53 ° 0 min 0,000 mm 1,3 UV-I 169 W/m² 8,2 °C 11,3 °C 8,0 km/h (2 Bft)
03.09.2017 14:19 11,3 °C 11,3 °C 82 % 1016,2 hPa 0,0 mm 3,9 km/h (1 Bft) O-NO 65 ° 0 min 0,000 mm 1,5 UV-I 188 W/m² 8,3 °C 11,3 °C 6,4 km/h (2 Bft)
03.09.2017 14:20 11,4 °C 11,4 °C 87 % 1016,2 hPa 0,0 mm 4,6 km/h (1 Bft) O-NO 65 ° 0 min 0,000 mm 1,6 UV-I 209 W/m² 9,3 °C 11,4 °C 6,4 km/h (2 Bft)
03.09.2017 14:21 11,4 °C 11,4 °C 84 % 1016,2 hPa 0,0 mm 5,2 km/h (1 Bft) O-NO 65 ° 0 min 0,000 mm 1,8 UV-I 209 W/m² 8,8 °C 11,4 °C 8,0 km/h (2 Bft)
03.09.2017 14:22 11,4 °C 11,4 °C 87 % 1016,2 hPa 0,0 mm 2,5 km/h (1 Bft) O-NO 65 ° 0 min 0,000 mm 1,9 UV-I 260 W/m² 9,3 °C 11,4 °C 4,8 km/h (1 Bft)
03.09.2017 14:23 11,4 °C 11,4 °C 84 % 1016,2 hPa 0,0 mm 2,7 km/h (1 Bft) O 96 ° 0 min 0,000 mm 2,1 UV-I 271 W/m² 8,8 °C 11,4 °C 4,8 km/h (1 Bft)
03.09.2017 14:24 11,4 °C 11,4 °C 85 % 1016,2 hPa 0,0 mm 5,2 km/h (1 Bft) S-SO 155 ° 0 min 0,000 mm 2,2 UV-I 276 W/m² 9,0 °C 11,4 °C 9,7 km/h (2 Bft)
03.09.2017 14:25 11,4 °C 11,4 °C 83 % 1016,2 hPa 0,0 mm 1,6 km/h (1 Bft) S-SO 155 ° 0 min 0,000 mm 2,2 UV-I 278 W/m² 8,6 °C 11,4 °C 3,2 km/h (1 Bft)
03.09.2017 14:26 11,4 °C 11,4 °C 86 % 1016,2 hPa 0,0 mm 0,0 km/h (0 Bft) S-SO 155 ° 0 min 0,000 mm 2,2 UV-I 276 W/m² 9,1 °C 11,4 °C 0,0 km/h (0 Bft)
03.09.2017 14:27 11,4 °C 11,4 °C 83 % 1016,1 hPa 0,0 mm 1,7 km/h (1 Bft) S-SO 155 ° 0 min 0,000 mm 2,2 UV-I 269 W/m² 8,6 °C 11,4 °C 3,2 km/h (1 Bft)
03.09.2017 14:28 11,4 °C 11,4 °C 83 % 1016,1 hPa 0,0 mm 1,2 km/h (1 Bft) S-SO 155 ° 0 min 0,000 mm 2,1 UV-I 250 W/m² 8,6 °C 11,4 °C 1,6 km/h (1 Bft)
03.09.2017 14:29 11,4 °C 11,4 °C 83 % 1016,2 hPa 0,0 mm 0,1 km/h (0 Bft) S-SO 155 ° 0 min 0,000 mm 2,0 UV-I 239 W/m² 8,6 °C 11,4 °C 1,6 km/h (1 Bft)
03.09.2017 14:30 11,4 °C 11,4 °C 83 % 1016,1 hPa 0,0 mm 1,7 km/h (1 Bft) SO 142 ° 0 min 0,000 mm 1,9 UV-I 223 W/m² 8,6 °C 11,4 °C 4,8 km/h (1 Bft)
03.09.2017 14:31 11,4 °C 11,4 °C 85 % 1016,1 hPa 0,0 mm 0,0 km/h (0 Bft) SO 142 ° 0 min 0,000 mm 1,7 UV-I 204 W/m² 9,0 °C 11,4 °C 0,0 km/h (0 Bft)
03.09.2017 14:32 11,5 °C 11,5 °C 84 % 1016,1 hPa 0,0 mm 1,4 km/h (1 Bft) NO 53 ° 0 min 0,000 mm 1,6 UV-I 188 W/m² 8,9 °C 11,5 °C 4,8 km/h (1 Bft)
03.09.2017 14:33 11,6 °C 11,6 °C 84 % 1016,1 hPa 0,0 mm 1,7 km/h (1 Bft) O 82 ° 0 min 0,000 mm 1,4 UV-I 172 W/m² 9,0 °C 11,6 °C 3,2 km/h (1 Bft)
03.09.2017 14:34 11,6 °C 11,6 °C 85 % 1016,1 hPa 0,0 mm 4,1 km/h (1 Bft) SO 130 ° 0 min 0,000 mm 1,4 UV-I 160 W/m² 9,2 °C 11,6 °C 6,4 km/h (2 Bft)
03.09.2017 14:35 11,5 °C 11,6 °C 84 % 1016,1 hPa 0,0 mm 3,5 km/h (1 Bft) O-SO 109 ° 0 min 0,000 mm 1,4 UV-I 165 W/m² 8,9 °C 11,5 °C 6,4 km/h (2 Bft)
03.09.2017 14:36 11,5 °C 11,6 °C 86 % 1016,1 hPa 0,0 mm 1,7 km/h (1 Bft) O-SO 109 ° 0 min 0,000 mm 1,5 UV-I 181 W/m² 9,2 °C 11,5 °C 3,2 km/h (1 Bft)
03.09.2017 14:37 11,5 °C 11,5 °C 85 % 1016,0 hPa 0,0 mm 2,8 km/h (1 Bft) O-SO 109 ° 0 min 0,000 mm 1,7 UV-I 207 W/m² 9,1 °C 11,5 °C 3,2 km/h (1 Bft)
03.09.2017 14:38 11,4 °C 11,5 °C 85 % 1016,0 hPa 0,0 mm 1,1 km/h (1 Bft) O-SO 109 ° 0 min 0,000 mm 1,9 UV-I 239 W/m² 9,0 °C 11,4 °C 1,6 km/h (1 Bft)
03.09.2017 14:39 11,5 °C 11,5 °C 88 % 1016,0 hPa 0,0 mm 3,9 km/h (1 Bft) O-SO 117 ° 0 min 0,000 mm 2,1 UV-I 272 W/m² 9,6 °C 11,5 °C 6,4 km/h (2 Bft)
03.09.2017 14:40 11,4 °C 11,5 °C 86 % 1016,0 hPa 0,0 mm 2,4 km/h (1 Bft) O-SO 116 ° 1 min 0,000 mm 2,3 UV-I 329 W/m² 9,1 °C 11,4 °C 4,8 km/h (1 Bft)
03.09.2017 14:41 11,5 °C 11,5 °C 84 % 1015,9 hPa 0,0 mm 0,5 km/h (0 Bft) O-SO 116 ° 1 min 0,000 mm 2,6 UV-I 348 W/m² 8,9 °C 11,5 °C 1,6 km/h (1 Bft)
03.09.2017 14:42 11,6 °C 11,6 °C 85 % 1016,0 hPa 0,0 mm 4,8 km/h (1 Bft) O 84 ° 1 min 0,000 mm 2,7 UV-I 357 W/m² 9,2 °C 11,6 °C 6,4 km/h (2 Bft)
03.09.2017 14:43 11,6 °C 11,6 °C 84 % 1016,0 hPa 0,0 mm 3,6 km/h (1 Bft) O 95 ° 1 min 0,000 mm 2,8 UV-I 364 W/m² 9,0 °C 11,6 °C 6,4 km/h (2 Bft)
03.09.2017 14:44 11,6 °C 11,6 °C 84 % 1016,0 hPa 0,0 mm 3,1 km/h (1 Bft) O 95 ° 1 min 0,000 mm 2,8 UV-I 366 W/m² 9,0 °C 11,6 °C 4,8 km/h (1 Bft)
03.09.2017 14:45 11,7 °C 11,7 °C 84 % 1016,0 hPa 0,0 mm 4,3 km/h (1 Bft) O 92 ° 1 min 0,000 mm 2,9 UV-I 388 W/m² 9,1 °C 11,7 °C 6,4 km/h (2 Bft)
03.09.2017 14:46 11,7 °C 11,7 °C 84 % 1016,0 hPa 0,0 mm 1,7 km/h (1 Bft) O 92 ° 1 min 0,000 mm 2,9 UV-I 408 W/m² 9,1 °C 11,7 °C 3,2 km/h (1 Bft)
03.09.2017 14:47 11,8 °C 11,8 °C 85 % 1015,9 hPa 0,0 mm 2,5 km/h (1 Bft) O-SO 110 ° 1 min 0,000 mm 3,1 UV-I 431 W/m² 9,4 °C 11,8 °C 6,4 km/h (2 Bft)
03.09.2017 14:48 11,8 °C 11,8 °C 84 % 1015,9 hPa 0,0 mm 5,0 km/h (1 Bft) SO 129 ° 1 min 0,000 mm 3,3 UV-I 476 W/m² 9,2 °C 11,8 °C 8,0 km/h (2 Bft)
03.09.2017 14:49 12,0 °C 12,0 °C 85 % 1015,9 hPa 0,0 mm 6,3 km/h (2 Bft) O 95 ° 1 min 0,000 mm 3,2 UV-I 469 W/m² 9,6 °C 12,0 °C 9,7 km/h (2 Bft)
03.09.2017 14:50 12,1 °C 12,1 °C 81 % 1015,8 hPa 0,0 mm 5,6 km/h (1 Bft) O-SO 115 ° 1 min 0,000 mm 3,3 UV-I 489 W/m² 8,9 °C 12,1 °C 9,7 km/h (2 Bft)
03.09.2017 14:51 12,0 °C 12,1 °C 80 % 1015,9 hPa 0,0 mm 3,1 km/h (1 Bft) O-NO 75 ° 1 min 0,000 mm 3,3 UV-I 573 W/m² 8,7 °C 12,0 °C 4,8 km/h (1 Bft)
03.09.2017 14:52 12,1 °C 12,1 °C 81 % 1015,9 hPa 0,0 mm 2,8 km/h (1 Bft) O-NO 75 ° 1 min 0,000 mm 3,7 UV-I 573 W/m² 8,9 °C 12,1 °C 4,8 km/h (1 Bft)
03.09.2017 14:53 12,2 °C 12,2 °C 83 % 1015,8 hPa 0,0 mm 4,8 km/h (1 Bft) O-NO 72 ° 1 min 0,000 mm 3,1 UV-I 503 W/m² 9,4 °C 12,2 °C 9,7 km/h (2 Bft)
03.09.2017 14:54 12,3 °C 12,3 °C 84 % 1015,9 hPa 0,0 mm 0,8 km/h (0 Bft) O-NO 72 ° 1 min 0,000 mm 2,9 UV-I 418 W/m² 9,7 °C 12,3 °C 1,6 km/h (1 Bft)
03.09.2017 14:55 12,6 °C 12,6 °C 82 % 1015,8 hPa 0,0 mm 0,0 km/h (0 Bft) O-NO 72 ° 1 min 0,000 mm 3,4 UV-I 501 W/m² 9,6 °C 12,6 °C 0,0 km/h (0 Bft)
03.09.2017 14:56 12,7 °C 12,7 °C 81 % 1015,8 hPa 0,0 mm 4,9 km/h (1 Bft) W 266 ° 1 min 0,000 mm 2,1 UV-I 501 W/m² 9,5 °C 12,7 °C 9,7 km/h (2 Bft)
03.09.2017 14:57 12,7 °C 12,7 °C 82 % 1015,9 hPa 0,0 mm 4,7 km/h (1 Bft) W 265 ° 0 min 0,000 mm 1,8 UV-I 216 W/m² 9,7 °C 12,7 °C 6,4 km/h (2 Bft)
03.09.2017 14:58 12,8 °C 12,8 °C 80 % 1015,8 hPa 0,0 mm 5,4 km/h (1 Bft) W-SW 253 ° 0 min 0,000 mm 1,8 UV-I 202 W/m² 9,4 °C 12,8 °C 9,7 km/h (2 Bft)
03.09.2017 14:59 12,8 °C 12,8 °C 79 % 1015,8 hPa 0,0 mm 8,4 km/h (2 Bft) W-SW 253 ° 0 min 0,000 mm 1,4 UV-I 206 W/m² 9,2 °C 12,8 °C 11,3 km/h (2 Bft)
03.09.2017 15:00 12,8 °C 12,8 °C 79 % 1015,8 hPa 0,0 mm 7,5 km/h (2 Bft) W 271 ° 0 min 0,000 mm 1,5 UV-I 220 W/m² 9,2 °C 12,8 °C 12,9 km/h (3 Bft)
03.09.2017 15:01 12,7 °C 12,8 °C 77 % 1015,8 hPa 0,0 mm 4,2 km/h (1 Bft) W 279 ° 0 min 0,127 mm 1,6 UV-I 241 W/m² 8,8 °C 12,7 °C 6,4 km/h (2 Bft)
03.09.2017 15:02 12,8 °C 12,8 °C 79 % 1015,8 hPa 0,0 mm 9,4 km/h (2 Bft) W-SW 251 ° 0 min 0,000 mm 1,7 UV-I 260 W/m² 9,2 °C 12,8 °C 12,9 km/h (3 Bft)
03.09.2017 15:03 12,7 °C 12,8 °C 77 % 1015,8 hPa 0,0 mm 6,6 km/h (2 Bft) W-NW 300 ° 0 min 0,000 mm 1,7 UV-I 260 W/m² 8,8 °C 12,7 °C 12,9 km/h (3 Bft)
03.09.2017 15:04 12,7 °C 12,7 °C 78 % 1015,8 hPa 0,0 mm 6,1 km/h (2 Bft) N-NW 340 ° 0 min 0,000 mm 1,7 UV-I 260 W/m² 9,0 °C 12,7 °C 11,3 km/h (2 Bft)
03.09.2017 15:05 12,7 °C 12,7 °C 76 % 1015,8 hPa 0,0 mm 6,1 km/h (2 Bft) W 267 ° 0 min 0,000 mm 1,8 UV-I 269 W/m² 8,6 °C 12,7 °C 8,0 km/h (2 Bft)
03.09.2017 15:06 12,7 °C 12,7 °C 77 % 1015,8 hPa 0,0 mm 5,6 km/h (1 Bft) W-NW 284 ° 0 min 0,000 mm 1,9 UV-I 283 W/m² 8,8 °C 12,7 °C 6,4 km/h (2 Bft)
03.09.2017 15:07 12,7 °C 12,7 °C 77 % 1015,8 hPa 0,0 mm 6,4 km/h (2 Bft) W-NW 299 ° 0 min 0,000 mm 2,1 UV-I 283 W/m² 8,8 °C 12,7 °C 11,3 km/h (2 Bft)
03.09.2017 15:08 12,7 °C 12,7 °C 77 % 1015,8 hPa 0,0 mm 5,8 km/h (2 Bft) W-NW 299 ° 1 min 0,000 mm 2,0 UV-I 299 W/m² 8,8 °C 12,7 °C 12,9 km/h (3 Bft)
03.09.2017 15:09 12,7 °C 12,7 °C 75 % 1015,8 hPa 0,0 mm 6,7 km/h (2 Bft) W-NW 284 ° 0 min 0,000 mm 2,0 UV-I 287 W/m² 8,4 °C 12,7 °C 11,3 km/h (2 Bft)
03.09.2017 15:10 12,7 °C 12,7 °C 74 % 1015,8 hPa 0,0 mm 6,9 km/h (2 Bft) W 259 ° 0 min 0,000 mm 2,0 UV-I 288 W/m² 8,2 °C 12,7 °C 11,3 km/h (2 Bft)
03.09.2017 15:11 12,7 °C 12,7 °C 74 % 1015,8 hPa 0,0 mm 4,2 km/h (1 Bft) W-NW 286 ° 1 min 0,000 mm 2,0 UV-I 297 W/m² 8,2 °C 12,7 °C 6,4 km/h (2 Bft)
03.09.2017 15:12 12,7 °C 12,7 °C 73 % 1015,8 hPa 0,0 mm 5,5 km/h (1 Bft) NW 315 ° 0 min 0,000 mm 1,9 UV-I 288 W/m² 8,0 °C 12,7 °C 6,4 km/h (2 Bft)
03.09.2017 15:13 12,7 °C 12,7 °C 76 % 1015,8 hPa 0,0 mm 5,6 km/h (1 Bft) W-NW 301 ° 0 min 0,000 mm 1,8 UV-I 272 W/m² 8,6 °C 12,7 °C 8,0 km/h (2 Bft)
03.09.2017 15:14 12,7 °C 12,7 °C 75 % 1015,8 hPa 0,0 mm 8,7 km/h (2 Bft) NW 304 ° 0 min 0,000 mm 1,6 UV-I 248 W/m² 8,4 °C 12,7 °C 12,9 km/h (3 Bft)
03.09.2017 15:15 12,7 °C 12,7 °C 75 % 1015,8 hPa 0,0 mm 6,7 km/h (2 Bft) W-NW 300 ° 0 min 0,000 mm 1,5 UV-I 204 W/m² 8,4 °C 12,7 °C 11,3 km/h (2 Bft)
03.09.2017 15:16 12,6 °C 12,7 °C 75 % 1015,8 hPa 0,0 mm 3,2 km/h (1 Bft) N-NW 342 ° 0 min 0,000 mm 1,2 UV-I 185 W/m² 8,3 °C 12,6 °C 4,8 km/h (1 Bft)
03.09.2017 15:17 12,6 °C 12,6 °C 75 % 1015,8 hPa 0,0 mm 5,0 km/h (1 Bft) N 355 ° 0 min 0,000 mm 1,1 UV-I 163 W/m² 8,3 °C 12,6 °C 9,7 km/h (2 Bft)
03.09.2017 15:18 12,6 °C 12,7 °C 76 % 1015,9 hPa 0,0 mm 2,5 km/h (1 Bft) NW 314 ° 0 min 0,000 mm 0,9 UV-I 142 W/m² 8,5 °C 12,6 °C 6,4 km/h (2 Bft)
03.09.2017 15:19 12,6 °C 12,6 °C 78 % 1015,9 hPa 0,0 mm 7,0 km/h (2 Bft) N-NO 13 ° 0 min 0,000 mm 0,7 UV-I 113 W/m² 8,9 °C 12,6 °C 9,7 km/h (2 Bft)
03.09.2017 15:20 12,6 °C 12,6 °C 81 % 1015,9 hPa 0,0 mm 8,6 km/h (2 Bft) NW 309 ° 0 min 0,000 mm 0,5 UV-I 81 W/m² 9,4 °C 12,6 °C 12,9 km/h (3 Bft)
03.09.2017 15:21 12,4 °C 12,6 °C 79 % 1015,9 hPa 0,0 mm 7,0 km/h (2 Bft) W-NW 300 ° 0 min 0,000 mm 0,0 UV-I 63 W/m² 8,9 °C 12,4 °C 12,9 km/h (3 Bft)
03.09.2017 15:22 12,3 °C 12,4 °C 79 % 1015,9 hPa 0,0 mm 8,2 km/h (2 Bft) N-NW 329 ° 0 min 0,000 mm 0,0 UV-I 47 W/m² 8,8 °C 12,3 °C 14,5 km/h (3 Bft)
03.09.2017 15:23 12,2 °C 12,3 °C 79 % 1016,0 hPa 0,0 mm 5,0 km/h (1 Bft) N 355 ° 0 min 0,000 mm 0,0 UV-I 46 W/m² 8,7 °C 12,2 °C 8,0 km/h (2 Bft)
03.09.2017 15:24 12,0 °C 12,2 °C 81 % 1015,9 hPa 0,0 mm 5,5 km/h (1 Bft) NW 317 ° 0 min 0,000 mm 0,0 UV-I 46 W/m² 8,8 °C 12,0 °C 12,9 km/h (3 Bft)
03.09.2017 15:25 11,9 °C 12,0 °C 82 % 1015,9 hPa 0,0 mm 3,6 km/h (1 Bft) N-NW 342 ° 0 min 0,000 mm 0,0 UV-I 47 W/m² 8,9 °C 11,9 °C 4,8 km/h (1 Bft)
03.09.2017 15:26 11,7 °C 11,9 °C 83 % 1015,9 hPa 0,0 mm 3,8 km/h (1 Bft) NW 314 ° 0 min 0,000 mm 0,0 UV-I 49 W/m² 8,9 °C 11,7 °C 6,4 km/h (2 Bft)
03.09.2017 15:27 11,6 °C 11,7 °C 84 % 1016,0 hPa 0,0 mm 2,3 km/h (1 Bft) N-NW 330 ° 0 min 0,000 mm 0,0 UV-I 53 W/m² 9,0 °C 11,6 °C 3,2 km/h (1 Bft)
03.09.2017 15:28 11,4 °C 11,6 °C 85 % 1016,0 hPa 0,0 mm 2,0 km/h (1 Bft) N-NW 329 ° 0 min 0,000 mm 0,0 UV-I 56 W/m² 9,0 °C 11,4 °C 3,2 km/h (1 Bft)
03.09.2017 15:29 11,4 °C 11,4 °C 85 % 1016,0 hPa 0,0 mm 1,6 km/h (1 Bft) N-NW 329 ° 0 min 0,000 mm 0,0 UV-I 58 W/m² 9,0 °C 11,4 °C 3,2 km/h (1 Bft)
03.09.2017 15:30 11,3 °C 11,4 °C 84 % 1016,0 hPa 0,0 mm 4,6 km/h (1 Bft) NW 317 ° 0 min 0,000 mm 0,0 UV-I 62 W/m² 8,7 °C 11,3 °C 8,0 km/h (2 Bft)
03.09.2017 15:31 11,2 °C 11,3 °C 84 % 1016,0 hPa 0,0 mm 4,4 km/h (1 Bft) W 277 ° 0 min 0,000 mm 0,5 UV-I 65 W/m² 8,6 °C 11,2 °C 11,3 km/h (2 Bft)
03.09.2017 15:32 11,2 °C 11,2 °C 85 % 1016,0 hPa 0,0 mm 9,2 km/h (2 Bft) NW 306 ° 0 min 0,000 mm 0,5 UV-I 74 W/m² 8,8 °C 11,2 °C 14,5 km/h (3 Bft)
03.09.2017 15:33 11,2 °C 11,2 °C 84 % 1016,0 hPa 0,0 mm 6,7 km/h (2 Bft) NW 321 ° 0 min 0,000 mm 0,5 UV-I 77 W/m² 8,6 °C 11,2 °C 14,5 km/h (3 Bft)
03.09.2017 15:34 11,1 °C 11,2 °C 84 % 1016,0 hPa 0,0 mm 5,6 km/h (1 Bft) W-NW 303 ° 0 min 0,000 mm 0,6 UV-I 81 W/m² 8,5 °C 11,1 °C 6,4 km/h (2 Bft)
03.09.2017 15:35 11,1 °C 11,1 °C 85 % 1016,0 hPa 0,0 mm 4,3 km/h (1 Bft) NW 324 ° 0 min 0,000 mm 0,6 UV-I 84 W/m² 8,7 °C 11,1 °C 8,0 km/h (2 Bft)
03.09.2017 15:36 11,1 °C 11,1 °C 85 % 1015,9 hPa 0,0 mm 1,4 km/h (1 Bft) NW 324 ° 0 min 0,000 mm 0,6 UV-I 86 W/m² 8,7 °C 11,1 °C 3,2 km/h (1 Bft)
03.09.2017 15:37 11,1 °C 11,1 °C 86 % 1016,0 hPa 0,0 mm 1,8 km/h (1 Bft) N-NW 329 ° 0 min 0,000 mm 0,6 UV-I 90 W/m² 8,8 °C 11,1 °C 3,2 km/h (1 Bft)
03.09.2017 15:38 11,1 °C 11,1 °C 86 % 1015,9 hPa 0,0 mm 3,0 km/h (1 Bft) N-NW 337 ° 0 min 0,000 mm 0,7 UV-I 95 W/m² 8,8 °C 11,1 °C 4,8 km/h (1 Bft)
03.09.2017 15:39 11,1 °C 11,1 °C 87 % 1016,0 hPa 0,0 mm 1,9 km/h (1 Bft) N 355 ° 0 min 0,000 mm 0,7 UV-I 98 W/m² 9,0 °C 11,1 °C 4,8 km/h (1 Bft)
03.09.2017 15:40 11,1 °C 11,1 °C 87 % 1016,0 hPa 0,0 mm 4,1 km/h (1 Bft) N 5 ° 0 min 0,000 mm 0,7 UV-I 104 W/m² 9,0 °C 11,1 °C 6,4 km/h (2 Bft)
03.09.2017 15:41 11,1 °C 11,1 °C 88 % 1015,9 hPa 0,0 mm 5,1 km/h (1 Bft) N-NO 19 ° 0 min 0,000 mm 0,8 UV-I 107 W/m² 9,2 °C 11,1 °C 8,0 km/h (2 Bft)
03.09.2017 15:42 11,1 °C 11,1 °C 88 % 1015,9 hPa 0,0 mm 2,0 km/h (1 Bft) N-NO 19 ° 0 min 0,000 mm 0,8 UV-I 113 W/m² 9,2 °C 11,1 °C 3,2 km/h (1 Bft)
03.09.2017 15:43 11,0 °C 11,1 °C 88 % 1016,0 hPa 0,0 mm 1,5 km/h (1 Bft) N-NO 18 ° 0 min 0,000 mm 0,9 UV-I 120 W/m² 9,1 °C 11,0 °C 3,2 km/h (1 Bft)
03.09.2017 15:44 11,0 °C 11,1 °C 87 % 1015,9 hPa 0,0 mm 1,1 km/h (1 Bft) N-NO 18 ° 0 min 0,000 mm 0,9 UV-I 134 W/m² 8,9 °C 11,0 °C 1,6 km/h (1 Bft)
03.09.2017 15:45 11,0 °C 11,0 °C 88 % 1016,0 hPa 0,0 mm 3,4 km/h (1 Bft) N-NO 14 ° 0 min 0,000 mm 1,1 UV-I 141 W/m² 9,1 °C 11,0 °C 4,8 km/h (1 Bft)
03.09.2017 15:46 11,0 °C 11,0 °C 86 % 1016,0 hPa 0,0 mm 3,5 km/h (1 Bft) NO 34 ° 0 min 0,000 mm 1,1 UV-I 149 W/m² 8,7 °C 11,0 °C 4,8 km/h (1 Bft)
03.09.2017 15:47 11,0 °C 11,0 °C 87 % 1015,9 hPa 0,0 mm 3,8 km/h (1 Bft) N-NO 33 ° 0 min 0,000 mm 1,2 UV-I 158 W/m² 8,9 °C 11,0 °C 8,0 km/h (2 Bft)
03.09.2017 15:48 11,0 °C 11,1 °C 86 % 1015,9 hPa 0,0 mm 4,6 km/h (1 Bft) N 5 ° 0 min 0,000 mm 1,3 UV-I 169 W/m² 8,7 °C 11,0 °C 6,4 km/h (2 Bft)
03.09.2017 15:49 11,0 °C 11,1 °C 86 % 1015,9 hPa 0,0 mm 2,0 km/h (1 Bft) N 5 ° 0 min 0,000 mm 1,4 UV-I 179 W/m² 8,7 °C 11,0 °C 3,2 km/h (1 Bft)
03.09.2017 15:50 11,1 °C 11,1 °C 86 % 1016,0 hPa 0,0 mm 2,8 km/h (1 Bft) N-NO 23 ° 0 min 0,000 mm 1,4 UV-I 195 W/m² 8,8 °C 11,1 °C 4,8 km/h (1 Bft)
03.09.2017 15:51 11,1 °C 11,1 °C 86 % 1015,9 hPa 0,0 mm 2,3 km/h (1 Bft) N-NO 26 ° 0 min 0,000 mm 1,6 UV-I 202 W/m² 8,8 °C 11,1 °C 3,2 km/h (1 Bft)
03.09.2017 15:52 11,1 °C 11,1 °C 88 % 1016,0 hPa 0,0 mm 2,6 km/h (1 Bft) N-NO 26 ° 0 min 0,000 mm 1,6 UV-I 209 W/m² 9,2 °C 11,1 °C 3,2 km/h (1 Bft)
03.09.2017 15:53 11,1 °C 11,1 °C 87 % 1016,0 hPa 0,0 mm 2,7 km/h (1 Bft) N-NO 26 ° 0 min 0,000 mm 1,7 UV-I 214 W/m² 9,0 °C 11,1 °C 3,2 km/h (1 Bft)
03.09.2017 15:54 11,1 °C 11,1 °C 88 % 1016,0 hPa 0,0 mm 2,6 km/h (1 Bft) NO 53 ° 0 min 0,000 mm 1,7 UV-I 220 W/m² 9,2 °C 11,1 °C 4,8 km/h (1 Bft)
03.09.2017 15:55 11,1 °C 11,2 °C 88 % 1015,9 hPa 0,0 mm 1,4 km/h (1 Bft) NO 53 ° 0 min 0,000 mm 1,7 UV-I 223 W/m² 9,2 °C 11,1 °C 3,2 km/h (1 Bft)
03.09.2017 15:56 11,1 °C 11,1 °C 87 % 1015,9 hPa 0,0 mm 2,3 km/h (1 Bft) NO 53 ° 0 min 0,000 mm 1,8 UV-I 236 W/m² 9,0 °C 11,1 °C 4,8 km/h (1 Bft)
03.09.2017 15:57 11,2 °C 11,2 °C 88 % 1015,9 hPa 0,0 mm 2,7 km/h (1 Bft) NO 53 ° 0 min 0,000 mm 1,9 UV-I 248 W/m² 9,3 °C 11,2 °C 4,8 km/h (1 Bft)
03.09.2017 15:58 11,2 °C 11,2 °C 88 % 1015,9 hPa 0,0 mm 2,6 km/h (1 Bft) SO 138 ° 0 min 0,000 mm 2,0 UV-I 269 W/m² 9,3 °C 11,2 °C 3,2 km/h (1 Bft)
03.09.2017 15:59 11,2 °C 11,2 °C 88 % 1015,9 hPa 0,0 mm 3,8 km/h (1 Bft) O-NO 76 ° 1 min 0,000 mm 2,2 UV-I 315 W/m² 9,3 °C 11,2 °C 4,8 km/h (1 Bft)
03.09.2017 16:00 11,2 °C 11,2 °C 88 % 1015,9 hPa 0,0 mm 2,9 km/h (1 Bft) O 80 ° 1 min 0,000 mm 2,1 UV-I 320 W/m² 9,3 °C 11,2 °C 6,4 km/h (2 Bft)
03.09.2017 16:01 11,2 °C 11,2 °C 88 % 1015,9 hPa 0,0 mm 6,3 km/h (2 Bft) O 89 ° 1 min 0,102 mm 2,2 UV-I 320 W/m² 9,3 °C 11,2 °C 9,7 km/h (2 Bft)
03.09.2017 16:02 11,2 °C 11,2 °C 88 % 1016,0 hPa 0,0 mm 4,5 km/h (1 Bft) O-NO 61 ° 1 min 0,000 mm 2,6 UV-I 320 W/m² 9,3 °C 11,2 °C 8,0 km/h (2 Bft)
03.09.2017 16:03 11,3 °C 11,3 °C 88 % 1015,9 hPa 0,0 mm 2,5 km/h (1 Bft) O-NO 60 ° 1 min 0,000 mm 2,8 UV-I 320 W/m² 9,4 °C 11,3 °C 4,8 km/h (1 Bft)
03.09.2017 16:04 11,4 °C 11,4 °C 88 % 1015,9 hPa 0,0 mm 5,2 km/h (1 Bft) O-NO 78 ° 1 min 0,000 mm 2,3 UV-I 517 W/m² 9,5 °C 11,4 °C 8,0 km/h (2 Bft)
03.09.2017 16:05 11,6 °C 11,6 °C 87 % 1015,9 hPa 0,0 mm 3,6 km/h (1 Bft) O-NO 77 ° 1 min 0,000 mm 2,1 UV-I 517 W/m² 9,5 °C 11,6 °C 6,4 km/h (2 Bft)
03.09.2017 16:06 11,6 °C 11,6 °C 86 % 1015,9 hPa 0,0 mm 3,7 km/h (1 Bft) O-NO 73 ° 1 min 0,000 mm 2,3 UV-I 517 W/m² 9,3 °C 11,6 °C 4,8 km/h (1 Bft)
03.09.2017 16:07 11,6 °C 11,6 °C 85 % 1015,9 hPa 0,0 mm 6,0 km/h (2 Bft) O-NO 64 ° 1 min 0,000 mm 2,0 UV-I 517 W/m² 9,2 °C 11,6 °C 8,0 km/h (2 Bft)
03.09.2017 16:08 11,6 °C 11,7 °C 86 % 1015,9 hPa 0,0 mm 3,7 km/h (1 Bft) NO 42 ° 1 min 0,000 mm 2,0 UV-I 330 W/m² 9,3 °C 11,6 °C 6,4 km/h (2 Bft)
03.09.2017 16:09 11,6 °C 11,6 °C 86 % 1015,9 hPa 0,0 mm 4,2 km/h (1 Bft) O-NO 67 ° 1 min 0,000 mm 1,8 UV-I 330 W/m² 9,3 °C 11,6 °C 8,0 km/h (2 Bft)
03.09.2017 16:10 11,6 °C 11,7 °C 86 % 1015,9 hPa 0,0 mm 5,0 km/h (1 Bft) O-NO 61 ° 1 min 0,000 mm 1,8 UV-I 295 W/m² 9,3 °C 11,6 °C 8,0 km/h (2 Bft)
03.09.2017 16:11 11,6 °C 11,7 °C 86 % 1015,9 hPa 0,0 mm 7,9 km/h (2 Bft) O-NO 60 ° 1 min 0,000 mm 1,9 UV-I 336 W/m² 9,3 °C 11,6 °C 12,9 km/h (3 Bft)
03.09.2017 16:12 11,6 °C 11,7 °C 86 % 1015,8 hPa 0,0 mm 8,2 km/h (2 Bft) O-NO 65 ° 1 min 0,000 mm 2,1 UV-I 399 W/m² 9,3 °C 11,6 °C 12,9 km/h (3 Bft)
03.09.2017 16:13 11,6 °C 11,6 °C 85 % 1015,8 hPa 0,0 mm 6,6 km/h (2 Bft) O-NO 71 ° 0 min 0,000 mm 1,8 UV-I 285 W/m² 9,2 °C 11,6 °C 9,7 km/h (2 Bft)
03.09.2017 16:14 11,6 °C 11,6 °C 85 % 1015,8 hPa 0,0 mm 8,9 km/h (2 Bft) O 88 ° 0 min 0,000 mm 1,7 UV-I 278 W/m² 9,2 °C 11,6 °C 11,3 km/h (2 Bft)
03.09.2017 16:15 11,6 °C 11,6 °C 85 % 1015,8 hPa 0,0 mm 8,2 km/h (2 Bft) O 88 ° 1 min 0,000 mm 1,7 UV-I 367 W/m² 9,2 °C 11,6 °C 11,3 km/h (2 Bft)
03.09.2017 16:16 11,6 °C 11,6 °C 86 % 1015,8 hPa 0,0 mm 3,9 km/h (1 Bft) O-SO 102 ° 1 min 0,000 mm 2,1 UV-I 367 W/m² 9,3 °C 11,6 °C 9,7 km/h (2 Bft)
03.09.2017 16:17 11,6 °C 11,7 °C 86 % 1015,9 hPa 0,0 mm 5,4 km/h (1 Bft) O-NO 58 ° 1 min 0,000 mm 1,7 UV-I 367 W/m² 9,3 °C 11,6 °C 8,0 km/h (2 Bft)
03.09.2017 16:18 11,7 °C 11,7 °C 86 % 1015,8 hPa 0,0 mm 7,5 km/h (2 Bft) O-NO 68 ° 0 min 0,000 mm 1,5 UV-I 257 W/m² 9,4 °C 11,7 °C 9,7 km/h (2 Bft)
03.09.2017 16:19 11,7 °C 11,7 °C 85 % 1015,8 hPa 0,0 mm 6,3 km/h (2 Bft) O-NO 70 ° 0 min 0,000 mm 1,4 UV-I 227 W/m² 9,3 °C 11,7 °C 8,0 km/h (2 Bft)
03.09.2017 16:20 11,7 °C 11,7 °C 85 % 1015,9 hPa 0,0 mm 6,6 km/h (2 Bft) O-NO 63 ° 0 min 0,000 mm 1,3 UV-I 241 W/m² 9,3 °C 11,7 °C 11,3 km/h (2 Bft)
03.09.2017 16:21 11,7 °C 11,7 °C 84 % 1015,8 hPa 0,0 mm 6,2 km/h (2 Bft) O-NO 61 ° 0 min 0,000 mm 1,3 UV-I 230 W/m² 9,1 °C 11,7 °C 8,0 km/h (2 Bft)
03.09.2017 16:22 11,7 °C 11,7 °C 84 % 1015,8 hPa 0,0 mm 5,5 km/h (1 Bft) O-SO 102 ° 0 min 0,000 mm 1,2 UV-I 230 W/m² 9,1 °C 11,7 °C 9,7 km/h (2 Bft)
03.09.2017 16:23 11,7 °C 11,7 °C 84 % 1015,8 hPa 0,0 mm 1,8 km/h (1 Bft) O 101 ° 0 min 0,000 mm 1,0 UV-I 186 W/m² 9,1 °C 11,7 °C 4,8 km/h (1 Bft)
03.09.2017 16:24 11,7 °C 11,7 °C 86 % 1015,8 hPa 0,0 mm 5,0 km/h (1 Bft) O-NO 67 ° 0 min 0,000 mm 0,9 UV-I 169 W/m² 9,4 °C 11,7 °C 8,0 km/h (2 Bft)
03.09.2017 16:25 11,7 °C 11,7 °C 87 % 1015,8 hPa 0,0 mm 7,7 km/h (2 Bft) O-NO 59 ° 0 min 0,000 mm 0,9 UV-I 137 W/m² 9,6 °C 11,7 °C 11,3 km/h (2 Bft)
03.09.2017 16:26 11,6 °C 11,7 °C 86 % 1015,8 hPa 0,0 mm 6,4 km/h (2 Bft) O-NO 74 ° 0 min 0,000 mm 0,7 UV-I 125 W/m² 9,3 °C 11,6 °C 9,7 km/h (2 Bft)
03.09.2017 16:27 11,5 °C 11,6 °C 86 % 1015,8 hPa 0,0 mm 7,4 km/h (2 Bft) O 88 ° 0 min 0,000 mm 0,6 UV-I 113 W/m² 9,2 °C 11,5 °C 9,7 km/h (2 Bft)
03.09.2017 16:29 11,3 °C 11,5 °C 85 % 1015,9 hPa 0,0 mm 5,9 km/h (2 Bft) O-NO 78 ° 0 min 0,000 mm 0,5 UV-I 98 W/m² 8,9 °C 11,3 °C 9,7 km/h (2 Bft)
03.09.2017 16:30 11,3 °C 11,3 °C 85 % 1015,9 hPa 0,0 mm 5,9 km/h (2 Bft) O-NO 60 ° 0 min 0,000 mm 0,5 UV-I 95 W/m² 8,9 °C 11,3 °C 9,7 km/h (2 Bft)
03.09.2017 16:31 11,2 °C 11,3 °C 85 % 1015,9 hPa 0,0 mm 4,8 km/h (1 Bft) O-NO 61 ° 0 min 0,000 mm 0,5 UV-I 83 W/m² 8,8 °C 11,2 °C 6,4 km/h (2 Bft)
03.09.2017 16:32 11,2 °C 11,2 °C 86 % 1015,9 hPa 0,0 mm 3,6 km/h (1 Bft) O-NO 74 ° 0 min 0,000 mm 0,0 UV-I 74 W/m² 8,9 °C 11,2 °C 4,8 km/h (1 Bft)
03.09.2017 16:33 11,2 °C 11,2 °C 87 % 1015,9 hPa 0,0 mm 6,8 km/h (2 Bft) O 91 ° 0 min 0,000 mm 0,0 UV-I 67 W/m² 9,1 °C 11,2 °C 11,3 km/h (2 Bft)
03.09.2017 16:34 11,2 °C 11,2 °C 86 % 1015,9 hPa 0,0 mm 5,0 km/h (1 Bft) NO 53 ° 0 min 0,000 mm 0,0 UV-I 60 W/m² 8,9 °C 11,2 °C 8,0 km/h (2 Bft)
03.09.2017 16:35 11,1 °C 11,2 °C 86 % 1015,9 hPa 0,0 mm 5,8 km/h (2 Bft) O-NO 65 ° 0 min 0,000 mm 0,0 UV-I 54 W/m² 8,8 °C 11,1 °C 9,7 km/h (2 Bft)
03.09.2017 16:36 11,1 °C 11,1 °C 86 % 1015,9 hPa 0,0 mm 7,7 km/h (2 Bft) O-NO 76 ° 0 min 0,000 mm 0,0 UV-I 51 W/m² 8,8 °C 11,1 °C 11,3 km/h (2 Bft)
03.09.2017 16:37 11,1 °C 11,1 °C 87 % 1015,9 hPa 0,0 mm 8,0 km/h (2 Bft) NO 55 ° 0 min 0,000 mm 0,0 UV-I 49 W/m² 9,0 °C 11,1 °C 9,7 km/h (2 Bft)
03.09.2017 16:39 10,9 °C 11,1 °C 88 % 1016,0 hPa 0,0 mm 6,4 km/h (2 Bft) NO 41 ° 0 min 0,000 mm 0,0 UV-I 51 W/m² 9,0 °C 10,9 °C 9,7 km/h (2 Bft)
03.09.2017 16:40 10,9 °C 10,9 °C 88 % 1016,0 hPa 0,0 mm 8,1 km/h (2 Bft) NO 40 ° 0 min 0,000 mm 0,0 UV-I 53 W/m² 9,0 °C 10,9 °C 9,7 km/h (2 Bft)
03.09.2017 16:41 10,9 °C 10,9 °C 89 % 1016,0 hPa 0,0 mm 3,5 km/h (1 Bft) O-NO 62 ° 0 min 0,000 mm 0,0 UV-I 56 W/m² 9,2 °C 10,9 °C 6,4 km/h (2 Bft)
03.09.2017 16:42 10,8 °C 10,9 °C 89 % 1016,0 hPa 0,0 mm 3,5 km/h (1 Bft) O 81 ° 0 min 0,000 mm 0,0 UV-I 58 W/m² 9,1 °C 10,8 °C 4,8 km/h (1 Bft)
03.09.2017 16:43 10,8 °C 10,8 °C 90 % 1015,9 hPa 0,0 mm 3,1 km/h (1 Bft) O 94 ° 0 min 0,000 mm 0,0 UV-I 65 W/m² 9,2 °C 10,8 °C 4,8 km/h (1 Bft)
03.09.2017 16:44 10,7 °C 10,8 °C 90 % 1015,9 hPa 0,0 mm 4,6 km/h (1 Bft) O 80 ° 0 min 0,000 mm 0,0 UV-I 65 W/m² 9,1 °C 10,7 °C 8,0 km/h (2 Bft)
03.09.2017 16:45 10,7 °C 10,7 °C 90 % 1015,9 hPa 0,0 mm 2,7 km/h (1 Bft) O 99 ° 0 min 0,000 mm 0,0 UV-I 65 W/m² 9,1 °C 10,7 °C 4,8 km/h (1 Bft)
03.09.2017 16:46 10,7 °C 10,7 °C 90 % 1015,9 hPa 0,0 mm 3,5 km/h (1 Bft) NO 38 ° 0 min 0,000 mm 0,0 UV-I 67 W/m² 9,1 °C 10,7 °C 6,4 km/h (2 Bft)
03.09.2017 16:47 10,6 °C 10,7 °C 90 % 1015,9 hPa 0,0 mm 5,8 km/h (2 Bft) SO 138 ° 0 min 0,000 mm 0,0 UV-I 67 W/m² 9,0 °C 10,6 °C 9,7 km/h (2 Bft)
03.09.2017 16:49 10,4 °C 10,6 °C 89 % 1015,9 hPa 0,0 mm 2,8 km/h (1 Bft) O-SO 109 ° 0 min 0,000 mm 0,5 UV-I 72 W/m² 8,7 °C 10,4 °C 9,7 km/h (2 Bft)
03.09.2017 16:50 10,3 °C 10,4 °C 89 % 1015,9 hPa 0,0 mm 2,8 km/h (1 Bft) O-SO 110 ° 0 min 0,000 mm 0,5 UV-I 74 W/m² 8,6 °C 10,3 °C 6,4 km/h (2 Bft)
03.09.2017 16:51 10,3 °C 10,3 °C 89 % 1015,9 hPa 0,0 mm 5,3 km/h (1 Bft) SO 134 ° 0 min 0,000 mm 0,5 UV-I 77 W/m² 8,6 °C 10,3 °C 6,4 km/h (2 Bft)
03.09.2017 16:52 10,3 °C 10,3 °C 88 % 1015,9 hPa 0,2 mm 4,4 km/h (1 Bft) O-SO 118 ° 0 min 0,000 mm 0,5 UV-I 83 W/m² 8,4 °C 10,3 °C 4,8 km/h (1 Bft)
03.09.2017 16:53 10,3 °C 10,3 °C 89 % 1015,8 hPa 0,0 mm 3,5 km/h (1 Bft) SO 138 ° 0 min 0,000 mm 0,6 UV-I 91 W/m² 8,6 °C 10,3 °C 6,4 km/h (2 Bft)
03.09.2017 16:54 10,3 °C 10,3 °C 89 % 1015,8 hPa 0,0 mm 6,3 km/h (2 Bft) S-SO 155 ° 0 min 0,000 mm 0,6 UV-I 97 W/m² 8,6 °C 10,3 °C 8,0 km/h (2 Bft)
03.09.2017 16:55 10,3 °C 10,3 °C 89 % 1015,8 hPa 0,0 mm 4,0 km/h (1 Bft) O 99 ° 0 min 0,000 mm 0,7 UV-I 102 W/m² 8,6 °C 10,3 °C 6,4 km/h (2 Bft)
03.09.2017 16:56 10,2 °C 10,3 °C 89 % 1015,8 hPa 0,0 mm 3,6 km/h (1 Bft) O 99 ° 0 min 0,000 mm 0,8 UV-I 107 W/m² 8,5 °C 10,2 °C 6,4 km/h (2 Bft)
03.09.2017 16:57 10,2 °C 10,3 °C 90 % 1015,8 hPa 0,0 mm 1,9 km/h (1 Bft) O-SO 109 ° 0 min 0,000 mm 0,8 UV-I 111 W/m² 8,6 °C 10,2 °C 4,8 km/h (1 Bft)
03.09.2017 16:58 10,3 °C 10,3 °C 91 % 1015,8 hPa 0,0 mm 3,4 km/h (1 Bft) O 85 ° 0 min 0,000 mm 0,8 UV-I 114 W/m² 8,9 °C 10,3 °C 4,8 km/h (1 Bft)
03.09.2017 16:59 10,3 °C 10,3 °C 91 % 1015,8 hPa 0,0 mm 4,3 km/h (1 Bft) O 96 ° 0 min 0,000 mm 0,9 UV-I 116 W/m² 8,9 °C 10,3 °C 6,4 km/h (2 Bft)
03.09.2017 17:00 10,3 °C 10,3 °C 92 % 1015,8 hPa 0,0 mm 3,1 km/h (1 Bft) O-SO 103 ° 0 min 0,000 mm 0,9 UV-I 114 W/m² 9,1 °C 10,3 °C 4,8 km/h (1 Bft)
03.09.2017 17:01 10,3 °C 10,3 °C 91 % 1015,8 hPa 0,0 mm 1,0 km/h (0 Bft) S-SO 156 ° 0 min 0,102 mm 0,9 UV-I 113 W/m² 8,9 °C 10,3 °C 3,2 km/h (1 Bft)
03.09.2017 17:02 10,3 °C 10,4 °C 92 % 1015,8 hPa 0,0 mm 2,2 km/h (1 Bft) O 93 ° 0 min 0,000 mm 0,9 UV-I 111 W/m² 9,1 °C 10,3 °C 4,8 km/h (1 Bft)
03.09.2017 17:03 10,3 °C 10,3 °C 92 % 1015,8 hPa 0,0 mm 3,7 km/h (1 Bft) O 101 ° 0 min 0,000 mm 0,9 UV-I 107 W/m² 9,1 °C 10,3 °C 6,4 km/h (2 Bft)
03.09.2017 17:04 10,3 °C 10,3 °C 92 % 1015,8 hPa 0,0 mm 3,5 km/h (1 Bft) O 100 ° 0 min 0,000 mm 0,9 UV-I 104 W/m² 9,1 °C 10,3 °C 6,4 km/h (2 Bft)
03.09.2017 17:05 10,3 °C 10,3 °C 92 % 1015,8 hPa 0,0 mm 3,6 km/h (1 Bft) O-NO 71 ° 0 min 0,000 mm 0,9 UV-I 104 W/m² 9,1 °C 10,3 °C 6,4 km/h (2 Bft)
03.09.2017 17:06 10,3 °C 10,3 °C 92 % 1015,8 hPa 0,0 mm 1,0 km/h (0 Bft) O-NO 71 ° 0 min 0,000 mm 0,8 UV-I 98 W/m² 9,1 °C 10,3 °C 3,2 km/h (1 Bft)
03.09.2017 17:07 10,3 °C 10,3 °C 92 % 1015,8 hPa 0,0 mm 2,3 km/h (1 Bft) O-NO 71 ° 0 min 0,000 mm 0,8 UV-I 100 W/m² 9,1 °C 10,3 °C 4,8 km/h (1 Bft)
03.09.2017 17:08 10,3 °C 10,3 °C 92 % 1015,8 hPa 0,0 mm 1,8 km/h (1 Bft) O-NO 71 ° 0 min 0,000 mm 0,8 UV-I 100 W/m² 9,1 °C 10,3 °C 3,2 km/h (1 Bft)
03.09.2017 17:09 10,3 °C 10,3 °C 92 % 1015,9 hPa 0,0 mm 2,3 km/h (1 Bft) O-NO 71 ° 0 min 0,000 mm 0,8 UV-I 102 W/m² 9,1 °C 10,3 °C 3,2 km/h (1 Bft)
03.09.2017 17:10 10,3 °C 10,3 °C 92 % 1015,8 hPa 0,0 mm 2,0 km/h (1 Bft) O-NO 71 ° 0 min 0,000 mm 0,8 UV-I 102 W/m² 9,1 °C 10,3 °C 3,2 km/h (1 Bft)
03.09.2017 17:11 10,3 °C 10,3 °C 93 % 1015,8 hPa 0,0 mm 2,3 km/h (1 Bft) O-NO 72 ° 0 min 0,000 mm 0,8 UV-I 104 W/m² 9,2 °C 10,3 °C 4,8 km/h (1 Bft)
03.09.2017 17:12 10,2 °C 10,3 °C 92 % 1015,9 hPa 0,0 mm 2,5 km/h (1 Bft) O-NO 74 ° 0 min 0,000 mm 0,8 UV-I 105 W/m² 9,0 °C 10,2 °C 4,8 km/h (1 Bft)
03.09.2017 17:13 10,3 °C 10,3 °C 92 % 1015,8 hPa 0,0 mm 2,5 km/h (1 Bft) O-NO 74 ° 0 min 0,000 mm 0,8 UV-I 107 W/m² 9,1 °C 10,3 °C 3,2 km/h (1 Bft)
03.09.2017 17:14 10,3 °C 10,3 °C 92 % 1015,8 hPa 0,0 mm 2,2 km/h (1 Bft) O-NO 74 ° 0 min 0,000 mm 0,8 UV-I 107 W/m² 9,1 °C 10,3 °C 4,8 km/h (1 Bft)
03.09.2017 17:15 10,3 °C 10,3 °C 92 % 1015,8 hPa 0,0 mm 0,1 km/h (0 Bft) O-NO 74 ° 0 min 0,000 mm 0,8 UV-I 107 W/m² 9,1 °C 10,3 °C 1,6 km/h (1 Bft)
03.09.2017 17:16 10,3 °C 10,3 °C 92 % 1015,8 hPa 0,0 mm 0,0 km/h (0 Bft) O-NO 74 ° 0 min 0,000 mm 0,8 UV-I 107 W/m² 9,1 °C 10,3 °C 0,0 km/h (0 Bft)
03.09.2017 17:17 10,3 °C 10,3 °C 92 % 1015,8 hPa 0,0 mm 0,3 km/h (0 Bft) O-NO 74 ° 0 min 0,000 mm 0,8 UV-I 109 W/m² 9,1 °C 10,3 °C 1,6 km/h (1 Bft)
03.09.2017 17:18 10,3 °C 10,4 °C 93 % 1015,8 hPa 0,0 mm 0,5 km/h (0 Bft) O-NO 74 ° 0 min 0,000 mm 0,8 UV-I 111 W/m² 9,2 °C 10,3 °C 1,6 km/h (1 Bft)
03.09.2017 17:19 10,3 °C 10,3 °C 92 % 1015,8 hPa 0,0 mm 1,6 km/h (1 Bft) O-NO 74 ° 0 min 0,000 mm 0,8 UV-I 113 W/m² 9,1 °C 10,3 °C 1,6 km/h (1 Bft)
03.09.2017 17:20 10,4 °C 10,4 °C 92 % 1015,9 hPa 0,0 mm 1,6 km/h (1 Bft) O-NO 74 ° 0 min 0,000 mm 0,9 UV-I 114 W/m² 9,2 °C 10,4 °C 3,2 km/h (1 Bft)
03.09.2017 17:21 10,5 °C 10,5 °C 92 % 1015,9 hPa 0,0 mm 0,7 km/h (0 Bft) O-NO 74 ° 0 min 0,000 mm 0,9 UV-I 116 W/m² 9,3 °C 10,5 °C 1,6 km/h (1 Bft)
03.09.2017 17:22 10,5 °C 10,5 °C 92 % 1015,8 hPa 0,0 mm 1,0 km/h (0 Bft) O-NO 74 ° 0 min 0,000 mm 0,9 UV-I 120 W/m² 9,3 °C 10,5 °C 3,2 km/h (1 Bft)
03.09.2017 17:23 10,6 °C 10,6 °C 92 % 1015,8 hPa 0,0 mm 1,4 km/h (1 Bft) N-NW 342 ° 0 min 0,000 mm 0,9 UV-I 127 W/m² 9,4 °C 10,6 °C 3,2 km/h (1 Bft)
03.09.2017 17:24 10,6 °C 10,6 °C 92 % 1015,8 hPa 0,0 mm 1,4 km/h (1 Bft) N-NW 342 ° 0 min 0,000 mm 0,9 UV-I 128 W/m² 9,4 °C 10,6 °C 3,2 km/h (1 Bft)
03.09.2017 17:25 10,7 °C 10,7 °C 92 % 1015,8 hPa 0,0 mm 0,3 km/h (0 Bft) N-NW 342 ° 0 min 0,000 mm 0,9 UV-I 128 W/m² 9,5 °C 10,7 °C 1,6 km/h (1 Bft)
03.09.2017 17:26 10,7 °C 10,7 °C 92 % 1015,8 hPa 0,0 mm 0,8 km/h (0 Bft) N-NW 342 ° 0 min 0,000 mm 1,0 UV-I 127 W/m² 9,5 °C 10,7 °C 1,6 km/h (1 Bft)
03.09.2017 17:27 10,7 °C 10,7 °C 91 % 1015,8 hPa 0,0 mm 0,1 km/h (0 Bft) N-NW 342 ° 0 min 0,000 mm 0,9 UV-I 123 W/m² 9,3 °C 10,7 °C 1,6 km/h (1 Bft)
03.09.2017 17:28 10,7 °C 10,7 °C 92 % 1015,8 hPa 0,0 mm 0,0 km/h (0 Bft) N-NW 342 ° 0 min 0,000 mm 0,9 UV-I 120 W/m² 9,5 °C 10,7 °C 0,0 km/h (0 Bft)
03.09.2017 17:29 10,7 °C 10,7 °C 91 % 1015,8 hPa 0,0 mm 0,0 km/h (0 Bft) N-NW 342 ° 0 min 0,000 mm 0,9 UV-I 111 W/m² 9,3 °C 10,7 °C 0,0 km/h (0 Bft)
03.09.2017 17:30 10,6 °C 10,7 °C 91 % 1015,8 hPa 0,0 mm 0,0 km/h (0 Bft) N-NW 342 ° 0 min 0,000 mm 0,9 UV-I 105 W/m² 9,2 °C 10,6 °C 0,0 km/h (0 Bft)
03.09.2017 17:31 10,6 °C 10,6 °C 90 % 1015,8 hPa 0,0 mm 0,0 km/h (0 Bft) N-NW 342 ° 0 min 0,000 mm 0,9 UV-I 98 W/m² 9,0 °C 10,6 °C 0,0 km/h (0 Bft)
03.09.2017 17:32 10,6 °C 10,6 °C 90 % 1015,8 hPa 0,0 mm 0,0 km/h (0 Bft) N-NW 342 ° 0 min 0,000 mm 0,9 UV-I 93 W/m² 9,0 °C 10,6 °C 0,0 km/h (0 Bft)
03.09.2017 17:33 10,6 °C 10,6 °C 90 % 1015,8 hPa 0,0 mm 0,0 km/h (0 Bft) N-NW 342 ° 0 min 0,000 mm 0,9 UV-I 88 W/m² 9,0 °C 10,6 °C 0,0 km/h (0 Bft)
03.09.2017 17:34 10,6 °C 10,6 °C 90 % 1015,8 hPa 0,0 mm 0,0 km/h (0 Bft) N-NW 342 ° 0 min 0,000 mm 0,9 UV-I 84 W/m² 9,0 °C 10,6 °C 0,0 km/h (0 Bft)
03.09.2017 17:35 10,5 °C 10,6 °C 90 % 1015,8 hPa 0,0 mm 0,0 km/h (0 Bft) N-NW 342 ° 0 min 0,000 mm 0,9 UV-I 83 W/m² 8,9 °C 10,5 °C 0,0 km/h (0 Bft)
03.09.2017 17:36 10,6 °C 10,6 °C 90 % 1015,8 hPa 0,0 mm 0,0 km/h (0 Bft) N-NW 342 ° 0 min 0,000 mm 0,9 UV-I 81 W/m² 9,0 °C 10,6 °C 0,0 km/h (0 Bft)
03.09.2017 17:37 10,6 °C 10,6 °C 90 % 1015,8 hPa 0,0 mm 0,0 km/h (0 Bft) N-NW 342 ° 0 min 0,000 mm 0,8 UV-I 77 W/m² 9,0 °C 10,6 °C 0,0 km/h (0 Bft)
03.09.2017 17:38 10,6 °C 10,6 °C 90 % 1015,8 hPa 0,0 mm 0,0 km/h (0 Bft) N-NW 342 ° 0 min 0,000 mm 0,8 UV-I 74 W/m² 9,0 °C 10,6 °C 0,0 km/h (0 Bft)
03.09.2017 17:39 10,6 °C 10,6 °C 90 % 1015,8 hPa 0,0 mm 0,0 km/h (0 Bft) N-NW 342 ° 0 min 0,000 mm 0,8 UV-I 70 W/m² 9,0 °C 10,6 °C 0,0 km/h (0 Bft)
03.09.2017 17:40 10,5 °C 10,6 °C 90 % 1015,8 hPa 0,0 mm 0,0 km/h (0 Bft) N-NW 342 ° 0 min 0,000 mm 0,8 UV-I 67 W/m² 8,9 °C 10,5 °C 0,0 km/h (0 Bft)
03.09.2017 17:41 10,4 °C 10,5 °C 90 % 1015,8 hPa 0,0 mm 0,0 km/h (0 Bft) N-NW 342 ° 0 min 0,000 mm 0,8 UV-I 69 W/m² 8,8 °C 10,4 °C 0,0 km/h (0 Bft)
03.09.2017 17:42 10,4 °C 10,4 °C 90 % 1015,8 hPa 0,0 mm 0,0 km/h (0 Bft) N-NW 342 ° 0 min 0,000 mm 0,8 UV-I 72 W/m² 8,8 °C 10,4 °C 0,0 km/h (0 Bft)
03.09.2017 17:43 10,3 °C 10,4 °C 90 % 1015,8 hPa 0,0 mm 0,0 km/h (0 Bft) N-NW 342 ° 0 min 0,000 mm 0,8 UV-I 76 W/m² 8,7 °C 10,3 °C 0,0 km/h (0 Bft)
03.09.2017 17:44 10,3 °C 10,3 °C 91 % 1015,8 hPa 0,0 mm 0,0 km/h (0 Bft) N-NW 342 ° 0 min 0,000 mm 0,7 UV-I 77 W/m² 8,9 °C 10,3 °C 0,0 km/h (0 Bft)
03.09.2017 17:45 10,3 °C 10,3 °C 91 % 1015,8 hPa 0,0 mm 0,0 km/h (0 Bft) N-NW 342 ° 0 min 0,000 mm 0,7 UV-I 81 W/m² 8,9 °C 10,3 °C 0,0 km/h (0 Bft)
03.09.2017 17:46 10,3 °C 10,3 °C 91 % 1015,8 hPa 0,0 mm 0,0 km/h (0 Bft) N-NW 342 ° 0 min 0,000 mm 0,7 UV-I 83 W/m² 8,9 °C 10,3 °C 0,0 km/h (0 Bft)
03.09.2017 17:47 10,2 °C 10,3 °C 92 % 1015,8 hPa 0,0 mm 0,0 km/h (0 Bft) N-NW 342 ° 0 min 0,000 mm 0,7 UV-I 84 W/m² 9,0 °C 10,2 °C 0,0 km/h (0 Bft)
03.09.2017 17:48 10,2 °C 10,2 °C 92 % 1015,8 hPa 0,0 mm 0,0 km/h (0 Bft) N-NW 342 ° 0 min 0,000 mm 0,7 UV-I 88 W/m² 9,0 °C 10,2 °C 0,0 km/h (0 Bft)
03.09.2017 17:49 10,2 °C 10,2 °C 92 % 1015,8 hPa 0,0 mm 0,0 km/h (0 Bft) N-NW 342 ° 0 min 0,000 mm 0,7 UV-I 86 W/m² 9,0 °C 10,2 °C 0,0 km/h (0 Bft)
03.09.2017 17:50 10,2 °C 10,2 °C 92 % 1015,8 hPa 0,0 mm 0,0 km/h (0 Bft) N-NW 342 ° 0 min 0,000 mm 0,7 UV-I 83 W/m² 9,0 °C 10,2 °C 0,0 km/h (0 Bft)
03.09.2017 17:51 10,2 °C 10,2 °C 92 % 1015,8 hPa 0,0 mm 0,0 km/h (0 Bft) N-NW 342 ° 0 min 0,000 mm 0,7 UV-I 79 W/m² 9,0 °C 10,2 °C 0,0 km/h (0 Bft)
03.09.2017 17:52 10,2 °C 10,3 °C 92 % 1015,8 hPa 0,0 mm 0,0 km/h (0 Bft) N-NW 342 ° 0 min 0,000 mm 0,7 UV-I 76 W/m² 9,0 °C 10,2 °C 0,0 km/h (0 Bft)
03.09.2017 17:53 10,2 °C 10,2 °C 92 % 1015,7 hPa 0,0 mm 0,1 km/h (0 Bft) N-NW 336 ° 0 min 0,000 mm 0,7 UV-I 76 W/m² 9,0 °C 10,2 °C 1,6 km/h (1 Bft)
03.09.2017 17:54 10,2 °C 10,2 °C 92 % 1015,7 hPa 0,0 mm 0,0 km/h (0 Bft) N-NW 336 ° 0 min 0,000 mm 0,7 UV-I 76 W/m² 9,0 °C 10,2 °C 0,0 km/h (0 Bft)
03.09.2017 17:55 10,2 °C 10,2 °C 92 % 1015,8 hPa 0,0 mm 0,0 km/h (0 Bft) N-NW 336 ° 0 min 0,000 mm 0,7 UV-I 77 W/m² 9,0 °C 10,2 °C 0,0 km/h (0 Bft)
03.09.2017 17:56 10,2 °C 10,2 °C 92 % 1015,7 hPa 0,0 mm 0,0 km/h (0 Bft) N-NW 336 ° 0 min 0,000 mm 0,8 UV-I 77 W/m² 9,0 °C 10,2 °C 0,0 km/h (0 Bft)
03.09.2017 17:57 10,2 °C 10,2 °C 92 % 1015,7 hPa 0,0 mm 0,3 km/h (0 Bft) N-NW 336 ° 0 min 0,000 mm 0,8 UV-I 79 W/m² 9,0 °C 10,2 °C 1,6 km/h (1 Bft)
03.09.2017 17:58 10,1 °C 10,2 °C 92 % 1015,7 hPa 0,0 mm 0,0 km/h (0 Bft) N-NW 336 ° 0 min 0,000 mm 0,8 UV-I 84 W/m² 8,9 °C 10,1 °C 0,0 km/h (0 Bft)
03.09.2017 17:59 10,1 °C 10,1 °C 92 % 1015,7 hPa 0,0 mm 0,0 km/h (0 Bft) N-NW 336 ° 0 min 0,000 mm 0,7 UV-I 79 W/m² 8,9 °C 10,1 °C 0,0 km/h (0 Bft)
03.09.2017 18:00 10,2 °C 10,2 °C 92 % 1015,7 hPa 0,0 mm 0,0 km/h (0 Bft) N-NW 336 ° 0 min 0,000 mm 0,7 UV-I 76 W/m² 9,0 °C 10,2 °C 0,0 km/h (0 Bft)
03.09.2017 18:01 10,2 °C 10,2 °C 92 % 1015,7 hPa 0,0 mm 0,0 km/h (0 Bft) N-NW 336 ° 0 min 0,050 mm 0,7 UV-I 72 W/m² 9,0 °C 10,2 °C 0,0 km/h (0 Bft)
03.09.2017 18:02 10,2 °C 10,2 °C 92 % 1015,7 hPa 0,0 mm 0,0 km/h (0 Bft) N-NW 336 ° 0 min 0,000 mm 0,7 UV-I 74 W/m² 9,0 °C 10,2 °C 0,0 km/h (0 Bft)
03.09.2017 18:03 10,2 °C 10,2 °C 92 % 1015,7 hPa 0,0 mm 0,0 km/h (0 Bft) N-NW 336 ° 0 min 0,000 mm 0,7 UV-I 74 W/m² 9,0 °C 10,2 °C 0,0 km/h (0 Bft)
03.09.2017 18:04 10,2 °C 10,2 °C 91 % 1015,7 hPa 0,0 mm 0,4 km/h (0 Bft) O-NO 58 ° 0 min 0,000 mm 0,7 UV-I 72 W/m² 8,8 °C 10,2 °C 1,6 km/h (1 Bft)
03.09.2017 18:05 10,2 °C 10,2 °C 91 % 1015,7 hPa 0,0 mm 0,4 km/h (0 Bft) O-NO 58 ° 0 min 0,000 mm 0,7 UV-I 72 W/m² 8,8 °C 10,2 °C 1,6 km/h (1 Bft)
03.09.2017 18:06 10,2 °C 10,2 °C 91 % 1015,7 hPa 0,0 mm 0,0 km/h (0 Bft) O-NO 58 ° 0 min 0,000 mm 0,7 UV-I 67 W/m² 8,8 °C 10,2 °C 0,0 km/h (0 Bft)
03.09.2017 18:07 10,2 °C 10,2 °C 91 % 1015,7 hPa 0,0 mm 0,0 km/h (0 Bft) O-NO 58 ° 0 min 0,000 mm 0,7 UV-I 69 W/m² 8,8 °C 10,2 °C 0,0 km/h (0 Bft)
03.09.2017 18:08 10,3 °C 10,3 °C 91 % 1015,7 hPa 0,0 mm 0,6 km/h (0 Bft) O-NO 59 ° 0 min 0,000 mm 0,7 UV-I 63 W/m² 8,9 °C 10,3 °C 3,2 km/h (1 Bft)
03.09.2017 18:09 10,3 °C 10,3 °C 91 % 1015,7 hPa 0,0 mm 0,7 km/h (0 Bft) O-NO 59 ° 0 min 0,000 mm 0,7 UV-I 63 W/m² 8,9 °C 10,3 °C 1,6 km/h (1 Bft)
03.09.2017 18:10 10,2 °C 10,3 °C 91 % 1015,7 hPa 0,0 mm 0,0 km/h (0 Bft) O-NO 59 ° 0 min 0,000 mm 0,7 UV-I 65 W/m² 8,8 °C 10,2 °C 0,0 km/h (0 Bft)
03.09.2017 18:11 10,2 °C 10,2 °C 91 % 1015,7 hPa 0,0 mm 0,3 km/h (0 Bft) O-NO 59 ° 0 min 0,000 mm 0,7 UV-I 63 W/m² 8,8 °C 10,2 °C 1,6 km/h (1 Bft)
03.09.2017 18:12 10,2 °C 10,2 °C 90 % 1015,7 hPa 0,0 mm 0,1 km/h (0 Bft) O-NO 59 ° 0 min 0,000 mm 0,6 UV-I 63 W/m² 8,6 °C 10,2 °C 1,6 km/h (1 Bft)
03.09.2017 18:14 10,2 °C 10,2 °C 91 % 1015,8 hPa 0,0 mm 0,0 km/h (0 Bft) O-NO 59 ° 0 min 0,000 mm 0,6 UV-I 60 W/m² 8,8 °C 10,2 °C 0,0 km/h (0 Bft)
03.09.2017 18:15 10,2 °C 10,2 °C 92 % 1015,8 hPa 0,0 mm 0,0 km/h (0 Bft) O-NO 59 ° 0 min 0,000 mm 0,6 UV-I 60 W/m² 9,0 °C 10,2 °C 0,0 km/h (0 Bft)
03.09.2017 18:16 10,1 °C 10,2 °C 92 % 1015,7 hPa 0,0 mm 0,1 km/h (0 Bft) O-NO 59 ° 0 min 0,000 mm 0,6 UV-I 58 W/m² 8,9 °C 10,1 °C 1,6 km/h (1 Bft)
03.09.2017 18:17 10,1 °C 10,2 °C 91 % 1015,7 hPa 0,0 mm 0,8 km/h (0 Bft) O-NO 59 ° 0 min 0,000 mm 0,6 UV-I 56 W/m² 8,7 °C 10,1 °C 3,2 km/h (1 Bft)
03.09.2017 18:18 10,1 °C 10,1 °C 91 % 1015,7 hPa 0,0 mm 0,0 km/h (0 Bft) O-NO 59 ° 0 min 0,000 mm 0,6 UV-I 56 W/m² 8,7 °C 10,1 °C 0,0 km/h (0 Bft)
03.09.2017 18:19 10,0 °C 10,1 °C 92 % 1015,7 hPa 0,0 mm 0,3 km/h (0 Bft) O-NO 59 ° 0 min 0,000 mm 0,6 UV-I 56 W/m² 8,8 °C 10,0 °C 1,6 km/h (1 Bft)
03.09.2017 18:20 9,9 °C 10,0 °C 91 % 1015,7 hPa 0,0 mm 0,0 km/h (0 Bft) O-NO 59 ° 0 min 0,000 mm 0,6 UV-I 58 W/m² 8,5 °C 9,9 °C 0,0 km/h (0 Bft)
03.09.2017 18:21 9,9 °C 9,9 °C 92 % 1015,7 hPa 0,0 mm 0,0 km/h (0 Bft) O-NO 59 ° 0 min 0,000 mm 0,6 UV-I 58 W/m² 8,7 °C 9,9 °C 0,0 km/h (0 Bft)
03.09.2017 18:22 9,9 °C 9,9 °C 92 % 1015,7 hPa 0,0 mm 0,0 km/h (0 Bft) O-NO 59 ° 0 min 0,000 mm 0,5 UV-I 58 W/m² 8,7 °C 9,9 °C 0,0 km/h (0 Bft)
03.09.2017 18:23 9,9 °C 9,9 °C 92 % 1015,7 hPa 0,0 mm 0,0 km/h (0 Bft) O-NO 59 ° 0 min 0,000 mm 0,5 UV-I 56 W/m² 8,7 °C 9,9 °C 0,0 km/h (0 Bft)
03.09.2017 18:24 9,9 °C 9,9 °C 91 % 1015,7 hPa 0,0 mm 0,0 km/h (0 Bft) O-NO 59 ° 0 min 0,000 mm 0,0 UV-I 54 W/m² 8,5 °C 9,9 °C 0,0 km/h (0 Bft)
03.09.2017 18:25 9,9 °C 9,9 °C 91 % 1015,7 hPa 0,0 mm 0,0 km/h (0 Bft) O-NO 59 ° 0 min 0,000 mm 0,0 UV-I 49 W/m² 8,5 °C 9,9 °C 0,0 km/h (0 Bft)
03.09.2017 18:26 9,9 °C 9,9 °C 91 % 1015,7 hPa 0,0 mm 0,0 km/h (0 Bft) O-NO 59 ° 0 min 0,000 mm 0,0 UV-I 44 W/m² 8,5 °C 9,9 °C 0,0 km/h (0 Bft)
03.09.2017 18:27 9,9 °C 9,9 °C 92 % 1015,7 hPa 0,0 mm 0,0 km/h (0 Bft) O-NO 59 ° 0 min 0,000 mm 0,0 UV-I 40 W/m² 8,7 °C 9,9 °C 0,0 km/h (0 Bft)
03.09.2017 18:28 9,9 °C 9,9 °C 92 % 1015,8 hPa 0,0 mm 0,8 km/h (0 Bft) O-NO 59 ° 0 min 0,000 mm 0,0 UV-I 35 W/m² 8,7 °C 9,9 °C 1,6 km/h (1 Bft)
03.09.2017 18:29 9,8 °C 9,9 °C 92 % 1015,7 hPa 0,0 mm 0,7 km/h (0 Bft) O-NO 59 ° 0 min 0,000 mm 0,0 UV-I 33 W/m² 8,6 °C 9,8 °C 1,6 km/h (1 Bft)
03.09.2017 18:30 9,8 °C 9,8 °C 92 % 1015,8 hPa 0,0 mm 0,1 km/h (0 Bft) O-NO 59 ° 0 min 0,000 mm 0,0 UV-I 32 W/m² 8,6 °C 9,8 °C 1,6 km/h (1 Bft)
03.09.2017 18:31 9,8 °C 9,8 °C 92 % 1015,8 hPa 0,0 mm 0,0 km/h (0 Bft) O-NO 59 ° 0 min 0,000 mm 0,0 UV-I 30 W/m² 8,6 °C 9,8 °C 0,0 km/h (0 Bft)
03.09.2017 18:32 9,8 °C 9,8 °C 92 % 1015,8 hPa 0,0 mm 0,0 km/h (0 Bft) O-NO 59 ° 0 min 0,000 mm 0,0 UV-I 30 W/m² 8,6 °C 9,8 °C 0,0 km/h (0 Bft)
03.09.2017 18:33 9,7 °C 9,8 °C 92 % 1015,9 hPa 0,0 mm 0,0 km/h (0 Bft) O-NO 59 ° 0 min 0,000 mm 0,0 UV-I 30 W/m² 8,5 °C 9,7 °C 0,0 km/h (0 Bft)
03.09.2017 18:34 9,7 °C 9,7 °C 92 % 1015,9 hPa 0,0 mm 1,2 km/h (1 Bft) O-NO 59 ° 0 min 0,000 mm 0,0 UV-I 28 W/m² 8,5 °C 9,7 °C 3,2 km/h (1 Bft)
03.09.2017 18:35 9,7 °C 9,7 °C 92 % 1015,9 hPa 0,0 mm 1,4 km/h (1 Bft) O-NO 59 ° 0 min 0,000 mm 0,0 UV-I 28 W/m² 8,5 °C 9,7 °C 3,2 km/h (1 Bft)
03.09.2017 18:36 9,7 °C 9,8 °C 92 % 1015,9 hPa 0,0 mm 0,0 km/h (0 Bft) O-NO 59 ° 0 min 0,000 mm 0,0 UV-I 26 W/m² 8,5 °C 9,7 °C 0,0 km/h (0 Bft)
03.09.2017 18:37 9,7 °C 9,8 °C 92 % 1015,9 hPa 0,0 mm 0,0 km/h (0 Bft) O-NO 59 ° 0 min 0,000 mm 0,0 UV-I 25 W/m² 8,5 °C 9,7 °C 0,0 km/h (0 Bft)
03.09.2017 18:38 9,7 °C 9,8 °C 92 % 1015,9 hPa 0,0 mm 0,0 km/h (0 Bft) O-NO 59 ° 0 min 0,000 mm 0,0 UV-I 23 W/m² 8,5 °C 9,7 °C 0,0 km/h (0 Bft)
03.09.2017 18:39 9,7 °C 9,8 °C 92 % 1015,9 hPa 0,0 mm 0,0 km/h (0 Bft) O-NO 59 ° 0 min 0,000 mm 0,0 UV-I 23 W/m² 8,5 °C 9,7 °C 0,0 km/h (0 Bft)
03.09.2017 18:40 9,7 °C 9,8 °C 92 % 1015,9 hPa 0,0 mm 0,0 km/h (0 Bft) O-NO 59 ° 0 min 0,000 mm 0,0 UV-I 21 W/m² 8,5 °C 9,7 °C 0,0 km/h (0 Bft)
03.09.2017 18:41 9,8 °C 9,8 °C 92 % 1015,9 hPa 0,0 mm 0,7 km/h (0 Bft) O-NO 59 ° 0 min 0,000 mm 0,0 UV-I 21 W/m² 8,6 °C 9,8 °C 1,6 km/h (1 Bft)
03.09.2017 18:42 9,8 °C 9,8 °C 92 % 1015,9 hPa 0,0 mm 1,4 km/h (1 Bft) O-NO 59 ° 0 min 0,000 mm 0,0 UV-I 21 W/m² 8,6 °C 9,8 °C 1,6 km/h (1 Bft)
03.09.2017 18:43 9,8 °C 9,8 °C 92 % 1016,0 hPa 0,0 mm 1,7 km/h (1 Bft) O-NO 59 ° 0 min 0,000 mm 0,0 UV-I 21 W/m² 8,6 °C 9,8 °C 3,2 km/h (1 Bft)
03.09.2017 18:44 9,8 °C 9,8 °C 92 % 1016,1 hPa 0,0 mm 1,5 km/h (1 Bft) O-NO 59 ° 0 min 0,000 mm 0,0 UV-I 19 W/m² 8,6 °C 9,8 °C 3,2 km/h (1 Bft)
03.09.2017 18:45 9,8 °C 9,8 °C 92 % 1016,0 hPa 0,0 mm 1,9 km/h (1 Bft) O-NO 59 ° 0 min 0,000 mm 0,0 UV-I 19 W/m² 8,6 °C 9,8 °C 3,2 km/h (1 Bft)
03.09.2017 18:46 9,8 °C 9,8 °C 92 % 1016,0 hPa 0,0 mm 1,3 km/h (1 Bft) O-NO 59 ° 0 min 0,000 mm 0,0 UV-I 21 W/m² 8,6 °C 9,8 °C 3,2 km/h (1 Bft)
03.09.2017 18:47 9,7 °C 9,8 °C 92 % 1016,0 hPa 0,0 mm 0,3 km/h (0 Bft) O-NO 59 ° 0 min 0,000 mm 0,0 UV-I 21 W/m² 8,5 °C 9,7 °C 3,2 km/h (1 Bft)
03.09.2017 18:48 9,7 °C 9,8 °C 92 % 1016,0 hPa 0,0 mm 1,5 km/h (1 Bft) O 95 ° 0 min 0,000 mm 0,0 UV-I 19 W/m² 8,5 °C 9,7 °C 3,2 km/h (1 Bft)
03.09.2017 18:49 9,8 °C 9,8 °C 93 % 1016,0 hPa 0,0 mm 3,2 km/h (1 Bft) O-NO 67 ° 0 min 0,000 mm 0,0 UV-I 19 W/m² 8,7 °C 9,8 °C 4,8 km/h (1 Bft)
03.09.2017 18:50 9,8 °C 9,8 °C 93 % 1016,1 hPa 0,0 mm 4,0 km/h (1 Bft) O 90 ° 0 min 0,000 mm 0,0 UV-I 19 W/m² 8,7 °C 9,8 °C 6,4 km/h (2 Bft)
03.09.2017 18:51 9,9 °C 9,9 °C 93 % 1016,0 hPa 0,0 mm 3,3 km/h (1 Bft) O 82 ° 0 min 0,000 mm 0,0 UV-I 18 W/m² 8,8 °C 9,9 °C 4,8 km/h (1 Bft)
03.09.2017 18:52 9,9 °C 9,9 °C 93 % 1016,1 hPa 0,0 mm 2,6 km/h (1 Bft) NO 55 ° 0 min 0,000 mm 0,0 UV-I 18 W/m² 8,8 °C 9,9 °C 3,2 km/h (1 Bft)
03.09.2017 18:53 10,0 °C 10,0 °C 93 % 1016,1 hPa 0,0 mm 1,4 km/h (1 Bft) NO 55 ° 0 min 0,000 mm 0,0 UV-I 18 W/m² 8,9 °C 10,0 °C 3,2 km/h (1 Bft)
03.09.2017 18:54 10,1 °C 10,1 °C 93 % 1016,1 hPa 0,0 mm 0,0 km/h (0 Bft) NO 55 ° 0 min 0,000 mm 0,0 UV-I 16 W/m² 9,0 °C 10,1 °C 0,0 km/h (0 Bft)
03.09.2017 18:55 10,1 °C 10,1 °C 93 % 1016,1 hPa 0,0 mm 0,0 km/h (0 Bft) NO 55 ° 0 min 0,000 mm 0,0 UV-I 16 W/m² 9,0 °C 10,1 °C 0,0 km/h (0 Bft)
03.09.2017 18:56 10,1 °C 10,1 °C 93 % 1016,1 hPa 0,0 mm 0,0 km/h (0 Bft) NO 55 ° 0 min 0,000 mm 0,0 UV-I 16 W/m² 9,0 °C 10,1 °C 0,0 km/h (0 Bft)
03.09.2017 18:57 10,1 °C 10,1 °C 93 % 1016,1 hPa 0,0 mm 0,0 km/h (0 Bft) NO 55 ° 0 min 0,000 mm 0,0 UV-I 14 W/m² 9,0 °C 10,1 °C 0,0 km/h (0 Bft)
03.09.2017 18:58 10,1 °C 10,1 °C 93 % 1016,0 hPa 0,0 mm 0,0 km/h (0 Bft) NO 55 ° 0 min 0,000 mm 0,0 UV-I 14 W/m² 9,0 °C 10,1 °C 0,0 km/h (0 Bft)
03.09.2017 18:59 10,1 °C 10,1 °C 93 % 1016,0 hPa 0,0 mm 0,0 km/h (0 Bft) NO 55 ° 0 min 0,000 mm 0,0 UV-I 16 W/m² 9,0 °C 10,1 °C 0,0 km/h (0 Bft)
03.09.2017 19:00 10,1 °C 10,1 °C 93 % 1016,1 hPa 0,0 mm 0,0 km/h (0 Bft) NO 55 ° 0 min 0,000 mm 0,0 UV-I 16 W/m² 9,0 °C 10,1 °C 0,0 km/h (0 Bft)
03.09.2017 19:01 10,1 °C 10,1 °C 93 % 1016,1 hPa 0,0 mm 0,0 km/h (0 Bft) NO 55 ° 0 min 0,026 mm 0,0 UV-I 16 W/m² 9,0 °C 10,1 °C 0,0 km/h (0 Bft)
03.09.2017 19:02 10,1 °C 10,1 °C 93 % 1016,0 hPa 0,0 mm 0,0 km/h (0 Bft) NO 55 ° 0 min 0,000 mm 0,0 UV-I 16 W/m² 9,0 °C 10,1 °C 0,0 km/h (0 Bft)
03.09.2017 19:03 10,1 °C 10,1 °C 93 % 1016,0 hPa 0,0 mm 0,0 km/h (0 Bft) NO 55 ° 0 min 0,000 mm 0,0 UV-I 16 W/m² 9,0 °C 10,1 °C 0,0 km/h (0 Bft)
03.09.2017 19:04 10,1 °C 10,1 °C 93 % 1015,9 hPa 0,0 mm 0,0 km/h (0 Bft) NO 55 ° 0 min 0,000 mm 0,0 UV-I 18 W/m² 9,0 °C 10,1 °C 0,0 km/h (0 Bft)
03.09.2017 19:05 10,1 °C 10,1 °C 93 % 1016,0 hPa 0,0 mm 0,5 km/h (0 Bft) NO 56 ° 0 min 0,000 mm 0,0 UV-I 18 W/m² 9,0 °C 10,1 °C 1,6 km/h (1 Bft)
03.09.2017 19:06 10,1 °C 10,1 °C 92 % 1016,0 hPa 0,0 mm 1,2 km/h (1 Bft) NO 56 ° 0 min 0,000 mm 0,0 UV-I 18 W/m² 8,9 °C 10,1 °C 3,2 km/h (1 Bft)
03.09.2017 19:07 10,1 °C 10,1 °C 92 % 1016,0 hPa 0,0 mm 2,3 km/h (1 Bft) O-SO 113 ° 0 min 0,000 mm 0,0 UV-I 18 W/m² 8,9 °C 10,1 °C 4,8 km/h (1 Bft)
03.09.2017 19:08 10,0 °C 10,1 °C 92 % 1016,0 hPa 0,0 mm 2,7 km/h (1 Bft) O-SO 113 ° 0 min 0,000 mm 0,0 UV-I 19 W/m² 8,8 °C 10,0 °C 3,2 km/h (1 Bft)
03.09.2017 19:10 10,0 °C 10,1 °C 92 % 1015,9 hPa 0,0 mm 2,3 km/h (1 Bft) O-SO 113 ° 0 min 0,000 mm 0,0 UV-I 19 W/m² 8,8 °C 10,0 °C 3,2 km/h (1 Bft)
03.09.2017 19:11 10,0 °C 10,0 °C 92 % 1015,9 hPa 0,0 mm 3,0 km/h (1 Bft) O-SO 113 ° 0 min 0,000 mm 0,0 UV-I 21 W/m² 8,8 °C 10,0 °C 3,2 km/h (1 Bft)
03.09.2017 19:12 9,9 °C 10,0 °C 92 % 1015,9 hPa 0,0 mm 4,2 km/h (1 Bft) S-SO 148 ° 0 min 0,000 mm 0,0 UV-I 21 W/m² 8,7 °C 9,9 °C 4,8 km/h (1 Bft)
03.09.2017 19:14 9,9 °C 10,0 °C 91 % 1015,8 hPa 0,0 mm 3,7 km/h (1 Bft) SO 141 ° 0 min 0,000 mm 0,0 UV-I 19 W/m² 8,5 °C 9,9 °C 4,8 km/h (1 Bft)
03.09.2017 19:15 9,9 °C 9,9 °C 92 % 1015,8 hPa 0,0 mm 2,2 km/h (1 Bft) SO 134 ° 0 min 0,000 mm 0,0 UV-I 19 W/m² 8,7 °C 9,9 °C 3,2 km/h (1 Bft)
03.09.2017 19:16 9,9 °C 9,9 °C 92 % 1015,8 hPa 0,0 mm 5,0 km/h (1 Bft) O-SO 113 ° 0 min 0,000 mm 0,0 UV-I 19 W/m² 8,7 °C 9,6 °C 6,4 km/h (2 Bft)
03.09.2017 19:17 9,9 °C 9,9 °C 92 % 1015,7 hPa 0,0 mm 2,1 km/h (1 Bft) O-SO 113 ° 0 min 0,000 mm 0,0 UV-I 19 W/m² 8,7 °C 9,9 °C 3,2 km/h (1 Bft)
03.09.2017 19:18 9,8 °C 9,9 °C 92 % 1015,7 hPa 0,0 mm 3,2 km/h (1 Bft) O-SO 106 ° 0 min 0,000 mm 0,0 UV-I 19 W/m² 8,6 °C 9,8 °C 4,8 km/h (1 Bft)
03.09.2017 19:19 9,8 °C 9,8 °C 92 % 1015,7 hPa 0,2 mm 2,2 km/h (1 Bft) O-SO 106 ° 0 min 0,000 mm 0,0 UV-I 19 W/m² 8,6 °C 9,8 °C 3,2 km/h (1 Bft)
03.09.2017 19:20 9,8 °C 9,8 °C 92 % 1015,7 hPa 0,0 mm 2,7 km/h (1 Bft) O 98 ° 0 min 0,000 mm 0,0 UV-I 19 W/m² 8,6 °C 9,8 °C 4,8 km/h (1 Bft)
03.09.2017 19:21 9,7 °C 9,8 °C 92 % 1015,7 hPa 0,0 mm 2,7 km/h (1 Bft) O 98 ° 0 min 0,000 mm 0,0 UV-I 25 W/m² 8,5 °C 9,7 °C 6,4 km/h (2 Bft)
03.09.2017 19:22 9,8 °C 9,8 °C 93 % 1015,7 hPa 0,0 mm 1,0 km/h (0 Bft) O 98 ° 0 min 0,000 mm 0,0 UV-I 21 W/m² 8,7 °C 9,8 °C 3,2 km/h (1 Bft)
03.09.2017 19:23 9,7 °C 9,8 °C 93 % 1015,7 hPa 0,0 mm 4,1 km/h (1 Bft) O-SO 104 ° 0 min 0,000 mm 0,0 UV-I 21 W/m² 8,6 °C 9,7 °C 6,4 km/h (2 Bft)
03.09.2017 19:24 9,7 °C 9,7 °C 92 % 1015,7 hPa 0,0 mm 3,1 km/h (1 Bft) O-NO 74 ° 0 min 0,000 mm 0,0 UV-I 21 W/m² 8,5 °C 9,7 °C 4,8 km/h (1 Bft)
03.09.2017 19:25 9,7 °C 9,7 °C 92 % 1015,7 hPa 0,0 mm 1,9 km/h (1 Bft) O-NO 74 ° 0 min 0,000 mm 0,0 UV-I 19 W/m² 8,5 °C 9,7 °C 4,8 km/h (1 Bft)
03.09.2017 19:26 9,7 °C 9,7 °C 92 % 1015,7 hPa 0,0 mm 2,6 km/h (1 Bft) O-NO 72 ° 0 min 0,000 mm 0,0 UV-I 19 W/m² 8,5 °C 9,7 °C 6,4 km/h (2 Bft)
03.09.2017 19:27 9,7 °C 9,7 °C 92 % 1015,7 hPa 0,0 mm 1,5 km/h (1 Bft) O-NO 72 ° 0 min 0,000 mm 0,0 UV-I 19 W/m² 8,5 °C 9,7 °C 3,2 km/h (1 Bft)
03.09.2017 19:28 9,7 °C 9,8 °C 92 % 1015,8 hPa 0,0 mm 3,2 km/h (1 Bft) O 86 ° 0 min 0,000 mm 0,0 UV-I 19 W/m² 8,5 °C 9,7 °C 4,8 km/h (1 Bft)
03.09.2017 19:29 9,7 °C 9,8 °C 92 % 1015,7 hPa 0,0 mm 3,1 km/h (1 Bft) O 86 ° 0 min 0,000 mm 0,0 UV-I 19 W/m² 8,5 °C 9,7 °C 4,8 km/h (1 Bft)
03.09.2017 19:30 9,7 °C 9,7 °C 92 % 1015,8 hPa 0,0 mm 0,4 km/h (0 Bft) O 86 ° 0 min 0,000 mm 0,0 UV-I 18 W/m² 8,5 °C 9,7 °C 1,6 km/h (1 Bft)
03.09.2017 19:31 9,7 °C 9,7 °C 92 % 1015,8 hPa 0,0 mm 0,7 km/h (0 Bft) O 86 ° 0 min 0,000 mm 0,0 UV-I 18 W/m² 8,5 °C 9,7 °C 1,6 km/h (1 Bft)
03.09.2017 19:32 9,7 °C 9,7 °C 92 % 1015,8 hPa 0,0 mm 0,1 km/h (0 Bft) O 86 ° 0 min 0,000 mm 0,0 UV-I 18 W/m² 8,5 °C 9,7 °C 1,6 km/h (1 Bft)
03.09.2017 19:33 9,7 °C 9,7 °C 92 % 1015,8 hPa 0,0 mm 1,5 km/h (1 Bft) O 90 ° 0 min 0,000 mm 0,0 UV-I 16 W/m² 8,5 °C 9,7 °C 3,2 km/h (1 Bft)
03.09.2017 19:34 9,7 °C 9,7 °C 92 % 1015,8 hPa 0,0 mm 3,0 km/h (1 Bft) O-SO 102 ° 0 min 0,000 mm 0,0 UV-I 14 W/m² 8,5 °C 9,7 °C 4,8 km/h (1 Bft)
03.09.2017 19:35 9,6 °C 9,7 °C 92 % 1015,8 hPa 0,0 mm 0,0 km/h (0 Bft) O-SO 102 ° 0 min 0,000 mm 0,0 UV-I 14 W/m² 8,4 °C 9,6 °C 0,0 km/h (0 Bft)
03.09.2017 19:36 9,6 °C 9,6 °C 92 % 1015,8 hPa 0,0 mm 0,9 km/h (0 Bft) O-SO 102 ° 0 min 0,000 mm 0,0 UV-I 12 W/m² 8,4 °C 9,6 °C 3,2 km/h (1 Bft)
03.09.2017 19:37 9,5 °C 9,6 °C 92 % 1015,8 hPa 0,0 mm 0,1 km/h (0 Bft) O-SO 102 ° 0 min 0,000 mm 0,0 UV-I 12 W/m² 8,3 °C 9,5 °C 1,6 km/h (1 Bft)
03.09.2017 19:38 9,5 °C 9,6 °C 92 % 1015,8 hPa 0,0 mm 2,7 km/h (1 Bft) W 264 ° 0 min 0,000 mm 0,0 UV-I 11 W/m² 8,3 °C 9,5 °C 4,8 km/h (1 Bft)
03.09.2017 19:39 9,4 °C 9,5 °C 92 % 1015,8 hPa 0,0 mm 4,5 km/h (1 Bft) W-SW 242 ° 0 min 0,000 mm 0,0 UV-I 9 W/m² 8,2 °C 9,4 °C 6,4 km/h (2 Bft)
03.09.2017 19:40 9,4 °C 9,4 °C 93 % 1015,8 hPa 0,0 mm 3,0 km/h (1 Bft) W-SW 242 ° 0 min 0,000 mm 0,0 UV-I 9 W/m² 8,3 °C 9,4 °C 4,8 km/h (1 Bft)
03.09.2017 19:41 9,4 °C 9,4 °C 93 % 1015,8 hPa 0,0 mm 2,3 km/h (1 Bft) W-SW 242 ° 0 min 0,000 mm 0,0 UV-I 7 W/m² 8,3 °C 9,4 °C 3,2 km/h (1 Bft)
03.09.2017 19:42 9,3 °C 9,4 °C 92 % 1015,9 hPa 0,0 mm 3,4 km/h (1 Bft) W-SW 242 ° 0 min 0,000 mm 0,0 UV-I 7 W/m² 8,1 °C 9,3 °C 4,8 km/h (1 Bft)
03.09.2017 19:43 9,3 °C 9,3 °C 92 % 1015,9 hPa 0,0 mm 3,5 km/h (1 Bft) W-SW 244 ° 0 min 0,000 mm 0,0 UV-I 7 W/m² 8,1 °C 9,3 °C 4,8 km/h (1 Bft)
03.09.2017 19:44 9,2 °C 9,3 °C 93 % 1015,8 hPa 0,0 mm 1,3 km/h (1 Bft) W-SW 244 ° 0 min 0,000 mm 0,0 UV-I 5 W/m² 8,1 °C 9,2 °C 3,2 km/h (1 Bft)
03.09.2017 19:45 9,1 °C 9,2 °C 93 % 1015,8 hPa 0,0 mm 0,3 km/h (0 Bft) W-SW 244 ° 0 min 0,000 mm 0,0 UV-I 5 W/m² 8,0 °C 9,1 °C 1,6 km/h (1 Bft)
03.09.2017 19:46 9,1 °C 9,1 °C 92 % 1015,8 hPa 0,0 mm 0,8 km/h (0 Bft) W-SW 244 ° 0 min 0,000 mm 0,0 UV-I 5 W/m² 7,9 °C 9,1 °C 1,6 km/h (1 Bft)
03.09.2017 19:47 9,0 °C 9,1 °C 93 % 1015,9 hPa 0,0 mm 0,7 km/h (0 Bft) W-SW 244 ° 0 min 0,000 mm 0,0 UV-I 5 W/m² 7,9 °C 9,0 °C 1,6 km/h (1 Bft)
03.09.2017 19:48 9,0 °C 9,0 °C 93 % 1015,8 hPa 0,0 mm 0,2 km/h (0 Bft) W-SW 244 ° 0 min 0,000 mm 0,0 UV-I 0 W/m² 7,9 °C 9,0 °C 1,6 km/h (1 Bft)
03.09.2017 19:49 8,9 °C 9,0 °C 93 % 1015,8 hPa 0,0 mm 0,5 km/h (0 Bft) W-SW 244 ° 0 min 0,000 mm 0,0 UV-I 0 W/m² 7,8 °C 8,9 °C 1,6 km/h (1 Bft)
03.09.2017 19:50 8,9 °C 8,9 °C 93 % 1015,8 hPa 0,0 mm 0,6 km/h (0 Bft) W-SW 244 ° 0 min 0,000 mm 0,0 UV-I 0 W/m² 7,8 °C 8,9 °C 1,6 km/h (1 Bft)
03.09.2017 19:51 8,9 °C 8,9 °C 93 % 1015,8 hPa 0,0 mm 1,1 km/h (1 Bft) W-SW 244 ° 0 min 0,000 mm 0,0 UV-I 0 W/m² 7,8 °C 8,9 °C 1,6 km/h (1 Bft)
03.09.2017 19:52 8,9 °C 8,9 °C 93 % 1015,8 hPa 0,0 mm 0,0 km/h (0 Bft) W-SW 244 ° 0 min 0,000 mm 0,0 UV-I 0 W/m² 7,8 °C 8,9 °C 0,0 km/h (0 Bft)
03.09.2017 19:53 8,8 °C 8,9 °C 93 % 1015,8 hPa 0,0 mm 0,0 km/h (0 Bft) W-SW 244 ° 0 min 0,000 mm 0,0 UV-I 0 W/m² 7,7 °C 8,8 °C 0,0 km/h (0 Bft)
03.09.2017 19:54 8,8 °C 8,8 °C 93 % 1015,8 hPa 0,0 mm 0,0 km/h (0 Bft) W-SW 244 ° 0 min 0,000 mm 0,0 UV-I 0 W/m² 7,7 °C 8,8 °C 0,0 km/h (0 Bft)
03.09.2017 19:55 8,8 °C 8,8 °C 94 % 1015,8 hPa 0,0 mm 0,0 km/h (0 Bft) W-SW 244 ° 0 min 0,000 mm 0,0 UV-I 0 W/m² 7,9 °C 8,8 °C 0,0 km/h (0 Bft)
03.09.2017 19:56 8,8 °C 8,8 °C 94 % 1015,8 hPa 0,0 mm 0,0 km/h (0 Bft) W-SW 244 ° 0 min 0,000 mm 0,0 UV-I 0 W/m² 7,9 °C 8,8 °C 0,0 km/h (0 Bft)
03.09.2017 19:57 8,7 °C 8,8 °C 93 % 1015,8 hPa 0,0 mm 0,0 km/h (0 Bft) W-SW 244 ° 0 min 0,000 mm 0,0 UV-I 0 W/m² 7,6 °C 8,7 °C 0,0 km/h (0 Bft)
03.09.2017 19:58 8,7 °C 8,7 °C 93 % 1015,8 hPa 0,0 mm 0,0 km/h (0 Bft) W-SW 244 ° 0 min 0,000 mm 0,0 UV-I 0 W/m² 7,6 °C 8,7 °C 0,0 km/h (0 Bft)
03.09.2017 19:59 8,6 °C 8,7 °C 94 % 1015,8 hPa 0,0 mm 0,0 km/h (0 Bft) W-SW 244 ° 0 min 0,000 mm 0,0 UV-I 0 W/m² 7,7 °C 8,6 °C 0,0 km/h (0 Bft)
03.09.2017 20:00 8,6 °C 8,6 °C 94 % 1015,8 hPa 0,0 mm 0,0 km/h (0 Bft) W-SW 244 ° 0 min 0,000 mm 0,0 UV-I 0 W/m² 7,7 °C 8,6 °C 0,0 km/h (0 Bft)
03.09.2017 20:01 8,6 °C 8,6 °C 94 % 1015,8 hPa 0,0 mm 0,0 km/h (0 Bft) W-SW 244 ° 0 min 0,000 mm 0,0 UV-I 0 W/m² 7,7 °C 8,6 °C 0,0 km/h (0 Bft)
03.09.2017 20:02 8,6 °C 8,6 °C 94 % 1015,8 hPa 0,0 mm 0,0 km/h (0 Bft) W-SW 244 ° 0 min 0,000 mm 0,0 UV-I 0 W/m² 7,7 °C 8,6 °C 0,0 km/h (0 Bft)
03.09.2017 20:03 8,4 °C 8,6 °C 94 % 1015,8 hPa 0,0 mm 0,0 km/h (0 Bft) W-SW 244 ° 0 min 0,000 mm 0,0 UV-I 0 W/m² 7,5 °C 8,4 °C 0,0 km/h (0 Bft)
03.09.2017 20:04 8,4 °C 8,4 °C 94 % 1015,8 hPa 0,0 mm 0,0 km/h (0 Bft) W-SW 244 ° 0 min 0,000 mm 0,0 UV-I 0 W/m² 7,5 °C 8,4 °C 0,0 km/h (0 Bft)
03.09.2017 20:05 8,4 °C 8,4 °C 94 % 1015,8 hPa 0,0 mm 0,0 km/h (0 Bft) W-SW 244 ° 0 min 0,000 mm 0,0 UV-I 0 W/m² 7,5 °C 8,4 °C 0,0 km/h (0 Bft)
03.09.2017 20:06 8,3 °C 8,4 °C 94 % 1015,8 hPa 0,0 mm 0,0 km/h (0 Bft) W-SW 244 ° 0 min 0,000 mm 0,0 UV-I 0 W/m² 7,4 °C 8,3 °C 0,0 km/h (0 Bft)
03.09.2017 20:07 8,3 °C 8,3 °C 94 % 1015,8 hPa 0,0 mm 0,0 km/h (0 Bft) W-SW 244 ° 0 min 0,000 mm 0,0 UV-I 0 W/m² 7,4 °C 8,3 °C 0,0 km/h (0 Bft)
03.09.2017 20:08 8,3 °C 8,3 °C 94 % 1015,8 hPa 0,0 mm 0,0 km/h (0 Bft) W-SW 244 ° 0 min 0,000 mm 0,0 UV-I 0 W/m² 7,4 °C 8,3 °C 0,0 km/h (0 Bft)
03.09.2017 20:09 8,3 °C 8,3 °C 94 % 1015,9 hPa 0,0 mm 0,0 km/h (0 Bft) W-SW 244 ° 0 min 0,000 mm 0,0 UV-I 0 W/m² 7,4 °C 8,3 °C 0,0 km/h (0 Bft)
03.09.2017 20:10 8,3 °C 8,3 °C 94 % 1015,9 hPa 0,0 mm 0,0 km/h (0 Bft) W-SW 244 ° 0 min 0,000 mm 0,0 UV-I 0 W/m² 7,4 °C 8,3 °C 0,0 km/h (0 Bft)
03.09.2017 20:11 8,3 °C 8,3 °C 94 % 1015,8 hPa 0,0 mm 0,0 km/h (0 Bft) W-SW 244 ° 0 min 0,000 mm 0,0 UV-I 0 W/m² 7,4 °C 8,3 °C 0,0 km/h (0 Bft)
03.09.2017 20:12 8,2 °C 8,3 °C 94 % 1015,8 hPa 0,0 mm 0,0 km/h (0 Bft) W-SW 244 ° 0 min 0,000 mm 0,0 UV-I 0 W/m² 7,3 °C 8,2 °C 0,0 km/h (0 Bft)
03.09.2017 20:13 8,3 °C 8,3 °C 94 % 1015,8 hPa 0,0 mm 0,0 km/h (0 Bft) W-SW 244 ° 0 min 0,000 mm 0,0 UV-I 0 W/m² 7,4 °C 8,3 °C 0,0 km/h (0 Bft)
03.09.2017 20:14 8,2 °C 8,3 °C 94 % 1015,8 hPa 0,0 mm 0,0 km/h (0 Bft) W-SW 244 ° 0 min 0,000 mm 0,0 UV-I 0 W/m² 7,3 °C 8,2 °C 0,0 km/h (0 Bft)
03.09.2017 20:15 8,2 °C 8,2 °C 94 % 1015,9 hPa 0,0 mm 0,0 km/h (0 Bft) W-SW 244 ° 0 min 0,000 mm 0,0 UV-I 0 W/m² 7,3 °C 8,2 °C 0,0 km/h (0 Bft)
03.09.2017 20:16 8,2 °C 8,2 °C 94 % 1015,8 hPa 0,0 mm 0,0 km/h (0 Bft) W-SW 244 ° 0 min 0,000 mm 0,0 UV-I 0 W/m² 7,3 °C 8,2 °C 0,0 km/h (0 Bft)
03.09.2017 20:17 8,2 °C 8,2 °C 94 % 1015,9 hPa 0,0 mm 0,0 km/h (0 Bft) W-SW 244 ° 0 min 0,000 mm 0,0 UV-I 0 W/m² 7,3 °C 8,2 °C 0,0 km/h (0 Bft)
03.09.2017 20:18 8,2 °C 8,2 °C 94 % 1015,9 hPa 0,0 mm 0,0 km/h (0 Bft) W-SW 244 ° 0 min 0,000 mm 0,0 UV-I 0 W/m² 7,3 °C 8,2 °C 0,0 km/h (0 Bft)
03.09.2017 20:19 8,1 °C 8,2 °C 94 % 1015,9 hPa 0,0 mm 0,0 km/h (0 Bft) W-SW 244 ° 0 min 0,000 mm 0,0 UV-I 0 W/m² 7,2 °C 8,1 °C 0,0 km/h (0 Bft)
03.09.2017 20:20 8,1 °C 8,2 °C 94 % 1015,9 hPa 0,0 mm 0,0 km/h (0 Bft) W-SW 244 ° 0 min 0,000 mm 0,0 UV-I 0 W/m² 7,2 °C 8,1 °C 0,0 km/h (0 Bft)
03.09.2017 20:21 8,1 °C 8,2 °C 95 % 1015,9 hPa 0,0 mm 0,0 km/h (0 Bft) W-SW 244 ° 0 min 0,000 mm 0,0 UV-I 0 W/m² 7,3 °C 8,1 °C 0,0 km/h (0 Bft)
03.09.2017 20:22 8,2 °C 8,2 °C 95 % 1015,9 hPa 0,0 mm 0,0 km/h (0 Bft) W-SW 244 ° 0 min 0,000 mm 0,0 UV-I 0 W/m² 7,4 °C 8,2 °C 0,0 km/h (0 Bft)
03.09.2017 20:23 8,2 °C 8,2 °C 95 % 1015,9 hPa 0,0 mm 0,0 km/h (0 Bft) W-SW 244 ° 0 min 0,000 mm 0,0 UV-I 0 W/m² 7,4 °C 8,2 °C 0,0 km/h (0 Bft)
03.09.2017 20:24 8,1 °C 8,2 °C 95 % 1015,9 hPa 0,0 mm 0,0 km/h (0 Bft) W-SW 244 ° 0 min 0,000 mm 0,0 UV-I 0 W/m² 7,3 °C 8,1 °C 0,0 km/h (0 Bft)
03.09.2017 20:25 8,2 °C 8,2 °C 95 % 1015,9 hPa 0,0 mm 0,0 km/h (0 Bft) W-SW 244 ° 0 min 0,000 mm 0,0 UV-I 0 W/m² 7,4 °C 8,2 °C 0,0 km/h (0 Bft)
03.09.2017 20:26 8,2 °C 8,2 °C 95 % 1015,9 hPa 0,0 mm 0,0 km/h (0 Bft) W-SW 244 ° 0 min 0,000 mm 0,0 UV-I 0 W/m² 7,4 °C 8,2 °C 0,0 km/h (0 Bft)
03.09.2017 20:27 8,1 °C 8,2 °C 95 % 1015,9 hPa 0,0 mm 0,0 km/h (0 Bft) W-SW 244 ° 0 min 0,000 mm 0,0 UV-I 0 W/m² 7,3 °C 8,1 °C 0,0 km/h (0 Bft)
03.09.2017 20:28 8,1 °C 8,1 °C 95 % 1015,9 hPa 0,0 mm 0,0 km/h (0 Bft) W-SW 244 ° 0 min 0,000 mm 0,0 UV-I 0 W/m² 7,3 °C 8,1 °C 0,0 km/h (0 Bft)
03.09.2017 20:29 8,1 °C 8,1 °C 95 % 1015,9 hPa 0,0 mm 0,0 km/h (0 Bft) W-SW 244 ° 0 min 0,000 mm 0,0 UV-I 0 W/m² 7,3 °C 8,1 °C 0,0 km/h (0 Bft)
03.09.2017 20:30 8,1 °C 8,1 °C 95 % 1015,9 hPa 0,0 mm 0,0 km/h (0 Bft) W-SW 244 ° 0 min 0,000 mm 0,0 UV-I 0 W/m² 7,3 °C 8,1 °C 0,0 km/h (0 Bft)
03.09.2017 20:31 8,1 °C 8,1 °C 95 % 1015,9 hPa 0,0 mm 0,0 km/h (0 Bft) W-SW 244 ° 0 min 0,000 mm 0,0 UV-I 0 W/m² 7,3 °C 8,1 °C 0,0 km/h (0 Bft)
03.09.2017 20:32 8,1 °C 8,1 °C 95 % 1015,9 hPa 0,0 mm 0,0 km/h (0 Bft) W-SW 244 ° 0 min 0,000 mm 0,0 UV-I 0 W/m² 7,3 °C 8,1 °C 0,0 km/h (0 Bft)
03.09.2017 20:33 8,1 °C 8,1 °C 95 % 1015,8 hPa 0,0 mm 0,0 km/h (0 Bft) W-SW 244 ° 0 min 0,000 mm 0,0 UV-I 0 W/m² 7,3 °C 8,1 °C 0,0 km/h (0 Bft)
03.09.2017 20:34 8,1 °C 8,1 °C 95 % 1015,9 hPa 0,0 mm 0,0 km/h (0 Bft) W-SW 244 ° 0 min 0,000 mm 0,0 UV-I 0 W/m² 7,3 °C 8,1 °C 0,0 km/h (0 Bft)
03.09.2017 20:35 8,1 °C 8,1 °C 95 % 1015,9 hPa 0,0 mm 0,0 km/h (0 Bft) W-SW 244 ° 0 min 0,000 mm 0,0 UV-I 0 W/m² 7,3 °C 8,1 °C 0,0 km/h (0 Bft)
03.09.2017 20:36 8,1 °C 8,1 °C 95 % 1015,9 hPa 0,0 mm 0,0 km/h (0 Bft) W-SW 244 ° 0 min 0,000 mm 0,0 UV-I 0 W/m² 7,3 °C 8,1 °C 0,0 km/h (0 Bft)
03.09.2017 20:37 8,1 °C 8,1 °C 95 % 1015,9 hPa 0,0 mm 0,0 km/h (0 Bft) W-SW 244 ° 0 min 0,000 mm 0,0 UV-I 0 W/m² 7,3 °C 8,1 °C 0,0 km/h (0 Bft)
03.09.2017 20:38 8,1 °C 8,1 °C 95 % 1015,8 hPa 0,0 mm 0,0 km/h (0 Bft) W-SW 244 ° 0 min 0,000 mm 0,0 UV-I 0 W/m² 7,3 °C 8,1 °C 0,0 km/h (0 Bft)
03.09.2017 20:39 8,1 °C 8,1 °C 95 % 1015,8 hPa 0,0 mm 0,0 km/h (0 Bft) W-SW 244 ° 0 min 0,000 mm 0,0 UV-I 0 W/m² 7,3 °C 8,1 °C 0,0 km/h (0 Bft)
03.09.2017 20:40 8,2 °C 8,2 °C 95 % 1015,9 hPa 0,0 mm 0,2 km/h (0 Bft) W-SW 244 ° 0 min 0,000 mm 0,0 UV-I 0 W/m² 7,4 °C 8,2 °C 1,6 km/h (1 Bft)
03.09.2017 20:41 8,2 °C 8,2 °C 95 % 1015,9 hPa 0,0 mm 0,0 km/h (0 Bft) W-SW 244 ° 0 min 0,000 mm 0,0 UV-I 0 W/m² 7,4 °C 8,2 °C 0,0 km/h (0 Bft)
03.09.2017 20:42 8,2 °C 8,2 °C 95 % 1015,9 hPa 0,0 mm 0,0 km/h (0 Bft) W-SW 244 ° 0 min 0,000 mm 0,0 UV-I 0 W/m² 7,4 °C 8,2 °C 0,0 km/h (0 Bft)
03.09.2017 20:43 8,1 °C 8,2 °C 95 % 1015,8 hPa 0,0 mm 0,0 km/h (0 Bft) W-SW 244 ° 0 min 0,000 mm 0,0 UV-I 0 W/m² 7,3 °C 8,1 °C 0,0 km/h (0 Bft)
03.09.2017 20:44 8,2 °C 8,2 °C 95 % 1015,8 hPa 0,0 mm 0,0 km/h (0 Bft) W-SW 244 ° 0 min 0,000 mm 0,0 UV-I 0 W/m² 7,4 °C 8,2 °C 0,0 km/h (0 Bft)
03.09.2017 20:45 8,2 °C 8,2 °C 95 % 1015,8 hPa 0,0 mm 0,0 km/h (0 Bft) W-SW 244 ° 0 min 0,000 mm 0,0 UV-I 0 W/m² 7,4 °C 8,2 °C 0,0 km/h (0 Bft)
03.09.2017 20:46 8,2 °C 8,2 °C 95 % 1015,8 hPa 0,0 mm 0,0 km/h (0 Bft) W-SW 244 ° 0 min 0,000 mm 0,0 UV-I 0 W/m² 7,4 °C 8,2 °C 0,0 km/h (0 Bft)
03.09.2017 20:47 8,2 °C 8,2 °C 95 % 1015,8 hPa 0,0 mm 0,0 km/h (0 Bft) W-SW 244 ° 0 min 0,000 mm 0,0 UV-I 0 W/m² 7,4 °C 8,2 °C 0,0 km/h (0 Bft)
03.09.2017 20:48 8,2 °C 8,2 °C 95 % 1015,9 hPa 0,0 mm 0,0 km/h (0 Bft) W-SW 244 ° 0 min 0,000 mm 0,0 UV-I 0 W/m² 7,4 °C 8,2 °C 0,0 km/h (0 Bft)
03.09.2017 20:49 8,2 °C 8,2 °C 95 % 1015,8 hPa 0,0 mm 0,0 km/h (0 Bft) W-SW 244 ° 0 min 0,000 mm 0,0 UV-I 0 W/m² 7,4 °C 8,2 °C 0,0 km/h (0 Bft)
03.09.2017 20:50 8,2 °C 8,2 °C 95 % 1015,9 hPa 0,0 mm 0,0 km/h (0 Bft) W-SW 244 ° 0 min 0,000 mm 0,0 UV-I 0 W/m² 7,4 °C 8,2 °C 0,0 km/h (0 Bft)
03.09.2017 20:51 8,2 °C 8,2 °C 95 % 1015,9 hPa 0,0 mm 0,0 km/h (0 Bft) W-SW 244 ° 0 min 0,000 mm 0,0 UV-I 0 W/m² 7,4 °C 8,2 °C 0,0 km/h (0 Bft)
03.09.2017 20:52 8,1 °C 8,2 °C 95 % 1015,9 hPa 0,0 mm 0,0 km/h (0 Bft) W-SW 244 ° 0 min 0,000 mm 0,0 UV-I 0 W/m² 7,3 °C 8,1 °C 0,0 km/h (0 Bft)
03.09.2017 20:53 8,1 °C 8,1 °C 95 % 1015,9 hPa 0,0 mm 0,0 km/h (0 Bft) W-SW 244 ° 0 min 0,000 mm 0,0 UV-I 0 W/m² 7,3 °C 8,1 °C 0,0 km/h (0 Bft)
03.09.2017 20:54 8,1 °C 8,1 °C 95 % 1015,9 hPa 0,0 mm 0,0 km/h (0 Bft) W-SW 244 ° 0 min 0,000 mm 0,0 UV-I 0 W/m² 7,3 °C 8,1 °C 0,0 km/h (0 Bft)
03.09.2017 20:55 8,0 °C 8,1 °C 95 % 1015,9 hPa 0,0 mm 0,0 km/h (0 Bft) W-SW 244 ° 0 min 0,000 mm 0,0 UV-I 0 W/m² 7,2 °C 8,0 °C 0,0 km/h (0 Bft)
03.09.2017 20:56 7,9 °C 8,0 °C 95 % 1015,9 hPa 0,0 mm 0,0 km/h (0 Bft) W-SW 244 ° 0 min 0,000 mm 0,0 UV-I 0 W/m² 7,1 °C 7,9 °C 0,0 km/h (0 Bft)
03.09.2017 20:57 7,9 °C 7,9 °C 95 % 1015,9 hPa 0,0 mm 0,0 km/h (0 Bft) W-SW 244 ° 0 min 0,000 mm 0,0 UV-I 0 W/m² 7,1 °C 7,9 °C 0,0 km/h (0 Bft)
03.09.2017 20:58 7,8 °C 7,9 °C 95 % 1015,9 hPa 0,0 mm 0,0 km/h (0 Bft) W-SW 244 ° 0 min 0,000 mm 0,0 UV-I 0 W/m² 7,0 °C 7,8 °C 0,0 km/h (0 Bft)
03.09.2017 20:59 7,8 °C 7,8 °C 95 % 1015,9 hPa 0,0 mm 0,0 km/h (0 Bft) W-SW 244 ° 0 min 0,000 mm 0,0 UV-I 0 W/m² 7,0 °C 7,8 °C 0,0 km/h (0 Bft)
03.09.2017 21:00 7,8 °C 7,8 °C 95 % 1015,9 hPa 0,0 mm 0,0 km/h (0 Bft) W-SW 244 ° 0 min 0,000 mm 0,0 UV-I 0 W/m² 7,0 °C 7,8 °C 0,0 km/h (0 Bft)
03.09.2017 21:01 7,8 °C 7,8 °C 95 % 1015,9 hPa 0,0 mm 0,0 km/h (0 Bft) W-SW 244 ° 0 min 0,000 mm 0,0 UV-I 0 W/m² 7,0 °C 7,8 °C 0,0 km/h (0 Bft)
03.09.2017 21:02 7,8 °C 7,8 °C 95 % 1015,9 hPa 0,0 mm 0,0 km/h (0 Bft) W-SW 244 ° 0 min 0,000 mm 0,0 UV-I 0 W/m² 7,0 °C 7,8 °C 0,0 km/h (0 Bft)
03.09.2017 21:03 7,7 °C 7,8 °C 95 % 1015,9 hPa 0,0 mm 0,0 km/h (0 Bft) W-SW 244 ° 0 min 0,000 mm 0,0 UV-I 0 W/m² 7,0 °C 7,7 °C 0,0 km/h (0 Bft)
03.09.2017 21:04 7,7 °C 7,7 °C 95 % 1015,9 hPa 0,0 mm 0,0 km/h (0 Bft) W-SW 244 ° 0 min 0,000 mm 0,0 UV-I 0 W/m² 7,0 °C 7,7 °C 0,0 km/h (0 Bft)
03.09.2017 21:05 7,7 °C 7,7 °C 95 % 1015,9 hPa 0,0 mm 0,0 km/h (0 Bft) W-SW 244 ° 0 min 0,000 mm 0,0 UV-I 0 W/m² 7,0 °C 7,7 °C 0,0 km/h (0 Bft)
03.09.2017 21:06 7,7 °C 7,7 °C 95 % 1015,9 hPa 0,0 mm 0,0 km/h (0 Bft) W-SW 244 ° 0 min 0,000 mm 0,0 UV-I 0 W/m² 7,0 °C 7,7 °C 0,0 km/h (0 Bft)
03.09.2017 21:07 7,7 °C 7,8 °C 95 % 1015,9 hPa 0,0 mm 0,0 km/h (0 Bft) W-SW 244 ° 0 min 0,000 mm 0,0 UV-I 0 W/m² 7,0 °C 7,7 °C 0,0 km/h (0 Bft)
03.09.2017 21:08 7,7 °C 7,8 °C 95 % 1015,9 hPa 0,0 mm 0,0 km/h (0 Bft) W-SW 244 ° 0 min 0,000 mm 0,0 UV-I 0 W/m² 7,0 °C 7,7 °C 0,0 km/h (0 Bft)
03.09.2017 21:09 7,7 °C 7,8 °C 95 % 1015,9 hPa 0,0 mm 0,0 km/h (0 Bft) W-SW 244 ° 0 min 0,000 mm 0,0 UV-I 0 W/m² 7,0 °C 7,7 °C 0,0 km/h (0 Bft)
03.09.2017 21:10 7,7 °C 7,7 °C 95 % 1015,9 hPa 0,0 mm 0,0 km/h (0 Bft) W-SW 244 ° 0 min 0,000 mm 0,0 UV-I 0 W/m² 7,0 °C 7,7 °C 0,0 km/h (0 Bft)
03.09.2017 21:11 7,7 °C 7,7 °C 95 % 1016,0 hPa 0,0 mm 0,0 km/h (0 Bft) W-SW 244 ° 0 min 0,000 mm 0,0 UV-I 0 W/m² 7,0 °C 7,7 °C 0,0 km/h (0 Bft)
03.09.2017 21:12 7,6 °C 7,7 °C 95 % 1015,9 hPa 0,0 mm 0,0 km/h (0 Bft) W-SW 244 ° 0 min 0,000 mm 0,0 UV-I 0 W/m² 6,9 °C 7,6 °C 0,0 km/h (0 Bft)
03.09.2017 21:13 7,6 °C 7,6 °C 95 % 1015,9 hPa 0,0 mm 0,0 km/h (0 Bft) W-SW 244 ° 0 min 0,000 mm 0,0 UV-I 0 W/m² 6,9 °C 7,6 °C 0,0 km/h (0 Bft)
03.09.2017 21:14 7,6 °C 7,6 °C 95 % 1015,9 hPa 0,0 mm 0,0 km/h (0 Bft) W-SW 244 ° 0 min 0,000 mm 0,0 UV-I 0 W/m² 6,9 °C 7,6 °C 0,0 km/h (0 Bft)
03.09.2017 21:15 7,7 °C 7,7 °C 95 % 1015,9 hPa 0,0 mm 0,0 km/h (0 Bft) W-SW 244 ° 0 min 0,000 mm 0,0 UV-I 0 W/m² 7,0 °C 7,7 °C 0,0 km/h (0 Bft)
03.09.2017 21:16 7,7 °C 7,7 °C 95 % 1016,0 hPa 0,0 mm 0,0 km/h (0 Bft) W-SW 244 ° 0 min 0,000 mm 0,0 UV-I 0 W/m² 7,0 °C 7,7 °C 0,0 km/h (0 Bft)
03.09.2017 21:17 7,7 °C 7,7 °C 95 % 1016,0 hPa 0,0 mm 0,0 km/h (0 Bft) W-SW 244 ° 0 min 0,000 mm 0,0 UV-I 0 W/m² 7,0 °C 7,7 °C 0,0 km/h (0 Bft)
03.09.2017 21:18 7,7 °C 7,7 °C 95 % 1016,0 hPa 0,0 mm 0,0 km/h (0 Bft) W-SW 244 ° 0 min 0,000 mm 0,0 UV-I 0 W/m² 7,0 °C 7,7 °C 0,0 km/h (0 Bft)
03.09.2017 21:19 7,7 °C 7,7 °C 95 % 1015,9 hPa 0,0 mm 0,0 km/h (0 Bft) W-SW 244 ° 0 min 0,000 mm 0,0 UV-I 0 W/m² 7,0 °C 7,7 °C 0,0 km/h (0 Bft)
03.09.2017 21:20 7,6 °C 7,7 °C 95 % 1016,0 hPa 0,0 mm 0,0 km/h (0 Bft) W-SW 244 ° 0 min 0,000 mm 0,0 UV-I 0 W/m² 6,9 °C 7,6 °C 0,0 km/h (0 Bft)
03.09.2017 21:21 7,6 °C 7,7 °C 95 % 1015,9 hPa 0,0 mm 0,0 km/h (0 Bft) W-SW 244 ° 0 min 0,000 mm 0,0 UV-I 0 W/m² 6,9 °C 7,6 °C 0,0 km/h (0 Bft)
03.09.2017 21:22 7,5 °C 7,6 °C 95 % 1015,9 hPa 0,0 mm 0,0 km/h (0 Bft) W-SW 244 ° 0 min 0,000 mm 0,0 UV-I 0 W/m² 6,8 °C 7,5 °C 0,0 km/h (0 Bft)
03.09.2017 21:23 7,4 °C 7,5 °C 95 % 1015,9 hPa 0,0 mm 0,0 km/h (0 Bft) W-SW 244 ° 0 min 0,000 mm 0,0 UV-I 0 W/m² 6,7 °C 7,4 °C 0,0 km/h (0 Bft)
03.09.2017 21:24 7,4 °C 7,5 °C 95 % 1015,9 hPa 0,0 mm 0,0 km/h (0 Bft) W-SW 244 ° 0 min 0,000 mm 0,0 UV-I 0 W/m² 6,7 °C 7,4 °C 0,0 km/h (0 Bft)
03.09.2017 21:25 7,4 °C 7,4 °C 95 % 1015,9 hPa 0,0 mm 0,0 km/h (0 Bft) W-SW 244 ° 0 min 0,000 mm 0,0 UV-I 0 W/m² 6,7 °C 7,4 °C 0,0 km/h (0 Bft)
03.09.2017 21:26 7,4 °C 7,4 °C 95 % 1016,0 hPa 0,0 mm 0,0 km/h (0 Bft) W-SW 244 ° 0 min 0,000 mm 0,0 UV-I 0 W/m² 6,7 °C 7,4 °C 0,0 km/h (0 Bft)
03.09.2017 21:27 7,3 °C 7,4 °C 95 % 1015,9 hPa 0,0 mm 0,0 km/h (0 Bft) W-SW 244 ° 0 min 0,000 mm 0,0 UV-I 0 W/m² 6,6 °C 7,3 °C 0,0 km/h (0 Bft)
03.09.2017 21:28 7,4 °C 7,4 °C 95 % 1016,0 hPa 0,0 mm 0,0 km/h (0 Bft) W-SW 244 ° 0 min 0,000 mm 0,0 UV-I 0 W/m² 6,7 °C 7,4 °C 0,0 km/h (0 Bft)
03.09.2017 21:29 7,3 °C 7,4 °C 95 % 1015,9 hPa 0,0 mm 0,1 km/h (0 Bft) W-SW 244 ° 0 min 0,000 mm 0,0 UV-I 0 W/m² 6,6 °C 7,3 °C 1,6 km/h (1 Bft)
03.09.2017 21:30 7,3 °C 7,3 °C 95 % 1015,9 hPa 0,0 mm 2,1 km/h (1 Bft) W-SW 244 ° 0 min 0,000 mm 0,0 UV-I 0 W/m² 6,6 °C 7,3 °C 3,2 km/h (1 Bft)
03.09.2017 21:31 7,3 °C 7,3 °C 95 % 1015,9 hPa 0,0 mm 1,6 km/h (1 Bft) W-SW 244 ° 0 min 0,000 mm 0,0 UV-I 0 W/m² 6,6 °C 7,3 °C 1,6 km/h (1 Bft)
03.09.2017 21:32 7,3 °C 7,3 °C 95 % 1015,9 hPa 0,0 mm 1,0 km/h (0 Bft) W-SW 244 ° 0 min 0,000 mm 0,0 UV-I 0 W/m² 6,6 °C 7,3 °C 3,2 km/h (1 Bft)
03.09.2017 21:33 7,3 °C 7,3 °C 95 % 1015,9 hPa 0,0 mm 0,5 km/h (0 Bft) W-SW 244 ° 0 min 0,000 mm 0,0 UV-I 0 W/m² 6,6 °C 7,3 °C 1,6 km/h (1 Bft)
03.09.2017 21:34 7,3 °C 7,3 °C 95 % 1015,9 hPa 0,0 mm 0,0 km/h (0 Bft) W-SW 244 ° 0 min 0,000 mm 0,0 UV-I 0 W/m² 6,6 °C 7,3 °C 0,0 km/h (0 Bft)
03.09.2017 21:35 7,2 °C 7,3 °C 95 % 1015,9 hPa 0,0 mm 0,2 km/h (0 Bft) W-SW 244 ° 0 min 0,000 mm 0,0 UV-I 0 W/m² 6,5 °C 7,2 °C 1,6 km/h (1 Bft)
03.09.2017 21:36 7,2 °C 7,2 °C 95 % 1015,9 hPa 0,0 mm 0,0 km/h (0 Bft) W-SW 244 ° 0 min 0,000 mm 0,0 UV-I 0 W/m² 6,5 °C 7,2 °C 0,0 km/h (0 Bft)
03.09.2017 21:37 7,2 °C 7,2 °C 95 % 1015,9 hPa 0,0 mm 0,0 km/h (0 Bft) W-SW 244 ° 0 min 0,000 mm 0,0 UV-I 0 W/m² 6,5 °C 7,2 °C 0,0 km/h (0 Bft)
03.09.2017 21:38 7,2 °C 7,2 °C 95 % 1016,0 hPa 0,0 mm 0,1 km/h (0 Bft) W-SW 244 ° 0 min 0,000 mm 0,0 UV-I 0 W/m² 6,5 °C 7,2 °C 1,6 km/h (1 Bft)
03.09.2017 21:39 7,2 °C 7,2 °C 96 % 1016,0 hPa 0,0 mm 0,0 km/h (0 Bft) W-SW 244 ° 0 min 0,000 mm 0,0 UV-I 0 W/m² 6,6 °C 7,2 °C 0,0 km/h (0 Bft)
03.09.2017 21:40 7,2 °C 7,2 °C 96 % 1016,0 hPa 0,0 mm 0,1 km/h (0 Bft) W-SW 244 ° 0 min 0,000 mm 0,0 UV-I 0 W/m² 6,6 °C 7,2 °C 1,6 km/h (1 Bft)
03.09.2017 21:41 7,2 °C 7,3 °C 96 % 1015,9 hPa 0,0 mm 0,0 km/h (0 Bft) W-SW 244 ° 0 min 0,000 mm 0,0 UV-I 0 W/m² 6,6 °C 7,2 °C 0,0 km/h (0 Bft)
03.09.2017 21:42 7,3 °C 7,3 °C 96 % 1015,9 hPa 0,0 mm 0,0 km/h (0 Bft) W-SW 244 ° 0 min 0,000 mm 0,0 UV-I 0 W/m² 6,7 °C 7,3 °C 0,0 km/h (0 Bft)
03.09.2017 21:43 7,3 °C 7,3 °C 96 % 1015,9 hPa 0,0 mm 0,7 km/h (0 Bft) W-SW 244 ° 0 min 0,000 mm 0,0 UV-I 0 W/m² 6,7 °C 7,3 °C 1,6 km/h (1 Bft)
03.09.2017 21:44 7,3 °C 7,3 °C 95 % 1015,9 hPa 0,0 mm 0,3 km/h (0 Bft) W-SW 244 ° 0 min 0,000 mm 0,0 UV-I 0 W/m² 6,6 °C 7,3 °C 1,6 km/h (1 Bft)
03.09.2017 21:45 7,3 °C 7,3 °C 96 % 1015,9 hPa 0,0 mm 1,3 km/h (1 Bft) N-NW 338 ° 0 min 0,000 mm 0,0 UV-I 0 W/m² 6,7 °C 7,3 °C 3,2 km/h (1 Bft)
03.09.2017 21:46 7,3 °C 7,3 °C 96 % 1015,9 hPa 0,0 mm 0,4 km/h (0 Bft) N-NW 338 ° 0 min 0,000 mm 0,0 UV-I 0 W/m² 6,7 °C 7,3 °C 1,6 km/h (1 Bft)
03.09.2017 21:47 7,3 °C 7,3 °C 96 % 1016,0 hPa 0,0 mm 0,0 km/h (0 Bft) N-NW 338 ° 0 min 0,000 mm 0,0 UV-I 0 W/m² 6,7 °C 7,3 °C 0,0 km/h (0 Bft)
03.09.2017 21:48 7,4 °C 7,4 °C 96 % 1016,0 hPa 0,0 mm 0,1 km/h (0 Bft) N-NW 338 ° 0 min 0,000 mm 0,0 UV-I 0 W/m² 6,8 °C 7,4 °C 1,6 km/h (1 Bft)
03.09.2017 21:49 7,4 °C 7,4 °C 96 % 1016,0 hPa 0,0 mm 0,2 km/h (0 Bft) N-NW 338 ° 0 min 0,000 mm 0,0 UV-I 0 W/m² 6,8 °C 7,4 °C 1,6 km/h (1 Bft)
03.09.2017 21:50 7,4 °C 7,4 °C 96 % 1016,0 hPa 0,0 mm 0,7 km/h (0 Bft) N-NW 338 ° 0 min 0,000 mm 0,0 UV-I 0 W/m² 6,8 °C 7,4 °C 3,2 km/h (1 Bft)
03.09.2017 21:51 7,4 °C 7,4 °C 96 % 1016,0 hPa 0,0 mm 0,1 km/h (0 Bft) N-NW 338 ° 0 min 0,000 mm 0,0 UV-I 0 W/m² 6,8 °C 7,4 °C 1,6 km/h (1 Bft)
03.09.2017 21:52 7,4 °C 7,4 °C 96 % 1016,0 hPa 0,0 mm 0,0 km/h (0 Bft) N-NW 338 ° 0 min 0,000 mm 0,0 UV-I 0 W/m² 6,8 °C 7,4 °C 0,0 km/h (0 Bft)
03.09.2017 21:53 7,4 °C 7,4 °C 96 % 1016,0 hPa 0,0 mm 0,0 km/h (0 Bft) N-NW 338 ° 0 min 0,000 mm 0,0 UV-I 0 W/m² 6,8 °C 7,4 °C 0,0 km/h (0 Bft)
03.09.2017 21:54 7,4 °C 7,4 °C 96 % 1016,0 hPa 0,0 mm 0,4 km/h (0 Bft) N-NW 338 ° 0 min 0,000 mm 0,0 UV-I 0 W/m² 6,8 °C 7,4 °C 1,6 km/h (1 Bft)
03.09.2017 21:55 7,4 °C 7,4 °C 96 % 1015,9 hPa 0,0 mm 0,0 km/h (0 Bft) N-NW 337 ° 0 min 0,000 mm 0,0 UV-I 0 W/m² 6,8 °C 7,4 °C 0,0 km/h (0 Bft)
03.09.2017 21:56 7,4 °C 7,4 °C 96 % 1016,1 hPa 0,0 mm 0,0 km/h (0 Bft) N-NW 337 ° 0 min 0,000 mm 0,0 UV-I 0 W/m² 6,8 °C 7,4 °C 0,0 km/h (0 Bft)
03.09.2017 21:57 7,4 °C 7,4 °C 96 % 1016,0 hPa 0,0 mm 0,5 km/h (0 Bft) N-NW 337 ° 0 min 0,000 mm 0,0 UV-I 0 W/m² 6,8 °C 7,4 °C 1,6 km/h (1 Bft)
03.09.2017 21:59 7,5 °C 7,6 °C 96 % 1016,0 hPa 0,0 mm 0,5 km/h (0 Bft) N-NW 337 ° 0 min 0,000 mm 0,0 UV-I 0 W/m² 6,9 °C 7,5 °C 3,2 km/h (1 Bft)
03.09.2017 22:00 7,5 °C 7,6 °C 96 % 1016,0 hPa 0,0 mm 0,1 km/h (0 Bft) N-NW 337 ° 0 min 0,000 mm 0,0 UV-I 0 W/m² 6,9 °C 7,5 °C 1,6 km/h (1 Bft)
03.09.2017 22:01 7,5 °C 7,5 °C 96 % 1015,9 hPa 0,0 mm 0,0 km/h (0 Bft) N-NW 337 ° 0 min 0,000 mm 0,0 UV-I 0 W/m² 6,9 °C 7,5 °C 0,0 km/h (0 Bft)
03.09.2017 22:02 7,5 °C 7,5 °C 96 % 1015,9 hPa 0,0 mm 1,7 km/h (1 Bft) N-NW 337 ° 0 min 0,000 mm 0,0 UV-I 0 W/m² 6,9 °C 7,5 °C 3,2 km/h (1 Bft)
03.09.2017 22:03 7,4 °C 7,5 °C 96 % 1016,0 hPa 0,0 mm 0,0 km/h (0 Bft) N-NW 337 ° 0 min 0,000 mm 0,0 UV-I 0 W/m² 6,8 °C 7,4 °C 0,0 km/h (0 Bft)
03.09.2017 22:04 7,4 °C 7,5 °C 96 % 1016,0 hPa 0,0 mm 0,0 km/h (0 Bft) N-NW 337 ° 0 min 0,000 mm 0,0 UV-I 0 W/m² 6,8 °C 7,4 °C 0,0 km/h (0 Bft)
03.09.2017 22:05 7,5 °C 7,5 °C 96 % 1016,0 hPa 0,0 mm 0,0 km/h (0 Bft) N-NW 337 ° 0 min 0,000 mm 0,0 UV-I 0 W/m² 6,9 °C 7,5 °C 0,0 km/h (0 Bft)
03.09.2017 22:06 7,5 °C 7,5 °C 96 % 1016,0 hPa 0,0 mm 0,0 km/h (0 Bft) N-NW 337 ° 0 min 0,000 mm 0,0 UV-I 0 W/m² 6,9 °C 7,5 °C 0,0 km/h (0 Bft)
03.09.2017 22:07 7,6 °C 7,6 °C 96 % 1016,0 hPa 0,0 mm 0,0 km/h (0 Bft) N-NW 337 ° 0 min 0,000 mm 0,0 UV-I 0 W/m² 7,0 °C 7,6 °C 0,0 km/h (0 Bft)
03.09.2017 22:08 7,6 °C 7,6 °C 96 % 1016,0 hPa 0,0 mm 0,0 km/h (0 Bft) N-NW 337 ° 0 min 0,000 mm 0,0 UV-I 0 W/m² 7,0 °C 7,6 °C 0,0 km/h (0 Bft)
03.09.2017 22:09 7,6 °C 7,6 °C 96 % 1015,9 hPa 0,0 mm 1,4 km/h (1 Bft) N-NW 336 ° 0 min 0,000 mm 0,0 UV-I 0 W/m² 7,0 °C 7,6 °C 3,2 km/h (1 Bft)
03.09.2017 22:10 7,6 °C 7,6 °C 96 % 1016,0 hPa 0,0 mm 1,1 km/h (1 Bft) N-NW 336 ° 0 min 0,000 mm 0,0 UV-I 0 W/m² 7,0 °C 7,6 °C 3,2 km/h (1 Bft)
03.09.2017 22:11 7,6 °C 7,6 °C 96 % 1016,0 hPa 0,0 mm 0,0 km/h (0 Bft) N-NW 336 ° 0 min 0,000 mm 0,0 UV-I 0 W/m² 7,0 °C 7,6 °C 0,0 km/h (0 Bft)
03.09.2017 22:12 7,6 °C 7,6 °C 96 % 1016,1 hPa 0,0 mm 1,2 km/h (1 Bft) N-NW 336 ° 0 min 0,000 mm 0,0 UV-I 0 W/m² 7,0 °C 7,6 °C 3,2 km/h (1 Bft)
03.09.2017 22:13 7,6 °C 7,6 °C 96 % 1016,1 hPa 0,0 mm 0,7 km/h (0 Bft) N-NW 336 ° 0 min 0,000 mm 0,0 UV-I 0 W/m² 7,0 °C 7,6 °C 1,6 km/h (1 Bft)
03.09.2017 22:14 7,6 °C 7,6 °C 96 % 1016,0 hPa 0,0 mm 0,3 km/h (0 Bft) N-NW 336 ° 0 min 0,000 mm 0,0 UV-I 0 W/m² 7,0 °C 7,6 °C 1,6 km/h (1 Bft)
03.09.2017 22:15 7,6 °C 7,6 °C 95 % 1016,0 hPa 0,0 mm 0,0 km/h (0 Bft) N-NW 336 ° 0 min 0,000 mm 0,0 UV-I 0 W/m² 6,9 °C 7,6 °C 0,0 km/h (0 Bft)
03.09.2017 22:16 7,6 °C 7,6 °C 95 % 1016,0 hPa 0,0 mm 0,0 km/h (0 Bft) N-NW 336 ° 0 min 0,000 mm 0,0 UV-I 0 W/m² 6,9 °C 7,6 °C 0,0 km/h (0 Bft)
03.09.2017 22:17 7,6 °C 7,6 °C 95 % 1016,0 hPa 0,0 mm 0,0 km/h (0 Bft) N-NW 336 ° 0 min 0,000 mm 0,0 UV-I 0 W/m² 6,9 °C 7,6 °C 0,0 km/h (0 Bft)
03.09.2017 22:18 7,6 °C 7,6 °C 95 % 1016,0 hPa 0,0 mm 0,0 km/h (0 Bft) N-NW 336 ° 0 min 0,000 mm 0,0 UV-I 0 W/m² 6,9 °C 7,6 °C 0,0 km/h (0 Bft)
03.09.2017 22:19 7,6 °C 7,6 °C 95 % 1016,0 hPa 0,0 mm 0,0 km/h (0 Bft) N-NW 336 ° 0 min 0,000 mm 0,0 UV-I 0 W/m² 6,9 °C 7,6 °C 0,0 km/h (0 Bft)
03.09.2017 22:20 7,6 °C 7,6 °C 95 % 1016,0 hPa 0,0 mm 0,0 km/h (0 Bft) N-NW 336 ° 0 min 0,000 mm 0,0 UV-I 0 W/m² 6,9 °C 7,6 °C 0,0 km/h (0 Bft)
03.09.2017 22:21 7,5 °C 7,6 °C 95 % 1016,0 hPa 0,0 mm 0,0 km/h (0 Bft) N-NW 336 ° 0 min 0,000 mm 0,0 UV-I 0 W/m² 6,8 °C 7,5 °C 0,0 km/h (0 Bft)
03.09.2017 22:22 7,5 °C 7,5 °C 95 % 1016,0 hPa 0,0 mm 0,0 km/h (0 Bft) N-NW 336 ° 0 min 0,000 mm 0,0 UV-I 0 W/m² 6,8 °C 7,5 °C 0,0 km/h (0 Bft)
03.09.2017 22:23 7,4 °C 7,5 °C 95 % 1016,0 hPa 0,0 mm 0,0 km/h (0 Bft) N-NW 336 ° 0 min 0,000 mm 0,0 UV-I 0 W/m² 6,7 °C 7,4 °C 0,0 km/h (0 Bft)
03.09.2017 22:24 7,4 °C 7,4 °C 95 % 1016,0 hPa 0,0 mm 0,0 km/h (0 Bft) N-NW 336 ° 0 min 0,000 mm 0,0 UV-I 0 W/m² 6,7 °C 7,4 °C 0,0 km/h (0 Bft)
03.09.2017 22:25 7,4 °C 7,4 °C 95 % 1016,0 hPa 0,0 mm 0,0 km/h (0 Bft) N-NW 336 ° 0 min 0,000 mm 0,0 UV-I 0 W/m² 6,7 °C 7,4 °C 0,0 km/h (0 Bft)
03.09.2017 22:26 7,4 °C 7,4 °C 96 % 1016,0 hPa 0,0 mm 0,1 km/h (0 Bft) N-NW 336 ° 0 min 0,000 mm 0,0 UV-I 0 W/m² 6,8 °C 7,4 °C 1,6 km/h (1 Bft)
03.09.2017 22:27 7,4 °C 7,4 °C 95 % 1016,0 hPa 0,0 mm 0,8 km/h (0 Bft) N-NW 336 ° 0 min 0,000 mm 0,0 UV-I 0 W/m² 6,7 °C 7,4 °C 3,2 km/h (1 Bft)
03.09.2017 22:28 7,4 °C 7,4 °C 95 % 1016,0 hPa 0,0 mm 1,4 km/h (1 Bft) N-NW 336 ° 0 min 0,000 mm 0,0 UV-I 0 W/m² 6,7 °C 7,4 °C 3,2 km/h (1 Bft)
03.09.2017 22:29 7,3 °C 7,4 °C 95 % 1015,9 hPa 0,0 mm 0,3 km/h (0 Bft) N-NW 336 ° 0 min 0,000 mm 0,0 UV-I 0 W/m² 6,6 °C 7,3 °C 1,6 km/h (1 Bft)
03.09.2017 22:30 7,3 °C 7,4 °C 95 % 1016,0 hPa 0,0 mm 0,7 km/h (0 Bft) N-NW 342 ° 0 min 0,000 mm 0,0 UV-I 0 W/m² 6,6 °C 7,3 °C 1,6 km/h (1 Bft)
03.09.2017 22:31 7,3 °C 7,3 °C 95 % 1016,0 hPa 0,0 mm 0,0 km/h (0 Bft) N-NW 342 ° 0 min 0,000 mm 0,0 UV-I 0 W/m² 6,6 °C 7,3 °C 0,0 km/h (0 Bft)
03.09.2017 22:32 7,2 °C 7,3 °C 95 % 1015,9 hPa 0,0 mm 2,2 km/h (1 Bft) N-NW 338 ° 0 min 0,000 mm 0,0 UV-I 0 W/m² 6,5 °C 7,2 °C 4,8 km/h (1 Bft)
03.09.2017 22:33 7,3 °C 7,3 °C 95 % 1015,9 hPa 0,0 mm 1,0 km/h (0 Bft) N-NW 338 ° 0 min 0,000 mm 0,0 UV-I 0 W/m² 6,6 °C 7,3 °C 3,2 km/h (1 Bft)
03.09.2017 22:34 7,2 °C 7,3 °C 95 % 1016,0 hPa 0,0 mm 0,2 km/h (0 Bft) N-NW 338 ° 0 min 0,000 mm 0,0 UV-I 0 W/m² 6,5 °C 7,2 °C 1,6 km/h (1 Bft)
03.09.2017 22:35 7,2 °C 7,2 °C 95 % 1016,0 hPa 0,0 mm 0,6 km/h (0 Bft) N-NW 338 ° 0 min 0,000 mm 0,0 UV-I 0 W/m² 6,5 °C 7,2 °C 1,6 km/h (1 Bft)
03.09.2017 22:36 7,2 °C 7,2 °C 95 % 1016,0 hPa 0,0 mm 0,5 km/h (0 Bft) N-NW 338 ° 0 min 0,000 mm 0,0 UV-I 0 W/m² 6,5 °C 7,2 °C 1,6 km/h (1 Bft)
03.09.2017 22:37 7,2 °C 7,2 °C 95 % 1016,1 hPa 0,0 mm 0,3 km/h (0 Bft) N-NW 338 ° 0 min 0,000 mm 0,0 UV-I 0 W/m² 6,5 °C 7,2 °C 1,6 km/h (1 Bft)
03.09.2017 22:38 7,2 °C 7,2 °C 95 % 1016,1 hPa 0,0 mm 0,0 km/h (0 Bft) N-NW 338 ° 0 min 0,000 mm 0,0 UV-I 0 W/m² 6,5 °C 7,2 °C 0,0 km/h (0 Bft)
03.09.2017 22:39 7,2 °C 7,2 °C 95 % 1016,1 hPa 0,0 mm 0,4 km/h (0 Bft) N-NW 338 ° 0 min 0,000 mm 0,0 UV-I 0 W/m² 6,5 °C 7,2 °C 1,6 km/h (1 Bft)
03.09.2017 22:40 7,2 °C 7,2 °C 95 % 1015,9 hPa 0,0 mm 0,3 km/h (0 Bft) N-NW 338 ° 0 min 0,000 mm 0,0 UV-I 0 W/m² 6,5 °C 7,2 °C 1,6 km/h (1 Bft)
03.09.2017 22:41 7,2 °C 7,2 °C 95 % 1016,0 hPa 0,0 mm 0,0 km/h (0 Bft) N-NW 338 ° 0 min 0,000 mm 0,0 UV-I 0 W/m² 6,5 °C 7,2 °C 0,0 km/h (0 Bft)
03.09.2017 22:42 7,2 °C 7,2 °C 95 % 1016,1 hPa 0,0 mm 0,0 km/h (0 Bft) N-NW 338 ° 0 min 0,000 mm 0,0 UV-I 0 W/m² 6,5 °C 7,2 °C 0,0 km/h (0 Bft)
03.09.2017 22:43 7,2 °C 7,2 °C 95 % 1016,1 hPa 0,0 mm 0,0 km/h (0 Bft) N-NW 338 ° 0 min 0,000 mm 0,0 UV-I 0 W/m² 6,5 °C 7,2 °C 0,0 km/h (0 Bft)
03.09.2017 22:44 7,2 °C 7,2 °C 95 % 1016,1 hPa 0,0 mm 0,0 km/h (0 Bft) N-NW 338 ° 0 min 0,000 mm 0,0 UV-I 0 W/m² 6,5 °C 7,2 °C 0,0 km/h (0 Bft)
03.09.2017 22:45 7,2 °C 7,2 °C 95 % 1016,0 hPa 0,0 mm 0,0 km/h (0 Bft) N-NW 338 ° 0 min 0,000 mm 0,0 UV-I 0 W/m² 6,5 °C 7,2 °C 0,0 km/h (0 Bft)
03.09.2017 22:46 7,2 °C 7,2 °C 96 % 1016,1 hPa 0,0 mm 0,0 km/h (0 Bft) N-NW 338 ° 0 min 0,000 mm 0,0 UV-I 0 W/m² 6,6 °C 7,2 °C 0,0 km/h (0 Bft)
03.09.2017 22:47 7,2 °C 7,2 °C 96 % 1016,1 hPa 0,0 mm 0,0 km/h (0 Bft) N-NW 338 ° 0 min 0,000 mm 0,0 UV-I 0 W/m² 6,6 °C 7,2 °C 0,0 km/h (0 Bft)
03.09.2017 22:48 7,1 °C 7,2 °C 95 % 1016,1 hPa 0,0 mm 0,0 km/h (0 Bft) N-NW 338 ° 0 min 0,000 mm 0,0 UV-I 0 W/m² 6,4 °C 7,1 °C 0,0 km/h (0 Bft)
03.09.2017 22:49 7,1 °C 7,1 °C 95 % 1016,0 hPa 0,0 mm 0,0 km/h (0 Bft) N-NW 338 ° 0 min 0,000 mm 0,0 UV-I 0 W/m² 6,4 °C 7,1 °C 0,0 km/h (0 Bft)
03.09.2017 22:50 7,1 °C 7,1 °C 95 % 1016,0 hPa 0,0 mm 0,0 km/h (0 Bft) N-NW 338 ° 0 min 0,000 mm 0,0 UV-I 0 W/m² 6,4 °C 7,1 °C 0,0 km/h (0 Bft)
03.09.2017 22:51 7,1 °C 7,1 °C 95 % 1016,0 hPa 0,0 mm 0,0 km/h (0 Bft) N-NW 338 ° 0 min 0,000 mm 0,0 UV-I 0 W/m² 6,4 °C 7,1 °C 0,0 km/h (0 Bft)
03.09.2017 22:52 7,1 °C 7,2 °C 96 % 1016,1 hPa 0,0 mm 0,0 km/h (0 Bft) N-NW 338 ° 0 min 0,000 mm 0,0 UV-I 0 W/m² 6,5 °C 7,1 °C 0,0 km/h (0 Bft)
03.09.2017 22:53 7,1 °C 7,2 °C 96 % 1016,0 hPa 0,0 mm 0,1 km/h (0 Bft) N-NW 338 ° 0 min 0,000 mm 0,0 UV-I 0 W/m² 6,5 °C 7,1 °C 1,6 km/h (1 Bft)
03.09.2017 22:54 7,2 °C 7,2 °C 96 % 1016,1 hPa 0,0 mm 1,3 km/h (1 Bft) N-NW 329 ° 0 min 0,000 mm 0,0 UV-I 0 W/m² 6,6 °C 7,2 °C 3,2 km/h (1 Bft)
03.09.2017 22:55 7,2 °C 7,2 °C 96 % 1016,1 hPa 0,0 mm 0,0 km/h (0 Bft) N-NW 329 ° 0 min 0,000 mm 0,0 UV-I 0 W/m² 6,6 °C 7,2 °C 0,0 km/h (0 Bft)
03.09.2017 22:56 7,2 °C 7,2 °C 96 % 1016,1 hPa 0,0 mm 0,0 km/h (0 Bft) N-NW 329 ° 0 min 0,000 mm 0,0 UV-I 0 W/m² 6,6 °C 7,2 °C 0,0 km/h (0 Bft)
03.09.2017 22:57 7,1 °C 7,2 °C 96 % 1016,1 hPa 0,0 mm 2,0 km/h (1 Bft) N-NW 331 ° 0 min 0,000 mm 0,0 UV-I 0 W/m² 6,5 °C 7,1 °C 4,8 km/h (1 Bft)
03.09.2017 22:58 7,2 °C 7,2 °C 96 % 1016,1 hPa 0,0 mm 0,0 km/h (0 Bft) N-NW 331 ° 0 min 0,000 mm 0,0 UV-I 0 W/m² 6,6 °C 7,2 °C 0,0 km/h (0 Bft)
03.09.2017 22:59 7,2 °C 7,2 °C 96 % 1016,1 hPa 0,0 mm 0,1 km/h (0 Bft) N-NW 331 ° 0 min 0,000 mm 0,0 UV-I 0 W/m² 6,6 °C 7,2 °C 1,6 km/h (1 Bft)
03.09.2017 23:00 7,1 °C 7,2 °C 96 % 1016,1 hPa 0,0 mm 0,6 km/h (0 Bft) N-NW 331 ° 0 min 0,000 mm 0,0 UV-I 0 W/m² 6,5 °C 7,1 °C 3,2 km/h (1 Bft)
03.09.2017 23:01 7,2 °C 7,2 °C 96 % 1016,1 hPa 0,0 mm 0,4 km/h (0 Bft) N-NW 331 ° 0 min 0,000 mm 0,0 UV-I 0 W/m² 6,6 °C 7,2 °C 1,6 km/h (1 Bft)
03.09.2017 23:02 7,2 °C 7,2 °C 96 % 1016,1 hPa 0,0 mm 1,5 km/h (1 Bft) N-NW 331 ° 0 min 0,000 mm 0,0 UV-I 0 W/m² 6,6 °C 7,2 °C 3,2 km/h (1 Bft)
03.09.2017 23:03 7,2 °C 7,2 °C 96 % 1016,1 hPa 0,0 mm 0,5 km/h (0 Bft) N-NW 331 ° 0 min 0,000 mm 0,0 UV-I 0 W/m² 6,6 °C 7,2 °C 3,2 km/h (1 Bft)
03.09.2017 23:04 7,2 °C 7,2 °C 96 % 1016,1 hPa 0,0 mm 0,0 km/h (0 Bft) N-NW 331 ° 0 min 0,000 mm 0,0 UV-I 0 W/m² 6,6 °C 7,2 °C 0,0 km/h (0 Bft)
03.09.2017 23:05 7,1 °C 7,2 °C 95 % 1016,1 hPa 0,0 mm 0,0 km/h (0 Bft) N-NW 331 ° 0 min 0,000 mm 0,0 UV-I 0 W/m² 6,4 °C 7,1 °C 0,0 km/h (0 Bft)
03.09.2017 23:06 7,1 °C 7,1 °C 95 % 1016,1 hPa 0,0 mm 0,0 km/h (0 Bft) N-NW 331 ° 0 min 0,000 mm 0,0 UV-I 0 W/m² 6,4 °C 7,1 °C 0,0 km/h (0 Bft)
03.09.2017 23:07 7,1 °C 7,1 °C 95 % 1016,1 hPa 0,0 mm 0,0 km/h (0 Bft) N-NW 331 ° 0 min 0,000 mm 0,0 UV-I 0 W/m² 6,4 °C 7,1 °C 0,0 km/h (0 Bft)
03.09.2017 23:08 7,1 °C 7,1 °C 95 % 1016,1 hPa 0,0 mm 0,0 km/h (0 Bft) N-NW 331 ° 0 min 0,000 mm 0,0 UV-I 0 W/m² 6,4 °C 7,1 °C 0,0 km/h (0 Bft)
03.09.2017 23:09 7,1 °C 7,1 °C 96 % 1016,1 hPa 0,0 mm 0,0 km/h (0 Bft) N-NW 331 ° 0 min 0,000 mm 0,0 UV-I 0 W/m² 6,5 °C 7,1 °C 0,0 km/h (0 Bft)
03.09.2017 23:10 7,1 °C 7,1 °C 95 % 1016,1 hPa 0,0 mm 0,0 km/h (0 Bft) N-NW 331 ° 0 min 0,000 mm 0,0 UV-I 0 W/m² 6,4 °C 7,1 °C 0,0 km/h (0 Bft)
03.09.2017 23:11 7,1 °C 7,1 °C 95 % 1016,1 hPa 0,0 mm 0,0 km/h (0 Bft) N-NW 331 ° 0 min 0,000 mm 0,0 UV-I 0 W/m² 6,4 °C 7,1 °C 0,0 km/h (0 Bft)
03.09.2017 23:12 7,2 °C 7,2 °C 96 % 1016,1 hPa 0,0 mm 0,0 km/h (0 Bft) N-NW 331 ° 0 min 0,000 mm 0,0 UV-I 0 W/m² 6,6 °C 7,2 °C 0,0 km/h (0 Bft)
03.09.2017 23:13 7,2 °C 7,2 °C 96 % 1016,1 hPa 0,0 mm 0,0 km/h (0 Bft) N-NW 331 ° 0 min 0,000 mm 0,0 UV-I 0 W/m² 6,6 °C 7,2 °C 0,0 km/h (0 Bft)
03.09.2017 23:14 7,2 °C 7,2 °C 96 % 1016,1 hPa 0,0 mm 0,0 km/h (0 Bft) N-NW 331 ° 0 min 0,000 mm 0,0 UV-I 0 W/m² 6,6 °C 7,2 °C 0,0 km/h (0 Bft)
03.09.2017 23:15 7,2 °C 7,2 °C 96 % 1016,1 hPa 0,0 mm 0,0 km/h (0 Bft) N-NW 331 ° 0 min 0,000 mm 0,0 UV-I 0 W/m² 6,6 °C 7,2 °C 0,0 km/h (0 Bft)
03.09.2017 23:16 7,2 °C 7,2 °C 95 % 1016,1 hPa 0,0 mm 0,0 km/h (0 Bft) N-NW 331 ° 0 min 0,000 mm 0,0 UV-I 0 W/m² 6,5 °C 7,2 °C 0,0 km/h (0 Bft)
03.09.2017 23:17 7,1 °C 7,2 °C 95 % 1016,1 hPa 0,0 mm 0,0 km/h (0 Bft) N-NW 331 ° 0 min 0,000 mm 0,0 UV-I 0 W/m² 6,4 °C 7,1 °C 0,0 km/h (0 Bft)
03.09.2017 23:18 7,1 °C 7,2 °C 95 % 1016,1 hPa 0,0 mm 0,0 km/h (0 Bft) N-NW 331 ° 0 min 0,000 mm 0,0 UV-I 0 W/m² 6,4 °C 7,1 °C 0,0 km/h (0 Bft)
03.09.2017 23:19 7,1 °C 7,2 °C 95 % 1016,1 hPa 0,0 mm 0,0 km/h (0 Bft) N-NW 331 ° 0 min 0,000 mm 0,0 UV-I 0 W/m² 6,4 °C 7,1 °C 0,0 km/h (0 Bft)
03.09.2017 23:20 7,1 °C 7,1 °C 95 % 1016,1 hPa 0,0 mm 0,0 km/h (0 Bft) N-NW 331 ° 0 min 0,000 mm 0,0 UV-I 0 W/m² 6,4 °C 7,1 °C 0,0 km/h (0 Bft)
03.09.2017 23:21 7,1 °C 7,1 °C 96 % 1016,1 hPa 0,0 mm 0,0 km/h (0 Bft) N-NW 331 ° 0 min 0,000 mm 0,0 UV-I 0 W/m² 6,5 °C 7,1 °C 0,0 km/h (0 Bft)
03.09.2017 23:22 7,1 °C 7,1 °C 95 % 1016,1 hPa 0,0 mm 0,0 km/h (0 Bft) N-NW 331 ° 0 min 0,000 mm 0,0 UV-I 0 W/m² 6,4 °C 7,1 °C 0,0 km/h (0 Bft)
03.09.2017 23:23 7,1 °C 7,1 °C 95 % 1016,1 hPa 0,0 mm 0,0 km/h (0 Bft) N-NW 331 ° 0 min 0,000 mm 0,0 UV-I 0 W/m² 6,4 °C 7,1 °C 0,0 km/h (0 Bft)
03.09.2017 23:24 7,1 °C 7,1 °C 95 % 1016,2 hPa 0,0 mm 0,0 km/h (0 Bft) N-NW 331 ° 0 min 0,000 mm 0,0 UV-I 0 W/m² 6,4 °C 7,1 °C 0,0 km/h (0 Bft)
03.09.2017 23:25 7,0 °C 7,1 °C 95 % 1016,1 hPa 0,0 mm 0,0 km/h (0 Bft) N-NW 331 ° 0 min 0,000 mm 0,0 UV-I 0 W/m² 6,3 °C 7,0 °C 0,0 km/h (0 Bft)
03.09.2017 23:26 6,9 °C 7,0 °C 95 % 1016,1 hPa 0,0 mm 0,0 km/h (0 Bft) N-NW 331 ° 0 min 0,000 mm 0,0 UV-I 0 W/m² 6,2 °C 6,9 °C 0,0 km/h (0 Bft)
03.09.2017 23:27 6,9 °C 6,9 °C 95 % 1016,2 hPa 0,0 mm 0,0 km/h (0 Bft) N-NW 331 ° 0 min 0,000 mm 0,0 UV-I 0 W/m² 6,2 °C 6,9 °C 0,0 km/h (0 Bft)
03.09.2017 23:28 6,8 °C 6,9 °C 95 % 1016,1 hPa 0,0 mm 0,0 km/h (0 Bft) N-NW 331 ° 0 min 0,000 mm 0,0 UV-I 0 W/m² 6,1 °C 6,8 °C 0,0 km/h (0 Bft)
03.09.2017 23:29 6,8 °C 6,9 °C 95 % 1016,1 hPa 0,0 mm 0,0 km/h (0 Bft) N-NW 331 ° 0 min 0,000 mm 0,0 UV-I 0 W/m² 6,1 °C 6,8 °C 0,0 km/h (0 Bft)
03.09.2017 23:30 6,9 °C 6,9 °C 95 % 1016,1 hPa 0,0 mm 0,0 km/h (0 Bft) N-NW 331 ° 0 min 0,000 mm 0,0 UV-I 0 W/m² 6,2 °C 6,9 °C 0,0 km/h (0 Bft)
03.09.2017 23:31 6,8 °C 6,9 °C 95 % 1016,1 hPa 0,0 mm 0,0 km/h (0 Bft) N-NW 331 ° 0 min 0,000 mm 0,0 UV-I 0 W/m² 6,1 °C 6,8 °C 0,0 km/h (0 Bft)
03.09.2017 23:32 6,8 °C 6,9 °C 95 % 1016,1 hPa 0,0 mm 0,0 km/h (0 Bft) N-NW 331 ° 0 min 0,000 mm 0,0 UV-I 0 W/m² 6,1 °C 6,8 °C 0,0 km/h (0 Bft)
03.09.2017 23:33 6,8 °C 6,9 °C 95 % 1016,1 hPa 0,0 mm 0,0 km/h (0 Bft) N-NW 331 ° 0 min 0,000 mm 0,0 UV-I 0 W/m² 6,1 °C 6,8 °C 0,0 km/h (0 Bft)
03.09.2017 23:34 6,8 °C 6,9 °C 95 % 1016,2 hPa 0,0 mm 0,0 km/h (0 Bft) N-NW 331 ° 0 min 0,000 mm 0,0 UV-I 0 W/m² 6,1 °C 6,8 °C 0,0 km/h (0 Bft)
03.09.2017 23:35 6,8 °C 6,8 °C 95 % 1016,2 hPa 0,0 mm 0,0 km/h (0 Bft) N-NW 331 ° 0 min 0,000 mm 0,0 UV-I 0 W/m² 6,1 °C 6,8 °C 0,0 km/h (0 Bft)
03.09.2017 23:36 6,8 °C 6,8 °C 95 % 1016,2 hPa 0,0 mm 0,0 km/h (0 Bft) N-NW 331 ° 0 min 0,000 mm 0,0 UV-I 0 W/m² 6,1 °C 6,8 °C 0,0 km/h (0 Bft)
03.09.2017 23:37 6,8 °C 6,8 °C 95 % 1016,1 hPa 0,0 mm 0,0 km/h (0 Bft) N-NW 331 ° 0 min 0,000 mm 0,0 UV-I 0 W/m² 6,1 °C 6,8 °C 0,0 km/h (0 Bft)
03.09.2017 23:38 6,8 °C 6,8 °C 95 % 1016,1 hPa 0,0 mm 0,0 km/h (0 Bft) N-NW 331 ° 0 min 0,000 mm 0,0 UV-I 0 W/m² 6,1 °C 6,8 °C 0,0 km/h (0 Bft)
03.09.2017 23:39 6,7 °C 6,8 °C 95 % 1016,1 hPa 0,0 mm 0,0 km/h (0 Bft) N-NW 331 ° 0 min 0,000 mm 0,0 UV-I 0 W/m² 6,0 °C 6,7 °C 0,0 km/h (0 Bft)
03.09.2017 23:40 6,7 °C 6,8 °C 95 % 1016,0 hPa 0,0 mm 0,0 km/h (0 Bft) N-NW 331 ° 0 min 0,000 mm 0,0 UV-I 0 W/m² 6,0 °C 6,7 °C 0,0 km/h (0 Bft)
03.09.2017 23:41 6,7 °C 6,8 °C 95 % 1016,0 hPa 0,0 mm 0,0 km/h (0 Bft) N-NW 331 ° 0 min 0,000 mm 0,0 UV-I 0 W/m² 6,0 °C 6,7 °C 0,0 km/h (0 Bft)
03.09.2017 23:42 6,7 °C 6,8 °C 95 % 1016,1 hPa 0,0 mm 0,0 km/h (0 Bft) N-NW 331 ° 0 min 0,000 mm 0,0 UV-I 0 W/m² 6,0 °C 6,7 °C 0,0 km/h (0 Bft)
03.09.2017 23:43 6,7 °C 6,7 °C 95 % 1016,0 hPa 0,0 mm 0,8 km/h (0 Bft) N-NW 331 ° 0 min 0,000 mm 0,0 UV-I 0 W/m² 6,0 °C 6,7 °C 3,2 km/h (1 Bft)
03.09.2017 23:44 6,7 °C 6,7 °C 95 % 1016,0 hPa 0,0 mm 0,6 km/h (0 Bft) N-NW 331 ° 0 min 0,000 mm 0,0 UV-I 0 W/m² 6,0 °C 6,7 °C 1,6 km/h (1 Bft)
03.09.2017 23:45 6,7 °C 6,7 °C 95 % 1016,0 hPa 0,0 mm 0,0 km/h (0 Bft) N-NW 331 ° 0 min 0,000 mm 0,0 UV-I 0 W/m² 6,0 °C 6,7 °C 0,0 km/h (0 Bft)
03.09.2017 23:46 6,6 °C 6,7 °C 95 % 1016,0 hPa 0,0 mm 0,0 km/h (0 Bft) N-NW 331 ° 0 min 0,000 mm 0,0 UV-I 0 W/m² 5,9 °C 6,6 °C 0,0 km/h (0 Bft)
03.09.2017 23:47 6,6 °C 6,7 °C 95 % 1016,1 hPa 0,0 mm 0,1 km/h (0 Bft) N-NW 331 ° 0 min 0,000 mm 0,0 UV-I 0 W/m² 5,9 °C 6,6 °C 1,6 km/h (1 Bft)
03.09.2017 23:48 6,6 °C 6,7 °C 95 % 1016,1 hPa 0,0 mm 0,0 km/h (0 Bft) N-NW 331 ° 0 min 0,000 mm 0,0 UV-I 0 W/m² 5,9 °C 6,6 °C 0,0 km/h (0 Bft)
03.09.2017 23:49 6,6 °C 6,6 °C 95 % 1016,1 hPa 0,0 mm 0,1 km/h (0 Bft) N-NW 331 ° 0 min 0,000 mm 0,0 UV-I 0 W/m² 5,9 °C 6,6 °C 1,6 km/h (1 Bft)
03.09.2017 23:50 6,6 °C 6,6 °C 95 % 1016,1 hPa 0,0 mm 0,0 km/h (0 Bft) N-NW 331 ° 0 min 0,000 mm 0,0 UV-I 0 W/m² 5,9 °C 6,6 °C 0,0 km/h (0 Bft)
03.09.2017 23:51 6,7 °C 6,7 °C 95 % 1016,1 hPa 0,0 mm 0,1 km/h (0 Bft) N-NW 331 ° 0 min 0,000 mm 0,0 UV-I 0 W/m² 6,0 °C 6,7 °C 1,6 km/h (1 Bft)
03.09.2017 23:52 6,8 °C 6,8 °C 95 % 1016,1 hPa 0,0 mm 0,4 km/h (0 Bft) N-NW 331 ° 0 min 0,000 mm 0,0 UV-I 0 W/m² 6,1 °C 6,8 °C 3,2 km/h (1 Bft)
03.09.2017 23:53 6,8 °C 6,8 °C 96 % 1016,1 hPa 0,0 mm 0,1 km/h (0 Bft) N-NW 331 ° 0 min 0,000 mm 0,0 UV-I 0 W/m² 6,2 °C 6,8 °C 1,6 km/h (1 Bft)
03.09.2017 23:54 6,9 °C 6,9 °C 96 % 1016,0 hPa 0,0 mm 0,0 km/h (0 Bft) N-NW 331 ° 0 min 0,000 mm 0,0 UV-I 0 W/m² 6,3 °C 6,9 °C 0,0 km/h (0 Bft)
03.09.2017 23:55 6,8 °C 6,9 °C 96 % 1016,1 hPa 0,0 mm 0,5 km/h (0 Bft) N-NW 331 ° 0 min 0,000 mm 0,0 UV-I 0 W/m² 6,2 °C 6,8 °C 1,6 km/h (1 Bft)
03.09.2017 23:56 6,8 °C 6,8 °C 96 % 1016,0 hPa 0,0 mm 0,5 km/h (0 Bft) N-NW 331 ° 0 min 0,000 mm 0,0 UV-I 0 W/m² 6,2 °C 6,8 °C 1,6 km/h (1 Bft)
03.09.2017 23:57 6,8 °C 6,8 °C 96 % 1016,1 hPa 0,0 mm 0,0 km/h (0 Bft) N-NW 331 ° 0 min 0,000 mm 0,0 UV-I 0 W/m² 6,2 °C 6,8 °C 0,0 km/h (0 Bft)
03.09.2017 23:58 6,8 °C 6,8 °C 96 % 1016,0 hPa 0,0 mm 0,0 km/h (0 Bft) N-NW 331 ° 0 min 0,000 mm 0,0 UV-I 0 W/m² 6,2 °C 6,8 °C 0,0 km/h (0 Bft)
03.09.2017 23:59 6,8 °C 6,8 °C 96 % 1016,1 hPa 0,0 mm 0,0 km/h (0 Bft) N-NW 331 ° 0 min 0,000 mm 0,0 UV-I 0 W/m² 6,2 °C 6,8 °C 0,0 km/h (0 Bft)
_ Min-Zeit 23:50 23:50 15:12 19:29 - 23:59 - - - - - - 23:50 03:31 23:59
Minimum _ 6,6 °C 6,6 °C 73 % 1015,7 hPa - 0,0 km/h (0 Bft) - - - - - - 5,9 °C 5,9 °C 0,0 km/h (0 Bft)
_ Max-Zeit 15:02 15:03 23:59 10:04 19:19 11:40 - - 16:17 13:01 12:30 13:27 12:26 15:02 11:45
Maximum _ 12,8 °C 12,8 °C 96 % 1017,5 hPa 0,2 mm 11,3 km/h
W (2 Bft)
- - 1 min 0,254 mm 5,6 UV-I 1028 W/m² 10,3 °C 12,8 °C 16,1 km/h
W (3 Bft)
Durchschnitt _ 9,0 °C 9,1 °C 92 % 1016,5 hPa #7,6 mm 2,4 km/h (1 Bft) W - #3:01 h #1,194 mm 1,8 UV-I 97 W/m² 7,8 °C 9,0 °C 4,3 km/h (1 Bft)